<?xml version="1.0" encoding="UTF-8" standalone="no" ?>
<gpx xmlns="http://www.topografix.com/GPX/1/1" xmlns:xsi="http://www.w3.org/2001/XMLSchema-instance" xsi:schemaLocation="http://www.topografix.com/GPX/1/1 http://www.topografix.com/GPX/1/1/gpx.xsd" version="1.1" creator="VisuGPX - https://www.visugpx.com">
  <metadata>
    <name>06-D-Mandelieu</name>
    <desc><![CDATA[06-D-Mandelieu : Les Suvières par les Clavettes
2022-11-06]]></desc>
  </metadata>
  <trk>
    <name><![CDATA[2022-11-06-D-Mandelieu]]></name>
    <extensions>
      <line xmlns="http://www.topografix.com/GPX/gpx_style/0/2">
        <width>4</width>
      </line>
    </extensions>
    <trkseg>
      <trkpt lat="43.5231" lon="6.89524">
        <ele>44.5</ele>
        <time>2022-11-06T08:54:07.000Z</time>
      </trkpt>
      <trkpt lat="43.52309" lon="6.89524">
        <ele>44.4</ele>
        <time>2022-11-06T08:54:08.000Z</time>
      </trkpt>
      <trkpt lat="43.52309" lon="6.89524">
        <ele>44.4</ele>
        <time>2022-11-06T08:54:09.000Z</time>
      </trkpt>
      <trkpt lat="43.52309" lon="6.89524">
        <ele>44.3</ele>
        <time>2022-11-06T08:54:11.000Z</time>
      </trkpt>
      <trkpt lat="43.52309" lon="6.89524">
        <ele>44.4</ele>
        <time>2022-11-06T08:54:12.000Z</time>
      </trkpt>
      <trkpt lat="43.52309" lon="6.89524">
        <ele>44.6</ele>
        <time>2022-11-06T08:54:14.000Z</time>
      </trkpt>
      <trkpt lat="43.52309" lon="6.89524">
        <ele>44.6</ele>
        <time>2022-11-06T08:54:16.000Z</time>
      </trkpt>
      <trkpt lat="43.52309" lon="6.89524">
        <ele>43.6</ele>
        <time>2022-11-06T08:54:22.000Z</time>
      </trkpt>
      <trkpt lat="43.52309" lon="6.89524">
        <ele>43.7</ele>
        <time>2022-11-06T08:54:23.000Z</time>
      </trkpt>
      <trkpt lat="43.52309" lon="6.89524">
        <ele>43.6</ele>
        <time>2022-11-06T08:54:24.000Z</time>
      </trkpt>
      <trkpt lat="43.52309" lon="6.89525">
        <ele>43.9</ele>
        <time>2022-11-06T08:54:27.000Z</time>
      </trkpt>
      <trkpt lat="43.52309" lon="6.89525">
        <ele>43.9</ele>
        <time>2022-11-06T08:54:29.000Z</time>
      </trkpt>
      <trkpt lat="43.52309" lon="6.89525">
        <ele>43.8</ele>
        <time>2022-11-06T08:54:30.000Z</time>
      </trkpt>
      <trkpt lat="43.52309" lon="6.89525">
        <ele>43.8</ele>
        <time>2022-11-06T08:54:30.000Z</time>
      </trkpt>
      <trkpt lat="43.52309" lon="6.89525">
        <ele>43.7</ele>
        <time>2022-11-06T08:54:49.000Z</time>
      </trkpt>
      <trkpt lat="43.52309" lon="6.89525">
        <ele>43.7</ele>
        <time>2022-11-06T08:54:51.000Z</time>
      </trkpt>
      <trkpt lat="43.52309" lon="6.89524">
        <ele>43.5</ele>
        <time>2022-11-06T08:55:10.000Z</time>
      </trkpt>
      <trkpt lat="43.52313" lon="6.89524">
        <ele>43.9</ele>
        <time>2022-11-06T08:55:15.000Z</time>
      </trkpt>
      <trkpt lat="43.52313" lon="6.89524">
        <ele>44</ele>
        <time>2022-11-06T08:55:19.000Z</time>
      </trkpt>
      <trkpt lat="43.52313" lon="6.89524">
        <ele>44</ele>
        <time>2022-11-06T08:55:20.000Z</time>
      </trkpt>
      <trkpt lat="43.52313" lon="6.89524">
        <ele>44.2</ele>
        <time>2022-11-06T08:55:22.000Z</time>
      </trkpt>
      <trkpt lat="43.52314" lon="6.89524">
        <ele>44</ele>
        <time>2022-11-06T08:55:25.000Z</time>
      </trkpt>
      <trkpt lat="43.52315" lon="6.89524">
        <ele>44</ele>
        <time>2022-11-06T08:55:26.000Z</time>
      </trkpt>
      <trkpt lat="43.52316" lon="6.89522">
        <ele>44</ele>
        <time>2022-11-06T08:55:32.000Z</time>
      </trkpt>
      <trkpt lat="43.52316" lon="6.89522">
        <ele>43.9</ele>
        <time>2022-11-06T08:55:33.000Z</time>
      </trkpt>
      <trkpt lat="43.52316" lon="6.89522">
        <ele>43.9</ele>
        <time>2022-11-06T08:55:34.000Z</time>
      </trkpt>
      <trkpt lat="43.52316" lon="6.89522">
        <ele>43.9</ele>
        <time>2022-11-06T08:55:37.000Z</time>
      </trkpt>
      <trkpt lat="43.52316" lon="6.89522">
        <ele>43.9</ele>
        <time>2022-11-06T08:55:38.000Z</time>
      </trkpt>
      <trkpt lat="43.52316" lon="6.89521">
        <ele>44.3</ele>
        <time>2022-11-06T08:55:44.000Z</time>
      </trkpt>
      <trkpt lat="43.52318" lon="6.89521">
        <ele>44</ele>
        <time>2022-11-06T08:55:49.000Z</time>
      </trkpt>
      <trkpt lat="43.52318" lon="6.89521">
        <ele>44</ele>
        <time>2022-11-06T08:55:52.000Z</time>
      </trkpt>
      <trkpt lat="43.52318" lon="6.89521">
        <ele>44</ele>
        <time>2022-11-06T08:55:53.000Z</time>
      </trkpt>
      <trkpt lat="43.52317" lon="6.8952">
        <ele>44.2</ele>
        <time>2022-11-06T08:56:01.000Z</time>
      </trkpt>
      <trkpt lat="43.52309" lon="6.89523">
        <ele>44.5</ele>
        <time>2022-11-06T08:56:10.000Z</time>
      </trkpt>
      <trkpt lat="43.52307" lon="6.89524">
        <ele>44.2</ele>
        <time>2022-11-06T08:56:13.000Z</time>
      </trkpt>
      <trkpt lat="43.52307" lon="6.89524">
        <ele>43.9</ele>
        <time>2022-11-06T08:56:25.000Z</time>
      </trkpt>
      <trkpt lat="43.52308" lon="6.89528">
        <ele>43.9</ele>
        <time>2022-11-06T08:56:45.000Z</time>
      </trkpt>
      <trkpt lat="43.52308" lon="6.89529">
        <ele>43.9</ele>
        <time>2022-11-06T08:56:46.000Z</time>
      </trkpt>
      <trkpt lat="43.52312" lon="6.89529">
        <ele>44</ele>
        <time>2022-11-06T08:57:05.000Z</time>
      </trkpt>
      <trkpt lat="43.52312" lon="6.89529">
        <ele>44</ele>
        <time>2022-11-06T08:57:06.000Z</time>
      </trkpt>
      <trkpt lat="43.52312" lon="6.89529">
        <ele>43.9</ele>
        <time>2022-11-06T08:57:09.000Z</time>
      </trkpt>
      <trkpt lat="43.52313" lon="6.89528">
        <ele>43.9</ele>
        <time>2022-11-06T08:57:10.000Z</time>
      </trkpt>
      <trkpt lat="43.5231" lon="6.89525">
        <ele>43.8</ele>
        <time>2022-11-06T08:57:22.000Z</time>
      </trkpt>
      <trkpt lat="43.5231" lon="6.89525">
        <ele>44.1</ele>
        <time>2022-11-06T08:57:25.000Z</time>
      </trkpt>
      <trkpt lat="43.5231" lon="6.89525">
        <ele>44.2</ele>
        <time>2022-11-06T08:57:26.000Z</time>
      </trkpt>
      <trkpt lat="43.5231" lon="6.89525">
        <ele>43.8</ele>
        <time>2022-11-06T08:57:46.000Z</time>
      </trkpt>
      <trkpt lat="43.52309" lon="6.89525">
        <ele>43.9</ele>
        <time>2022-11-06T08:57:49.000Z</time>
      </trkpt>
      <trkpt lat="43.52309" lon="6.89525">
        <ele>43.9</ele>
        <time>2022-11-06T08:57:50.000Z</time>
      </trkpt>
      <trkpt lat="43.52309" lon="6.89525">
        <ele>44</ele>
        <time>2022-11-06T08:57:51.000Z</time>
      </trkpt>
      <trkpt lat="43.52309" lon="6.89525">
        <ele>43.8</ele>
        <time>2022-11-06T08:57:55.000Z</time>
      </trkpt>
      <trkpt lat="43.52309" lon="6.89525">
        <ele>44</ele>
        <time>2022-11-06T08:57:58.000Z</time>
      </trkpt>
      <trkpt lat="43.52309" lon="6.89525">
        <ele>43.9</ele>
        <time>2022-11-06T08:58:00.000Z</time>
      </trkpt>
      <trkpt lat="43.52309" lon="6.89524">
        <ele>43.9</ele>
        <time>2022-11-06T08:58:04.000Z</time>
      </trkpt>
      <trkpt lat="43.52309" lon="6.89525">
        <ele>43.9</ele>
        <time>2022-11-06T08:58:06.000Z</time>
      </trkpt>
      <trkpt lat="43.52309" lon="6.89524">
        <ele>43.8</ele>
        <time>2022-11-06T08:58:07.000Z</time>
      </trkpt>
      <trkpt lat="43.52309" lon="6.89524">
        <ele>43.8</ele>
        <time>2022-11-06T08:58:08.000Z</time>
      </trkpt>
      <trkpt lat="43.5231" lon="6.89521">
        <ele>43.6</ele>
        <time>2022-11-06T08:58:14.000Z</time>
      </trkpt>
      <trkpt lat="43.5231" lon="6.89521">
        <ele>43.7</ele>
        <time>2022-11-06T08:58:17.000Z</time>
      </trkpt>
      <trkpt lat="43.52309" lon="6.89522">
        <ele>43.9</ele>
        <time>2022-11-06T08:58:20.000Z</time>
      </trkpt>
      <trkpt lat="43.52309" lon="6.89522">
        <ele>44</ele>
        <time>2022-11-06T08:58:24.000Z</time>
      </trkpt>
      <trkpt lat="43.52308" lon="6.89523">
        <ele>43.8</ele>
        <time>2022-11-06T08:58:30.000Z</time>
      </trkpt>
      <trkpt lat="43.52308" lon="6.89523">
        <ele>43.8</ele>
        <time>2022-11-06T08:58:31.000Z</time>
      </trkpt>
      <trkpt lat="43.52298" lon="6.89526">
        <ele>44.2</ele>
        <time>2022-11-06T08:58:41.000Z</time>
      </trkpt>
      <trkpt lat="43.52289" lon="6.89526">
        <ele>44.7</ele>
        <time>2022-11-06T08:58:48.000Z</time>
      </trkpt>
      <trkpt lat="43.5228" lon="6.89522">
        <ele>44.8</ele>
        <time>2022-11-06T08:59:00.000Z</time>
      </trkpt>
      <trkpt lat="43.52271" lon="6.89518">
        <ele>44.9</ele>
        <time>2022-11-06T08:59:09.000Z</time>
      </trkpt>
      <trkpt lat="43.52271" lon="6.89518">
        <ele>44.9</ele>
        <time>2022-11-06T08:59:13.000Z</time>
      </trkpt>
      <trkpt lat="43.52271" lon="6.89519">
        <ele>45</ele>
        <time>2022-11-06T08:59:14.000Z</time>
      </trkpt>
      <trkpt lat="43.52262" lon="6.89513">
        <ele>44.7</ele>
        <time>2022-11-06T08:59:35.000Z</time>
      </trkpt>
      <trkpt lat="43.52256" lon="6.89503">
        <ele>44.7</ele>
        <time>2022-11-06T08:59:47.000Z</time>
      </trkpt>
      <trkpt lat="43.52253" lon="6.89491">
        <ele>44.8</ele>
        <time>2022-11-06T08:59:57.000Z</time>
      </trkpt>
      <trkpt lat="43.52252" lon="6.89477">
        <ele>44.9</ele>
        <time>2022-11-06T09:00:07.000Z</time>
      </trkpt>
      <trkpt lat="43.52245" lon="6.89469">
        <ele>44.8</ele>
        <time>2022-11-06T09:00:14.000Z</time>
      </trkpt>
      <trkpt lat="43.52235" lon="6.89466">
        <ele>44.4</ele>
        <time>2022-11-06T09:00:21.000Z</time>
      </trkpt>
      <trkpt lat="43.52226" lon="6.89463">
        <ele>43.8</ele>
        <time>2022-11-06T09:00:29.000Z</time>
      </trkpt>
      <trkpt lat="43.52217" lon="6.8946">
        <ele>43.8</ele>
        <time>2022-11-06T09:00:36.000Z</time>
      </trkpt>
      <trkpt lat="43.52209" lon="6.89454">
        <ele>43.9</ele>
        <time>2022-11-06T09:00:46.000Z</time>
      </trkpt>
      <trkpt lat="43.52201" lon="6.89447">
        <ele>44</ele>
        <time>2022-11-06T09:00:54.000Z</time>
      </trkpt>
      <trkpt lat="43.52192" lon="6.89444">
        <ele>44.6</ele>
        <time>2022-11-06T09:01:03.000Z</time>
      </trkpt>
      <trkpt lat="43.52183" lon="6.89442">
        <ele>45.9</ele>
        <time>2022-11-06T09:01:17.000Z</time>
      </trkpt>
      <trkpt lat="43.52179" lon="6.8943">
        <ele>47.4</ele>
        <time>2022-11-06T09:01:31.000Z</time>
      </trkpt>
      <trkpt lat="43.52175" lon="6.89419">
        <ele>49.3</ele>
        <time>2022-11-06T09:01:45.000Z</time>
      </trkpt>
      <trkpt lat="43.52173" lon="6.89406">
        <ele>50.5</ele>
        <time>2022-11-06T09:01:58.000Z</time>
      </trkpt>
      <trkpt lat="43.52167" lon="6.89396">
        <ele>51.7</ele>
        <time>2022-11-06T09:02:08.000Z</time>
      </trkpt>
      <trkpt lat="43.52162" lon="6.89386">
        <ele>53.5</ele>
        <time>2022-11-06T09:02:19.000Z</time>
      </trkpt>
      <trkpt lat="43.52158" lon="6.89374">
        <ele>55.2</ele>
        <time>2022-11-06T09:02:31.000Z</time>
      </trkpt>
      <trkpt lat="43.52157" lon="6.89372">
        <ele>55.6</ele>
        <time>2022-11-06T09:02:34.000Z</time>
      </trkpt>
      <trkpt lat="43.52157" lon="6.89371">
        <ele>55.8</ele>
        <time>2022-11-06T09:02:35.000Z</time>
      </trkpt>
      <trkpt lat="43.52152" lon="6.8936">
        <ele>57.5</ele>
        <time>2022-11-06T09:02:48.000Z</time>
      </trkpt>
      <trkpt lat="43.52144" lon="6.89354">
        <ele>58.3</ele>
        <time>2022-11-06T09:02:56.000Z</time>
      </trkpt>
      <trkpt lat="43.52136" lon="6.89346">
        <ele>59</ele>
        <time>2022-11-06T09:03:05.000Z</time>
      </trkpt>
      <trkpt lat="43.52128" lon="6.89341">
        <ele>60.2</ele>
        <time>2022-11-06T09:03:19.000Z</time>
      </trkpt>
      <trkpt lat="43.5212" lon="6.89336">
        <ele>61.1</ele>
        <time>2022-11-06T09:03:28.000Z</time>
      </trkpt>
      <trkpt lat="43.52111" lon="6.89332">
        <ele>62.3</ele>
        <time>2022-11-06T09:03:41.000Z</time>
      </trkpt>
      <trkpt lat="43.52103" lon="6.89326">
        <ele>63.9</ele>
        <time>2022-11-06T09:03:53.000Z</time>
      </trkpt>
      <trkpt lat="43.52095" lon="6.89321">
        <ele>65.7</ele>
        <time>2022-11-06T09:04:06.000Z</time>
      </trkpt>
      <trkpt lat="43.52086" lon="6.89316">
        <ele>67.5</ele>
        <time>2022-11-06T09:04:19.000Z</time>
      </trkpt>
      <trkpt lat="43.52078" lon="6.8931">
        <ele>69.3</ele>
        <time>2022-11-06T09:04:36.000Z</time>
      </trkpt>
      <trkpt lat="43.5207" lon="6.89304">
        <ele>70.1</ele>
        <time>2022-11-06T09:04:46.000Z</time>
      </trkpt>
      <trkpt lat="43.52061" lon="6.89299">
        <ele>71.4</ele>
        <time>2022-11-06T09:04:57.000Z</time>
      </trkpt>
      <trkpt lat="43.52053" lon="6.89293">
        <ele>72.6</ele>
        <time>2022-11-06T09:05:10.000Z</time>
      </trkpt>
      <trkpt lat="43.52046" lon="6.89286">
        <ele>74.4</ele>
        <time>2022-11-06T09:05:25.000Z</time>
      </trkpt>
      <trkpt lat="43.52046" lon="6.89285">
        <ele>74.3</ele>
        <time>2022-11-06T09:05:26.000Z</time>
      </trkpt>
      <trkpt lat="43.52038" lon="6.8928">
        <ele>75.6</ele>
        <time>2022-11-06T09:05:37.000Z</time>
      </trkpt>
      <trkpt lat="43.52029" lon="6.89275">
        <ele>76.7</ele>
        <time>2022-11-06T09:05:49.000Z</time>
      </trkpt>
      <trkpt lat="43.52021" lon="6.89269">
        <ele>78.1</ele>
        <time>2022-11-06T09:06:01.000Z</time>
      </trkpt>
      <trkpt lat="43.52013" lon="6.89262">
        <ele>79.5</ele>
        <time>2022-11-06T09:06:16.000Z</time>
      </trkpt>
      <trkpt lat="43.52006" lon="6.89255">
        <ele>80.5</ele>
        <time>2022-11-06T09:06:27.000Z</time>
      </trkpt>
      <trkpt lat="43.51999" lon="6.8925">
        <ele>82</ele>
        <time>2022-11-06T09:06:41.000Z</time>
      </trkpt>
      <trkpt lat="43.51999" lon="6.8925">
        <ele>82</ele>
        <time>2022-11-06T09:06:50.000Z</time>
      </trkpt>
      <trkpt lat="43.51999" lon="6.89248">
        <ele>82.1</ele>
        <time>2022-11-06T09:06:53.000Z</time>
      </trkpt>
      <trkpt lat="43.51999" lon="6.89248">
        <ele>81.8</ele>
        <time>2022-11-06T09:06:54.000Z</time>
      </trkpt>
      <trkpt lat="43.51994" lon="6.89243">
        <ele>82.1</ele>
        <time>2022-11-06T09:07:06.000Z</time>
      </trkpt>
      <trkpt lat="43.51994" lon="6.89243">
        <ele>82.3</ele>
        <time>2022-11-06T09:07:07.000Z</time>
      </trkpt>
      <trkpt lat="43.51993" lon="6.89242">
        <ele>82</ele>
        <time>2022-11-06T09:07:13.000Z</time>
      </trkpt>
      <trkpt lat="43.51993" lon="6.89242">
        <ele>82.2</ele>
        <time>2022-11-06T09:07:28.000Z</time>
      </trkpt>
      <trkpt lat="43.51993" lon="6.89242">
        <ele>82.2</ele>
        <time>2022-11-06T09:07:29.000Z</time>
      </trkpt>
      <trkpt lat="43.51992" lon="6.89242">
        <ele>82.1</ele>
        <time>2022-11-06T09:07:56.000Z</time>
      </trkpt>
      <trkpt lat="43.51992" lon="6.89242">
        <ele>82</ele>
        <time>2022-11-06T09:07:57.000Z</time>
      </trkpt>
      <trkpt lat="43.51992" lon="6.89242">
        <ele>81.9</ele>
        <time>2022-11-06T09:07:58.000Z</time>
      </trkpt>
      <trkpt lat="43.51992" lon="6.89255">
        <ele>82.1</ele>
        <time>2022-11-06T09:08:09.000Z</time>
      </trkpt>
      <trkpt lat="43.51994" lon="6.89268">
        <ele>83.1</ele>
        <time>2022-11-06T09:08:19.000Z</time>
      </trkpt>
      <trkpt lat="43.51999" lon="6.8928">
        <ele>84.8</ele>
        <time>2022-11-06T09:08:32.000Z</time>
      </trkpt>
      <trkpt lat="43.52003" lon="6.89291">
        <ele>85.6</ele>
        <time>2022-11-06T09:08:42.000Z</time>
      </trkpt>
      <trkpt lat="43.52009" lon="6.89302">
        <ele>86.8</ele>
        <time>2022-11-06T09:08:52.000Z</time>
      </trkpt>
      <trkpt lat="43.52015" lon="6.89311">
        <ele>87.2</ele>
        <time>2022-11-06T09:09:01.000Z</time>
      </trkpt>
      <trkpt lat="43.52018" lon="6.89324">
        <ele>88.4</ele>
        <time>2022-11-06T09:09:13.000Z</time>
      </trkpt>
      <trkpt lat="43.52021" lon="6.89336">
        <ele>89.6</ele>
        <time>2022-11-06T09:09:24.000Z</time>
      </trkpt>
      <trkpt lat="43.5202" lon="6.89349">
        <ele>91</ele>
        <time>2022-11-06T09:09:37.000Z</time>
      </trkpt>
      <trkpt lat="43.5202" lon="6.89355">
        <ele>91.6</ele>
        <time>2022-11-06T09:09:46.000Z</time>
      </trkpt>
      <trkpt lat="43.5202" lon="6.89354">
        <ele>91.8</ele>
        <time>2022-11-06T09:09:47.000Z</time>
      </trkpt>
      <trkpt lat="43.52014" lon="6.89364">
        <ele>92.6</ele>
        <time>2022-11-06T09:09:59.000Z</time>
      </trkpt>
      <trkpt lat="43.52006" lon="6.89371">
        <ele>93.7</ele>
        <time>2022-11-06T09:10:17.000Z</time>
      </trkpt>
      <trkpt lat="43.52" lon="6.89373">
        <ele>94.3</ele>
        <time>2022-11-06T09:10:28.000Z</time>
      </trkpt>
      <trkpt lat="43.52" lon="6.89373">
        <ele>94.5</ele>
        <time>2022-11-06T09:10:29.000Z</time>
      </trkpt>
      <trkpt lat="43.51993" lon="6.89371">
        <ele>95.3</ele>
        <time>2022-11-06T09:10:41.000Z</time>
      </trkpt>
      <trkpt lat="43.51993" lon="6.89371">
        <ele>95.2</ele>
        <time>2022-11-06T09:10:49.000Z</time>
      </trkpt>
      <trkpt lat="43.51984" lon="6.89372">
        <ele>96.4</ele>
        <time>2022-11-06T09:11:03.000Z</time>
      </trkpt>
      <trkpt lat="43.51981" lon="6.89373">
        <ele>96.8</ele>
        <time>2022-11-06T09:11:08.000Z</time>
      </trkpt>
      <trkpt lat="43.51981" lon="6.89373">
        <ele>96.8</ele>
        <time>2022-11-06T09:11:13.000Z</time>
      </trkpt>
      <trkpt lat="43.51971" lon="6.89371">
        <ele>97.7</ele>
        <time>2022-11-06T09:11:26.000Z</time>
      </trkpt>
      <trkpt lat="43.51962" lon="6.89366">
        <ele>100</ele>
        <time>2022-11-06T09:11:43.000Z</time>
      </trkpt>
      <trkpt lat="43.51953" lon="6.89362">
        <ele>100.8</ele>
        <time>2022-11-06T09:11:52.000Z</time>
      </trkpt>
      <trkpt lat="43.51944" lon="6.89363">
        <ele>101.8</ele>
        <time>2022-11-06T09:12:00.000Z</time>
      </trkpt>
      <trkpt lat="43.51934" lon="6.89364">
        <ele>102.1</ele>
        <time>2022-11-06T09:12:08.000Z</time>
      </trkpt>
      <trkpt lat="43.51925" lon="6.89362">
        <ele>103</ele>
        <time>2022-11-06T09:12:17.000Z</time>
      </trkpt>
      <trkpt lat="43.51916" lon="6.89356">
        <ele>104.7</ele>
        <time>2022-11-06T09:12:32.000Z</time>
      </trkpt>
      <trkpt lat="43.51907" lon="6.89351">
        <ele>106.2</ele>
        <time>2022-11-06T09:12:43.000Z</time>
      </trkpt>
      <trkpt lat="43.51898" lon="6.89345">
        <ele>107.4</ele>
        <time>2022-11-06T09:12:56.000Z</time>
      </trkpt>
      <trkpt lat="43.51891" lon="6.89338">
        <ele>108.7</ele>
        <time>2022-11-06T09:13:07.000Z</time>
      </trkpt>
      <trkpt lat="43.51884" lon="6.89329">
        <ele>109.7</ele>
        <time>2022-11-06T09:13:21.000Z</time>
      </trkpt>
      <trkpt lat="43.51876" lon="6.89322">
        <ele>110.9</ele>
        <time>2022-11-06T09:13:32.000Z</time>
      </trkpt>
      <trkpt lat="43.51869" lon="6.89313">
        <ele>112.4</ele>
        <time>2022-11-06T09:13:47.000Z</time>
      </trkpt>
      <trkpt lat="43.5186" lon="6.89309">
        <ele>113.4</ele>
        <time>2022-11-06T09:13:57.000Z</time>
      </trkpt>
      <trkpt lat="43.51855" lon="6.89307">
        <ele>113.6</ele>
        <time>2022-11-06T09:14:07.000Z</time>
      </trkpt>
      <trkpt lat="43.51855" lon="6.89307">
        <ele>113.6</ele>
        <time>2022-11-06T09:14:08.000Z</time>
      </trkpt>
      <trkpt lat="43.51855" lon="6.89307">
        <ele>113.6</ele>
        <time>2022-11-06T09:14:09.000Z</time>
      </trkpt>
      <trkpt lat="43.51854" lon="6.89308">
        <ele>113.4</ele>
        <time>2022-11-06T09:14:35.000Z</time>
      </trkpt>
      <trkpt lat="43.51854" lon="6.89308">
        <ele>113.4</ele>
        <time>2022-11-06T09:14:36.000Z</time>
      </trkpt>
      <trkpt lat="43.51855" lon="6.89308">
        <ele>113.4</ele>
        <time>2022-11-06T09:14:38.000Z</time>
      </trkpt>
      <trkpt lat="43.51855" lon="6.89308">
        <ele>113.4</ele>
        <time>2022-11-06T09:14:39.000Z</time>
      </trkpt>
      <trkpt lat="43.51855" lon="6.89308">
        <ele>113.5</ele>
        <time>2022-11-06T09:15:02.000Z</time>
      </trkpt>
      <trkpt lat="43.51855" lon="6.89308">
        <ele>113.5</ele>
        <time>2022-11-06T09:15:03.000Z</time>
      </trkpt>
      <trkpt lat="43.51855" lon="6.89308">
        <ele>113.4</ele>
        <time>2022-11-06T09:15:40.000Z</time>
      </trkpt>
      <trkpt lat="43.51855" lon="6.89308">
        <ele>113.2</ele>
        <time>2022-11-06T09:15:41.000Z</time>
      </trkpt>
      <trkpt lat="43.51855" lon="6.89308">
        <ele>113.6</ele>
        <time>2022-11-06T09:15:53.000Z</time>
      </trkpt>
      <trkpt lat="43.51855" lon="6.89308">
        <ele>113.6</ele>
        <time>2022-11-06T09:15:54.000Z</time>
      </trkpt>
      <trkpt lat="43.51855" lon="6.89308">
        <ele>113.6</ele>
        <time>2022-11-06T09:16:12.000Z</time>
      </trkpt>
      <trkpt lat="43.51852" lon="6.89295">
        <ele>114.5</ele>
        <time>2022-11-06T09:16:22.000Z</time>
      </trkpt>
      <trkpt lat="43.5185" lon="6.89282">
        <ele>115.5</ele>
        <time>2022-11-06T09:16:32.000Z</time>
      </trkpt>
      <trkpt lat="43.51847" lon="6.89269">
        <ele>116.1</ele>
        <time>2022-11-06T09:16:41.000Z</time>
      </trkpt>
      <trkpt lat="43.51845" lon="6.89256">
        <ele>117</ele>
        <time>2022-11-06T09:16:51.000Z</time>
      </trkpt>
      <trkpt lat="43.5184" lon="6.89245">
        <ele>118</ele>
        <time>2022-11-06T09:17:01.000Z</time>
      </trkpt>
      <trkpt lat="43.51831" lon="6.89239">
        <ele>119.5</ele>
        <time>2022-11-06T09:17:09.000Z</time>
      </trkpt>
      <trkpt lat="43.51823" lon="6.89233">
        <ele>119.6</ele>
        <time>2022-11-06T09:17:18.000Z</time>
      </trkpt>
      <trkpt lat="43.51817" lon="6.89224">
        <ele>120.7</ele>
        <time>2022-11-06T09:17:28.000Z</time>
      </trkpt>
      <trkpt lat="43.51811" lon="6.89215">
        <ele>122</ele>
        <time>2022-11-06T09:17:37.000Z</time>
      </trkpt>
      <trkpt lat="43.51804" lon="6.89207">
        <ele>122.1</ele>
        <time>2022-11-06T09:17:46.000Z</time>
      </trkpt>
      <trkpt lat="43.51797" lon="6.89196">
        <ele>123.6</ele>
        <time>2022-11-06T09:17:56.000Z</time>
      </trkpt>
      <trkpt lat="43.51789" lon="6.89189">
        <ele>124.4</ele>
        <time>2022-11-06T09:18:05.000Z</time>
      </trkpt>
      <trkpt lat="43.51782" lon="6.89182">
        <ele>125.3</ele>
        <time>2022-11-06T09:18:14.000Z</time>
      </trkpt>
      <trkpt lat="43.51775" lon="6.89173">
        <ele>126.3</ele>
        <time>2022-11-06T09:18:24.000Z</time>
      </trkpt>
      <trkpt lat="43.51768" lon="6.89164">
        <ele>127.2</ele>
        <time>2022-11-06T09:18:32.000Z</time>
      </trkpt>
      <trkpt lat="43.51761" lon="6.89155">
        <ele>128.1</ele>
        <time>2022-11-06T09:18:41.000Z</time>
      </trkpt>
      <trkpt lat="43.51755" lon="6.89145">
        <ele>128.7</ele>
        <time>2022-11-06T09:18:50.000Z</time>
      </trkpt>
      <trkpt lat="43.51749" lon="6.89135">
        <ele>130.2</ele>
        <time>2022-11-06T09:18:59.000Z</time>
      </trkpt>
      <trkpt lat="43.51744" lon="6.89124">
        <ele>131.5</ele>
        <time>2022-11-06T09:19:10.000Z</time>
      </trkpt>
      <trkpt lat="43.51736" lon="6.89117">
        <ele>132.4</ele>
        <time>2022-11-06T09:19:19.000Z</time>
      </trkpt>
      <trkpt lat="43.51728" lon="6.89108">
        <ele>133.9</ele>
        <time>2022-11-06T09:19:28.000Z</time>
      </trkpt>
      <trkpt lat="43.5172" lon="6.89103">
        <ele>134.6</ele>
        <time>2022-11-06T09:19:35.000Z</time>
      </trkpt>
      <trkpt lat="43.51711" lon="6.891">
        <ele>135.3</ele>
        <time>2022-11-06T09:19:43.000Z</time>
      </trkpt>
      <trkpt lat="43.51703" lon="6.89093">
        <ele>136.3</ele>
        <time>2022-11-06T09:19:52.000Z</time>
      </trkpt>
      <trkpt lat="43.517" lon="6.89093">
        <ele>136.3</ele>
        <time>2022-11-06T09:19:57.000Z</time>
      </trkpt>
      <trkpt lat="43.517" lon="6.89093">
        <ele>136.4</ele>
        <time>2022-11-06T09:19:59.000Z</time>
      </trkpt>
      <trkpt lat="43.517" lon="6.89092">
        <ele>136.4</ele>
        <time>2022-11-06T09:20:02.000Z</time>
      </trkpt>
      <trkpt lat="43.51699" lon="6.89092">
        <ele>136.3</ele>
        <time>2022-11-06T09:20:04.000Z</time>
      </trkpt>
      <trkpt lat="43.51699" lon="6.89093">
        <ele>136.5</ele>
        <time>2022-11-06T09:20:06.000Z</time>
      </trkpt>
      <trkpt lat="43.51699" lon="6.89093">
        <ele>136.5</ele>
        <time>2022-11-06T09:20:20.000Z</time>
      </trkpt>
      <trkpt lat="43.51699" lon="6.89093">
        <ele>136.5</ele>
        <time>2022-11-06T09:20:22.000Z</time>
      </trkpt>
      <trkpt lat="43.51699" lon="6.89093">
        <ele>136.5</ele>
        <time>2022-11-06T09:20:24.000Z</time>
      </trkpt>
      <trkpt lat="43.51697" lon="6.89092">
        <ele>136.7</ele>
        <time>2022-11-06T09:20:30.000Z</time>
      </trkpt>
      <trkpt lat="43.51697" lon="6.89092">
        <ele>136.7</ele>
        <time>2022-11-06T09:20:33.000Z</time>
      </trkpt>
      <trkpt lat="43.51695" lon="6.8909">
        <ele>137.1</ele>
        <time>2022-11-06T09:20:40.000Z</time>
      </trkpt>
      <trkpt lat="43.51695" lon="6.8909">
        <ele>137</ele>
        <time>2022-11-06T09:20:49.000Z</time>
      </trkpt>
      <trkpt lat="43.51694" lon="6.89089">
        <ele>137</ele>
        <time>2022-11-06T09:20:53.000Z</time>
      </trkpt>
      <trkpt lat="43.51694" lon="6.8909">
        <ele>137.2</ele>
        <time>2022-11-06T09:20:55.000Z</time>
      </trkpt>
      <trkpt lat="43.51694" lon="6.8909">
        <ele>137.1</ele>
        <time>2022-11-06T09:20:56.000Z</time>
      </trkpt>
      <trkpt lat="43.51694" lon="6.89089">
        <ele>137</ele>
        <time>2022-11-06T09:21:08.000Z</time>
      </trkpt>
      <trkpt lat="43.51694" lon="6.89077">
        <ele>137.9</ele>
        <time>2022-11-06T09:21:20.000Z</time>
      </trkpt>
      <trkpt lat="43.51697" lon="6.89064">
        <ele>139</ele>
        <time>2022-11-06T09:21:31.000Z</time>
      </trkpt>
      <trkpt lat="43.51698" lon="6.89051">
        <ele>140.1</ele>
        <time>2022-11-06T09:21:44.000Z</time>
      </trkpt>
      <trkpt lat="43.51699" lon="6.89039">
        <ele>141.5</ele>
        <time>2022-11-06T09:21:56.000Z</time>
      </trkpt>
      <trkpt lat="43.51699" lon="6.89025">
        <ele>142.3</ele>
        <time>2022-11-06T09:22:08.000Z</time>
      </trkpt>
      <trkpt lat="43.51702" lon="6.89014">
        <ele>143.9</ele>
        <time>2022-11-06T09:22:20.000Z</time>
      </trkpt>
      <trkpt lat="43.51702" lon="6.89014">
        <ele>144</ele>
        <time>2022-11-06T09:22:23.000Z</time>
      </trkpt>
      <trkpt lat="43.51707" lon="6.89003">
        <ele>145</ele>
        <time>2022-11-06T09:22:35.000Z</time>
      </trkpt>
      <trkpt lat="43.51712" lon="6.88992">
        <ele>146</ele>
        <time>2022-11-06T09:22:46.000Z</time>
      </trkpt>
      <trkpt lat="43.51717" lon="6.88982">
        <ele>146.5</ele>
        <time>2022-11-06T09:22:55.000Z</time>
      </trkpt>
      <trkpt lat="43.51723" lon="6.88971">
        <ele>147.2</ele>
        <time>2022-11-06T09:23:05.000Z</time>
      </trkpt>
      <trkpt lat="43.51724" lon="6.88968">
        <ele>147.5</ele>
        <time>2022-11-06T09:23:10.000Z</time>
      </trkpt>
      <trkpt lat="43.51724" lon="6.88968">
        <ele>147.4</ele>
        <time>2022-11-06T09:23:11.000Z</time>
      </trkpt>
      <trkpt lat="43.51724" lon="6.88965">
        <ele>147.7</ele>
        <time>2022-11-06T09:23:16.000Z</time>
      </trkpt>
      <trkpt lat="43.51724" lon="6.88965">
        <ele>147.2</ele>
        <time>2022-11-06T09:23:19.000Z</time>
      </trkpt>
      <trkpt lat="43.51721" lon="6.88954">
        <ele>148.1</ele>
        <time>2022-11-06T09:23:35.000Z</time>
      </trkpt>
      <trkpt lat="43.51715" lon="6.88943">
        <ele>148.5</ele>
        <time>2022-11-06T09:23:46.000Z</time>
      </trkpt>
      <trkpt lat="43.51709" lon="6.88934">
        <ele>149.1</ele>
        <time>2022-11-06T09:23:56.000Z</time>
      </trkpt>
      <trkpt lat="43.51703" lon="6.88924">
        <ele>150.5</ele>
        <time>2022-11-06T09:24:08.000Z</time>
      </trkpt>
      <trkpt lat="43.51697" lon="6.88915">
        <ele>151.5</ele>
        <time>2022-11-06T09:24:19.000Z</time>
      </trkpt>
      <trkpt lat="43.51693" lon="6.88903">
        <ele>152.8</ele>
        <time>2022-11-06T09:24:31.000Z</time>
      </trkpt>
      <trkpt lat="43.51687" lon="6.88893">
        <ele>154.3</ele>
        <time>2022-11-06T09:24:45.000Z</time>
      </trkpt>
      <trkpt lat="43.51681" lon="6.88882">
        <ele>155.9</ele>
        <time>2022-11-06T09:24:58.000Z</time>
      </trkpt>
      <trkpt lat="43.51675" lon="6.88873">
        <ele>156.8</ele>
        <time>2022-11-06T09:25:10.000Z</time>
      </trkpt>
      <trkpt lat="43.51669" lon="6.88863">
        <ele>158.1</ele>
        <time>2022-11-06T09:25:22.000Z</time>
      </trkpt>
      <trkpt lat="43.51663" lon="6.88853">
        <ele>159.2</ele>
        <time>2022-11-06T09:25:35.000Z</time>
      </trkpt>
      <trkpt lat="43.5166" lon="6.88841">
        <ele>160.8</ele>
        <time>2022-11-06T09:25:50.000Z</time>
      </trkpt>
      <trkpt lat="43.51654" lon="6.88831">
        <ele>162.2</ele>
        <time>2022-11-06T09:26:06.000Z</time>
      </trkpt>
      <trkpt lat="43.51646" lon="6.88825">
        <ele>163.7</ele>
        <time>2022-11-06T09:26:19.000Z</time>
      </trkpt>
      <trkpt lat="43.51637" lon="6.8882">
        <ele>164.8</ele>
        <time>2022-11-06T09:26:31.000Z</time>
      </trkpt>
      <trkpt lat="43.51628" lon="6.88818">
        <ele>164.9</ele>
        <time>2022-11-06T09:26:41.000Z</time>
      </trkpt>
      <trkpt lat="43.51623" lon="6.88808">
        <ele>165.5</ele>
        <time>2022-11-06T09:26:53.000Z</time>
      </trkpt>
      <trkpt lat="43.5162" lon="6.88795">
        <ele>166.7</ele>
        <time>2022-11-06T09:27:07.000Z</time>
      </trkpt>
      <trkpt lat="43.51622" lon="6.88782">
        <ele>168.1</ele>
        <time>2022-11-06T09:27:22.000Z</time>
      </trkpt>
      <trkpt lat="43.51625" lon="6.8877">
        <ele>169.7</ele>
        <time>2022-11-06T09:27:37.000Z</time>
      </trkpt>
      <trkpt lat="43.51617" lon="6.88762">
        <ele>171.7</ele>
        <time>2022-11-06T09:27:55.000Z</time>
      </trkpt>
      <trkpt lat="43.51608" lon="6.88763">
        <ele>173.3</ele>
        <time>2022-11-06T09:28:07.000Z</time>
      </trkpt>
      <trkpt lat="43.51599" lon="6.88761">
        <ele>174.4</ele>
        <time>2022-11-06T09:28:23.000Z</time>
      </trkpt>
      <trkpt lat="43.5159" lon="6.88757">
        <ele>175.5</ele>
        <time>2022-11-06T09:28:37.000Z</time>
      </trkpt>
      <trkpt lat="43.51584" lon="6.88756">
        <ele>176.8</ele>
        <time>2022-11-06T09:28:49.000Z</time>
      </trkpt>
      <trkpt lat="43.51584" lon="6.88756">
        <ele>176.9</ele>
        <time>2022-11-06T09:28:50.000Z</time>
      </trkpt>
      <trkpt lat="43.51575" lon="6.88753">
        <ele>178</ele>
        <time>2022-11-06T09:29:03.000Z</time>
      </trkpt>
      <trkpt lat="43.51566" lon="6.88753">
        <ele>179</ele>
        <time>2022-11-06T09:29:12.000Z</time>
      </trkpt>
      <trkpt lat="43.51575" lon="6.88748">
        <ele>180.5</ele>
        <time>2022-11-06T09:29:47.000Z</time>
      </trkpt>
      <trkpt lat="43.51585" lon="6.88749">
        <ele>181.1</ele>
        <time>2022-11-06T09:30:01.000Z</time>
      </trkpt>
      <trkpt lat="43.5159" lon="6.88738">
        <ele>181.7</ele>
        <time>2022-11-06T09:30:15.000Z</time>
      </trkpt>
      <trkpt lat="43.51588" lon="6.88731">
        <ele>181.9</ele>
        <time>2022-11-06T09:30:24.000Z</time>
      </trkpt>
      <trkpt lat="43.51588" lon="6.8873">
        <ele>181.7</ele>
        <time>2022-11-06T09:30:31.000Z</time>
      </trkpt>
      <trkpt lat="43.51588" lon="6.88729">
        <ele>182</ele>
        <time>2022-11-06T09:30:37.000Z</time>
      </trkpt>
      <trkpt lat="43.51587" lon="6.88728">
        <ele>182.1</ele>
        <time>2022-11-06T09:30:38.000Z</time>
      </trkpt>
      <trkpt lat="43.5158" lon="6.88722">
        <ele>183.7</ele>
        <time>2022-11-06T09:30:55.000Z</time>
      </trkpt>
      <trkpt lat="43.5157" lon="6.88722">
        <ele>184.6</ele>
        <time>2022-11-06T09:31:07.000Z</time>
      </trkpt>
      <trkpt lat="43.51562" lon="6.88726">
        <ele>185.6</ele>
        <time>2022-11-06T09:31:16.000Z</time>
      </trkpt>
      <trkpt lat="43.51552" lon="6.8873">
        <ele>186.4</ele>
        <time>2022-11-06T09:31:27.000Z</time>
      </trkpt>
      <trkpt lat="43.51542" lon="6.88731">
        <ele>187.6</ele>
        <time>2022-11-06T09:31:38.000Z</time>
      </trkpt>
      <trkpt lat="43.51536" lon="6.88734">
        <ele>188.4</ele>
        <time>2022-11-06T09:31:46.000Z</time>
      </trkpt>
      <trkpt lat="43.51536" lon="6.88734">
        <ele>188.6</ele>
        <time>2022-11-06T09:31:47.000Z</time>
      </trkpt>
      <trkpt lat="43.51526" lon="6.88735">
        <ele>189.9</ele>
        <time>2022-11-06T09:32:00.000Z</time>
      </trkpt>
      <trkpt lat="43.51519" lon="6.88737">
        <ele>191.1</ele>
        <time>2022-11-06T09:32:12.000Z</time>
      </trkpt>
      <trkpt lat="43.51519" lon="6.88737">
        <ele>191.2</ele>
        <time>2022-11-06T09:32:13.000Z</time>
      </trkpt>
      <trkpt lat="43.5151" lon="6.88742">
        <ele>193</ele>
        <time>2022-11-06T09:32:32.000Z</time>
      </trkpt>
      <trkpt lat="43.51508" lon="6.88742">
        <ele>193.5</ele>
        <time>2022-11-06T09:32:36.000Z</time>
      </trkpt>
      <trkpt lat="43.51509" lon="6.88742">
        <ele>193.5</ele>
        <time>2022-11-06T09:32:37.000Z</time>
      </trkpt>
      <trkpt lat="43.51511" lon="6.88731">
        <ele>195.3</ele>
        <time>2022-11-06T09:32:57.000Z</time>
      </trkpt>
      <trkpt lat="43.51511" lon="6.8873">
        <ele>195.4</ele>
        <time>2022-11-06T09:32:59.000Z</time>
      </trkpt>
      <trkpt lat="43.51511" lon="6.88717">
        <ele>196.6</ele>
        <time>2022-11-06T09:33:10.000Z</time>
      </trkpt>
      <trkpt lat="43.51513" lon="6.88704">
        <ele>197.8</ele>
        <time>2022-11-06T09:33:26.000Z</time>
      </trkpt>
      <trkpt lat="43.51509" lon="6.88692">
        <ele>199</ele>
        <time>2022-11-06T09:33:40.000Z</time>
      </trkpt>
      <trkpt lat="43.51504" lon="6.88681">
        <ele>200.7</ele>
        <time>2022-11-06T09:33:57.000Z</time>
      </trkpt>
      <trkpt lat="43.51499" lon="6.8867">
        <ele>202.2</ele>
        <time>2022-11-06T09:34:10.000Z</time>
      </trkpt>
      <trkpt lat="43.51491" lon="6.88662">
        <ele>203.4</ele>
        <time>2022-11-06T09:34:21.000Z</time>
      </trkpt>
      <trkpt lat="43.51483" lon="6.88656">
        <ele>204.5</ele>
        <time>2022-11-06T09:34:31.000Z</time>
      </trkpt>
      <trkpt lat="43.51476" lon="6.88648">
        <ele>205.5</ele>
        <time>2022-11-06T09:34:43.000Z</time>
      </trkpt>
      <trkpt lat="43.51469" lon="6.8864">
        <ele>206.5</ele>
        <time>2022-11-06T09:34:56.000Z</time>
      </trkpt>
      <trkpt lat="43.51463" lon="6.8863">
        <ele>207.2</ele>
        <time>2022-11-06T09:35:09.000Z</time>
      </trkpt>
      <trkpt lat="43.51457" lon="6.8862">
        <ele>208.6</ele>
        <time>2022-11-06T09:35:23.000Z</time>
      </trkpt>
      <trkpt lat="43.51451" lon="6.8861">
        <ele>209.5</ele>
        <time>2022-11-06T09:35:37.000Z</time>
      </trkpt>
      <trkpt lat="43.51444" lon="6.886">
        <ele>210.6</ele>
        <time>2022-11-06T09:35:51.000Z</time>
      </trkpt>
      <trkpt lat="43.51436" lon="6.8859">
        <ele>211.5</ele>
        <time>2022-11-06T09:36:05.000Z</time>
      </trkpt>
      <trkpt lat="43.51432" lon="6.88578">
        <ele>212.8</ele>
        <time>2022-11-06T09:36:20.000Z</time>
      </trkpt>
      <trkpt lat="43.51429" lon="6.88566">
        <ele>214.3</ele>
        <time>2022-11-06T09:36:39.000Z</time>
      </trkpt>
      <trkpt lat="43.51423" lon="6.88556">
        <ele>215.9</ele>
        <time>2022-11-06T09:36:56.000Z</time>
      </trkpt>
      <trkpt lat="43.51418" lon="6.88545">
        <ele>216.9</ele>
        <time>2022-11-06T09:37:12.000Z</time>
      </trkpt>
      <trkpt lat="43.5141" lon="6.88537">
        <ele>218</ele>
        <time>2022-11-06T09:37:24.000Z</time>
      </trkpt>
      <trkpt lat="43.51401" lon="6.88532">
        <ele>218.6</ele>
        <time>2022-11-06T09:37:33.000Z</time>
      </trkpt>
      <trkpt lat="43.51393" lon="6.88528">
        <ele>219.9</ele>
        <time>2022-11-06T09:37:47.000Z</time>
      </trkpt>
      <trkpt lat="43.51387" lon="6.88518">
        <ele>221</ele>
        <time>2022-11-06T09:38:05.000Z</time>
      </trkpt>
      <trkpt lat="43.5138" lon="6.88508">
        <ele>222.3</ele>
        <time>2022-11-06T09:38:18.000Z</time>
      </trkpt>
      <trkpt lat="43.51371" lon="6.88506">
        <ele>222.9</ele>
        <time>2022-11-06T09:38:28.000Z</time>
      </trkpt>
      <trkpt lat="43.51363" lon="6.88514">
        <ele>224</ele>
        <time>2022-11-06T09:38:41.000Z</time>
      </trkpt>
      <trkpt lat="43.51361" lon="6.88526">
        <ele>224.9</ele>
        <time>2022-11-06T09:38:55.000Z</time>
      </trkpt>
      <trkpt lat="43.5136" lon="6.88539">
        <ele>225.8</ele>
        <time>2022-11-06T09:39:06.000Z</time>
      </trkpt>
      <trkpt lat="43.51353" lon="6.88548">
        <ele>227</ele>
        <time>2022-11-06T09:39:20.000Z</time>
      </trkpt>
      <trkpt lat="43.5135" lon="6.8855">
        <ele>227.3</ele>
        <time>2022-11-06T09:39:33.000Z</time>
      </trkpt>
      <trkpt lat="43.5135" lon="6.88551">
        <ele>227.4</ele>
        <time>2022-11-06T09:39:34.000Z</time>
      </trkpt>
      <trkpt lat="43.5135" lon="6.8855">
        <ele>227.2</ele>
        <time>2022-11-06T09:39:36.000Z</time>
      </trkpt>
      <trkpt lat="43.5135" lon="6.8855">
        <ele>227.2</ele>
        <time>2022-11-06T09:39:46.000Z</time>
      </trkpt>
      <trkpt lat="43.5135" lon="6.8855">
        <ele>227.2</ele>
        <time>2022-11-06T09:39:48.000Z</time>
      </trkpt>
      <trkpt lat="43.5135" lon="6.88551">
        <ele>227.2</ele>
        <time>2022-11-06T09:39:56.000Z</time>
      </trkpt>
      <trkpt lat="43.5135" lon="6.88551">
        <ele>227</ele>
        <time>2022-11-06T09:39:58.000Z</time>
      </trkpt>
      <trkpt lat="43.51349" lon="6.88551">
        <ele>227.4</ele>
        <time>2022-11-06T09:40:04.000Z</time>
      </trkpt>
      <trkpt lat="43.51349" lon="6.88552">
        <ele>227.2</ele>
        <time>2022-11-06T09:40:07.000Z</time>
      </trkpt>
      <trkpt lat="43.51349" lon="6.88552">
        <ele>227.3</ele>
        <time>2022-11-06T09:40:13.000Z</time>
      </trkpt>
      <trkpt lat="43.51346" lon="6.88552">
        <ele>227.5</ele>
        <time>2022-11-06T09:40:20.000Z</time>
      </trkpt>
      <trkpt lat="43.51346" lon="6.88552">
        <ele>227.3</ele>
        <time>2022-11-06T09:40:33.000Z</time>
      </trkpt>
      <trkpt lat="43.51346" lon="6.88552">
        <ele>227.4</ele>
        <time>2022-11-06T09:40:35.000Z</time>
      </trkpt>
      <trkpt lat="43.51346" lon="6.88551">
        <ele>227.3</ele>
        <time>2022-11-06T09:40:47.000Z</time>
      </trkpt>
      <trkpt lat="43.51346" lon="6.88551">
        <ele>227.3</ele>
        <time>2022-11-06T09:40:48.000Z</time>
      </trkpt>
      <trkpt lat="43.51347" lon="6.88552">
        <ele>227.1</ele>
        <time>2022-11-06T09:41:15.000Z</time>
      </trkpt>
      <trkpt lat="43.51347" lon="6.88552">
        <ele>227.1</ele>
        <time>2022-11-06T09:41:16.000Z</time>
      </trkpt>
      <trkpt lat="43.51347" lon="6.88552">
        <ele>226.9</ele>
        <time>2022-11-06T09:42:02.000Z</time>
      </trkpt>
      <trkpt lat="43.51346" lon="6.88552">
        <ele>226.7</ele>
        <time>2022-11-06T09:42:04.000Z</time>
      </trkpt>
      <trkpt lat="43.51347" lon="6.88552">
        <ele>226.8</ele>
        <time>2022-11-06T09:42:05.000Z</time>
      </trkpt>
      <trkpt lat="43.51347" lon="6.88552">
        <ele>227</ele>
        <time>2022-11-06T09:42:06.000Z</time>
      </trkpt>
      <trkpt lat="43.51347" lon="6.88553">
        <ele>227.1</ele>
        <time>2022-11-06T09:42:07.000Z</time>
      </trkpt>
      <trkpt lat="43.51347" lon="6.88553">
        <ele>227.2</ele>
        <time>2022-11-06T09:42:08.000Z</time>
      </trkpt>
      <trkpt lat="43.51347" lon="6.88553">
        <ele>227.1</ele>
        <time>2022-11-06T09:42:51.000Z</time>
      </trkpt>
      <trkpt lat="43.51347" lon="6.88553">
        <ele>227.1</ele>
        <time>2022-11-06T09:42:52.000Z</time>
      </trkpt>
      <trkpt lat="43.51347" lon="6.88553">
        <ele>226.9</ele>
        <time>2022-11-06T09:44:13.000Z</time>
      </trkpt>
      <trkpt lat="43.51347" lon="6.88553">
        <ele>227</ele>
        <time>2022-11-06T09:44:14.000Z</time>
      </trkpt>
      <trkpt lat="43.51347" lon="6.88553">
        <ele>227</ele>
        <time>2022-11-06T09:44:22.000Z</time>
      </trkpt>
      <trkpt lat="43.51349" lon="6.88555">
        <ele>226.9</ele>
        <time>2022-11-06T09:44:28.000Z</time>
      </trkpt>
      <trkpt lat="43.5135" lon="6.88555">
        <ele>227.1</ele>
        <time>2022-11-06T09:44:29.000Z</time>
      </trkpt>
      <trkpt lat="43.5135" lon="6.88555">
        <ele>226.9</ele>
        <time>2022-11-06T09:44:30.000Z</time>
      </trkpt>
      <trkpt lat="43.5135" lon="6.88555">
        <ele>226.9</ele>
        <time>2022-11-06T09:44:31.000Z</time>
      </trkpt>
      <trkpt lat="43.51349" lon="6.88557">
        <ele>227.2</ele>
        <time>2022-11-06T09:44:44.000Z</time>
      </trkpt>
      <trkpt lat="43.5135" lon="6.88557">
        <ele>226.8</ele>
        <time>2022-11-06T09:44:46.000Z</time>
      </trkpt>
      <trkpt lat="43.51349" lon="6.88555">
        <ele>226.8</ele>
        <time>2022-11-06T09:44:52.000Z</time>
      </trkpt>
      <trkpt lat="43.51349" lon="6.88555">
        <ele>226.6</ele>
        <time>2022-11-06T09:44:54.000Z</time>
      </trkpt>
      <trkpt lat="43.51349" lon="6.88555">
        <ele>226.5</ele>
        <time>2022-11-06T09:44:55.000Z</time>
      </trkpt>
      <trkpt lat="43.51348" lon="6.88555">
        <ele>227</ele>
        <time>2022-11-06T09:44:57.000Z</time>
      </trkpt>
      <trkpt lat="43.51348" lon="6.88555">
        <ele>227</ele>
        <time>2022-11-06T09:44:58.000Z</time>
      </trkpt>
      <trkpt lat="43.51348" lon="6.88555">
        <ele>227.2</ele>
        <time>2022-11-06T09:45:00.000Z</time>
      </trkpt>
      <trkpt lat="43.51348" lon="6.88555">
        <ele>227.2</ele>
        <time>2022-11-06T09:45:02.000Z</time>
      </trkpt>
      <trkpt lat="43.51349" lon="6.88555">
        <ele>227.3</ele>
        <time>2022-11-06T09:45:03.000Z</time>
      </trkpt>
      <trkpt lat="43.51346" lon="6.88549">
        <ele>227.2</ele>
        <time>2022-11-06T09:45:16.000Z</time>
      </trkpt>
      <trkpt lat="43.51346" lon="6.88549">
        <ele>227</ele>
        <time>2022-11-06T09:45:43.000Z</time>
      </trkpt>
      <trkpt lat="43.51346" lon="6.88549">
        <ele>227.1</ele>
        <time>2022-11-06T09:45:44.000Z</time>
      </trkpt>
      <trkpt lat="43.51346" lon="6.88549">
        <ele>227.3</ele>
        <time>2022-11-06T09:45:54.000Z</time>
      </trkpt>
      <trkpt lat="43.51346" lon="6.88549">
        <ele>227.2</ele>
        <time>2022-11-06T09:45:56.000Z</time>
      </trkpt>
      <trkpt lat="43.51346" lon="6.88549">
        <ele>227.3</ele>
        <time>2022-11-06T09:46:10.000Z</time>
      </trkpt>
      <trkpt lat="43.51346" lon="6.88549">
        <ele>227.2</ele>
        <time>2022-11-06T09:46:11.000Z</time>
      </trkpt>
      <trkpt lat="43.51345" lon="6.88549">
        <ele>227.1</ele>
        <time>2022-11-06T09:46:19.000Z</time>
      </trkpt>
      <trkpt lat="43.51336" lon="6.88547">
        <ele>227</ele>
        <time>2022-11-06T09:46:30.000Z</time>
      </trkpt>
      <trkpt lat="43.51326" lon="6.88544">
        <ele>226.5</ele>
        <time>2022-11-06T09:46:39.000Z</time>
      </trkpt>
      <trkpt lat="43.51317" lon="6.88541">
        <ele>225.9</ele>
        <time>2022-11-06T09:46:50.000Z</time>
      </trkpt>
      <trkpt lat="43.51309" lon="6.88538">
        <ele>225.6</ele>
        <time>2022-11-06T09:47:02.000Z</time>
      </trkpt>
      <trkpt lat="43.51298" lon="6.88537">
        <ele>225.4</ele>
        <time>2022-11-06T09:47:10.000Z</time>
      </trkpt>
      <trkpt lat="43.51288" lon="6.88537">
        <ele>225.2</ele>
        <time>2022-11-06T09:47:19.000Z</time>
      </trkpt>
      <trkpt lat="43.51278" lon="6.88538">
        <ele>224.5</ele>
        <time>2022-11-06T09:47:32.000Z</time>
      </trkpt>
      <trkpt lat="43.51268" lon="6.88542">
        <ele>224.7</ele>
        <time>2022-11-06T09:47:40.000Z</time>
      </trkpt>
      <trkpt lat="43.51264" lon="6.88555">
        <ele>224.8</ele>
        <time>2022-11-06T09:47:49.000Z</time>
      </trkpt>
      <trkpt lat="43.51263" lon="6.88567">
        <ele>225.3</ele>
        <time>2022-11-06T09:47:57.000Z</time>
      </trkpt>
      <trkpt lat="43.51258" lon="6.88577">
        <ele>225</ele>
        <time>2022-11-06T09:48:07.000Z</time>
      </trkpt>
      <trkpt lat="43.51249" lon="6.88583">
        <ele>225.5</ele>
        <time>2022-11-06T09:48:20.000Z</time>
      </trkpt>
      <trkpt lat="43.5124" lon="6.88585">
        <ele>227.1</ele>
        <time>2022-11-06T09:48:34.000Z</time>
      </trkpt>
      <trkpt lat="43.51232" lon="6.88577">
        <ele>227.9</ele>
        <time>2022-11-06T09:48:47.000Z</time>
      </trkpt>
      <trkpt lat="43.51224" lon="6.88571">
        <ele>228.8</ele>
        <time>2022-11-06T09:48:57.000Z</time>
      </trkpt>
      <trkpt lat="43.51216" lon="6.88564">
        <ele>229.5</ele>
        <time>2022-11-06T09:49:07.000Z</time>
      </trkpt>
      <trkpt lat="43.51209" lon="6.88556">
        <ele>230.6</ele>
        <time>2022-11-06T09:49:17.000Z</time>
      </trkpt>
      <trkpt lat="43.51203" lon="6.88546">
        <ele>231.4</ele>
        <time>2022-11-06T09:49:27.000Z</time>
      </trkpt>
      <trkpt lat="43.512" lon="6.88534">
        <ele>232.9</ele>
        <time>2022-11-06T09:49:40.000Z</time>
      </trkpt>
      <trkpt lat="43.512" lon="6.88521">
        <ele>233.6</ele>
        <time>2022-11-06T09:49:51.000Z</time>
      </trkpt>
      <trkpt lat="43.512" lon="6.88509">
        <ele>234.7</ele>
        <time>2022-11-06T09:50:02.000Z</time>
      </trkpt>
      <trkpt lat="43.51202" lon="6.88495">
        <ele>235.3</ele>
        <time>2022-11-06T09:50:13.000Z</time>
      </trkpt>
      <trkpt lat="43.51203" lon="6.88482">
        <ele>236.6</ele>
        <time>2022-11-06T09:50:25.000Z</time>
      </trkpt>
      <trkpt lat="43.51205" lon="6.8847">
        <ele>237.2</ele>
        <time>2022-11-06T09:50:35.000Z</time>
      </trkpt>
      <trkpt lat="43.51205" lon="6.88456">
        <ele>238.2</ele>
        <time>2022-11-06T09:50:46.000Z</time>
      </trkpt>
      <trkpt lat="43.51204" lon="6.88444">
        <ele>238.8</ele>
        <time>2022-11-06T09:50:55.000Z</time>
      </trkpt>
      <trkpt lat="43.51201" lon="6.88431">
        <ele>239.9</ele>
        <time>2022-11-06T09:51:05.000Z</time>
      </trkpt>
      <trkpt lat="43.51199" lon="6.88418">
        <ele>240.9</ele>
        <time>2022-11-06T09:51:15.000Z</time>
      </trkpt>
      <trkpt lat="43.51196" lon="6.88406">
        <ele>241.3</ele>
        <time>2022-11-06T09:51:25.000Z</time>
      </trkpt>
      <trkpt lat="43.51193" lon="6.88394">
        <ele>241.8</ele>
        <time>2022-11-06T09:51:34.000Z</time>
      </trkpt>
      <trkpt lat="43.51189" lon="6.88382">
        <ele>242.2</ele>
        <time>2022-11-06T09:51:44.000Z</time>
      </trkpt>
      <trkpt lat="43.51184" lon="6.88371">
        <ele>243</ele>
        <time>2022-11-06T09:51:53.000Z</time>
      </trkpt>
      <trkpt lat="43.5118" lon="6.88361">
        <ele>243.6</ele>
        <time>2022-11-06T09:52:02.000Z</time>
      </trkpt>
      <trkpt lat="43.51176" lon="6.88349">
        <ele>244</ele>
        <time>2022-11-06T09:52:11.000Z</time>
      </trkpt>
      <trkpt lat="43.51171" lon="6.88338">
        <ele>244.6</ele>
        <time>2022-11-06T09:52:21.000Z</time>
      </trkpt>
      <trkpt lat="43.51166" lon="6.88326">
        <ele>244.7</ele>
        <time>2022-11-06T09:52:30.000Z</time>
      </trkpt>
      <trkpt lat="43.51162" lon="6.88313">
        <ele>244.9</ele>
        <time>2022-11-06T09:52:40.000Z</time>
      </trkpt>
      <trkpt lat="43.5116" lon="6.88301">
        <ele>245.4</ele>
        <time>2022-11-06T09:52:50.000Z</time>
      </trkpt>
      <trkpt lat="43.51159" lon="6.88288">
        <ele>245.8</ele>
        <time>2022-11-06T09:53:01.000Z</time>
      </trkpt>
      <trkpt lat="43.51154" lon="6.88277">
        <ele>245.8</ele>
        <time>2022-11-06T09:53:10.000Z</time>
      </trkpt>
      <trkpt lat="43.51147" lon="6.88268">
        <ele>245.7</ele>
        <time>2022-11-06T09:53:20.000Z</time>
      </trkpt>
      <trkpt lat="43.51139" lon="6.8826">
        <ele>246.1</ele>
        <time>2022-11-06T09:53:28.000Z</time>
      </trkpt>
      <trkpt lat="43.51132" lon="6.88252">
        <ele>246.4</ele>
        <time>2022-11-06T09:53:37.000Z</time>
      </trkpt>
      <trkpt lat="43.51125" lon="6.88242">
        <ele>247</ele>
        <time>2022-11-06T09:53:47.000Z</time>
      </trkpt>
      <trkpt lat="43.51116" lon="6.8824">
        <ele>247.3</ele>
        <time>2022-11-06T09:53:55.000Z</time>
      </trkpt>
      <trkpt lat="43.51106" lon="6.88238">
        <ele>247.2</ele>
        <time>2022-11-06T09:54:03.000Z</time>
      </trkpt>
      <trkpt lat="43.51097" lon="6.88236">
        <ele>247.9</ele>
        <time>2022-11-06T09:54:12.000Z</time>
      </trkpt>
      <trkpt lat="43.51087" lon="6.88233">
        <ele>248.4</ele>
        <time>2022-11-06T09:54:22.000Z</time>
      </trkpt>
      <trkpt lat="43.51078" lon="6.88232">
        <ele>248.6</ele>
        <time>2022-11-06T09:54:30.000Z</time>
      </trkpt>
      <trkpt lat="43.51069" lon="6.88231">
        <ele>249</ele>
        <time>2022-11-06T09:54:40.000Z</time>
      </trkpt>
      <trkpt lat="43.51059" lon="6.8823">
        <ele>249.1</ele>
        <time>2022-11-06T09:54:49.000Z</time>
      </trkpt>
      <trkpt lat="43.5105" lon="6.88228">
        <ele>249.8</ele>
        <time>2022-11-06T09:54:58.000Z</time>
      </trkpt>
      <trkpt lat="43.51041" lon="6.88225">
        <ele>250.8</ele>
        <time>2022-11-06T09:55:09.000Z</time>
      </trkpt>
      <trkpt lat="43.51032" lon="6.88222">
        <ele>251</ele>
        <time>2022-11-06T09:55:18.000Z</time>
      </trkpt>
      <trkpt lat="43.51022" lon="6.88221">
        <ele>251.4</ele>
        <time>2022-11-06T09:55:26.000Z</time>
      </trkpt>
      <trkpt lat="43.51013" lon="6.8822">
        <ele>252.2</ele>
        <time>2022-11-06T09:55:39.000Z</time>
      </trkpt>
      <trkpt lat="43.51004" lon="6.88217">
        <ele>253.2</ele>
        <time>2022-11-06T09:55:53.000Z</time>
      </trkpt>
      <trkpt lat="43.50998" lon="6.88207">
        <ele>254.2</ele>
        <time>2022-11-06T09:56:06.000Z</time>
      </trkpt>
      <trkpt lat="43.50993" lon="6.88196">
        <ele>255.2</ele>
        <time>2022-11-06T09:56:18.000Z</time>
      </trkpt>
      <trkpt lat="43.5099" lon="6.88185">
        <ele>255.7</ele>
        <time>2022-11-06T09:56:29.000Z</time>
      </trkpt>
      <trkpt lat="43.50987" lon="6.88172">
        <ele>256.4</ele>
        <time>2022-11-06T09:56:40.000Z</time>
      </trkpt>
      <trkpt lat="43.50982" lon="6.88161">
        <ele>257.2</ele>
        <time>2022-11-06T09:56:51.000Z</time>
      </trkpt>
      <trkpt lat="43.50978" lon="6.88149">
        <ele>257.7</ele>
        <time>2022-11-06T09:57:01.000Z</time>
      </trkpt>
      <trkpt lat="43.50975" lon="6.88137">
        <ele>258.2</ele>
        <time>2022-11-06T09:57:11.000Z</time>
      </trkpt>
      <trkpt lat="43.50973" lon="6.88124">
        <ele>258.7</ele>
        <time>2022-11-06T09:57:22.000Z</time>
      </trkpt>
      <trkpt lat="43.50971" lon="6.88111">
        <ele>259.8</ele>
        <time>2022-11-06T09:57:33.000Z</time>
      </trkpt>
      <trkpt lat="43.50971" lon="6.88098">
        <ele>259.8</ele>
        <time>2022-11-06T09:57:44.000Z</time>
      </trkpt>
      <trkpt lat="43.50972" lon="6.88086">
        <ele>260</ele>
        <time>2022-11-06T09:57:54.000Z</time>
      </trkpt>
      <trkpt lat="43.50975" lon="6.88073">
        <ele>259.9</ele>
        <time>2022-11-06T09:58:05.000Z</time>
      </trkpt>
      <trkpt lat="43.50975" lon="6.8806">
        <ele>259.6</ele>
        <time>2022-11-06T09:58:16.000Z</time>
      </trkpt>
      <trkpt lat="43.50975" lon="6.88047">
        <ele>258.8</ele>
        <time>2022-11-06T09:58:26.000Z</time>
      </trkpt>
      <trkpt lat="43.50973" lon="6.88033">
        <ele>257.8</ele>
        <time>2022-11-06T09:58:36.000Z</time>
      </trkpt>
      <trkpt lat="43.50971" lon="6.8802">
        <ele>257.1</ele>
        <time>2022-11-06T09:58:46.000Z</time>
      </trkpt>
      <trkpt lat="43.50967" lon="6.88008">
        <ele>256.4</ele>
        <time>2022-11-06T09:58:55.000Z</time>
      </trkpt>
      <trkpt lat="43.50958" lon="6.88003">
        <ele>256.7</ele>
        <time>2022-11-06T09:59:05.000Z</time>
      </trkpt>
      <trkpt lat="43.50949" lon="6.88004">
        <ele>256.3</ele>
        <time>2022-11-06T09:59:12.000Z</time>
      </trkpt>
      <trkpt lat="43.5094" lon="6.88009">
        <ele>255.7</ele>
        <time>2022-11-06T09:59:20.000Z</time>
      </trkpt>
      <trkpt lat="43.50932" lon="6.88015">
        <ele>254.8</ele>
        <time>2022-11-06T09:59:30.000Z</time>
      </trkpt>
      <trkpt lat="43.50923" lon="6.88023">
        <ele>254.6</ele>
        <time>2022-11-06T09:59:39.000Z</time>
      </trkpt>
      <trkpt lat="43.50916" lon="6.8803">
        <ele>254.2</ele>
        <time>2022-11-06T09:59:47.000Z</time>
      </trkpt>
      <trkpt lat="43.50908" lon="6.88037">
        <ele>253.9</ele>
        <time>2022-11-06T09:59:56.000Z</time>
      </trkpt>
      <trkpt lat="43.50899" lon="6.88043">
        <ele>254.4</ele>
        <time>2022-11-06T10:00:07.000Z</time>
      </trkpt>
      <trkpt lat="43.5089" lon="6.88041">
        <ele>255.4</ele>
        <time>2022-11-06T10:00:22.000Z</time>
      </trkpt>
      <trkpt lat="43.50884" lon="6.88032">
        <ele>256.9</ele>
        <time>2022-11-06T10:00:37.000Z</time>
      </trkpt>
      <trkpt lat="43.50878" lon="6.88022">
        <ele>257.9</ele>
        <time>2022-11-06T10:00:49.000Z</time>
      </trkpt>
      <trkpt lat="43.5087" lon="6.88017">
        <ele>258.5</ele>
        <time>2022-11-06T10:00:59.000Z</time>
      </trkpt>
      <trkpt lat="43.50862" lon="6.8801">
        <ele>258.9</ele>
        <time>2022-11-06T10:01:10.000Z</time>
      </trkpt>
      <trkpt lat="43.50852" lon="6.88009">
        <ele>258.6</ele>
        <time>2022-11-06T10:01:21.000Z</time>
      </trkpt>
      <trkpt lat="43.50852" lon="6.88009">
        <ele>258.9</ele>
        <time>2022-11-06T10:01:22.000Z</time>
      </trkpt>
      <trkpt lat="43.50852" lon="6.88009">
        <ele>258.9</ele>
        <time>2022-11-06T10:01:30.000Z</time>
      </trkpt>
      <trkpt lat="43.50852" lon="6.88009">
        <ele>258.8</ele>
        <time>2022-11-06T10:01:31.000Z</time>
      </trkpt>
      <trkpt lat="43.50852" lon="6.88009">
        <ele>258.8</ele>
        <time>2022-11-06T10:01:33.000Z</time>
      </trkpt>
      <trkpt lat="43.50852" lon="6.88009">
        <ele>258.7</ele>
        <time>2022-11-06T10:01:34.000Z</time>
      </trkpt>
      <trkpt lat="43.50851" lon="6.88009">
        <ele>258.7</ele>
        <time>2022-11-06T10:01:35.000Z</time>
      </trkpt>
      <trkpt lat="43.50851" lon="6.88009">
        <ele>258.8</ele>
        <time>2022-11-06T10:01:38.000Z</time>
      </trkpt>
      <trkpt lat="43.50851" lon="6.88009">
        <ele>258.8</ele>
        <time>2022-11-06T10:01:56.000Z</time>
      </trkpt>
      <trkpt lat="43.50851" lon="6.88009">
        <ele>258.7</ele>
        <time>2022-11-06T10:01:57.000Z</time>
      </trkpt>
      <trkpt lat="43.50851" lon="6.88009">
        <ele>258.6</ele>
        <time>2022-11-06T10:01:58.000Z</time>
      </trkpt>
      <trkpt lat="43.50845" lon="6.8801">
        <ele>258.9</ele>
        <time>2022-11-06T10:02:09.000Z</time>
      </trkpt>
      <trkpt lat="43.50845" lon="6.8801">
        <ele>258.9</ele>
        <time>2022-11-06T10:02:10.000Z</time>
      </trkpt>
      <trkpt lat="43.50844" lon="6.8801">
        <ele>258.9</ele>
        <time>2022-11-06T10:02:12.000Z</time>
      </trkpt>
      <trkpt lat="43.50844" lon="6.8801">
        <ele>259</ele>
        <time>2022-11-06T10:02:21.000Z</time>
      </trkpt>
      <trkpt lat="43.50844" lon="6.8801">
        <ele>258.9</ele>
        <time>2022-11-06T10:02:22.000Z</time>
      </trkpt>
      <trkpt lat="43.50844" lon="6.8801">
        <ele>258.9</ele>
        <time>2022-11-06T10:02:23.000Z</time>
      </trkpt>
      <trkpt lat="43.50844" lon="6.8801">
        <ele>258.9</ele>
        <time>2022-11-06T10:02:24.000Z</time>
      </trkpt>
      <trkpt lat="43.50844" lon="6.8801">
        <ele>258.6</ele>
        <time>2022-11-06T10:02:29.000Z</time>
      </trkpt>
      <trkpt lat="43.5084" lon="6.88014">
        <ele>259.8</ele>
        <time>2022-11-06T10:02:42.000Z</time>
      </trkpt>
      <trkpt lat="43.50841" lon="6.88014">
        <ele>259.8</ele>
        <time>2022-11-06T10:02:45.000Z</time>
      </trkpt>
      <trkpt lat="43.50841" lon="6.88014">
        <ele>259.9</ele>
        <time>2022-11-06T10:02:46.000Z</time>
      </trkpt>
      <trkpt lat="43.50841" lon="6.88014">
        <ele>259.9</ele>
        <time>2022-11-06T10:02:59.000Z</time>
      </trkpt>
      <trkpt lat="43.50841" lon="6.88014">
        <ele>260.1</ele>
        <time>2022-11-06T10:03:01.000Z</time>
      </trkpt>
      <trkpt lat="43.50841" lon="6.88015">
        <ele>259.6</ele>
        <time>2022-11-06T10:03:09.000Z</time>
      </trkpt>
      <trkpt lat="43.50841" lon="6.88015">
        <ele>259.7</ele>
        <time>2022-11-06T10:03:10.000Z</time>
      </trkpt>
      <trkpt lat="43.50841" lon="6.88016">
        <ele>259.7</ele>
        <time>2022-11-06T10:03:28.000Z</time>
      </trkpt>
      <trkpt lat="43.50841" lon="6.88022">
        <ele>260</ele>
        <time>2022-11-06T10:03:34.000Z</time>
      </trkpt>
      <trkpt lat="43.50841" lon="6.88023">
        <ele>260.1</ele>
        <time>2022-11-06T10:03:53.000Z</time>
      </trkpt>
      <trkpt lat="43.50838" lon="6.88035">
        <ele>260.6</ele>
        <time>2022-11-06T10:04:04.000Z</time>
      </trkpt>
      <trkpt lat="43.50833" lon="6.88046">
        <ele>260.9</ele>
        <time>2022-11-06T10:04:14.000Z</time>
      </trkpt>
      <trkpt lat="43.50836" lon="6.88059">
        <ele>262</ele>
        <time>2022-11-06T10:04:21.000Z</time>
      </trkpt>
      <trkpt lat="43.5083" lon="6.88069">
        <ele>262</ele>
        <time>2022-11-06T10:04:32.000Z</time>
      </trkpt>
      <trkpt lat="43.50823" lon="6.88076">
        <ele>262.6</ele>
        <time>2022-11-06T10:04:43.000Z</time>
      </trkpt>
      <trkpt lat="43.5082" lon="6.88089">
        <ele>263.7</ele>
        <time>2022-11-06T10:04:57.000Z</time>
      </trkpt>
      <trkpt lat="43.50819" lon="6.88102">
        <ele>264.5</ele>
        <time>2022-11-06T10:05:07.000Z</time>
      </trkpt>
      <trkpt lat="43.50814" lon="6.88113">
        <ele>265.1</ele>
        <time>2022-11-06T10:05:17.000Z</time>
      </trkpt>
      <trkpt lat="43.50809" lon="6.88123">
        <ele>265.5</ele>
        <time>2022-11-06T10:05:27.000Z</time>
      </trkpt>
      <trkpt lat="43.50809" lon="6.88137">
        <ele>266.7</ele>
        <time>2022-11-06T10:05:40.000Z</time>
      </trkpt>
      <trkpt lat="43.5081" lon="6.88149">
        <ele>267.3</ele>
        <time>2022-11-06T10:05:51.000Z</time>
      </trkpt>
      <trkpt lat="43.50804" lon="6.88159">
        <ele>268.6</ele>
        <time>2022-11-06T10:06:03.000Z</time>
      </trkpt>
      <trkpt lat="43.50799" lon="6.88169">
        <ele>269.3</ele>
        <time>2022-11-06T10:06:14.000Z</time>
      </trkpt>
      <trkpt lat="43.50793" lon="6.88178">
        <ele>269.8</ele>
        <time>2022-11-06T10:06:24.000Z</time>
      </trkpt>
      <trkpt lat="43.50786" lon="6.88188">
        <ele>270.5</ele>
        <time>2022-11-06T10:06:35.000Z</time>
      </trkpt>
      <trkpt lat="43.50778" lon="6.88196">
        <ele>272</ele>
        <time>2022-11-06T10:06:48.000Z</time>
      </trkpt>
      <trkpt lat="43.50771" lon="6.88205">
        <ele>273.5</ele>
        <time>2022-11-06T10:06:58.000Z</time>
      </trkpt>
      <trkpt lat="43.50766" lon="6.88216">
        <ele>273.7</ele>
        <time>2022-11-06T10:07:09.000Z</time>
      </trkpt>
      <trkpt lat="43.50762" lon="6.88228">
        <ele>274.7</ele>
        <time>2022-11-06T10:07:19.000Z</time>
      </trkpt>
      <trkpt lat="43.50758" lon="6.8824">
        <ele>276</ele>
        <time>2022-11-06T10:07:30.000Z</time>
      </trkpt>
      <trkpt lat="43.50761" lon="6.88248">
        <ele>276.3</ele>
        <time>2022-11-06T10:07:44.000Z</time>
      </trkpt>
      <trkpt lat="43.5076" lon="6.88248">
        <ele>276.4</ele>
        <time>2022-11-06T10:07:51.000Z</time>
      </trkpt>
      <trkpt lat="43.50759" lon="6.88249">
        <ele>276.6</ele>
        <time>2022-11-06T10:07:55.000Z</time>
      </trkpt>
      <trkpt lat="43.50759" lon="6.88249">
        <ele>276.9</ele>
        <time>2022-11-06T10:07:58.000Z</time>
      </trkpt>
      <trkpt lat="43.50759" lon="6.88249">
        <ele>276.8</ele>
        <time>2022-11-06T10:07:59.000Z</time>
      </trkpt>
      <trkpt lat="43.50759" lon="6.88249">
        <ele>276.7</ele>
        <time>2022-11-06T10:08:01.000Z</time>
      </trkpt>
      <trkpt lat="43.50759" lon="6.88249">
        <ele>276.9</ele>
        <time>2022-11-06T10:08:02.000Z</time>
      </trkpt>
      <trkpt lat="43.50759" lon="6.88249">
        <ele>276.9</ele>
        <time>2022-11-06T10:08:12.000Z</time>
      </trkpt>
      <trkpt lat="43.50759" lon="6.88249">
        <ele>276.9</ele>
        <time>2022-11-06T10:08:13.000Z</time>
      </trkpt>
      <trkpt lat="43.50759" lon="6.88249">
        <ele>276.8</ele>
        <time>2022-11-06T10:08:14.000Z</time>
      </trkpt>
      <trkpt lat="43.50759" lon="6.88249">
        <ele>276.8</ele>
        <time>2022-11-06T10:08:15.000Z</time>
      </trkpt>
      <trkpt lat="43.50759" lon="6.88249">
        <ele>276.7</ele>
        <time>2022-11-06T10:08:16.000Z</time>
      </trkpt>
      <trkpt lat="43.50759" lon="6.88249">
        <ele>276.8</ele>
        <time>2022-11-06T10:08:18.000Z</time>
      </trkpt>
      <trkpt lat="43.50759" lon="6.8825">
        <ele>276.9</ele>
        <time>2022-11-06T10:09:00.000Z</time>
      </trkpt>
      <trkpt lat="43.50761" lon="6.88252">
        <ele>276.7</ele>
        <time>2022-11-06T10:09:07.000Z</time>
      </trkpt>
      <trkpt lat="43.50761" lon="6.88252">
        <ele>276.7</ele>
        <time>2022-11-06T10:09:09.000Z</time>
      </trkpt>
      <trkpt lat="43.50761" lon="6.88252">
        <ele>276.6</ele>
        <time>2022-11-06T10:09:10.000Z</time>
      </trkpt>
      <trkpt lat="43.50761" lon="6.88252">
        <ele>276.8</ele>
        <time>2022-11-06T10:09:24.000Z</time>
      </trkpt>
      <trkpt lat="43.50761" lon="6.88252">
        <ele>276.6</ele>
        <time>2022-11-06T10:09:25.000Z</time>
      </trkpt>
      <trkpt lat="43.50761" lon="6.88252">
        <ele>276.9</ele>
        <time>2022-11-06T10:10:20.000Z</time>
      </trkpt>
      <trkpt lat="43.50761" lon="6.88252">
        <ele>276.7</ele>
        <time>2022-11-06T10:10:21.000Z</time>
      </trkpt>
      <trkpt lat="43.5076" lon="6.88252">
        <ele>276.9</ele>
        <time>2022-11-06T10:10:27.000Z</time>
      </trkpt>
      <trkpt lat="43.5076" lon="6.88252">
        <ele>276.9</ele>
        <time>2022-11-06T10:10:33.000Z</time>
      </trkpt>
      <trkpt lat="43.5076" lon="6.88252">
        <ele>276.9</ele>
        <time>2022-11-06T10:10:34.000Z</time>
      </trkpt>
      <trkpt lat="43.50759" lon="6.88252">
        <ele>276.9</ele>
        <time>2022-11-06T10:10:38.000Z</time>
      </trkpt>
      <trkpt lat="43.50759" lon="6.88253">
        <ele>276.5</ele>
        <time>2022-11-06T10:11:16.000Z</time>
      </trkpt>
      <trkpt lat="43.50759" lon="6.88255">
        <ele>277</ele>
        <time>2022-11-06T10:11:19.000Z</time>
      </trkpt>
      <trkpt lat="43.50759" lon="6.88255">
        <ele>276.9</ele>
        <time>2022-11-06T10:11:21.000Z</time>
      </trkpt>
      <trkpt lat="43.50751" lon="6.88263">
        <ele>277.7</ele>
        <time>2022-11-06T10:11:32.000Z</time>
      </trkpt>
      <trkpt lat="43.50745" lon="6.88273">
        <ele>278.4</ele>
        <time>2022-11-06T10:11:41.000Z</time>
      </trkpt>
      <trkpt lat="43.50742" lon="6.88286">
        <ele>279.2</ele>
        <time>2022-11-06T10:11:50.000Z</time>
      </trkpt>
      <trkpt lat="43.50738" lon="6.88298">
        <ele>280</ele>
        <time>2022-11-06T10:12:00.000Z</time>
      </trkpt>
      <trkpt lat="43.50731" lon="6.88307">
        <ele>280.6</ele>
        <time>2022-11-06T10:12:09.000Z</time>
      </trkpt>
      <trkpt lat="43.50722" lon="6.88311">
        <ele>281.1</ele>
        <time>2022-11-06T10:12:18.000Z</time>
      </trkpt>
      <trkpt lat="43.50713" lon="6.88314">
        <ele>281.5</ele>
        <time>2022-11-06T10:12:28.000Z</time>
      </trkpt>
      <trkpt lat="43.50703" lon="6.88318">
        <ele>282.7</ele>
        <time>2022-11-06T10:12:37.000Z</time>
      </trkpt>
      <trkpt lat="43.50694" lon="6.88322">
        <ele>283.7</ele>
        <time>2022-11-06T10:12:46.000Z</time>
      </trkpt>
      <trkpt lat="43.50684" lon="6.88327">
        <ele>283.9</ele>
        <time>2022-11-06T10:12:53.000Z</time>
      </trkpt>
      <trkpt lat="43.50676" lon="6.88333">
        <ele>285.3</ele>
        <time>2022-11-06T10:13:01.000Z</time>
      </trkpt>
      <trkpt lat="43.50668" lon="6.8834">
        <ele>285.6</ele>
        <time>2022-11-06T10:13:09.000Z</time>
      </trkpt>
      <trkpt lat="43.5066" lon="6.88349">
        <ele>287</ele>
        <time>2022-11-06T10:13:18.000Z</time>
      </trkpt>
      <trkpt lat="43.50653" lon="6.88359">
        <ele>287.6</ele>
        <time>2022-11-06T10:13:25.000Z</time>
      </trkpt>
      <trkpt lat="43.50647" lon="6.88369">
        <ele>288.5</ele>
        <time>2022-11-06T10:13:34.000Z</time>
      </trkpt>
      <trkpt lat="43.50641" lon="6.88379">
        <ele>289.3</ele>
        <time>2022-11-06T10:13:42.000Z</time>
      </trkpt>
      <trkpt lat="43.50633" lon="6.88388">
        <ele>290.4</ele>
        <time>2022-11-06T10:13:51.000Z</time>
      </trkpt>
      <trkpt lat="43.50624" lon="6.88389">
        <ele>290.9</ele>
        <time>2022-11-06T10:14:00.000Z</time>
      </trkpt>
      <trkpt lat="43.50616" lon="6.88383">
        <ele>292.7</ele>
        <time>2022-11-06T10:14:09.000Z</time>
      </trkpt>
      <trkpt lat="43.50615" lon="6.88382">
        <ele>292.1</ele>
        <time>2022-11-06T10:14:12.000Z</time>
      </trkpt>
      <trkpt lat="43.50615" lon="6.88382">
        <ele>292.2</ele>
        <time>2022-11-06T10:14:16.000Z</time>
      </trkpt>
      <trkpt lat="43.50608" lon="6.88373">
        <ele>293.1</ele>
        <time>2022-11-06T10:14:26.000Z</time>
      </trkpt>
      <trkpt lat="43.50602" lon="6.88364">
        <ele>293.8</ele>
        <time>2022-11-06T10:14:36.000Z</time>
      </trkpt>
      <trkpt lat="43.50595" lon="6.88355">
        <ele>294.4</ele>
        <time>2022-11-06T10:14:45.000Z</time>
      </trkpt>
      <trkpt lat="43.50587" lon="6.88349">
        <ele>295.3</ele>
        <time>2022-11-06T10:14:54.000Z</time>
      </trkpt>
      <trkpt lat="43.50578" lon="6.88342">
        <ele>295.4</ele>
        <time>2022-11-06T10:15:03.000Z</time>
      </trkpt>
      <trkpt lat="43.50569" lon="6.88338">
        <ele>296.5</ele>
        <time>2022-11-06T10:15:12.000Z</time>
      </trkpt>
      <trkpt lat="43.5056" lon="6.88335">
        <ele>297.1</ele>
        <time>2022-11-06T10:15:20.000Z</time>
      </trkpt>
      <trkpt lat="43.50551" lon="6.88333">
        <ele>297.3</ele>
        <time>2022-11-06T10:15:27.000Z</time>
      </trkpt>
      <trkpt lat="43.50542" lon="6.88331">
        <ele>297.9</ele>
        <time>2022-11-06T10:15:35.000Z</time>
      </trkpt>
      <trkpt lat="43.50532" lon="6.88328">
        <ele>298.6</ele>
        <time>2022-11-06T10:15:43.000Z</time>
      </trkpt>
      <trkpt lat="43.50522" lon="6.88325">
        <ele>298.8</ele>
        <time>2022-11-06T10:15:51.000Z</time>
      </trkpt>
      <trkpt lat="43.50513" lon="6.88322">
        <ele>299.5</ele>
        <time>2022-11-06T10:16:00.000Z</time>
      </trkpt>
      <trkpt lat="43.50505" lon="6.88316">
        <ele>300</ele>
        <time>2022-11-06T10:16:08.000Z</time>
      </trkpt>
      <trkpt lat="43.50497" lon="6.88308">
        <ele>300.1</ele>
        <time>2022-11-06T10:16:17.000Z</time>
      </trkpt>
      <trkpt lat="43.5049" lon="6.88299">
        <ele>301.3</ele>
        <time>2022-11-06T10:16:25.000Z</time>
      </trkpt>
      <trkpt lat="43.50482" lon="6.8829">
        <ele>302.1</ele>
        <time>2022-11-06T10:16:37.000Z</time>
      </trkpt>
      <trkpt lat="43.50476" lon="6.88281">
        <ele>302.4</ele>
        <time>2022-11-06T10:16:46.000Z</time>
      </trkpt>
      <trkpt lat="43.50469" lon="6.88273">
        <ele>303.5</ele>
        <time>2022-11-06T10:16:56.000Z</time>
      </trkpt>
      <trkpt lat="43.50462" lon="6.88264">
        <ele>304</ele>
        <time>2022-11-06T10:17:05.000Z</time>
      </trkpt>
      <trkpt lat="43.50456" lon="6.88255">
        <ele>304.5</ele>
        <time>2022-11-06T10:17:15.000Z</time>
      </trkpt>
      <trkpt lat="43.50451" lon="6.88244">
        <ele>304.7</ele>
        <time>2022-11-06T10:17:25.000Z</time>
      </trkpt>
      <trkpt lat="43.50445" lon="6.88234">
        <ele>305.9</ele>
        <time>2022-11-06T10:17:36.000Z</time>
      </trkpt>
      <trkpt lat="43.50439" lon="6.88224">
        <ele>306.4</ele>
        <time>2022-11-06T10:17:45.000Z</time>
      </trkpt>
      <trkpt lat="43.50432" lon="6.88216">
        <ele>307</ele>
        <time>2022-11-06T10:17:56.000Z</time>
      </trkpt>
      <trkpt lat="43.50424" lon="6.88209">
        <ele>307.8</ele>
        <time>2022-11-06T10:18:06.000Z</time>
      </trkpt>
      <trkpt lat="43.50414" lon="6.88208">
        <ele>308.4</ele>
        <time>2022-11-06T10:18:16.000Z</time>
      </trkpt>
      <trkpt lat="43.50404" lon="6.88207">
        <ele>308.8</ele>
        <time>2022-11-06T10:18:25.000Z</time>
      </trkpt>
      <trkpt lat="43.50395" lon="6.88209">
        <ele>309.1</ele>
        <time>2022-11-06T10:18:34.000Z</time>
      </trkpt>
      <trkpt lat="43.50389" lon="6.88209">
        <ele>309.5</ele>
        <time>2022-11-06T10:18:45.000Z</time>
      </trkpt>
      <trkpt lat="43.50389" lon="6.8821">
        <ele>309.6</ele>
        <time>2022-11-06T10:18:49.000Z</time>
      </trkpt>
      <trkpt lat="43.50389" lon="6.8821">
        <ele>309.6</ele>
        <time>2022-11-06T10:18:50.000Z</time>
      </trkpt>
      <trkpt lat="43.50389" lon="6.8821">
        <ele>309.4</ele>
        <time>2022-11-06T10:18:52.000Z</time>
      </trkpt>
      <trkpt lat="43.50389" lon="6.8821">
        <ele>309.3</ele>
        <time>2022-11-06T10:18:53.000Z</time>
      </trkpt>
      <trkpt lat="43.5039" lon="6.8821">
        <ele>309.6</ele>
        <time>2022-11-06T10:18:57.000Z</time>
      </trkpt>
      <trkpt lat="43.5039" lon="6.88212">
        <ele>309.5</ele>
        <time>2022-11-06T10:19:00.000Z</time>
      </trkpt>
      <trkpt lat="43.50391" lon="6.88212">
        <ele>309.5</ele>
        <time>2022-11-06T10:19:08.000Z</time>
      </trkpt>
      <trkpt lat="43.50391" lon="6.88213">
        <ele>309.5</ele>
        <time>2022-11-06T10:19:11.000Z</time>
      </trkpt>
      <trkpt lat="43.50391" lon="6.88214">
        <ele>309.6</ele>
        <time>2022-11-06T10:19:15.000Z</time>
      </trkpt>
      <trkpt lat="43.50389" lon="6.88216">
        <ele>309.4</ele>
        <time>2022-11-06T10:19:21.000Z</time>
      </trkpt>
      <trkpt lat="43.50389" lon="6.88217">
        <ele>309.4</ele>
        <time>2022-11-06T10:19:25.000Z</time>
      </trkpt>
      <trkpt lat="43.50383" lon="6.88227">
        <ele>309.2</ele>
        <time>2022-11-06T10:19:33.000Z</time>
      </trkpt>
      <trkpt lat="43.50381" lon="6.88239">
        <ele>309.3</ele>
        <time>2022-11-06T10:19:42.000Z</time>
      </trkpt>
      <trkpt lat="43.50379" lon="6.88253">
        <ele>308.9</ele>
        <time>2022-11-06T10:19:52.000Z</time>
      </trkpt>
      <trkpt lat="43.50376" lon="6.88266">
        <ele>309</ele>
        <time>2022-11-06T10:20:02.000Z</time>
      </trkpt>
      <trkpt lat="43.50372" lon="6.88277">
        <ele>308.8</ele>
        <time>2022-11-06T10:20:12.000Z</time>
      </trkpt>
      <trkpt lat="43.50373" lon="6.88279">
        <ele>309.2</ele>
        <time>2022-11-06T10:20:16.000Z</time>
      </trkpt>
      <trkpt lat="43.50373" lon="6.88279">
        <ele>309.1</ele>
        <time>2022-11-06T10:20:18.000Z</time>
      </trkpt>
      <trkpt lat="43.50373" lon="6.88279">
        <ele>308.8</ele>
        <time>2022-11-06T10:20:20.000Z</time>
      </trkpt>
      <trkpt lat="43.50373" lon="6.88279">
        <ele>308.9</ele>
        <time>2022-11-06T10:20:21.000Z</time>
      </trkpt>
      <trkpt lat="43.50373" lon="6.88281">
        <ele>308.9</ele>
        <time>2022-11-06T10:20:25.000Z</time>
      </trkpt>
      <trkpt lat="43.50373" lon="6.88281">
        <ele>308.9</ele>
        <time>2022-11-06T10:20:26.000Z</time>
      </trkpt>
      <trkpt lat="43.50371" lon="6.88286">
        <ele>308.9</ele>
        <time>2022-11-06T10:20:34.000Z</time>
      </trkpt>
      <trkpt lat="43.50371" lon="6.88286">
        <ele>308.8</ele>
        <time>2022-11-06T10:20:35.000Z</time>
      </trkpt>
      <trkpt lat="43.5037" lon="6.88289">
        <ele>308.5</ele>
        <time>2022-11-06T10:20:40.000Z</time>
      </trkpt>
      <trkpt lat="43.5037" lon="6.88288">
        <ele>308.7</ele>
        <time>2022-11-06T10:20:41.000Z</time>
      </trkpt>
      <trkpt lat="43.5037" lon="6.88288">
        <ele>308.8</ele>
        <time>2022-11-06T10:20:43.000Z</time>
      </trkpt>
      <trkpt lat="43.50369" lon="6.88289">
        <ele>308.6</ele>
        <time>2022-11-06T10:20:49.000Z</time>
      </trkpt>
      <trkpt lat="43.50368" lon="6.88291">
        <ele>308.3</ele>
        <time>2022-11-06T10:20:53.000Z</time>
      </trkpt>
      <trkpt lat="43.50368" lon="6.88291">
        <ele>308.4</ele>
        <time>2022-11-06T10:20:54.000Z</time>
      </trkpt>
      <trkpt lat="43.50368" lon="6.88294">
        <ele>308.1</ele>
        <time>2022-11-06T10:21:01.000Z</time>
      </trkpt>
      <trkpt lat="43.50368" lon="6.88294">
        <ele>308.2</ele>
        <time>2022-11-06T10:21:08.000Z</time>
      </trkpt>
      <trkpt lat="43.50368" lon="6.88294">
        <ele>308.2</ele>
        <time>2022-11-06T10:21:09.000Z</time>
      </trkpt>
      <trkpt lat="43.50368" lon="6.88294">
        <ele>308.3</ele>
        <time>2022-11-06T10:21:11.000Z</time>
      </trkpt>
      <trkpt lat="43.50368" lon="6.88294">
        <ele>308.2</ele>
        <time>2022-11-06T10:21:12.000Z</time>
      </trkpt>
      <trkpt lat="43.50368" lon="6.88294">
        <ele>308.4</ele>
        <time>2022-11-06T10:21:19.000Z</time>
      </trkpt>
      <trkpt lat="43.50369" lon="6.88294">
        <ele>308.5</ele>
        <time>2022-11-06T10:21:24.000Z</time>
      </trkpt>
      <trkpt lat="43.50369" lon="6.88294">
        <ele>308.2</ele>
        <time>2022-11-06T10:21:31.000Z</time>
      </trkpt>
      <trkpt lat="43.5037" lon="6.88298">
        <ele>308.1</ele>
        <time>2022-11-06T10:21:39.000Z</time>
      </trkpt>
      <trkpt lat="43.50369" lon="6.88298">
        <ele>308.1</ele>
        <time>2022-11-06T10:21:41.000Z</time>
      </trkpt>
      <trkpt lat="43.50369" lon="6.88298">
        <ele>308.3</ele>
        <time>2022-11-06T10:21:42.000Z</time>
      </trkpt>
      <trkpt lat="43.50369" lon="6.88299">
        <ele>308.2</ele>
        <time>2022-11-06T10:21:51.000Z</time>
      </trkpt>
      <trkpt lat="43.50367" lon="6.883">
        <ele>308.2</ele>
        <time>2022-11-06T10:21:56.000Z</time>
      </trkpt>
      <trkpt lat="43.50368" lon="6.883">
        <ele>308.2</ele>
        <time>2022-11-06T10:21:57.000Z</time>
      </trkpt>
      <trkpt lat="43.50369" lon="6.88299">
        <ele>308.2</ele>
        <time>2022-11-06T10:22:01.000Z</time>
      </trkpt>
      <trkpt lat="43.50369" lon="6.88299">
        <ele>308</ele>
        <time>2022-11-06T10:22:03.000Z</time>
      </trkpt>
      <trkpt lat="43.50369" lon="6.88299">
        <ele>308</ele>
        <time>2022-11-06T10:22:04.000Z</time>
      </trkpt>
      <trkpt lat="43.50369" lon="6.88299">
        <ele>308.1</ele>
        <time>2022-11-06T10:22:52.000Z</time>
      </trkpt>
      <trkpt lat="43.50369" lon="6.88299">
        <ele>308.1</ele>
        <time>2022-11-06T10:22:53.000Z</time>
      </trkpt>
      <trkpt lat="43.50369" lon="6.88299">
        <ele>307.4</ele>
        <time>2022-11-06T10:23:17.000Z</time>
      </trkpt>
      <trkpt lat="43.50361" lon="6.88308">
        <ele>307.4</ele>
        <time>2022-11-06T10:23:26.000Z</time>
      </trkpt>
      <trkpt lat="43.50357" lon="6.88314">
        <ele>306.5</ele>
        <time>2022-11-06T10:23:35.000Z</time>
      </trkpt>
      <trkpt lat="43.50356" lon="6.88314">
        <ele>306.5</ele>
        <time>2022-11-06T10:23:41.000Z</time>
      </trkpt>
      <trkpt lat="43.50347" lon="6.88317">
        <ele>306.1</ele>
        <time>2022-11-06T10:23:49.000Z</time>
      </trkpt>
      <trkpt lat="43.50337" lon="6.88317">
        <ele>305.2</ele>
        <time>2022-11-06T10:23:57.000Z</time>
      </trkpt>
      <trkpt lat="43.50328" lon="6.88319">
        <ele>303.8</ele>
        <time>2022-11-06T10:24:06.000Z</time>
      </trkpt>
      <trkpt lat="43.50326" lon="6.88321">
        <ele>302.3</ele>
        <time>2022-11-06T10:24:14.000Z</time>
      </trkpt>
      <trkpt lat="43.50325" lon="6.88322">
        <ele>302.2</ele>
        <time>2022-11-06T10:24:15.000Z</time>
      </trkpt>
      <trkpt lat="43.5032" lon="6.88332">
        <ele>301.1</ele>
        <time>2022-11-06T10:24:20.000Z</time>
      </trkpt>
      <trkpt lat="43.50313" lon="6.88342">
        <ele>300.7</ele>
        <time>2022-11-06T10:24:26.000Z</time>
      </trkpt>
      <trkpt lat="43.50306" lon="6.8835">
        <ele>300.4</ele>
        <time>2022-11-06T10:24:32.000Z</time>
      </trkpt>
      <trkpt lat="43.50299" lon="6.88359">
        <ele>300.4</ele>
        <time>2022-11-06T10:24:39.000Z</time>
      </trkpt>
      <trkpt lat="43.50291" lon="6.88368">
        <ele>300.4</ele>
        <time>2022-11-06T10:24:46.000Z</time>
      </trkpt>
      <trkpt lat="43.50283" lon="6.88374">
        <ele>300.5</ele>
        <time>2022-11-06T10:24:53.000Z</time>
      </trkpt>
      <trkpt lat="43.50273" lon="6.8838">
        <ele>300.5</ele>
        <time>2022-11-06T10:25:01.000Z</time>
      </trkpt>
      <trkpt lat="43.50264" lon="6.88385">
        <ele>301.6</ele>
        <time>2022-11-06T10:25:09.000Z</time>
      </trkpt>
      <trkpt lat="43.50255" lon="6.88388">
        <ele>302.8</ele>
        <time>2022-11-06T10:25:20.000Z</time>
      </trkpt>
      <trkpt lat="43.50246" lon="6.8839">
        <ele>303.1</ele>
        <time>2022-11-06T10:25:29.000Z</time>
      </trkpt>
      <trkpt lat="43.50241" lon="6.88402">
        <ele>303</ele>
        <time>2022-11-06T10:25:44.000Z</time>
      </trkpt>
      <trkpt lat="43.50239" lon="6.88409">
        <ele>302.8</ele>
        <time>2022-11-06T10:25:54.000Z</time>
      </trkpt>
      <trkpt lat="43.50238" lon="6.88409">
        <ele>302.7</ele>
        <time>2022-11-06T10:25:58.000Z</time>
      </trkpt>
      <trkpt lat="43.50238" lon="6.88409">
        <ele>302.7</ele>
        <time>2022-11-06T10:25:59.000Z</time>
      </trkpt>
      <trkpt lat="43.50238" lon="6.88409">
        <ele>302.7</ele>
        <time>2022-11-06T10:26:03.000Z</time>
      </trkpt>
      <trkpt lat="43.50238" lon="6.88406">
        <ele>303</ele>
        <time>2022-11-06T10:26:08.000Z</time>
      </trkpt>
      <trkpt lat="43.50239" lon="6.88406">
        <ele>303</ele>
        <time>2022-11-06T10:26:10.000Z</time>
      </trkpt>
      <trkpt lat="43.50239" lon="6.88406">
        <ele>303.1</ele>
        <time>2022-11-06T10:26:11.000Z</time>
      </trkpt>
      <trkpt lat="43.50239" lon="6.88406">
        <ele>303.1</ele>
        <time>2022-11-06T10:26:18.000Z</time>
      </trkpt>
      <trkpt lat="43.50243" lon="6.88394">
        <ele>303</ele>
        <time>2022-11-06T10:26:29.000Z</time>
      </trkpt>
      <trkpt lat="43.50243" lon="6.88389">
        <ele>302.8</ele>
        <time>2022-11-06T10:26:37.000Z</time>
      </trkpt>
      <trkpt lat="43.50243" lon="6.88389">
        <ele>302.7</ele>
        <time>2022-11-06T10:26:40.000Z</time>
      </trkpt>
      <trkpt lat="43.50242" lon="6.88389">
        <ele>303.8</ele>
        <time>2022-11-06T10:26:45.000Z</time>
      </trkpt>
      <trkpt lat="43.50242" lon="6.88388">
        <ele>303.3</ele>
        <time>2022-11-06T10:26:58.000Z</time>
      </trkpt>
      <trkpt lat="43.50244" lon="6.88388">
        <ele>303.3</ele>
        <time>2022-11-06T10:27:06.000Z</time>
      </trkpt>
      <trkpt lat="43.50244" lon="6.88388">
        <ele>303.4</ele>
        <time>2022-11-06T10:27:07.000Z</time>
      </trkpt>
      <trkpt lat="43.50248" lon="6.88384">
        <ele>303.4</ele>
        <time>2022-11-06T10:27:17.000Z</time>
      </trkpt>
      <trkpt lat="43.50248" lon="6.88384">
        <ele>303.2</ele>
        <time>2022-11-06T10:27:24.000Z</time>
      </trkpt>
      <trkpt lat="43.50249" lon="6.88383">
        <ele>303.6</ele>
        <time>2022-11-06T10:27:27.000Z</time>
      </trkpt>
      <trkpt lat="43.50249" lon="6.88383">
        <ele>303.6</ele>
        <time>2022-11-06T10:27:51.000Z</time>
      </trkpt>
      <trkpt lat="43.50249" lon="6.88383">
        <ele>303.5</ele>
        <time>2022-11-06T10:27:52.000Z</time>
      </trkpt>
      <trkpt lat="43.50249" lon="6.88384">
        <ele>303.5</ele>
        <time>2022-11-06T10:28:04.000Z</time>
      </trkpt>
      <trkpt lat="43.5025" lon="6.88385">
        <ele>302.7</ele>
        <time>2022-11-06T10:28:11.000Z</time>
      </trkpt>
      <trkpt lat="43.5025" lon="6.88385">
        <ele>302.9</ele>
        <time>2022-11-06T10:28:12.000Z</time>
      </trkpt>
      <trkpt lat="43.50249" lon="6.88382">
        <ele>303</ele>
        <time>2022-11-06T10:28:20.000Z</time>
      </trkpt>
      <trkpt lat="43.50249" lon="6.88383">
        <ele>302.9</ele>
        <time>2022-11-06T10:28:25.000Z</time>
      </trkpt>
      <trkpt lat="43.50249" lon="6.88383">
        <ele>302.8</ele>
        <time>2022-11-06T10:28:26.000Z</time>
      </trkpt>
      <trkpt lat="43.5025" lon="6.88382">
        <ele>302.4</ele>
        <time>2022-11-06T10:28:38.000Z</time>
      </trkpt>
      <trkpt lat="43.5025" lon="6.88382">
        <ele>302.4</ele>
        <time>2022-11-06T10:28:39.000Z</time>
      </trkpt>
      <trkpt lat="43.5025" lon="6.88382">
        <ele>301.7</ele>
        <time>2022-11-06T10:28:53.000Z</time>
      </trkpt>
      <trkpt lat="43.5025" lon="6.88382">
        <ele>301.5</ele>
        <time>2022-11-06T10:28:57.000Z</time>
      </trkpt>
      <trkpt lat="43.5025" lon="6.88381">
        <ele>301.5</ele>
        <time>2022-11-06T10:29:40.000Z</time>
      </trkpt>
      <trkpt lat="43.50249" lon="6.88368">
        <ele>301.7</ele>
        <time>2022-11-06T10:29:57.000Z</time>
      </trkpt>
      <trkpt lat="43.5025" lon="6.88368">
        <ele>301.7</ele>
        <time>2022-11-06T10:29:59.000Z</time>
      </trkpt>
      <trkpt lat="43.5025" lon="6.88368">
        <ele>302</ele>
        <time>2022-11-06T10:30:01.000Z</time>
      </trkpt>
      <trkpt lat="43.5025" lon="6.88368">
        <ele>302</ele>
        <time>2022-11-06T10:30:02.000Z</time>
      </trkpt>
      <trkpt lat="43.5025" lon="6.88367">
        <ele>302</ele>
        <time>2022-11-06T10:30:03.000Z</time>
      </trkpt>
      <trkpt lat="43.50247" lon="6.88354">
        <ele>302.4</ele>
        <time>2022-11-06T10:30:13.000Z</time>
      </trkpt>
      <trkpt lat="43.50242" lon="6.88342">
        <ele>302.3</ele>
        <time>2022-11-06T10:30:22.000Z</time>
      </trkpt>
      <trkpt lat="43.5024" lon="6.88329">
        <ele>302.9</ele>
        <time>2022-11-06T10:30:30.000Z</time>
      </trkpt>
      <trkpt lat="43.50235" lon="6.88318">
        <ele>303.1</ele>
        <time>2022-11-06T10:30:39.000Z</time>
      </trkpt>
      <trkpt lat="43.50233" lon="6.88304">
        <ele>303.2</ele>
        <time>2022-11-06T10:30:48.000Z</time>
      </trkpt>
      <trkpt lat="43.5023" lon="6.88291">
        <ele>303.8</ele>
        <time>2022-11-06T10:30:58.000Z</time>
      </trkpt>
      <trkpt lat="43.50227" lon="6.88279">
        <ele>303.9</ele>
        <time>2022-11-06T10:31:07.000Z</time>
      </trkpt>
      <trkpt lat="43.50224" lon="6.88266">
        <ele>304</ele>
        <time>2022-11-06T10:31:17.000Z</time>
      </trkpt>
      <trkpt lat="43.50217" lon="6.88256">
        <ele>304.2</ele>
        <time>2022-11-06T10:31:26.000Z</time>
      </trkpt>
      <trkpt lat="43.50209" lon="6.88248">
        <ele>304.6</ele>
        <time>2022-11-06T10:31:35.000Z</time>
      </trkpt>
      <trkpt lat="43.502" lon="6.88242">
        <ele>304.9</ele>
        <time>2022-11-06T10:31:44.000Z</time>
      </trkpt>
      <trkpt lat="43.50191" lon="6.88238">
        <ele>305</ele>
        <time>2022-11-06T10:31:52.000Z</time>
      </trkpt>
      <trkpt lat="43.50183" lon="6.88234">
        <ele>305.1</ele>
        <time>2022-11-06T10:32:00.000Z</time>
      </trkpt>
      <trkpt lat="43.50174" lon="6.88231">
        <ele>304.7</ele>
        <time>2022-11-06T10:32:08.000Z</time>
      </trkpt>
      <trkpt lat="43.50166" lon="6.88225">
        <ele>305.5</ele>
        <time>2022-11-06T10:32:17.000Z</time>
      </trkpt>
      <trkpt lat="43.50158" lon="6.88217">
        <ele>305.6</ele>
        <time>2022-11-06T10:32:27.000Z</time>
      </trkpt>
      <trkpt lat="43.50152" lon="6.88206">
        <ele>305.8</ele>
        <time>2022-11-06T10:32:37.000Z</time>
      </trkpt>
      <trkpt lat="43.50148" lon="6.88194">
        <ele>306.5</ele>
        <time>2022-11-06T10:32:46.000Z</time>
      </trkpt>
      <trkpt lat="43.50145" lon="6.88181">
        <ele>306.5</ele>
        <time>2022-11-06T10:32:56.000Z</time>
      </trkpt>
      <trkpt lat="43.50143" lon="6.88169">
        <ele>306.4</ele>
        <time>2022-11-06T10:33:05.000Z</time>
      </trkpt>
      <trkpt lat="43.50136" lon="6.88161">
        <ele>306.8</ele>
        <time>2022-11-06T10:33:14.000Z</time>
      </trkpt>
      <trkpt lat="43.50127" lon="6.88154">
        <ele>307.3</ele>
        <time>2022-11-06T10:33:23.000Z</time>
      </trkpt>
      <trkpt lat="43.5012" lon="6.88147">
        <ele>307.2</ele>
        <time>2022-11-06T10:33:32.000Z</time>
      </trkpt>
      <trkpt lat="43.50118" lon="6.88134">
        <ele>307.4</ele>
        <time>2022-11-06T10:33:43.000Z</time>
      </trkpt>
      <trkpt lat="43.50118" lon="6.88133">
        <ele>307.5</ele>
        <time>2022-11-06T10:33:46.000Z</time>
      </trkpt>
      <trkpt lat="43.50118" lon="6.88133">
        <ele>307.2</ele>
        <time>2022-11-06T10:34:01.000Z</time>
      </trkpt>
      <trkpt lat="43.50118" lon="6.88133">
        <ele>307.3</ele>
        <time>2022-11-06T10:34:02.000Z</time>
      </trkpt>
      <trkpt lat="43.50118" lon="6.88133">
        <ele>307.7</ele>
        <time>2022-11-06T10:34:07.000Z</time>
      </trkpt>
      <trkpt lat="43.50118" lon="6.88133">
        <ele>307.6</ele>
        <time>2022-11-06T10:34:08.000Z</time>
      </trkpt>
      <trkpt lat="43.50119" lon="6.88133">
        <ele>307.3</ele>
        <time>2022-11-06T10:34:13.000Z</time>
      </trkpt>
      <trkpt lat="43.50123" lon="6.88121">
        <ele>308.1</ele>
        <time>2022-11-06T10:34:23.000Z</time>
      </trkpt>
      <trkpt lat="43.50127" lon="6.8811">
        <ele>308.1</ele>
        <time>2022-11-06T10:34:32.000Z</time>
      </trkpt>
      <trkpt lat="43.50131" lon="6.88098">
        <ele>308.7</ele>
        <time>2022-11-06T10:34:43.000Z</time>
      </trkpt>
      <trkpt lat="43.50131" lon="6.88098">
        <ele>309</ele>
        <time>2022-11-06T10:34:45.000Z</time>
      </trkpt>
      <trkpt lat="43.50131" lon="6.88098">
        <ele>309.1</ele>
        <time>2022-11-06T10:35:06.000Z</time>
      </trkpt>
      <trkpt lat="43.50135" lon="6.88087">
        <ele>309.5</ele>
        <time>2022-11-06T10:35:21.000Z</time>
      </trkpt>
      <trkpt lat="43.50136" lon="6.88086">
        <ele>309.3</ele>
        <time>2022-11-06T10:35:29.000Z</time>
      </trkpt>
      <trkpt lat="43.50142" lon="6.88076">
        <ele>309.4</ele>
        <time>2022-11-06T10:35:38.000Z</time>
      </trkpt>
      <trkpt lat="43.50144" lon="6.88064">
        <ele>310.4</ele>
        <time>2022-11-06T10:35:47.000Z</time>
      </trkpt>
      <trkpt lat="43.50141" lon="6.88051">
        <ele>310.8</ele>
        <time>2022-11-06T10:35:57.000Z</time>
      </trkpt>
      <trkpt lat="43.50139" lon="6.88051">
        <ele>310.9</ele>
        <time>2022-11-06T10:36:03.000Z</time>
      </trkpt>
      <trkpt lat="43.50139" lon="6.88051">
        <ele>310.9</ele>
        <time>2022-11-06T10:36:17.000Z</time>
      </trkpt>
      <trkpt lat="43.50139" lon="6.88051">
        <ele>310.9</ele>
        <time>2022-11-06T10:36:18.000Z</time>
      </trkpt>
      <trkpt lat="43.50139" lon="6.8805">
        <ele>310.6</ele>
        <time>2022-11-06T10:36:24.000Z</time>
      </trkpt>
      <trkpt lat="43.50139" lon="6.88045">
        <ele>311.2</ele>
        <time>2022-11-06T10:36:30.000Z</time>
      </trkpt>
      <trkpt lat="43.50139" lon="6.88044">
        <ele>311.1</ele>
        <time>2022-11-06T10:36:37.000Z</time>
      </trkpt>
      <trkpt lat="43.50135" lon="6.88033">
        <ele>311.8</ele>
        <time>2022-11-06T10:36:48.000Z</time>
      </trkpt>
      <trkpt lat="43.50132" lon="6.88026">
        <ele>312.1</ele>
        <time>2022-11-06T10:36:59.000Z</time>
      </trkpt>
      <trkpt lat="43.50131" lon="6.88026">
        <ele>311.9</ele>
        <time>2022-11-06T10:37:00.000Z</time>
      </trkpt>
      <trkpt lat="43.50132" lon="6.88026">
        <ele>311.9</ele>
        <time>2022-11-06T10:37:03.000Z</time>
      </trkpt>
      <trkpt lat="43.50132" lon="6.88026">
        <ele>312</ele>
        <time>2022-11-06T10:37:13.000Z</time>
      </trkpt>
      <trkpt lat="43.50132" lon="6.88026">
        <ele>311.9</ele>
        <time>2022-11-06T10:37:14.000Z</time>
      </trkpt>
      <trkpt lat="43.50132" lon="6.88025">
        <ele>311.7</ele>
        <time>2022-11-06T10:37:16.000Z</time>
      </trkpt>
      <trkpt lat="43.50132" lon="6.88023">
        <ele>312.2</ele>
        <time>2022-11-06T10:37:21.000Z</time>
      </trkpt>
      <trkpt lat="43.50131" lon="6.88022">
        <ele>312</ele>
        <time>2022-11-06T10:37:39.000Z</time>
      </trkpt>
      <trkpt lat="43.5013" lon="6.88022">
        <ele>312.1</ele>
        <time>2022-11-06T10:37:42.000Z</time>
      </trkpt>
      <trkpt lat="43.50129" lon="6.88021">
        <ele>311.8</ele>
        <time>2022-11-06T10:37:47.000Z</time>
      </trkpt>
      <trkpt lat="43.50129" lon="6.88008">
        <ele>312.4</ele>
        <time>2022-11-06T10:37:57.000Z</time>
      </trkpt>
      <trkpt lat="43.50128" lon="6.87995">
        <ele>312.6</ele>
        <time>2022-11-06T10:38:09.000Z</time>
      </trkpt>
      <trkpt lat="43.50128" lon="6.87981">
        <ele>313</ele>
        <time>2022-11-06T10:38:20.000Z</time>
      </trkpt>
      <trkpt lat="43.50129" lon="6.87968">
        <ele>314</ele>
        <time>2022-11-06T10:38:31.000Z</time>
      </trkpt>
      <trkpt lat="43.50129" lon="6.87955">
        <ele>315</ele>
        <time>2022-11-06T10:38:43.000Z</time>
      </trkpt>
      <trkpt lat="43.50133" lon="6.87943">
        <ele>316.2</ele>
        <time>2022-11-06T10:38:55.000Z</time>
      </trkpt>
      <trkpt lat="43.50136" lon="6.87932">
        <ele>317.4</ele>
        <time>2022-11-06T10:39:07.000Z</time>
      </trkpt>
      <trkpt lat="43.50139" lon="6.87919">
        <ele>318.8</ele>
        <time>2022-11-06T10:39:20.000Z</time>
      </trkpt>
      <trkpt lat="43.50144" lon="6.87908">
        <ele>320</ele>
        <time>2022-11-06T10:39:33.000Z</time>
      </trkpt>
      <trkpt lat="43.5015" lon="6.87898">
        <ele>321.4</ele>
        <time>2022-11-06T10:39:48.000Z</time>
      </trkpt>
      <trkpt lat="43.50157" lon="6.87889">
        <ele>322.4</ele>
        <time>2022-11-06T10:40:02.000Z</time>
      </trkpt>
      <trkpt lat="43.50162" lon="6.87879">
        <ele>324</ele>
        <time>2022-11-06T10:40:17.000Z</time>
      </trkpt>
      <trkpt lat="43.50166" lon="6.87868">
        <ele>324.6</ele>
        <time>2022-11-06T10:40:32.000Z</time>
      </trkpt>
      <trkpt lat="43.50172" lon="6.87858">
        <ele>326</ele>
        <time>2022-11-06T10:40:46.000Z</time>
      </trkpt>
      <trkpt lat="43.50179" lon="6.8785">
        <ele>328.2</ele>
        <time>2022-11-06T10:41:01.000Z</time>
      </trkpt>
      <trkpt lat="43.50183" lon="6.87847">
        <ele>329.2</ele>
        <time>2022-11-06T10:41:11.000Z</time>
      </trkpt>
      <trkpt lat="43.50183" lon="6.87846">
        <ele>329.5</ele>
        <time>2022-11-06T10:41:12.000Z</time>
      </trkpt>
      <trkpt lat="43.5019" lon="6.87838">
        <ele>330</ele>
        <time>2022-11-06T10:41:27.000Z</time>
      </trkpt>
      <trkpt lat="43.50197" lon="6.87829">
        <ele>332</ele>
        <time>2022-11-06T10:41:43.000Z</time>
      </trkpt>
      <trkpt lat="43.50204" lon="6.8782">
        <ele>333.1</ele>
        <time>2022-11-06T10:41:56.000Z</time>
      </trkpt>
      <trkpt lat="43.50209" lon="6.8781">
        <ele>335</ele>
        <time>2022-11-06T10:42:10.000Z</time>
      </trkpt>
      <trkpt lat="43.50216" lon="6.87801">
        <ele>336.8</ele>
        <time>2022-11-06T10:42:22.000Z</time>
      </trkpt>
      <trkpt lat="43.50222" lon="6.87792">
        <ele>337.9</ele>
        <time>2022-11-06T10:42:36.000Z</time>
      </trkpt>
      <trkpt lat="43.5023" lon="6.87783">
        <ele>339.5</ele>
        <time>2022-11-06T10:42:51.000Z</time>
      </trkpt>
      <trkpt lat="43.50236" lon="6.87778">
        <ele>340.5</ele>
        <time>2022-11-06T10:43:05.000Z</time>
      </trkpt>
      <trkpt lat="43.50236" lon="6.87778">
        <ele>341.3</ele>
        <time>2022-11-06T10:43:06.000Z</time>
      </trkpt>
      <trkpt lat="43.50237" lon="6.87777">
        <ele>341.6</ele>
        <time>2022-11-06T10:43:13.000Z</time>
      </trkpt>
      <trkpt lat="43.50237" lon="6.87777">
        <ele>341.2</ele>
        <time>2022-11-06T10:43:17.000Z</time>
      </trkpt>
      <trkpt lat="43.50244" lon="6.87767">
        <ele>343.1</ele>
        <time>2022-11-06T10:43:32.000Z</time>
      </trkpt>
      <trkpt lat="43.5025" lon="6.87758">
        <ele>344.4</ele>
        <time>2022-11-06T10:43:47.000Z</time>
      </trkpt>
      <trkpt lat="43.50258" lon="6.87749">
        <ele>345.8</ele>
        <time>2022-11-06T10:43:58.000Z</time>
      </trkpt>
      <trkpt lat="43.50264" lon="6.87739">
        <ele>347.1</ele>
        <time>2022-11-06T10:44:11.000Z</time>
      </trkpt>
      <trkpt lat="43.50269" lon="6.87728">
        <ele>348.6</ele>
        <time>2022-11-06T10:44:26.000Z</time>
      </trkpt>
      <trkpt lat="43.5027" lon="6.87728">
        <ele>348.7</ele>
        <time>2022-11-06T10:44:28.000Z</time>
      </trkpt>
      <trkpt lat="43.5027" lon="6.87727">
        <ele>348.7</ele>
        <time>2022-11-06T10:44:29.000Z</time>
      </trkpt>
      <trkpt lat="43.50275" lon="6.87715">
        <ele>350.1</ele>
        <time>2022-11-06T10:44:40.000Z</time>
      </trkpt>
      <trkpt lat="43.50279" lon="6.87703">
        <ele>352</ele>
        <time>2022-11-06T10:44:56.000Z</time>
      </trkpt>
      <trkpt lat="43.50282" lon="6.8769">
        <ele>352.8</ele>
        <time>2022-11-06T10:45:09.000Z</time>
      </trkpt>
      <trkpt lat="43.50284" lon="6.87678">
        <ele>354.3</ele>
        <time>2022-11-06T10:45:23.000Z</time>
      </trkpt>
      <trkpt lat="43.5029" lon="6.87668">
        <ele>356.6</ele>
        <time>2022-11-06T10:45:39.000Z</time>
      </trkpt>
      <trkpt lat="43.50292" lon="6.87656">
        <ele>358.5</ele>
        <time>2022-11-06T10:45:54.000Z</time>
      </trkpt>
      <trkpt lat="43.50293" lon="6.87643">
        <ele>359.2</ele>
        <time>2022-11-06T10:46:08.000Z</time>
      </trkpt>
      <trkpt lat="43.50297" lon="6.87631">
        <ele>361</ele>
        <time>2022-11-06T10:46:23.000Z</time>
      </trkpt>
      <trkpt lat="43.50301" lon="6.8762">
        <ele>362.8</ele>
        <time>2022-11-06T10:46:37.000Z</time>
      </trkpt>
      <trkpt lat="43.50301" lon="6.87608">
        <ele>364.5</ele>
        <time>2022-11-06T10:46:54.000Z</time>
      </trkpt>
      <trkpt lat="43.50301" lon="6.87608">
        <ele>364.6</ele>
        <time>2022-11-06T10:46:55.000Z</time>
      </trkpt>
      <trkpt lat="43.50301" lon="6.87608">
        <ele>364.2</ele>
        <time>2022-11-06T10:46:56.000Z</time>
      </trkpt>
      <trkpt lat="43.50301" lon="6.87607">
        <ele>363.8</ele>
        <time>2022-11-06T10:46:59.000Z</time>
      </trkpt>
      <trkpt lat="43.50301" lon="6.87607">
        <ele>364.4</ele>
        <time>2022-11-06T10:47:00.000Z</time>
      </trkpt>
      <trkpt lat="43.50301" lon="6.87607">
        <ele>364.6</ele>
        <time>2022-11-06T10:47:02.000Z</time>
      </trkpt>
      <trkpt lat="43.50301" lon="6.87606">
        <ele>365.1</ele>
        <time>2022-11-06T10:47:27.000Z</time>
      </trkpt>
      <trkpt lat="43.50304" lon="6.87594">
        <ele>365.5</ele>
        <time>2022-11-06T10:47:41.000Z</time>
      </trkpt>
      <trkpt lat="43.50307" lon="6.87582">
        <ele>367.4</ele>
        <time>2022-11-06T10:47:55.000Z</time>
      </trkpt>
      <trkpt lat="43.50306" lon="6.87569">
        <ele>369.1</ele>
        <time>2022-11-06T10:48:11.000Z</time>
      </trkpt>
      <trkpt lat="43.50307" lon="6.87556">
        <ele>370.6</ele>
        <time>2022-11-06T10:48:26.000Z</time>
      </trkpt>
      <trkpt lat="43.50307" lon="6.87544">
        <ele>372.2</ele>
        <time>2022-11-06T10:48:38.000Z</time>
      </trkpt>
      <trkpt lat="43.50307" lon="6.87531">
        <ele>373.4</ele>
        <time>2022-11-06T10:48:52.000Z</time>
      </trkpt>
      <trkpt lat="43.50306" lon="6.87518">
        <ele>374</ele>
        <time>2022-11-06T10:49:06.000Z</time>
      </trkpt>
      <trkpt lat="43.50303" lon="6.87506">
        <ele>375</ele>
        <time>2022-11-06T10:49:19.000Z</time>
      </trkpt>
      <trkpt lat="43.50302" lon="6.87493">
        <ele>376.3</ele>
        <time>2022-11-06T10:49:31.000Z</time>
      </trkpt>
      <trkpt lat="43.50302" lon="6.8748">
        <ele>376.8</ele>
        <time>2022-11-06T10:49:43.000Z</time>
      </trkpt>
      <trkpt lat="43.50303" lon="6.87467">
        <ele>377.4</ele>
        <time>2022-11-06T10:49:54.000Z</time>
      </trkpt>
      <trkpt lat="43.50308" lon="6.87458">
        <ele>378.6</ele>
        <time>2022-11-06T10:50:08.000Z</time>
      </trkpt>
      <trkpt lat="43.50308" lon="6.87458">
        <ele>378.7</ele>
        <time>2022-11-06T10:50:09.000Z</time>
      </trkpt>
      <trkpt lat="43.50311" lon="6.87452">
        <ele>379.4</ele>
        <time>2022-11-06T10:50:16.000Z</time>
      </trkpt>
      <trkpt lat="43.50311" lon="6.87451">
        <ele>379.1</ele>
        <time>2022-11-06T10:50:17.000Z</time>
      </trkpt>
      <trkpt lat="43.50314" lon="6.87438">
        <ele>380.8</ele>
        <time>2022-11-06T10:50:33.000Z</time>
      </trkpt>
      <trkpt lat="43.50319" lon="6.87427">
        <ele>381.9</ele>
        <time>2022-11-06T10:50:47.000Z</time>
      </trkpt>
      <trkpt lat="43.50322" lon="6.87415">
        <ele>382.9</ele>
        <time>2022-11-06T10:51:02.000Z</time>
      </trkpt>
      <trkpt lat="43.50322" lon="6.87402">
        <ele>383.8</ele>
        <time>2022-11-06T10:51:17.000Z</time>
      </trkpt>
      <trkpt lat="43.50326" lon="6.8739">
        <ele>385.5</ele>
        <time>2022-11-06T10:51:34.000Z</time>
      </trkpt>
      <trkpt lat="43.50328" lon="6.87387">
        <ele>386.8</ele>
        <time>2022-11-06T10:51:42.000Z</time>
      </trkpt>
      <trkpt lat="43.50328" lon="6.87387">
        <ele>386.9</ele>
        <time>2022-11-06T10:51:45.000Z</time>
      </trkpt>
      <trkpt lat="43.50328" lon="6.87387">
        <ele>386.8</ele>
        <time>2022-11-06T10:51:46.000Z</time>
      </trkpt>
      <trkpt lat="43.50328" lon="6.87387">
        <ele>386.7</ele>
        <time>2022-11-06T10:51:52.000Z</time>
      </trkpt>
      <trkpt lat="43.5033" lon="6.87387">
        <ele>386.7</ele>
        <time>2022-11-06T10:51:57.000Z</time>
      </trkpt>
      <trkpt lat="43.5033" lon="6.87387">
        <ele>386.7</ele>
        <time>2022-11-06T10:51:58.000Z</time>
      </trkpt>
      <trkpt lat="43.50327" lon="6.87382">
        <ele>388.3</ele>
        <time>2022-11-06T10:52:11.000Z</time>
      </trkpt>
      <trkpt lat="43.50327" lon="6.87382">
        <ele>388.6</ele>
        <time>2022-11-06T10:52:18.000Z</time>
      </trkpt>
      <trkpt lat="43.50327" lon="6.87382">
        <ele>388.7</ele>
        <time>2022-11-06T10:52:19.000Z</time>
      </trkpt>
      <trkpt lat="43.50326" lon="6.87382">
        <ele>386.4</ele>
        <time>2022-11-06T10:52:21.000Z</time>
      </trkpt>
      <trkpt lat="43.50325" lon="6.87384">
        <ele>387.1</ele>
        <time>2022-11-06T10:52:26.000Z</time>
      </trkpt>
      <trkpt lat="43.50325" lon="6.87384">
        <ele>387.4</ele>
        <time>2022-11-06T10:52:38.000Z</time>
      </trkpt>
      <trkpt lat="43.50325" lon="6.87384">
        <ele>387.4</ele>
        <time>2022-11-06T10:52:39.000Z</time>
      </trkpt>
      <trkpt lat="43.50324" lon="6.87384">
        <ele>387.2</ele>
        <time>2022-11-06T10:52:50.000Z</time>
      </trkpt>
      <trkpt lat="43.50324" lon="6.87384">
        <ele>387.2</ele>
        <time>2022-11-06T10:52:51.000Z</time>
      </trkpt>
      <trkpt lat="43.50324" lon="6.87384">
        <ele>387</ele>
        <time>2022-11-06T10:53:06.000Z</time>
      </trkpt>
      <trkpt lat="43.50324" lon="6.87384">
        <ele>387</ele>
        <time>2022-11-06T10:53:07.000Z</time>
      </trkpt>
      <trkpt lat="43.50324" lon="6.87384">
        <ele>386.7</ele>
        <time>2022-11-06T10:53:27.000Z</time>
      </trkpt>
      <trkpt lat="43.50329" lon="6.87372">
        <ele>387.7</ele>
        <time>2022-11-06T10:53:39.000Z</time>
      </trkpt>
      <trkpt lat="43.50331" lon="6.8736">
        <ele>389.7</ele>
        <time>2022-11-06T10:53:50.000Z</time>
      </trkpt>
      <trkpt lat="43.50331" lon="6.87347">
        <ele>391.2</ele>
        <time>2022-11-06T10:54:02.000Z</time>
      </trkpt>
      <trkpt lat="43.50332" lon="6.87335">
        <ele>393.2</ele>
        <time>2022-11-06T10:54:15.000Z</time>
      </trkpt>
      <trkpt lat="43.50332" lon="6.87348">
        <ele>395.1</ele>
        <time>2022-11-06T10:54:28.000Z</time>
      </trkpt>
      <trkpt lat="43.50337" lon="6.87358">
        <ele>396.4</ele>
        <time>2022-11-06T10:54:42.000Z</time>
      </trkpt>
      <trkpt lat="43.50341" lon="6.8737">
        <ele>397.8</ele>
        <time>2022-11-06T10:54:56.000Z</time>
      </trkpt>
      <trkpt lat="43.50344" lon="6.87383">
        <ele>399</ele>
        <time>2022-11-06T10:55:11.000Z</time>
      </trkpt>
      <trkpt lat="43.50348" lon="6.87394">
        <ele>400.2</ele>
        <time>2022-11-06T10:55:24.000Z</time>
      </trkpt>
      <trkpt lat="43.50355" lon="6.87402">
        <ele>401.9</ele>
        <time>2022-11-06T10:55:38.000Z</time>
      </trkpt>
      <trkpt lat="43.50359" lon="6.87414">
        <ele>403.5</ele>
        <time>2022-11-06T10:55:54.000Z</time>
      </trkpt>
      <trkpt lat="43.50359" lon="6.87427">
        <ele>405.4</ele>
        <time>2022-11-06T10:56:12.000Z</time>
      </trkpt>
      <trkpt lat="43.50368" lon="6.87426">
        <ele>407.1</ele>
        <time>2022-11-06T10:56:31.000Z</time>
      </trkpt>
      <trkpt lat="43.50368" lon="6.87426">
        <ele>406.8</ele>
        <time>2022-11-06T10:56:32.000Z</time>
      </trkpt>
      <trkpt lat="43.50369" lon="6.87426">
        <ele>406.4</ele>
        <time>2022-11-06T10:56:34.000Z</time>
      </trkpt>
      <trkpt lat="43.50373" lon="6.87415">
        <ele>407.9</ele>
        <time>2022-11-06T10:56:47.000Z</time>
      </trkpt>
      <trkpt lat="43.50373" lon="6.87413">
        <ele>408.3</ele>
        <time>2022-11-06T10:56:51.000Z</time>
      </trkpt>
      <trkpt lat="43.50373" lon="6.87413">
        <ele>408.2</ele>
        <time>2022-11-06T10:56:55.000Z</time>
      </trkpt>
      <trkpt lat="43.50374" lon="6.8741">
        <ele>408.5</ele>
        <time>2022-11-06T10:57:01.000Z</time>
      </trkpt>
      <trkpt lat="43.50374" lon="6.87409">
        <ele>408.2</ele>
        <time>2022-11-06T10:57:21.000Z</time>
      </trkpt>
      <trkpt lat="43.50375" lon="6.87396">
        <ele>409.8</ele>
        <time>2022-11-06T10:57:35.000Z</time>
      </trkpt>
      <trkpt lat="43.50377" lon="6.87384">
        <ele>411.1</ele>
        <time>2022-11-06T10:57:49.000Z</time>
      </trkpt>
      <trkpt lat="43.50379" lon="6.87372">
        <ele>412.9</ele>
        <time>2022-11-06T10:58:03.000Z</time>
      </trkpt>
      <trkpt lat="43.5038" lon="6.87359">
        <ele>414.2</ele>
        <time>2022-11-06T10:58:17.000Z</time>
      </trkpt>
      <trkpt lat="43.50383" lon="6.87347">
        <ele>416</ele>
        <time>2022-11-06T10:58:29.000Z</time>
      </trkpt>
      <trkpt lat="43.50386" lon="6.87335">
        <ele>418</ele>
        <time>2022-11-06T10:58:43.000Z</time>
      </trkpt>
      <trkpt lat="43.50389" lon="6.87326">
        <ele>420.3</ele>
        <time>2022-11-06T10:59:01.000Z</time>
      </trkpt>
      <trkpt lat="43.50389" lon="6.87326">
        <ele>419.4</ele>
        <time>2022-11-06T10:59:07.000Z</time>
      </trkpt>
      <trkpt lat="43.50387" lon="6.87313">
        <ele>421.1</ele>
        <time>2022-11-06T10:59:22.000Z</time>
      </trkpt>
      <trkpt lat="43.50388" lon="6.87301">
        <ele>423.7</ele>
        <time>2022-11-06T10:59:41.000Z</time>
      </trkpt>
      <trkpt lat="43.50388" lon="6.873">
        <ele>423.3</ele>
        <time>2022-11-06T10:59:44.000Z</time>
      </trkpt>
      <trkpt lat="43.50388" lon="6.87299">
        <ele>423.4</ele>
        <time>2022-11-06T10:59:45.000Z</time>
      </trkpt>
      <trkpt lat="43.5039" lon="6.87286">
        <ele>424.8</ele>
        <time>2022-11-06T11:00:00.000Z</time>
      </trkpt>
      <trkpt lat="43.50389" lon="6.87273">
        <ele>426.6</ele>
        <time>2022-11-06T11:00:11.000Z</time>
      </trkpt>
      <trkpt lat="43.50392" lon="6.8726">
        <ele>427.6</ele>
        <time>2022-11-06T11:00:26.000Z</time>
      </trkpt>
      <trkpt lat="43.50389" lon="6.87248">
        <ele>429.5</ele>
        <time>2022-11-06T11:00:41.000Z</time>
      </trkpt>
      <trkpt lat="43.50385" lon="6.87237">
        <ele>431.4</ele>
        <time>2022-11-06T11:00:57.000Z</time>
      </trkpt>
      <trkpt lat="43.50379" lon="6.87227">
        <ele>432.9</ele>
        <time>2022-11-06T11:01:10.000Z</time>
      </trkpt>
      <trkpt lat="43.50371" lon="6.8722">
        <ele>434.2</ele>
        <time>2022-11-06T11:01:25.000Z</time>
      </trkpt>
      <trkpt lat="43.50362" lon="6.87214">
        <ele>435.9</ele>
        <time>2022-11-06T11:01:41.000Z</time>
      </trkpt>
      <trkpt lat="43.50354" lon="6.87211">
        <ele>437.7</ele>
        <time>2022-11-06T11:01:55.000Z</time>
      </trkpt>
      <trkpt lat="43.50345" lon="6.87209">
        <ele>439.3</ele>
        <time>2022-11-06T11:02:10.000Z</time>
      </trkpt>
      <trkpt lat="43.50335" lon="6.87209">
        <ele>440.8</ele>
        <time>2022-11-06T11:02:25.000Z</time>
      </trkpt>
      <trkpt lat="43.5034" lon="6.87203">
        <ele>442.3</ele>
        <time>2022-11-06T11:02:45.000Z</time>
      </trkpt>
      <trkpt lat="43.50341" lon="6.87203">
        <ele>442.1</ele>
        <time>2022-11-06T11:02:46.000Z</time>
      </trkpt>
      <trkpt lat="43.5035" lon="6.87201">
        <ele>443</ele>
        <time>2022-11-06T11:02:59.000Z</time>
      </trkpt>
      <trkpt lat="43.50358" lon="6.87197">
        <ele>443.9</ele>
        <time>2022-11-06T11:03:10.000Z</time>
      </trkpt>
      <trkpt lat="43.50362" lon="6.87196">
        <ele>444.7</ele>
        <time>2022-11-06T11:03:19.000Z</time>
      </trkpt>
      <trkpt lat="43.50363" lon="6.87196">
        <ele>445</ele>
        <time>2022-11-06T11:03:20.000Z</time>
      </trkpt>
      <trkpt lat="43.50366" lon="6.87194">
        <ele>445.6</ele>
        <time>2022-11-06T11:03:27.000Z</time>
      </trkpt>
      <trkpt lat="43.50367" lon="6.87194">
        <ele>446.1</ele>
        <time>2022-11-06T11:03:31.000Z</time>
      </trkpt>
      <trkpt lat="43.50376" lon="6.8719">
        <ele>447.6</ele>
        <time>2022-11-06T11:03:43.000Z</time>
      </trkpt>
      <trkpt lat="43.50381" lon="6.87188">
        <ele>448.4</ele>
        <time>2022-11-06T11:03:53.000Z</time>
      </trkpt>
      <trkpt lat="43.50381" lon="6.87188">
        <ele>448.5</ele>
        <time>2022-11-06T11:03:59.000Z</time>
      </trkpt>
      <trkpt lat="43.50381" lon="6.87189">
        <ele>448.5</ele>
        <time>2022-11-06T11:04:00.000Z</time>
      </trkpt>
      <trkpt lat="43.50382" lon="6.87189">
        <ele>448.6</ele>
        <time>2022-11-06T11:04:01.000Z</time>
      </trkpt>
      <trkpt lat="43.50391" lon="6.8719">
        <ele>449.7</ele>
        <time>2022-11-06T11:04:19.000Z</time>
      </trkpt>
      <trkpt lat="43.504" lon="6.87189">
        <ele>451.3</ele>
        <time>2022-11-06T11:04:31.000Z</time>
      </trkpt>
      <trkpt lat="43.504" lon="6.87188">
        <ele>451.3</ele>
        <time>2022-11-06T11:04:34.000Z</time>
      </trkpt>
      <trkpt lat="43.504" lon="6.87188">
        <ele>451.4</ele>
        <time>2022-11-06T11:04:35.000Z</time>
      </trkpt>
      <trkpt lat="43.504" lon="6.87188">
        <ele>451.1</ele>
        <time>2022-11-06T11:04:40.000Z</time>
      </trkpt>
      <trkpt lat="43.5041" lon="6.87187">
        <ele>452.3</ele>
        <time>2022-11-06T11:04:52.000Z</time>
      </trkpt>
      <trkpt lat="43.50415" lon="6.87189">
        <ele>453.7</ele>
        <time>2022-11-06T11:05:06.000Z</time>
      </trkpt>
      <trkpt lat="43.50416" lon="6.87189">
        <ele>453.9</ele>
        <time>2022-11-06T11:05:07.000Z</time>
      </trkpt>
      <trkpt lat="43.50419" lon="6.8719">
        <ele>454.3</ele>
        <time>2022-11-06T11:05:14.000Z</time>
      </trkpt>
      <trkpt lat="43.50418" lon="6.8719">
        <ele>454.4</ele>
        <time>2022-11-06T11:05:15.000Z</time>
      </trkpt>
      <trkpt lat="43.50427" lon="6.87197">
        <ele>456.8</ele>
        <time>2022-11-06T11:05:34.000Z</time>
      </trkpt>
      <trkpt lat="43.50432" lon="6.87207">
        <ele>457.5</ele>
        <time>2022-11-06T11:05:46.000Z</time>
      </trkpt>
      <trkpt lat="43.5044" lon="6.87214">
        <ele>458.8</ele>
        <time>2022-11-06T11:05:58.000Z</time>
      </trkpt>
      <trkpt lat="43.50446" lon="6.87223">
        <ele>461</ele>
        <time>2022-11-06T11:06:17.000Z</time>
      </trkpt>
      <trkpt lat="43.5045" lon="6.87235">
        <ele>462.3</ele>
        <time>2022-11-06T11:06:33.000Z</time>
      </trkpt>
      <trkpt lat="43.50456" lon="6.87244">
        <ele>463.8</ele>
        <time>2022-11-06T11:06:51.000Z</time>
      </trkpt>
      <trkpt lat="43.50465" lon="6.87239">
        <ele>466.1</ele>
        <time>2022-11-06T11:07:08.000Z</time>
      </trkpt>
      <trkpt lat="43.50465" lon="6.87225">
        <ele>466.4</ele>
        <time>2022-11-06T11:07:19.000Z</time>
      </trkpt>
      <trkpt lat="43.50466" lon="6.87213">
        <ele>467.4</ele>
        <time>2022-11-06T11:07:30.000Z</time>
      </trkpt>
      <trkpt lat="43.50468" lon="6.872">
        <ele>469.2</ele>
        <time>2022-11-06T11:07:47.000Z</time>
      </trkpt>
      <trkpt lat="43.50471" lon="6.87188">
        <ele>470.7</ele>
        <time>2022-11-06T11:08:07.000Z</time>
      </trkpt>
      <trkpt lat="43.50475" lon="6.87177">
        <ele>472.3</ele>
        <time>2022-11-06T11:08:19.000Z</time>
      </trkpt>
      <trkpt lat="43.50477" lon="6.87164">
        <ele>474</ele>
        <time>2022-11-06T11:08:33.000Z</time>
      </trkpt>
      <trkpt lat="43.50478" lon="6.87161">
        <ele>474.6</ele>
        <time>2022-11-06T11:08:44.000Z</time>
      </trkpt>
      <trkpt lat="43.50478" lon="6.8716">
        <ele>474.5</ele>
        <time>2022-11-06T11:08:50.000Z</time>
      </trkpt>
      <trkpt lat="43.50481" lon="6.87148">
        <ele>476</ele>
        <time>2022-11-06T11:09:08.000Z</time>
      </trkpt>
      <trkpt lat="43.50484" lon="6.87136">
        <ele>478</ele>
        <time>2022-11-06T11:09:40.000Z</time>
      </trkpt>
      <trkpt lat="43.50488" lon="6.87125">
        <ele>478.5</ele>
        <time>2022-11-06T11:09:53.000Z</time>
      </trkpt>
      <trkpt lat="43.50488" lon="6.87125">
        <ele>478.4</ele>
        <time>2022-11-06T11:09:54.000Z</time>
      </trkpt>
      <trkpt lat="43.50488" lon="6.87125">
        <ele>478.4</ele>
        <time>2022-11-06T11:09:55.000Z</time>
      </trkpt>
      <trkpt lat="43.50488" lon="6.87125">
        <ele>478.5</ele>
        <time>2022-11-06T11:09:56.000Z</time>
      </trkpt>
      <trkpt lat="43.50489" lon="6.87125">
        <ele>478.6</ele>
        <time>2022-11-06T11:09:57.000Z</time>
      </trkpt>
      <trkpt lat="43.50489" lon="6.87125">
        <ele>478.6</ele>
        <time>2022-11-06T11:09:58.000Z</time>
      </trkpt>
      <trkpt lat="43.50489" lon="6.87125">
        <ele>478.6</ele>
        <time>2022-11-06T11:10:00.000Z</time>
      </trkpt>
      <trkpt lat="43.50491" lon="6.87124">
        <ele>478.6</ele>
        <time>2022-11-06T11:10:02.000Z</time>
      </trkpt>
      <trkpt lat="43.50491" lon="6.87124">
        <ele>478.6</ele>
        <time>2022-11-06T11:10:04.000Z</time>
      </trkpt>
      <trkpt lat="43.50492" lon="6.87124">
        <ele>478.6</ele>
        <time>2022-11-06T11:10:08.000Z</time>
      </trkpt>
      <trkpt lat="43.50492" lon="6.87124">
        <ele>478.6</ele>
        <time>2022-11-06T11:10:09.000Z</time>
      </trkpt>
      <trkpt lat="43.5049" lon="6.87125">
        <ele>478.6</ele>
        <time>2022-11-06T11:10:16.000Z</time>
      </trkpt>
      <trkpt lat="43.50491" lon="6.87125">
        <ele>478.6</ele>
        <time>2022-11-06T11:10:28.000Z</time>
      </trkpt>
      <trkpt lat="43.50491" lon="6.87126">
        <ele>478.7</ele>
        <time>2022-11-06T11:10:40.000Z</time>
      </trkpt>
      <trkpt lat="43.50491" lon="6.87126">
        <ele>478.6</ele>
        <time>2022-11-06T11:10:42.000Z</time>
      </trkpt>
      <trkpt lat="43.50488" lon="6.87127">
        <ele>478.5</ele>
        <time>2022-11-06T11:10:49.000Z</time>
      </trkpt>
      <trkpt lat="43.50488" lon="6.87127">
        <ele>478.7</ele>
        <time>2022-11-06T11:10:51.000Z</time>
      </trkpt>
      <trkpt lat="43.50488" lon="6.87126">
        <ele>478.6</ele>
        <time>2022-11-06T11:10:54.000Z</time>
      </trkpt>
      <trkpt lat="43.50487" lon="6.87126">
        <ele>478.5</ele>
        <time>2022-11-06T11:10:56.000Z</time>
      </trkpt>
      <trkpt lat="43.50487" lon="6.87126">
        <ele>478.5</ele>
        <time>2022-11-06T11:10:57.000Z</time>
      </trkpt>
      <trkpt lat="43.50487" lon="6.87126">
        <ele>478.4</ele>
        <time>2022-11-06T11:11:00.000Z</time>
      </trkpt>
      <trkpt lat="43.50487" lon="6.87126">
        <ele>478.5</ele>
        <time>2022-11-06T11:11:01.000Z</time>
      </trkpt>
      <trkpt lat="43.50487" lon="6.87126">
        <ele>478.5</ele>
        <time>2022-11-06T11:11:12.000Z</time>
      </trkpt>
      <trkpt lat="43.50487" lon="6.87127">
        <ele>478.4</ele>
        <time>2022-11-06T11:11:16.000Z</time>
      </trkpt>
      <trkpt lat="43.50487" lon="6.87127">
        <ele>478.5</ele>
        <time>2022-11-06T11:11:17.000Z</time>
      </trkpt>
      <trkpt lat="43.50485" lon="6.87127">
        <ele>478.5</ele>
        <time>2022-11-06T11:11:23.000Z</time>
      </trkpt>
      <trkpt lat="43.50485" lon="6.87127">
        <ele>478.5</ele>
        <time>2022-11-06T11:11:38.000Z</time>
      </trkpt>
      <trkpt lat="43.50484" lon="6.87127">
        <ele>478.6</ele>
        <time>2022-11-06T11:11:42.000Z</time>
      </trkpt>
      <trkpt lat="43.50484" lon="6.87127">
        <ele>478.6</ele>
        <time>2022-11-06T11:11:45.000Z</time>
      </trkpt>
      <trkpt lat="43.50482" lon="6.87126">
        <ele>478.7</ele>
        <time>2022-11-06T11:11:52.000Z</time>
      </trkpt>
      <trkpt lat="43.50483" lon="6.87126">
        <ele>478.8</ele>
        <time>2022-11-06T11:12:03.000Z</time>
      </trkpt>
      <trkpt lat="43.50483" lon="6.87126">
        <ele>478.8</ele>
        <time>2022-11-06T11:12:04.000Z</time>
      </trkpt>
      <trkpt lat="43.50482" lon="6.87126">
        <ele>478.8</ele>
        <time>2022-11-06T11:12:21.000Z</time>
      </trkpt>
      <trkpt lat="43.50482" lon="6.87126">
        <ele>478.8</ele>
        <time>2022-11-06T11:12:22.000Z</time>
      </trkpt>
      <trkpt lat="43.50482" lon="6.87126">
        <ele>479.2</ele>
        <time>2022-11-06T11:12:31.000Z</time>
      </trkpt>
      <trkpt lat="43.50482" lon="6.87126">
        <ele>479</ele>
        <time>2022-11-06T11:12:32.000Z</time>
      </trkpt>
      <trkpt lat="43.50482" lon="6.87126">
        <ele>478.6</ele>
        <time>2022-11-06T11:12:34.000Z</time>
      </trkpt>
      <trkpt lat="43.5048" lon="6.87124">
        <ele>478.6</ele>
        <time>2022-11-06T11:12:39.000Z</time>
      </trkpt>
      <trkpt lat="43.5048" lon="6.87123">
        <ele>479.2</ele>
        <time>2022-11-06T11:12:55.000Z</time>
      </trkpt>
      <trkpt lat="43.5048" lon="6.87121">
        <ele>479.3</ele>
        <time>2022-11-06T11:13:02.000Z</time>
      </trkpt>
      <trkpt lat="43.5048" lon="6.87121">
        <ele>479.1</ele>
        <time>2022-11-06T11:13:10.000Z</time>
      </trkpt>
      <trkpt lat="43.50481" lon="6.87122">
        <ele>479.5</ele>
        <time>2022-11-06T11:13:13.000Z</time>
      </trkpt>
      <trkpt lat="43.50481" lon="6.87123">
        <ele>479.2</ele>
        <time>2022-11-06T11:13:14.000Z</time>
      </trkpt>
      <trkpt lat="43.50481" lon="6.87123">
        <ele>479</ele>
        <time>2022-11-06T11:13:15.000Z</time>
      </trkpt>
      <trkpt lat="43.50482" lon="6.87123">
        <ele>479</ele>
        <time>2022-11-06T11:13:17.000Z</time>
      </trkpt>
      <trkpt lat="43.50479" lon="6.87111">
        <ele>479.2</ele>
        <time>2022-11-06T11:13:31.000Z</time>
      </trkpt>
      <trkpt lat="43.50478" lon="6.87098">
        <ele>481.1</ele>
        <time>2022-11-06T11:13:45.000Z</time>
      </trkpt>
      <trkpt lat="43.50477" lon="6.87089">
        <ele>483.2</ele>
        <time>2022-11-06T11:14:04.000Z</time>
      </trkpt>
      <trkpt lat="43.50477" lon="6.87089">
        <ele>483.2</ele>
        <time>2022-11-06T11:14:05.000Z</time>
      </trkpt>
      <trkpt lat="43.50476" lon="6.87076">
        <ele>485</ele>
        <time>2022-11-06T11:14:21.000Z</time>
      </trkpt>
      <trkpt lat="43.50474" lon="6.87063">
        <ele>485.7</ele>
        <time>2022-11-06T11:14:38.000Z</time>
      </trkpt>
      <trkpt lat="43.50471" lon="6.87051">
        <ele>488.2</ele>
        <time>2022-11-06T11:14:54.000Z</time>
      </trkpt>
      <trkpt lat="43.5047" lon="6.87038">
        <ele>489.6</ele>
        <time>2022-11-06T11:15:10.000Z</time>
      </trkpt>
      <trkpt lat="43.50467" lon="6.87026">
        <ele>491.5</ele>
        <time>2022-11-06T11:15:29.000Z</time>
      </trkpt>
      <trkpt lat="43.50464" lon="6.87014">
        <ele>493.2</ele>
        <time>2022-11-06T11:15:46.000Z</time>
      </trkpt>
      <trkpt lat="43.5046" lon="6.87002">
        <ele>493.5</ele>
        <time>2022-11-06T11:16:03.000Z</time>
      </trkpt>
      <trkpt lat="43.50459" lon="6.86997">
        <ele>495.6</ele>
        <time>2022-11-06T11:16:13.000Z</time>
      </trkpt>
      <trkpt lat="43.50459" lon="6.86997">
        <ele>495.8</ele>
        <time>2022-11-06T11:16:14.000Z</time>
      </trkpt>
      <trkpt lat="43.50454" lon="6.86986">
        <ele>498.2</ele>
        <time>2022-11-06T11:16:34.000Z</time>
      </trkpt>
      <trkpt lat="43.5045" lon="6.86974">
        <ele>499.5</ele>
        <time>2022-11-06T11:16:53.000Z</time>
      </trkpt>
      <trkpt lat="43.50443" lon="6.86965">
        <ele>502.6</ele>
        <time>2022-11-06T11:17:14.000Z</time>
      </trkpt>
      <trkpt lat="43.50435" lon="6.86959">
        <ele>503.8</ele>
        <time>2022-11-06T11:17:28.000Z</time>
      </trkpt>
      <trkpt lat="43.50426" lon="6.86955">
        <ele>502.8</ele>
        <time>2022-11-06T11:17:43.000Z</time>
      </trkpt>
      <trkpt lat="43.50418" lon="6.86949">
        <ele>502.4</ele>
        <time>2022-11-06T11:17:54.000Z</time>
      </trkpt>
      <trkpt lat="43.50408" lon="6.86944">
        <ele>502.2</ele>
        <time>2022-11-06T11:18:07.000Z</time>
      </trkpt>
      <trkpt lat="43.50407" lon="6.86943">
        <ele>502.3</ele>
        <time>2022-11-06T11:18:10.000Z</time>
      </trkpt>
      <trkpt lat="43.50407" lon="6.86943">
        <ele>502</ele>
        <time>2022-11-06T11:18:15.000Z</time>
      </trkpt>
      <trkpt lat="43.50398" lon="6.86943">
        <ele>502.1</ele>
        <time>2022-11-06T11:18:26.000Z</time>
      </trkpt>
      <trkpt lat="43.50389" lon="6.86939">
        <ele>502.6</ele>
        <time>2022-11-06T11:18:37.000Z</time>
      </trkpt>
      <trkpt lat="43.5038" lon="6.86936">
        <ele>502.3</ele>
        <time>2022-11-06T11:18:48.000Z</time>
      </trkpt>
      <trkpt lat="43.50376" lon="6.86937">
        <ele>502.7</ele>
        <time>2022-11-06T11:18:54.000Z</time>
      </trkpt>
      <trkpt lat="43.50376" lon="6.86936">
        <ele>502.5</ele>
        <time>2022-11-06T11:19:00.000Z</time>
      </trkpt>
      <trkpt lat="43.50367" lon="6.86934">
        <ele>502.9</ele>
        <time>2022-11-06T11:19:10.000Z</time>
      </trkpt>
      <trkpt lat="43.50358" lon="6.86932">
        <ele>503.6</ele>
        <time>2022-11-06T11:19:21.000Z</time>
      </trkpt>
      <trkpt lat="43.50348" lon="6.86931">
        <ele>504.8</ele>
        <time>2022-11-06T11:19:33.000Z</time>
      </trkpt>
      <trkpt lat="43.50339" lon="6.8693">
        <ele>506.2</ele>
        <time>2022-11-06T11:19:47.000Z</time>
      </trkpt>
      <trkpt lat="43.5033" lon="6.86924">
        <ele>506</ele>
        <time>2022-11-06T11:19:57.000Z</time>
      </trkpt>
      <trkpt lat="43.50329" lon="6.86923">
        <ele>506.3</ele>
        <time>2022-11-06T11:20:01.000Z</time>
      </trkpt>
      <trkpt lat="43.50328" lon="6.86923">
        <ele>506.3</ele>
        <time>2022-11-06T11:20:02.000Z</time>
      </trkpt>
      <trkpt lat="43.50321" lon="6.86915">
        <ele>506.7</ele>
        <time>2022-11-06T11:20:11.000Z</time>
      </trkpt>
      <trkpt lat="43.50313" lon="6.86907">
        <ele>507.1</ele>
        <time>2022-11-06T11:20:21.000Z</time>
      </trkpt>
      <trkpt lat="43.50306" lon="6.86898">
        <ele>507.2</ele>
        <time>2022-11-06T11:20:30.000Z</time>
      </trkpt>
      <trkpt lat="43.50297" lon="6.86891">
        <ele>506.3</ele>
        <time>2022-11-06T11:20:39.000Z</time>
      </trkpt>
      <trkpt lat="43.50289" lon="6.86883">
        <ele>505.5</ele>
        <time>2022-11-06T11:20:46.000Z</time>
      </trkpt>
      <trkpt lat="43.5028" lon="6.86881">
        <ele>505.4</ele>
        <time>2022-11-06T11:20:57.000Z</time>
      </trkpt>
      <trkpt lat="43.5027" lon="6.8688">
        <ele>503.9</ele>
        <time>2022-11-06T11:21:06.000Z</time>
      </trkpt>
      <trkpt lat="43.50262" lon="6.86887">
        <ele>503.6</ele>
        <time>2022-11-06T11:21:16.000Z</time>
      </trkpt>
      <trkpt lat="43.50254" lon="6.86894">
        <ele>502.7</ele>
        <time>2022-11-06T11:21:27.000Z</time>
      </trkpt>
      <trkpt lat="43.50249" lon="6.86905">
        <ele>502.1</ele>
        <time>2022-11-06T11:21:37.000Z</time>
      </trkpt>
      <trkpt lat="43.5024" lon="6.86913">
        <ele>501.1</ele>
        <time>2022-11-06T11:21:48.000Z</time>
      </trkpt>
      <trkpt lat="43.50234" lon="6.86922">
        <ele>500.7</ele>
        <time>2022-11-06T11:21:58.000Z</time>
      </trkpt>
      <trkpt lat="43.50227" lon="6.8693">
        <ele>501.7</ele>
        <time>2022-11-06T11:22:08.000Z</time>
      </trkpt>
      <trkpt lat="43.50219" lon="6.86938">
        <ele>502.4</ele>
        <time>2022-11-06T11:22:19.000Z</time>
      </trkpt>
      <trkpt lat="43.50212" lon="6.86946">
        <ele>503.1</ele>
        <time>2022-11-06T11:22:30.000Z</time>
      </trkpt>
      <trkpt lat="43.50205" lon="6.86954">
        <ele>504.2</ele>
        <time>2022-11-06T11:22:42.000Z</time>
      </trkpt>
      <trkpt lat="43.50199" lon="6.86964">
        <ele>504.6</ele>
        <time>2022-11-06T11:22:53.000Z</time>
      </trkpt>
      <trkpt lat="43.50193" lon="6.86974">
        <ele>505.3</ele>
        <time>2022-11-06T11:23:05.000Z</time>
      </trkpt>
      <trkpt lat="43.50192" lon="6.86976">
        <ele>505.2</ele>
        <time>2022-11-06T11:23:08.000Z</time>
      </trkpt>
      <trkpt lat="43.50192" lon="6.86977">
        <ele>505</ele>
        <time>2022-11-06T11:23:12.000Z</time>
      </trkpt>
      <trkpt lat="43.50192" lon="6.86977">
        <ele>504.9</ele>
        <time>2022-11-06T11:23:13.000Z</time>
      </trkpt>
      <trkpt lat="43.50192" lon="6.86977">
        <ele>505.3</ele>
        <time>2022-11-06T11:23:17.000Z</time>
      </trkpt>
      <trkpt lat="43.50185" lon="6.86985">
        <ele>505.5</ele>
        <time>2022-11-06T11:23:30.000Z</time>
      </trkpt>
      <trkpt lat="43.50181" lon="6.86994">
        <ele>505.3</ele>
        <time>2022-11-06T11:23:41.000Z</time>
      </trkpt>
      <trkpt lat="43.50181" lon="6.86994">
        <ele>506.1</ele>
        <time>2022-11-06T11:23:42.000Z</time>
      </trkpt>
      <trkpt lat="43.50174" lon="6.87004">
        <ele>507.4</ele>
        <time>2022-11-06T11:23:55.000Z</time>
      </trkpt>
      <trkpt lat="43.50169" lon="6.87014">
        <ele>508.3</ele>
        <time>2022-11-06T11:24:07.000Z</time>
      </trkpt>
      <trkpt lat="43.50163" lon="6.87024">
        <ele>509.1</ele>
        <time>2022-11-06T11:24:18.000Z</time>
      </trkpt>
      <trkpt lat="43.50156" lon="6.87033">
        <ele>510.1</ele>
        <time>2022-11-06T11:24:29.000Z</time>
      </trkpt>
      <trkpt lat="43.50153" lon="6.87047">
        <ele>511.1</ele>
        <time>2022-11-06T11:24:41.000Z</time>
      </trkpt>
      <trkpt lat="43.50149" lon="6.8705">
        <ele>511.9</ele>
        <time>2022-11-06T11:24:51.000Z</time>
      </trkpt>
      <trkpt lat="43.50149" lon="6.8705">
        <ele>512.1</ele>
        <time>2022-11-06T11:24:52.000Z</time>
      </trkpt>
      <trkpt lat="43.50145" lon="6.87056">
        <ele>513.1</ele>
        <time>2022-11-06T11:25:02.000Z</time>
      </trkpt>
      <trkpt lat="43.50145" lon="6.87056">
        <ele>513.2</ele>
        <time>2022-11-06T11:25:03.000Z</time>
      </trkpt>
      <trkpt lat="43.50145" lon="6.87056">
        <ele>513.3</ele>
        <time>2022-11-06T11:25:04.000Z</time>
      </trkpt>
      <trkpt lat="43.50145" lon="6.87056">
        <ele>513.7</ele>
        <time>2022-11-06T11:25:07.000Z</time>
      </trkpt>
      <trkpt lat="43.50143" lon="6.87058">
        <ele>513.8</ele>
        <time>2022-11-06T11:25:13.000Z</time>
      </trkpt>
      <trkpt lat="43.50143" lon="6.87058">
        <ele>513.6</ele>
        <time>2022-11-06T11:25:14.000Z</time>
      </trkpt>
      <trkpt lat="43.50141" lon="6.8706">
        <ele>513.2</ele>
        <time>2022-11-06T11:25:22.000Z</time>
      </trkpt>
      <trkpt lat="43.50141" lon="6.8706">
        <ele>515.6</ele>
        <time>2022-11-06T11:25:25.000Z</time>
      </trkpt>
      <trkpt lat="43.50138" lon="6.87072">
        <ele>515.9</ele>
        <time>2022-11-06T11:25:45.000Z</time>
      </trkpt>
      <trkpt lat="43.50133" lon="6.87079">
        <ele>516.5</ele>
        <time>2022-11-06T11:25:56.000Z</time>
      </trkpt>
      <trkpt lat="43.50133" lon="6.87079">
        <ele>517.1</ele>
        <time>2022-11-06T11:25:59.000Z</time>
      </trkpt>
      <trkpt lat="43.50125" lon="6.87086">
        <ele>519.3</ele>
        <time>2022-11-06T11:26:16.000Z</time>
      </trkpt>
      <trkpt lat="43.50118" lon="6.87093">
        <ele>521</ele>
        <time>2022-11-06T11:26:32.000Z</time>
      </trkpt>
      <trkpt lat="43.50109" lon="6.87098">
        <ele>522.6</ele>
        <time>2022-11-06T11:26:49.000Z</time>
      </trkpt>
      <trkpt lat="43.50101" lon="6.87105">
        <ele>524.5</ele>
        <time>2022-11-06T11:27:05.000Z</time>
      </trkpt>
      <trkpt lat="43.50094" lon="6.87113">
        <ele>526.3</ele>
        <time>2022-11-06T11:27:22.000Z</time>
      </trkpt>
      <trkpt lat="43.50085" lon="6.87118">
        <ele>528.4</ele>
        <time>2022-11-06T11:27:42.000Z</time>
      </trkpt>
      <trkpt lat="43.50078" lon="6.87113">
        <ele>530.1</ele>
        <time>2022-11-06T11:28:01.000Z</time>
      </trkpt>
      <trkpt lat="43.50078" lon="6.87113">
        <ele>530.5</ele>
        <time>2022-11-06T11:28:02.000Z</time>
      </trkpt>
      <trkpt lat="43.50072" lon="6.87103">
        <ele>533.5</ele>
        <time>2022-11-06T11:28:23.000Z</time>
      </trkpt>
      <trkpt lat="43.50067" lon="6.87093">
        <ele>536.3</ele>
        <time>2022-11-06T11:28:44.000Z</time>
      </trkpt>
      <trkpt lat="43.50064" lon="6.87088">
        <ele>537.7</ele>
        <time>2022-11-06T11:28:55.000Z</time>
      </trkpt>
      <trkpt lat="43.50064" lon="6.87088">
        <ele>537.5</ele>
        <time>2022-11-06T11:29:00.000Z</time>
      </trkpt>
      <trkpt lat="43.50063" lon="6.87077">
        <ele>537.6</ele>
        <time>2022-11-06T11:29:14.000Z</time>
      </trkpt>
      <trkpt lat="43.50062" lon="6.87076">
        <ele>537.6</ele>
        <time>2022-11-06T11:29:16.000Z</time>
      </trkpt>
      <trkpt lat="43.50057" lon="6.87065">
        <ele>539.2</ele>
        <time>2022-11-06T11:29:30.000Z</time>
      </trkpt>
      <trkpt lat="43.50052" lon="6.87054">
        <ele>537.4</ele>
        <time>2022-11-06T11:29:48.000Z</time>
      </trkpt>
      <trkpt lat="43.50053" lon="6.87054">
        <ele>538.3</ele>
        <time>2022-11-06T11:29:49.000Z</time>
      </trkpt>
      <trkpt lat="43.50053" lon="6.87054">
        <ele>540.2</ele>
        <time>2022-11-06T11:29:52.000Z</time>
      </trkpt>
      <trkpt lat="43.50053" lon="6.87054">
        <ele>540.4</ele>
        <time>2022-11-06T11:29:54.000Z</time>
      </trkpt>
      <trkpt lat="43.50053" lon="6.87054">
        <ele>540</ele>
        <time>2022-11-06T11:29:55.000Z</time>
      </trkpt>
      <trkpt lat="43.50053" lon="6.87054">
        <ele>539.3</ele>
        <time>2022-11-06T11:29:58.000Z</time>
      </trkpt>
      <trkpt lat="43.50053" lon="6.87054">
        <ele>540.4</ele>
        <time>2022-11-06T11:30:01.000Z</time>
      </trkpt>
      <trkpt lat="43.50054" lon="6.87053">
        <ele>540.1</ele>
        <time>2022-11-06T11:30:02.000Z</time>
      </trkpt>
      <trkpt lat="43.50053" lon="6.87053">
        <ele>540.2</ele>
        <time>2022-11-06T11:30:04.000Z</time>
      </trkpt>
      <trkpt lat="43.50053" lon="6.87053">
        <ele>539.9</ele>
        <time>2022-11-06T11:30:16.000Z</time>
      </trkpt>
      <trkpt lat="43.50053" lon="6.87053">
        <ele>540.9</ele>
        <time>2022-11-06T11:30:18.000Z</time>
      </trkpt>
      <trkpt lat="43.50053" lon="6.87053">
        <ele>540.5</ele>
        <time>2022-11-06T11:30:19.000Z</time>
      </trkpt>
      <trkpt lat="43.50053" lon="6.87053">
        <ele>540.2</ele>
        <time>2022-11-06T11:30:20.000Z</time>
      </trkpt>
      <trkpt lat="43.50053" lon="6.87053">
        <ele>540.2</ele>
        <time>2022-11-06T11:30:24.000Z</time>
      </trkpt>
      <trkpt lat="43.50053" lon="6.87053">
        <ele>540.2</ele>
        <time>2022-11-06T11:30:25.000Z</time>
      </trkpt>
      <trkpt lat="43.50053" lon="6.87053">
        <ele>540.3</ele>
        <time>2022-11-06T11:30:46.000Z</time>
      </trkpt>
      <trkpt lat="43.50053" lon="6.87053">
        <ele>540.2</ele>
        <time>2022-11-06T11:30:47.000Z</time>
      </trkpt>
      <trkpt lat="43.50053" lon="6.87052">
        <ele>539.7</ele>
        <time>2022-11-06T11:31:11.000Z</time>
      </trkpt>
      <trkpt lat="43.50053" lon="6.87052">
        <ele>539.7</ele>
        <time>2022-11-06T11:31:15.000Z</time>
      </trkpt>
      <trkpt lat="43.50053" lon="6.87052">
        <ele>539.5</ele>
        <time>2022-11-06T11:31:17.000Z</time>
      </trkpt>
      <trkpt lat="43.50053" lon="6.87053">
        <ele>539.8</ele>
        <time>2022-11-06T11:31:23.000Z</time>
      </trkpt>
      <trkpt lat="43.50053" lon="6.87053">
        <ele>539.6</ele>
        <time>2022-11-06T11:31:27.000Z</time>
      </trkpt>
      <trkpt lat="43.50053" lon="6.87053">
        <ele>539.6</ele>
        <time>2022-11-06T11:31:30.000Z</time>
      </trkpt>
      <trkpt lat="43.50053" lon="6.87053">
        <ele>539.6</ele>
        <time>2022-11-06T11:31:31.000Z</time>
      </trkpt>
      <trkpt lat="43.50045" lon="6.87048">
        <ele>541.5</ele>
        <time>2022-11-06T11:32:01.000Z</time>
      </trkpt>
      <trkpt lat="43.50044" lon="6.87047">
        <ele>541.5</ele>
        <time>2022-11-06T11:32:02.000Z</time>
      </trkpt>
      <trkpt lat="43.50042" lon="6.87047">
        <ele>541.8</ele>
        <time>2022-11-06T11:32:08.000Z</time>
      </trkpt>
      <trkpt lat="43.50042" lon="6.87048">
        <ele>541.9</ele>
        <time>2022-11-06T11:32:11.000Z</time>
      </trkpt>
      <trkpt lat="43.50042" lon="6.87048">
        <ele>541.8</ele>
        <time>2022-11-06T11:32:12.000Z</time>
      </trkpt>
      <trkpt lat="43.50042" lon="6.87046">
        <ele>541.8</ele>
        <time>2022-11-06T11:32:19.000Z</time>
      </trkpt>
      <trkpt lat="43.50043" lon="6.87042">
        <ele>542.1</ele>
        <time>2022-11-06T11:32:28.000Z</time>
      </trkpt>
      <trkpt lat="43.50043" lon="6.87042">
        <ele>542.1</ele>
        <time>2022-11-06T11:32:30.000Z</time>
      </trkpt>
      <trkpt lat="43.50043" lon="6.87042">
        <ele>542.1</ele>
        <time>2022-11-06T11:32:31.000Z</time>
      </trkpt>
      <trkpt lat="43.50043" lon="6.87042">
        <ele>542</ele>
        <time>2022-11-06T11:32:40.000Z</time>
      </trkpt>
      <trkpt lat="43.50043" lon="6.87042">
        <ele>542</ele>
        <time>2022-11-06T11:32:41.000Z</time>
      </trkpt>
      <trkpt lat="43.50043" lon="6.87042">
        <ele>541.9</ele>
        <time>2022-11-06T11:32:42.000Z</time>
      </trkpt>
      <trkpt lat="43.50043" lon="6.87042">
        <ele>542</ele>
        <time>2022-11-06T11:32:43.000Z</time>
      </trkpt>
      <trkpt lat="43.50043" lon="6.87042">
        <ele>542.1</ele>
        <time>2022-11-06T11:32:49.000Z</time>
      </trkpt>
      <trkpt lat="43.50044" lon="6.87041">
        <ele>542</ele>
        <time>2022-11-06T11:32:52.000Z</time>
      </trkpt>
      <trkpt lat="43.50044" lon="6.87041">
        <ele>542</ele>
        <time>2022-11-06T11:32:54.000Z</time>
      </trkpt>
      <trkpt lat="43.50035" lon="6.87037">
        <ele>544.3</ele>
        <time>2022-11-06T11:33:28.000Z</time>
      </trkpt>
      <trkpt lat="43.50036" lon="6.87033">
        <ele>544.3</ele>
        <time>2022-11-06T11:33:35.000Z</time>
      </trkpt>
      <trkpt lat="43.50036" lon="6.87033">
        <ele>544.4</ele>
        <time>2022-11-06T11:33:39.000Z</time>
      </trkpt>
      <trkpt lat="43.50036" lon="6.87034">
        <ele>544.6</ele>
        <time>2022-11-06T11:33:42.000Z</time>
      </trkpt>
      <trkpt lat="43.50036" lon="6.87034">
        <ele>544.5</ele>
        <time>2022-11-06T11:34:12.000Z</time>
      </trkpt>
      <trkpt lat="43.50037" lon="6.87035">
        <ele>544.5</ele>
        <time>2022-11-06T11:34:15.000Z</time>
      </trkpt>
      <trkpt lat="43.50037" lon="6.87035">
        <ele>544.4</ele>
        <time>2022-11-06T11:34:19.000Z</time>
      </trkpt>
      <trkpt lat="43.50036" lon="6.87033">
        <ele>545.5</ele>
        <time>2022-11-06T11:34:26.000Z</time>
      </trkpt>
      <trkpt lat="43.50036" lon="6.87033">
        <ele>545.8</ele>
        <time>2022-11-06T11:34:29.000Z</time>
      </trkpt>
      <trkpt lat="43.50034" lon="6.87031">
        <ele>546.6</ele>
        <time>2022-11-06T11:34:36.000Z</time>
      </trkpt>
      <trkpt lat="43.50034" lon="6.87031">
        <ele>546.5</ele>
        <time>2022-11-06T11:34:38.000Z</time>
      </trkpt>
      <trkpt lat="43.50034" lon="6.87031">
        <ele>546.2</ele>
        <time>2022-11-06T11:34:39.000Z</time>
      </trkpt>
      <trkpt lat="43.50034" lon="6.8703">
        <ele>547.2</ele>
        <time>2022-11-06T11:34:44.000Z</time>
      </trkpt>
      <trkpt lat="43.50034" lon="6.8703">
        <ele>547.1</ele>
        <time>2022-11-06T11:34:45.000Z</time>
      </trkpt>
      <trkpt lat="43.50034" lon="6.87031">
        <ele>546.8</ele>
        <time>2022-11-06T11:34:46.000Z</time>
      </trkpt>
      <trkpt lat="43.50034" lon="6.87031">
        <ele>546.8</ele>
        <time>2022-11-06T11:34:47.000Z</time>
      </trkpt>
      <trkpt lat="43.50034" lon="6.87031">
        <ele>547</ele>
        <time>2022-11-06T11:34:48.000Z</time>
      </trkpt>
      <trkpt lat="43.50034" lon="6.87031">
        <ele>547</ele>
        <time>2022-11-06T11:34:49.000Z</time>
      </trkpt>
      <trkpt lat="43.50034" lon="6.8703">
        <ele>547.2</ele>
        <time>2022-11-06T11:34:50.000Z</time>
      </trkpt>
      <trkpt lat="43.50034" lon="6.8703">
        <ele>547.5</ele>
        <time>2022-11-06T11:34:52.000Z</time>
      </trkpt>
      <trkpt lat="43.50035" lon="6.8703">
        <ele>547.8</ele>
        <time>2022-11-06T11:34:53.000Z</time>
      </trkpt>
      <trkpt lat="43.50035" lon="6.8703">
        <ele>547.7</ele>
        <time>2022-11-06T11:34:54.000Z</time>
      </trkpt>
      <trkpt lat="43.50035" lon="6.8703">
        <ele>547.6</ele>
        <time>2022-11-06T11:34:55.000Z</time>
      </trkpt>
      <trkpt lat="43.50035" lon="6.8703">
        <ele>547.4</ele>
        <time>2022-11-06T11:34:56.000Z</time>
      </trkpt>
      <trkpt lat="43.50035" lon="6.87029">
        <ele>547.5</ele>
        <time>2022-11-06T11:34:58.000Z</time>
      </trkpt>
      <trkpt lat="43.50035" lon="6.87029">
        <ele>547.6</ele>
        <time>2022-11-06T11:34:59.000Z</time>
      </trkpt>
      <trkpt lat="43.50035" lon="6.87029">
        <ele>547.4</ele>
        <time>2022-11-06T11:35:01.000Z</time>
      </trkpt>
      <trkpt lat="43.50035" lon="6.87029">
        <ele>547.8</ele>
        <time>2022-11-06T11:35:04.000Z</time>
      </trkpt>
      <trkpt lat="43.50035" lon="6.87029">
        <ele>547.3</ele>
        <time>2022-11-06T11:35:10.000Z</time>
      </trkpt>
      <trkpt lat="43.50034" lon="6.87028">
        <ele>547.8</ele>
        <time>2022-11-06T11:35:22.000Z</time>
      </trkpt>
      <trkpt lat="43.50034" lon="6.87028">
        <ele>547.7</ele>
        <time>2022-11-06T11:35:25.000Z</time>
      </trkpt>
      <trkpt lat="43.50034" lon="6.87028">
        <ele>547.9</ele>
        <time>2022-11-06T11:35:28.000Z</time>
      </trkpt>
      <trkpt lat="43.50034" lon="6.87029">
        <ele>548</ele>
        <time>2022-11-06T11:35:29.000Z</time>
      </trkpt>
      <trkpt lat="43.50035" lon="6.87029">
        <ele>548.3</ele>
        <time>2022-11-06T11:35:31.000Z</time>
      </trkpt>
      <trkpt lat="43.50035" lon="6.87029">
        <ele>548.1</ele>
        <time>2022-11-06T11:35:35.000Z</time>
      </trkpt>
      <trkpt lat="43.50035" lon="6.87029">
        <ele>548.7</ele>
        <time>2022-11-06T11:35:37.000Z</time>
      </trkpt>
      <trkpt lat="43.50035" lon="6.87029">
        <ele>549.2</ele>
        <time>2022-11-06T11:35:41.000Z</time>
      </trkpt>
      <trkpt lat="43.50035" lon="6.87029">
        <ele>548.8</ele>
        <time>2022-11-06T11:35:42.000Z</time>
      </trkpt>
      <trkpt lat="43.50035" lon="6.87028">
        <ele>548.8</ele>
        <time>2022-11-06T11:35:45.000Z</time>
      </trkpt>
      <trkpt lat="43.50032" lon="6.87027">
        <ele>550.2</ele>
        <time>2022-11-06T11:36:01.000Z</time>
      </trkpt>
      <trkpt lat="43.50032" lon="6.87027">
        <ele>550.6</ele>
        <time>2022-11-06T11:36:02.000Z</time>
      </trkpt>
      <trkpt lat="43.50036" lon="6.8702">
        <ele>551.8</ele>
        <time>2022-11-06T11:36:15.000Z</time>
      </trkpt>
      <trkpt lat="43.50035" lon="6.8702">
        <ele>552.2</ele>
        <time>2022-11-06T11:36:16.000Z</time>
      </trkpt>
      <trkpt lat="43.50035" lon="6.8702">
        <ele>552.2</ele>
        <time>2022-11-06T11:36:17.000Z</time>
      </trkpt>
      <trkpt lat="43.50035" lon="6.87021">
        <ele>552.2</ele>
        <time>2022-11-06T11:36:19.000Z</time>
      </trkpt>
      <trkpt lat="43.50034" lon="6.8702">
        <ele>552.2</ele>
        <time>2022-11-06T11:36:22.000Z</time>
      </trkpt>
      <trkpt lat="43.50034" lon="6.8702">
        <ele>552.7</ele>
        <time>2022-11-06T11:36:27.000Z</time>
      </trkpt>
      <trkpt lat="43.50033" lon="6.87021">
        <ele>553.1</ele>
        <time>2022-11-06T11:36:32.000Z</time>
      </trkpt>
      <trkpt lat="43.50033" lon="6.87021">
        <ele>552.7</ele>
        <time>2022-11-06T11:36:35.000Z</time>
      </trkpt>
      <trkpt lat="43.50031" lon="6.8702">
        <ele>553.3</ele>
        <time>2022-11-06T11:36:41.000Z</time>
      </trkpt>
      <trkpt lat="43.50031" lon="6.8702">
        <ele>554</ele>
        <time>2022-11-06T11:36:45.000Z</time>
      </trkpt>
      <trkpt lat="43.5003" lon="6.87019">
        <ele>554.2</ele>
        <time>2022-11-06T11:36:49.000Z</time>
      </trkpt>
      <trkpt lat="43.5003" lon="6.87019">
        <ele>554.3</ele>
        <time>2022-11-06T11:36:50.000Z</time>
      </trkpt>
      <trkpt lat="43.50029" lon="6.87016">
        <ele>553.9</ele>
        <time>2022-11-06T11:36:57.000Z</time>
      </trkpt>
      <trkpt lat="43.50029" lon="6.87016">
        <ele>553.7</ele>
        <time>2022-11-06T11:36:58.000Z</time>
      </trkpt>
      <trkpt lat="43.50028" lon="6.87016">
        <ele>553.4</ele>
        <time>2022-11-06T11:37:00.000Z</time>
      </trkpt>
      <trkpt lat="43.50028" lon="6.87015">
        <ele>553.5</ele>
        <time>2022-11-06T11:37:01.000Z</time>
      </trkpt>
      <trkpt lat="43.50028" lon="6.87011">
        <ele>553.9</ele>
        <time>2022-11-06T11:37:12.000Z</time>
      </trkpt>
      <trkpt lat="43.50027" lon="6.87011">
        <ele>553.9</ele>
        <time>2022-11-06T11:37:17.000Z</time>
      </trkpt>
      <trkpt lat="43.50027" lon="6.8701">
        <ele>553.6</ele>
        <time>2022-11-06T11:37:20.000Z</time>
      </trkpt>
      <trkpt lat="43.50027" lon="6.8701">
        <ele>553.7</ele>
        <time>2022-11-06T11:37:22.000Z</time>
      </trkpt>
      <trkpt lat="43.50027" lon="6.8701">
        <ele>553.6</ele>
        <time>2022-11-06T11:37:23.000Z</time>
      </trkpt>
      <trkpt lat="43.50027" lon="6.87009">
        <ele>553.6</ele>
        <time>2022-11-06T11:37:25.000Z</time>
      </trkpt>
      <trkpt lat="43.50025" lon="6.87008">
        <ele>554.1</ele>
        <time>2022-11-06T11:37:34.000Z</time>
      </trkpt>
      <trkpt lat="43.50025" lon="6.87008">
        <ele>554</ele>
        <time>2022-11-06T11:37:36.000Z</time>
      </trkpt>
      <trkpt lat="43.50023" lon="6.87008">
        <ele>554.7</ele>
        <time>2022-11-06T11:37:43.000Z</time>
      </trkpt>
      <trkpt lat="43.50023" lon="6.87008">
        <ele>554.8</ele>
        <time>2022-11-06T11:37:44.000Z</time>
      </trkpt>
      <trkpt lat="43.50023" lon="6.87008">
        <ele>554.8</ele>
        <time>2022-11-06T11:37:45.000Z</time>
      </trkpt>
      <trkpt lat="43.50023" lon="6.87008">
        <ele>554.7</ele>
        <time>2022-11-06T11:37:49.000Z</time>
      </trkpt>
      <trkpt lat="43.50023" lon="6.87008">
        <ele>554.6</ele>
        <time>2022-11-06T11:37:50.000Z</time>
      </trkpt>
      <trkpt lat="43.50023" lon="6.87008">
        <ele>554.6</ele>
        <time>2022-11-06T11:37:52.000Z</time>
      </trkpt>
      <trkpt lat="43.50023" lon="6.87008">
        <ele>554.5</ele>
        <time>2022-11-06T11:37:53.000Z</time>
      </trkpt>
      <trkpt lat="43.50023" lon="6.87008">
        <ele>554.8</ele>
        <time>2022-11-06T11:38:47.000Z</time>
      </trkpt>
      <trkpt lat="43.50023" lon="6.87008">
        <ele>554.8</ele>
        <time>2022-11-06T11:38:48.000Z</time>
      </trkpt>
      <trkpt lat="43.50023" lon="6.87009">
        <ele>554.7</ele>
        <time>2022-11-06T11:38:53.000Z</time>
      </trkpt>
      <trkpt lat="43.50023" lon="6.87009">
        <ele>554.7</ele>
        <time>2022-11-06T11:38:54.000Z</time>
      </trkpt>
      <trkpt lat="43.50023" lon="6.87009">
        <ele>554.7</ele>
        <time>2022-11-06T11:39:02.000Z</time>
      </trkpt>
      <trkpt lat="43.50023" lon="6.87009">
        <ele>554.7</ele>
        <time>2022-11-06T11:39:03.000Z</time>
      </trkpt>
      <trkpt lat="43.50024" lon="6.87009">
        <ele>554.7</ele>
        <time>2022-11-06T11:39:08.000Z</time>
      </trkpt>
      <trkpt lat="43.50023" lon="6.87009">
        <ele>554.6</ele>
        <time>2022-11-06T11:39:10.000Z</time>
      </trkpt>
      <trkpt lat="43.50024" lon="6.87009">
        <ele>554.7</ele>
        <time>2022-11-06T11:39:11.000Z</time>
      </trkpt>
      <trkpt lat="43.50024" lon="6.87009">
        <ele>554.7</ele>
        <time>2022-11-06T11:39:12.000Z</time>
      </trkpt>
      <trkpt lat="43.50023" lon="6.87009">
        <ele>555.3</ele>
        <time>2022-11-06T11:40:19.000Z</time>
      </trkpt>
      <trkpt lat="43.50023" lon="6.87009">
        <ele>555.1</ele>
        <time>2022-11-06T11:40:20.000Z</time>
      </trkpt>
      <trkpt lat="43.50023" lon="6.87009">
        <ele>554.9</ele>
        <time>2022-11-06T11:40:21.000Z</time>
      </trkpt>
      <trkpt lat="43.50023" lon="6.87009">
        <ele>555.1</ele>
        <time>2022-11-06T11:40:22.000Z</time>
      </trkpt>
      <trkpt lat="43.50023" lon="6.87009">
        <ele>555.6</ele>
        <time>2022-11-06T11:40:39.000Z</time>
      </trkpt>
      <trkpt lat="43.50023" lon="6.87009">
        <ele>555.4</ele>
        <time>2022-11-06T11:40:40.000Z</time>
      </trkpt>
      <trkpt lat="43.50023" lon="6.87008">
        <ele>554.9</ele>
        <time>2022-11-06T11:40:47.000Z</time>
      </trkpt>
      <trkpt lat="43.50023" lon="6.87007">
        <ele>554.6</ele>
        <time>2022-11-06T11:40:51.000Z</time>
      </trkpt>
      <trkpt lat="43.50023" lon="6.87007">
        <ele>554.8</ele>
        <time>2022-11-06T11:40:52.000Z</time>
      </trkpt>
      <trkpt lat="43.5002" lon="6.87005">
        <ele>555.9</ele>
        <time>2022-11-06T11:41:05.000Z</time>
      </trkpt>
      <trkpt lat="43.5002" lon="6.87005">
        <ele>555.6</ele>
        <time>2022-11-06T11:41:14.000Z</time>
      </trkpt>
      <trkpt lat="43.5002" lon="6.87005">
        <ele>555.5</ele>
        <time>2022-11-06T11:41:15.000Z</time>
      </trkpt>
      <trkpt lat="43.5002" lon="6.87005">
        <ele>556.1</ele>
        <time>2022-11-06T11:41:28.000Z</time>
      </trkpt>
      <trkpt lat="43.5002" lon="6.87005">
        <ele>556.1</ele>
        <time>2022-11-06T11:41:29.000Z</time>
      </trkpt>
      <trkpt lat="43.5002" lon="6.87005">
        <ele>556.3</ele>
        <time>2022-11-06T11:41:46.000Z</time>
      </trkpt>
      <trkpt lat="43.5002" lon="6.87005">
        <ele>556.2</ele>
        <time>2022-11-06T11:41:47.000Z</time>
      </trkpt>
      <trkpt lat="43.5002" lon="6.87005">
        <ele>556</ele>
        <time>2022-11-06T11:42:10.000Z</time>
      </trkpt>
      <trkpt lat="43.50021" lon="6.87005">
        <ele>556.2</ele>
        <time>2022-11-06T11:42:12.000Z</time>
      </trkpt>
      <trkpt lat="43.5002" lon="6.87005">
        <ele>556.1</ele>
        <time>2022-11-06T11:42:34.000Z</time>
      </trkpt>
      <trkpt lat="43.5002" lon="6.87005">
        <ele>556</ele>
        <time>2022-11-06T11:42:35.000Z</time>
      </trkpt>
      <trkpt lat="43.50021" lon="6.87005">
        <ele>556.1</ele>
        <time>2022-11-06T11:43:00.000Z</time>
      </trkpt>
      <trkpt lat="43.50021" lon="6.87005">
        <ele>556.5</ele>
        <time>2022-11-06T11:43:03.000Z</time>
      </trkpt>
      <trkpt lat="43.50021" lon="6.87005">
        <ele>555.8</ele>
        <time>2022-11-06T11:43:10.000Z</time>
      </trkpt>
      <trkpt lat="43.50021" lon="6.87005">
        <ele>556.7</ele>
        <time>2022-11-06T11:43:11.000Z</time>
      </trkpt>
      <trkpt lat="43.50021" lon="6.87005">
        <ele>557</ele>
        <time>2022-11-06T11:43:13.000Z</time>
      </trkpt>
      <trkpt lat="43.50021" lon="6.87005">
        <ele>556.8</ele>
        <time>2022-11-06T11:43:14.000Z</time>
      </trkpt>
      <trkpt lat="43.50021" lon="6.87005">
        <ele>556.7</ele>
        <time>2022-11-06T11:43:34.000Z</time>
      </trkpt>
      <trkpt lat="43.50022" lon="6.87005">
        <ele>556.3</ele>
        <time>2022-11-06T11:43:37.000Z</time>
      </trkpt>
      <trkpt lat="43.50022" lon="6.87005">
        <ele>556.3</ele>
        <time>2022-11-06T11:43:41.000Z</time>
      </trkpt>
      <trkpt lat="43.50022" lon="6.87005">
        <ele>556.5</ele>
        <time>2022-11-06T11:43:43.000Z</time>
      </trkpt>
      <trkpt lat="43.50022" lon="6.87005">
        <ele>556</ele>
        <time>2022-11-06T11:43:45.000Z</time>
      </trkpt>
      <trkpt lat="43.50022" lon="6.87005">
        <ele>556.2</ele>
        <time>2022-11-06T11:43:46.000Z</time>
      </trkpt>
      <trkpt lat="43.50022" lon="6.87006">
        <ele>556.5</ele>
        <time>2022-11-06T11:43:48.000Z</time>
      </trkpt>
      <trkpt lat="43.50022" lon="6.87006">
        <ele>556.3</ele>
        <time>2022-11-06T11:43:49.000Z</time>
      </trkpt>
      <trkpt lat="43.50022" lon="6.87006">
        <ele>556.3</ele>
        <time>2022-11-06T11:43:50.000Z</time>
      </trkpt>
      <trkpt lat="43.50022" lon="6.87006">
        <ele>556</ele>
        <time>2022-11-06T11:43:51.000Z</time>
      </trkpt>
      <trkpt lat="43.50022" lon="6.87006">
        <ele>555.9</ele>
        <time>2022-11-06T11:43:52.000Z</time>
      </trkpt>
      <trkpt lat="43.50023" lon="6.87006">
        <ele>555.8</ele>
        <time>2022-11-06T11:43:54.000Z</time>
      </trkpt>
      <trkpt lat="43.50023" lon="6.87006">
        <ele>555.7</ele>
        <time>2022-11-06T11:43:55.000Z</time>
      </trkpt>
      <trkpt lat="43.50025" lon="6.87008">
        <ele>554.9</ele>
        <time>2022-11-06T11:44:04.000Z</time>
      </trkpt>
      <trkpt lat="43.50025" lon="6.87008">
        <ele>554.9</ele>
        <time>2022-11-06T11:44:05.000Z</time>
      </trkpt>
      <trkpt lat="43.50026" lon="6.87011">
        <ele>555.2</ele>
        <time>2022-11-06T11:44:19.000Z</time>
      </trkpt>
      <trkpt lat="43.50026" lon="6.87011">
        <ele>555.6</ele>
        <time>2022-11-06T11:44:33.000Z</time>
      </trkpt>
      <trkpt lat="43.50026" lon="6.87011">
        <ele>555.5</ele>
        <time>2022-11-06T11:44:34.000Z</time>
      </trkpt>
      <trkpt lat="43.50026" lon="6.87011">
        <ele>555.2</ele>
        <time>2022-11-06T11:44:36.000Z</time>
      </trkpt>
      <trkpt lat="43.50025" lon="6.87009">
        <ele>554.9</ele>
        <time>2022-11-06T11:44:40.000Z</time>
      </trkpt>
      <trkpt lat="43.50025" lon="6.87009">
        <ele>554.8</ele>
        <time>2022-11-06T11:44:44.000Z</time>
      </trkpt>
      <trkpt lat="43.50025" lon="6.87009">
        <ele>555.3</ele>
        <time>2022-11-06T11:44:46.000Z</time>
      </trkpt>
      <trkpt lat="43.50025" lon="6.87009">
        <ele>555.2</ele>
        <time>2022-11-06T11:46:27.000Z</time>
      </trkpt>
      <trkpt lat="43.50025" lon="6.87009">
        <ele>555.1</ele>
        <time>2022-11-06T11:46:28.000Z</time>
      </trkpt>
      <trkpt lat="43.50025" lon="6.87008">
        <ele>555.2</ele>
        <time>2022-11-06T11:51:52.000Z</time>
      </trkpt>
      <trkpt lat="43.50025" lon="6.87008">
        <ele>555.3</ele>
        <time>2022-11-06T11:51:53.000Z</time>
      </trkpt>
      <trkpt lat="43.50025" lon="6.87008">
        <ele>556.5</ele>
        <time>2022-11-06T11:55:47.000Z</time>
      </trkpt>
      <trkpt lat="43.50025" lon="6.87008">
        <ele>556.5</ele>
        <time>2022-11-06T11:55:48.000Z</time>
      </trkpt>
      <trkpt lat="43.50025" lon="6.87008">
        <ele>556.5</ele>
        <time>2022-11-06T11:55:54.000Z</time>
      </trkpt>
      <trkpt lat="43.50025" lon="6.87008">
        <ele>556.5</ele>
        <time>2022-11-06T11:55:55.000Z</time>
      </trkpt>
      <trkpt lat="43.50025" lon="6.87008">
        <ele>556.5</ele>
        <time>2022-11-06T11:55:56.000Z</time>
      </trkpt>
      <trkpt lat="43.50025" lon="6.87008">
        <ele>556.6</ele>
        <time>2022-11-06T11:55:57.000Z</time>
      </trkpt>
      <trkpt lat="43.50025" lon="6.87008">
        <ele>556.6</ele>
        <time>2022-11-06T11:55:59.000Z</time>
      </trkpt>
      <trkpt lat="43.50025" lon="6.87008">
        <ele>556.4</ele>
        <time>2022-11-06T11:56:00.000Z</time>
      </trkpt>
      <trkpt lat="43.50024" lon="6.87008">
        <ele>556.7</ele>
        <time>2022-11-06T11:56:48.000Z</time>
      </trkpt>
      <trkpt lat="43.50024" lon="6.87008">
        <ele>556.6</ele>
        <time>2022-11-06T11:56:49.000Z</time>
      </trkpt>
      <trkpt lat="43.50025" lon="6.87007">
        <ele>557.3</ele>
        <time>2022-11-06T11:58:43.000Z</time>
      </trkpt>
      <trkpt lat="43.50025" lon="6.87007">
        <ele>557.6</ele>
        <time>2022-11-06T11:58:44.000Z</time>
      </trkpt>
      <trkpt lat="43.50024" lon="6.87007">
        <ele>557.3</ele>
        <time>2022-11-06T11:59:05.000Z</time>
      </trkpt>
      <trkpt lat="43.50024" lon="6.87007">
        <ele>557.3</ele>
        <time>2022-11-06T11:59:06.000Z</time>
      </trkpt>
      <trkpt lat="43.50024" lon="6.87007">
        <ele>557.1</ele>
        <time>2022-11-06T12:01:06.000Z</time>
      </trkpt>
      <trkpt lat="43.50024" lon="6.87007">
        <ele>557</ele>
        <time>2022-11-06T12:01:07.000Z</time>
      </trkpt>
      <trkpt lat="43.50024" lon="6.87007">
        <ele>557.1</ele>
        <time>2022-11-06T12:03:07.000Z</time>
      </trkpt>
      <trkpt lat="43.50024" lon="6.87007">
        <ele>556.9</ele>
        <time>2022-11-06T12:03:08.000Z</time>
      </trkpt>
      <trkpt lat="43.50024" lon="6.87007">
        <ele>557.1</ele>
        <time>2022-11-06T12:03:25.000Z</time>
      </trkpt>
      <trkpt lat="43.50024" lon="6.87007">
        <ele>557.2</ele>
        <time>2022-11-06T12:03:28.000Z</time>
      </trkpt>
      <trkpt lat="43.50024" lon="6.87007">
        <ele>556.9</ele>
        <time>2022-11-06T12:03:54.000Z</time>
      </trkpt>
      <trkpt lat="43.50024" lon="6.87007">
        <ele>556.9</ele>
        <time>2022-11-06T12:03:56.000Z</time>
      </trkpt>
      <trkpt lat="43.50024" lon="6.87007">
        <ele>556.9</ele>
        <time>2022-11-06T12:04:04.000Z</time>
      </trkpt>
      <trkpt lat="43.50024" lon="6.87007">
        <ele>556.9</ele>
        <time>2022-11-06T12:04:05.000Z</time>
      </trkpt>
      <trkpt lat="43.50024" lon="6.87007">
        <ele>557</ele>
        <time>2022-11-06T12:04:13.000Z</time>
      </trkpt>
      <trkpt lat="43.50024" lon="6.87007">
        <ele>557.2</ele>
        <time>2022-11-06T12:04:14.000Z</time>
      </trkpt>
      <trkpt lat="43.50024" lon="6.87007">
        <ele>556.9</ele>
        <time>2022-11-06T12:05:20.000Z</time>
      </trkpt>
      <trkpt lat="43.50024" lon="6.87008">
        <ele>556.8</ele>
        <time>2022-11-06T12:05:22.000Z</time>
      </trkpt>
      <trkpt lat="43.50024" lon="6.87008">
        <ele>556.9</ele>
        <time>2022-11-06T12:06:30.000Z</time>
      </trkpt>
      <trkpt lat="43.50024" lon="6.87008">
        <ele>556.8</ele>
        <time>2022-11-06T12:06:31.000Z</time>
      </trkpt>
      <trkpt lat="43.50024" lon="6.87008">
        <ele>556.4</ele>
        <time>2022-11-06T12:06:43.000Z</time>
      </trkpt>
      <trkpt lat="43.50024" lon="6.87008">
        <ele>556.3</ele>
        <time>2022-11-06T12:06:44.000Z</time>
      </trkpt>
      <trkpt lat="43.50024" lon="6.87008">
        <ele>556.8</ele>
        <time>2022-11-06T12:06:45.000Z</time>
      </trkpt>
      <trkpt lat="43.50024" lon="6.87008">
        <ele>556.7</ele>
        <time>2022-11-06T12:06:46.000Z</time>
      </trkpt>
      <trkpt lat="43.50024" lon="6.87009">
        <ele>557.2</ele>
        <time>2022-11-06T12:06:48.000Z</time>
      </trkpt>
      <trkpt lat="43.50024" lon="6.87009">
        <ele>557.4</ele>
        <time>2022-11-06T12:06:49.000Z</time>
      </trkpt>
      <trkpt lat="43.50024" lon="6.87008">
        <ele>557.2</ele>
        <time>2022-11-06T12:06:52.000Z</time>
      </trkpt>
      <trkpt lat="43.50024" lon="6.87008">
        <ele>557.1</ele>
        <time>2022-11-06T12:06:53.000Z</time>
      </trkpt>
      <trkpt lat="43.50024" lon="6.87008">
        <ele>556.8</ele>
        <time>2022-11-06T12:07:08.000Z</time>
      </trkpt>
      <trkpt lat="43.50024" lon="6.87007">
        <ele>556.8</ele>
        <time>2022-11-06T12:07:13.000Z</time>
      </trkpt>
      <trkpt lat="43.50024" lon="6.87007">
        <ele>556.8</ele>
        <time>2022-11-06T12:07:19.000Z</time>
      </trkpt>
      <trkpt lat="43.50024" lon="6.87007">
        <ele>556.9</ele>
        <time>2022-11-06T12:07:20.000Z</time>
      </trkpt>
      <trkpt lat="43.50024" lon="6.87007">
        <ele>557.1</ele>
        <time>2022-11-06T12:08:06.000Z</time>
      </trkpt>
      <trkpt lat="43.50024" lon="6.87007">
        <ele>557.1</ele>
        <time>2022-11-06T12:08:07.000Z</time>
      </trkpt>
      <trkpt lat="43.50024" lon="6.87008">
        <ele>557.6</ele>
        <time>2022-11-06T12:09:11.000Z</time>
      </trkpt>
      <trkpt lat="43.50024" lon="6.87008">
        <ele>557.7</ele>
        <time>2022-11-06T12:09:12.000Z</time>
      </trkpt>
      <trkpt lat="43.50024" lon="6.87008">
        <ele>557.7</ele>
        <time>2022-11-06T12:09:24.000Z</time>
      </trkpt>
      <trkpt lat="43.50024" lon="6.87008">
        <ele>557.7</ele>
        <time>2022-11-06T12:09:26.000Z</time>
      </trkpt>
      <trkpt lat="43.50023" lon="6.87008">
        <ele>557.8</ele>
        <time>2022-11-06T12:09:28.000Z</time>
      </trkpt>
      <trkpt lat="43.50023" lon="6.87008">
        <ele>558</ele>
        <time>2022-11-06T12:09:29.000Z</time>
      </trkpt>
      <trkpt lat="43.50024" lon="6.87008">
        <ele>557.9</ele>
        <time>2022-11-06T12:09:30.000Z</time>
      </trkpt>
      <trkpt lat="43.50024" lon="6.87008">
        <ele>558.2</ele>
        <time>2022-11-06T12:09:33.000Z</time>
      </trkpt>
      <trkpt lat="43.50023" lon="6.87008">
        <ele>558</ele>
        <time>2022-11-06T12:09:37.000Z</time>
      </trkpt>
      <trkpt lat="43.50023" lon="6.87008">
        <ele>558.1</ele>
        <time>2022-11-06T12:09:38.000Z</time>
      </trkpt>
      <trkpt lat="43.50024" lon="6.87008">
        <ele>558.4</ele>
        <time>2022-11-06T12:10:01.000Z</time>
      </trkpt>
      <trkpt lat="43.50024" lon="6.87008">
        <ele>558.4</ele>
        <time>2022-11-06T12:10:02.000Z</time>
      </trkpt>
      <trkpt lat="43.50023" lon="6.87008">
        <ele>558.2</ele>
        <time>2022-11-06T12:10:04.000Z</time>
      </trkpt>
      <trkpt lat="43.50023" lon="6.87008">
        <ele>558.1</ele>
        <time>2022-11-06T12:10:05.000Z</time>
      </trkpt>
      <trkpt lat="43.50024" lon="6.87008">
        <ele>558.7</ele>
        <time>2022-11-06T12:10:32.000Z</time>
      </trkpt>
      <trkpt lat="43.50023" lon="6.87008">
        <ele>558.7</ele>
        <time>2022-11-06T12:10:34.000Z</time>
      </trkpt>
      <trkpt lat="43.50024" lon="6.87007">
        <ele>558.9</ele>
        <time>2022-11-06T12:11:34.000Z</time>
      </trkpt>
      <trkpt lat="43.50024" lon="6.87007">
        <ele>558.9</ele>
        <time>2022-11-06T12:11:35.000Z</time>
      </trkpt>
      <trkpt lat="43.50024" lon="6.87007">
        <ele>558.8</ele>
        <time>2022-11-06T12:11:53.000Z</time>
      </trkpt>
      <trkpt lat="43.50024" lon="6.87007">
        <ele>558.9</ele>
        <time>2022-11-06T12:11:55.000Z</time>
      </trkpt>
      <trkpt lat="43.50024" lon="6.87007">
        <ele>557.4</ele>
        <time>2022-11-06T12:12:21.000Z</time>
      </trkpt>
      <trkpt lat="43.50024" lon="6.87007">
        <ele>561</ele>
        <time>2022-11-06T12:12:23.000Z</time>
      </trkpt>
      <trkpt lat="43.50024" lon="6.87008">
        <ele>559.5</ele>
        <time>2022-11-06T12:13:55.000Z</time>
      </trkpt>
      <trkpt lat="43.50024" lon="6.87008">
        <ele>559.6</ele>
        <time>2022-11-06T12:13:56.000Z</time>
      </trkpt>
      <trkpt lat="43.50023" lon="6.87008">
        <ele>559.6</ele>
        <time>2022-11-06T12:13:58.000Z</time>
      </trkpt>
      <trkpt lat="43.50024" lon="6.87008">
        <ele>559.7</ele>
        <time>2022-11-06T12:14:00.000Z</time>
      </trkpt>
      <trkpt lat="43.50024" lon="6.87008">
        <ele>559.7</ele>
        <time>2022-11-06T12:14:02.000Z</time>
      </trkpt>
      <trkpt lat="43.50024" lon="6.87008">
        <ele>559.6</ele>
        <time>2022-11-06T12:14:03.000Z</time>
      </trkpt>
      <trkpt lat="43.50024" lon="6.87008">
        <ele>559.5</ele>
        <time>2022-11-06T12:14:04.000Z</time>
      </trkpt>
      <trkpt lat="43.50024" lon="6.87009">
        <ele>559.7</ele>
        <time>2022-11-06T12:14:09.000Z</time>
      </trkpt>
      <trkpt lat="43.50024" lon="6.87008">
        <ele>559.3</ele>
        <time>2022-11-06T12:15:29.000Z</time>
      </trkpt>
      <trkpt lat="43.50024" lon="6.87008">
        <ele>559</ele>
        <time>2022-11-06T12:15:30.000Z</time>
      </trkpt>
      <trkpt lat="43.50024" lon="6.87008">
        <ele>559.3</ele>
        <time>2022-11-06T12:15:43.000Z</time>
      </trkpt>
      <trkpt lat="43.50024" lon="6.87008">
        <ele>559.2</ele>
        <time>2022-11-06T12:15:44.000Z</time>
      </trkpt>
      <trkpt lat="43.50024" lon="6.87008">
        <ele>559.3</ele>
        <time>2022-11-06T12:17:03.000Z</time>
      </trkpt>
      <trkpt lat="43.50024" lon="6.87008">
        <ele>559.4</ele>
        <time>2022-11-06T12:17:05.000Z</time>
      </trkpt>
      <trkpt lat="43.50024" lon="6.87008">
        <ele>559.2</ele>
        <time>2022-11-06T12:17:29.000Z</time>
      </trkpt>
      <trkpt lat="43.50024" lon="6.87008">
        <ele>559.1</ele>
        <time>2022-11-06T12:17:30.000Z</time>
      </trkpt>
      <trkpt lat="43.50024" lon="6.87008">
        <ele>559.3</ele>
        <time>2022-11-06T12:17:32.000Z</time>
      </trkpt>
      <trkpt lat="43.50024" lon="6.87008">
        <ele>559.3</ele>
        <time>2022-11-06T12:17:33.000Z</time>
      </trkpt>
      <trkpt lat="43.50024" lon="6.87008">
        <ele>559.5</ele>
        <time>2022-11-06T12:18:35.000Z</time>
      </trkpt>
      <trkpt lat="43.50024" lon="6.87008">
        <ele>559.4</ele>
        <time>2022-11-06T12:18:36.000Z</time>
      </trkpt>
      <trkpt lat="43.50024" lon="6.87008">
        <ele>559.3</ele>
        <time>2022-11-06T12:18:37.000Z</time>
      </trkpt>
      <trkpt lat="43.50024" lon="6.87008">
        <ele>559.2</ele>
        <time>2022-11-06T12:18:43.000Z</time>
      </trkpt>
      <trkpt lat="43.50024" lon="6.87008">
        <ele>558.8</ele>
        <time>2022-11-06T12:18:50.000Z</time>
      </trkpt>
      <trkpt lat="43.50025" lon="6.87008">
        <ele>558.9</ele>
        <time>2022-11-06T12:18:54.000Z</time>
      </trkpt>
      <trkpt lat="43.50025" lon="6.87009">
        <ele>558.9</ele>
        <time>2022-11-06T12:19:19.000Z</time>
      </trkpt>
      <trkpt lat="43.50025" lon="6.87009">
        <ele>559.1</ele>
        <time>2022-11-06T12:19:21.000Z</time>
      </trkpt>
      <trkpt lat="43.50025" lon="6.87009">
        <ele>559.2</ele>
        <time>2022-11-06T12:19:32.000Z</time>
      </trkpt>
      <trkpt lat="43.50025" lon="6.87009">
        <ele>559.2</ele>
        <time>2022-11-06T12:19:35.000Z</time>
      </trkpt>
      <trkpt lat="43.50025" lon="6.87009">
        <ele>559.4</ele>
        <time>2022-11-06T12:19:51.000Z</time>
      </trkpt>
      <trkpt lat="43.50025" lon="6.87009">
        <ele>559.4</ele>
        <time>2022-11-06T12:19:52.000Z</time>
      </trkpt>
      <trkpt lat="43.50025" lon="6.87009">
        <ele>559.4</ele>
        <time>2022-11-06T12:19:53.000Z</time>
      </trkpt>
      <trkpt lat="43.50025" lon="6.87009">
        <ele>559.3</ele>
        <time>2022-11-06T12:19:55.000Z</time>
      </trkpt>
      <trkpt lat="43.50025" lon="6.8701">
        <ele>559.3</ele>
        <time>2022-11-06T12:19:58.000Z</time>
      </trkpt>
      <trkpt lat="43.50025" lon="6.8701">
        <ele>559.4</ele>
        <time>2022-11-06T12:19:59.000Z</time>
      </trkpt>
      <trkpt lat="43.50025" lon="6.87009">
        <ele>559.5</ele>
        <time>2022-11-06T12:20:04.000Z</time>
      </trkpt>
      <trkpt lat="43.50025" lon="6.87009">
        <ele>559.5</ele>
        <time>2022-11-06T12:20:05.000Z</time>
      </trkpt>
      <trkpt lat="43.50025" lon="6.8701">
        <ele>559.5</ele>
        <time>2022-11-06T12:20:06.000Z</time>
      </trkpt>
      <trkpt lat="43.50025" lon="6.87009">
        <ele>559.6</ele>
        <time>2022-11-06T12:20:10.000Z</time>
      </trkpt>
      <trkpt lat="43.50026" lon="6.87009">
        <ele>559.1</ele>
        <time>2022-11-06T12:20:57.000Z</time>
      </trkpt>
      <trkpt lat="43.50026" lon="6.87009">
        <ele>559.2</ele>
        <time>2022-11-06T12:21:00.000Z</time>
      </trkpt>
      <trkpt lat="43.50026" lon="6.87009">
        <ele>559.1</ele>
        <time>2022-11-06T12:21:34.000Z</time>
      </trkpt>
      <trkpt lat="43.50026" lon="6.87009">
        <ele>559.1</ele>
        <time>2022-11-06T12:21:35.000Z</time>
      </trkpt>
      <trkpt lat="43.50026" lon="6.87008">
        <ele>559.2</ele>
        <time>2022-11-06T12:21:40.000Z</time>
      </trkpt>
      <trkpt lat="43.50026" lon="6.87008">
        <ele>559</ele>
        <time>2022-11-06T12:21:41.000Z</time>
      </trkpt>
      <trkpt lat="43.50026" lon="6.87008">
        <ele>558.9</ele>
        <time>2022-11-06T12:21:50.000Z</time>
      </trkpt>
      <trkpt lat="43.50026" lon="6.87008">
        <ele>559.1</ele>
        <time>2022-11-06T12:21:51.000Z</time>
      </trkpt>
      <trkpt lat="43.50026" lon="6.87008">
        <ele>558.9</ele>
        <time>2022-11-06T12:21:57.000Z</time>
      </trkpt>
      <trkpt lat="43.50026" lon="6.87008">
        <ele>558.9</ele>
        <time>2022-11-06T12:21:58.000Z</time>
      </trkpt>
      <trkpt lat="43.50025" lon="6.87008">
        <ele>559</ele>
        <time>2022-11-06T12:22:38.000Z</time>
      </trkpt>
      <trkpt lat="43.50025" lon="6.87008">
        <ele>559</ele>
        <time>2022-11-06T12:22:39.000Z</time>
      </trkpt>
      <trkpt lat="43.50025" lon="6.87008">
        <ele>558.9</ele>
        <time>2022-11-06T12:22:55.000Z</time>
      </trkpt>
      <trkpt lat="43.50025" lon="6.87009">
        <ele>559.1</ele>
        <time>2022-11-06T12:22:57.000Z</time>
      </trkpt>
      <trkpt lat="43.50025" lon="6.87009">
        <ele>559.1</ele>
        <time>2022-11-06T12:22:58.000Z</time>
      </trkpt>
      <trkpt lat="43.50025" lon="6.8701">
        <ele>559</ele>
        <time>2022-11-06T12:23:01.000Z</time>
      </trkpt>
      <trkpt lat="43.50025" lon="6.8701">
        <ele>559.2</ele>
        <time>2022-11-06T12:23:02.000Z</time>
      </trkpt>
      <trkpt lat="43.50026" lon="6.87011">
        <ele>559.4</ele>
        <time>2022-11-06T12:23:04.000Z</time>
      </trkpt>
      <trkpt lat="43.50026" lon="6.87011">
        <ele>559.6</ele>
        <time>2022-11-06T12:23:06.000Z</time>
      </trkpt>
      <trkpt lat="43.50027" lon="6.87012">
        <ele>560</ele>
        <time>2022-11-06T12:23:11.000Z</time>
      </trkpt>
      <trkpt lat="43.50027" lon="6.87012">
        <ele>560</ele>
        <time>2022-11-06T12:23:25.000Z</time>
      </trkpt>
      <trkpt lat="43.50027" lon="6.87012">
        <ele>560</ele>
        <time>2022-11-06T12:23:26.000Z</time>
      </trkpt>
      <trkpt lat="43.50027" lon="6.87012">
        <ele>560.2</ele>
        <time>2022-11-06T12:23:38.000Z</time>
      </trkpt>
      <trkpt lat="43.50027" lon="6.87012">
        <ele>560.3</ele>
        <time>2022-11-06T12:23:40.000Z</time>
      </trkpt>
      <trkpt lat="43.50027" lon="6.87012">
        <ele>559.7</ele>
        <time>2022-11-06T12:23:56.000Z</time>
      </trkpt>
      <trkpt lat="43.50027" lon="6.87012">
        <ele>559.7</ele>
        <time>2022-11-06T12:23:57.000Z</time>
      </trkpt>
      <trkpt lat="43.50027" lon="6.87011">
        <ele>559.8</ele>
        <time>2022-11-06T12:24:01.000Z</time>
      </trkpt>
      <trkpt lat="43.50026" lon="6.87009">
        <ele>559</ele>
        <time>2022-11-06T12:24:10.000Z</time>
      </trkpt>
      <trkpt lat="43.50026" lon="6.87008">
        <ele>559.3</ele>
        <time>2022-11-06T12:24:11.000Z</time>
      </trkpt>
      <trkpt lat="43.50026" lon="6.87007">
        <ele>559.2</ele>
        <time>2022-11-06T12:24:15.000Z</time>
      </trkpt>
      <trkpt lat="43.50026" lon="6.87007">
        <ele>559.1</ele>
        <time>2022-11-06T12:24:21.000Z</time>
      </trkpt>
      <trkpt lat="43.50026" lon="6.87007">
        <ele>558.9</ele>
        <time>2022-11-06T12:24:22.000Z</time>
      </trkpt>
      <trkpt lat="43.50027" lon="6.87008">
        <ele>558.8</ele>
        <time>2022-11-06T12:24:23.000Z</time>
      </trkpt>
      <trkpt lat="43.50027" lon="6.87008">
        <ele>559</ele>
        <time>2022-11-06T12:24:24.000Z</time>
      </trkpt>
      <trkpt lat="43.50027" lon="6.87007">
        <ele>559.3</ele>
        <time>2022-11-06T12:24:25.000Z</time>
      </trkpt>
      <trkpt lat="43.50028" lon="6.87009">
        <ele>558.4</ele>
        <time>2022-11-06T12:24:35.000Z</time>
      </trkpt>
      <trkpt lat="43.50028" lon="6.87009">
        <ele>558.5</ele>
        <time>2022-11-06T12:24:36.000Z</time>
      </trkpt>
      <trkpt lat="43.50028" lon="6.8701">
        <ele>558.5</ele>
        <time>2022-11-06T12:24:38.000Z</time>
      </trkpt>
      <trkpt lat="43.50028" lon="6.8701">
        <ele>558.6</ele>
        <time>2022-11-06T12:24:39.000Z</time>
      </trkpt>
      <trkpt lat="43.50028" lon="6.87011">
        <ele>558.3</ele>
        <time>2022-11-06T12:24:41.000Z</time>
      </trkpt>
      <trkpt lat="43.50028" lon="6.87011">
        <ele>558.6</ele>
        <time>2022-11-06T12:24:42.000Z</time>
      </trkpt>
      <trkpt lat="43.50029" lon="6.87012">
        <ele>559</ele>
        <time>2022-11-06T12:24:45.000Z</time>
      </trkpt>
      <trkpt lat="43.50029" lon="6.87013">
        <ele>558.9</ele>
        <time>2022-11-06T12:24:46.000Z</time>
      </trkpt>
      <trkpt lat="43.5003" lon="6.87015">
        <ele>558.8</ele>
        <time>2022-11-06T12:24:52.000Z</time>
      </trkpt>
      <trkpt lat="43.5003" lon="6.87015">
        <ele>558.5</ele>
        <time>2022-11-06T12:24:55.000Z</time>
      </trkpt>
      <trkpt lat="43.5003" lon="6.87015">
        <ele>558.2</ele>
        <time>2022-11-06T12:24:56.000Z</time>
      </trkpt>
      <trkpt lat="43.5003" lon="6.87015">
        <ele>557.9</ele>
        <time>2022-11-06T12:24:58.000Z</time>
      </trkpt>
      <trkpt lat="43.5003" lon="6.87015">
        <ele>557.9</ele>
        <time>2022-11-06T12:24:59.000Z</time>
      </trkpt>
      <trkpt lat="43.5003" lon="6.87015">
        <ele>557.8</ele>
        <time>2022-11-06T12:25:02.000Z</time>
      </trkpt>
      <trkpt lat="43.5003" lon="6.87016">
        <ele>557.8</ele>
        <time>2022-11-06T12:25:05.000Z</time>
      </trkpt>
      <trkpt lat="43.5003" lon="6.87017">
        <ele>557.5</ele>
        <time>2022-11-06T12:25:09.000Z</time>
      </trkpt>
      <trkpt lat="43.5003" lon="6.87018">
        <ele>557.6</ele>
        <time>2022-11-06T12:25:13.000Z</time>
      </trkpt>
      <trkpt lat="43.5003" lon="6.87017">
        <ele>557.4</ele>
        <time>2022-11-06T12:25:18.000Z</time>
      </trkpt>
      <trkpt lat="43.5003" lon="6.87017">
        <ele>557.3</ele>
        <time>2022-11-06T12:25:19.000Z</time>
      </trkpt>
      <trkpt lat="43.5003" lon="6.87018">
        <ele>557.4</ele>
        <time>2022-11-06T12:25:25.000Z</time>
      </trkpt>
      <trkpt lat="43.5003" lon="6.87018">
        <ele>557.3</ele>
        <time>2022-11-06T12:25:26.000Z</time>
      </trkpt>
      <trkpt lat="43.5003" lon="6.87018">
        <ele>557.2</ele>
        <time>2022-11-06T12:25:27.000Z</time>
      </trkpt>
      <trkpt lat="43.5003" lon="6.87018">
        <ele>557.3</ele>
        <time>2022-11-06T12:25:28.000Z</time>
      </trkpt>
      <trkpt lat="43.5003" lon="6.87018">
        <ele>557.4</ele>
        <time>2022-11-06T12:25:32.000Z</time>
      </trkpt>
      <trkpt lat="43.50031" lon="6.87018">
        <ele>557.4</ele>
        <time>2022-11-06T12:25:36.000Z</time>
      </trkpt>
      <trkpt lat="43.50031" lon="6.87018">
        <ele>557.3</ele>
        <time>2022-11-06T12:25:39.000Z</time>
      </trkpt>
      <trkpt lat="43.50031" lon="6.87018">
        <ele>557.1</ele>
        <time>2022-11-06T12:25:40.000Z</time>
      </trkpt>
      <trkpt lat="43.50031" lon="6.87018">
        <ele>557.6</ele>
        <time>2022-11-06T12:25:44.000Z</time>
      </trkpt>
      <trkpt lat="43.50031" lon="6.87019">
        <ele>557.7</ele>
        <time>2022-11-06T12:25:47.000Z</time>
      </trkpt>
      <trkpt lat="43.50031" lon="6.87019">
        <ele>557.7</ele>
        <time>2022-11-06T12:25:48.000Z</time>
      </trkpt>
      <trkpt lat="43.50032" lon="6.8702">
        <ele>557.7</ele>
        <time>2022-11-06T12:25:50.000Z</time>
      </trkpt>
      <trkpt lat="43.50032" lon="6.8702">
        <ele>558</ele>
        <time>2022-11-06T12:25:57.000Z</time>
      </trkpt>
      <trkpt lat="43.50032" lon="6.87019">
        <ele>558</ele>
        <time>2022-11-06T12:25:58.000Z</time>
      </trkpt>
      <trkpt lat="43.50032" lon="6.87019">
        <ele>558.1</ele>
        <time>2022-11-06T12:26:07.000Z</time>
      </trkpt>
      <trkpt lat="43.50032" lon="6.87019">
        <ele>558.1</ele>
        <time>2022-11-06T12:26:08.000Z</time>
      </trkpt>
      <trkpt lat="43.50031" lon="6.87019">
        <ele>558.1</ele>
        <time>2022-11-06T12:26:22.000Z</time>
      </trkpt>
      <trkpt lat="43.50031" lon="6.87019">
        <ele>558.1</ele>
        <time>2022-11-06T12:26:23.000Z</time>
      </trkpt>
      <trkpt lat="43.50032" lon="6.87019">
        <ele>557.8</ele>
        <time>2022-11-06T12:26:28.000Z</time>
      </trkpt>
      <trkpt lat="43.50032" lon="6.87019">
        <ele>557.8</ele>
        <time>2022-11-06T12:26:31.000Z</time>
      </trkpt>
      <trkpt lat="43.50032" lon="6.87019">
        <ele>557.1</ele>
        <time>2022-11-06T12:26:40.000Z</time>
      </trkpt>
      <trkpt lat="43.50032" lon="6.87019">
        <ele>557</ele>
        <time>2022-11-06T12:26:41.000Z</time>
      </trkpt>
      <trkpt lat="43.50032" lon="6.87019">
        <ele>557</ele>
        <time>2022-11-06T12:26:42.000Z</time>
      </trkpt>
      <trkpt lat="43.50032" lon="6.87019">
        <ele>556.8</ele>
        <time>2022-11-06T12:26:44.000Z</time>
      </trkpt>
      <trkpt lat="43.50032" lon="6.87019">
        <ele>556.6</ele>
        <time>2022-11-06T12:26:50.000Z</time>
      </trkpt>
      <trkpt lat="43.50032" lon="6.87019">
        <ele>556.5</ele>
        <time>2022-11-06T12:26:51.000Z</time>
      </trkpt>
      <trkpt lat="43.50032" lon="6.87019">
        <ele>556.8</ele>
        <time>2022-11-06T12:26:54.000Z</time>
      </trkpt>
      <trkpt lat="43.50032" lon="6.87019">
        <ele>556.7</ele>
        <time>2022-11-06T12:26:55.000Z</time>
      </trkpt>
      <trkpt lat="43.50033" lon="6.87019">
        <ele>556.5</ele>
        <time>2022-11-06T12:26:58.000Z</time>
      </trkpt>
      <trkpt lat="43.50033" lon="6.87024">
        <ele>555.7</ele>
        <time>2022-11-06T12:27:11.000Z</time>
      </trkpt>
      <trkpt lat="43.50034" lon="6.87025">
        <ele>555.8</ele>
        <time>2022-11-06T12:27:24.000Z</time>
      </trkpt>
      <trkpt lat="43.50035" lon="6.87022">
        <ele>556.2</ele>
        <time>2022-11-06T12:27:32.000Z</time>
      </trkpt>
      <trkpt lat="43.50035" lon="6.87022">
        <ele>556.1</ele>
        <time>2022-11-06T12:27:34.000Z</time>
      </trkpt>
      <trkpt lat="43.50036" lon="6.87022">
        <ele>555.9</ele>
        <time>2022-11-06T12:27:39.000Z</time>
      </trkpt>
      <trkpt lat="43.50036" lon="6.87022">
        <ele>555.9</ele>
        <time>2022-11-06T12:27:40.000Z</time>
      </trkpt>
      <trkpt lat="43.50036" lon="6.87024">
        <ele>555.3</ele>
        <time>2022-11-06T12:27:45.000Z</time>
      </trkpt>
      <trkpt lat="43.50036" lon="6.87024">
        <ele>555.1</ele>
        <time>2022-11-06T12:27:46.000Z</time>
      </trkpt>
      <trkpt lat="43.50036" lon="6.87024">
        <ele>555.1</ele>
        <time>2022-11-06T12:27:48.000Z</time>
      </trkpt>
      <trkpt lat="43.50036" lon="6.87024">
        <ele>555.2</ele>
        <time>2022-11-06T12:27:52.000Z</time>
      </trkpt>
      <trkpt lat="43.50036" lon="6.87024">
        <ele>555.4</ele>
        <time>2022-11-06T12:27:54.000Z</time>
      </trkpt>
      <trkpt lat="43.50036" lon="6.87024">
        <ele>554.9</ele>
        <time>2022-11-06T12:27:56.000Z</time>
      </trkpt>
      <trkpt lat="43.50036" lon="6.87024">
        <ele>555.1</ele>
        <time>2022-11-06T12:27:58.000Z</time>
      </trkpt>
      <trkpt lat="43.50036" lon="6.87024">
        <ele>555.1</ele>
        <time>2022-11-06T12:27:59.000Z</time>
      </trkpt>
      <trkpt lat="43.50036" lon="6.87024">
        <ele>554.9</ele>
        <time>2022-11-06T12:28:00.000Z</time>
      </trkpt>
      <trkpt lat="43.50036" lon="6.87024">
        <ele>554.6</ele>
        <time>2022-11-06T12:28:03.000Z</time>
      </trkpt>
      <trkpt lat="43.50036" lon="6.87024">
        <ele>554.3</ele>
        <time>2022-11-06T12:28:06.000Z</time>
      </trkpt>
      <trkpt lat="43.50037" lon="6.87024">
        <ele>553.9</ele>
        <time>2022-11-06T12:28:12.000Z</time>
      </trkpt>
      <trkpt lat="43.50037" lon="6.87024">
        <ele>553.8</ele>
        <time>2022-11-06T12:28:13.000Z</time>
      </trkpt>
      <trkpt lat="43.50037" lon="6.87025">
        <ele>554.3</ele>
        <time>2022-11-06T12:28:16.000Z</time>
      </trkpt>
      <trkpt lat="43.50042" lon="6.87026">
        <ele>553.4</ele>
        <time>2022-11-06T12:28:36.000Z</time>
      </trkpt>
      <trkpt lat="43.50041" lon="6.87026">
        <ele>553.2</ele>
        <time>2022-11-06T12:28:38.000Z</time>
      </trkpt>
      <trkpt lat="43.50041" lon="6.87027">
        <ele>553.3</ele>
        <time>2022-11-06T12:28:41.000Z</time>
      </trkpt>
      <trkpt lat="43.50041" lon="6.87027">
        <ele>552.9</ele>
        <time>2022-11-06T12:28:42.000Z</time>
      </trkpt>
      <trkpt lat="43.50041" lon="6.87027">
        <ele>552.8</ele>
        <time>2022-11-06T12:28:43.000Z</time>
      </trkpt>
      <trkpt lat="43.50041" lon="6.87027">
        <ele>552.7</ele>
        <time>2022-11-06T12:28:45.000Z</time>
      </trkpt>
      <trkpt lat="43.50041" lon="6.87027">
        <ele>552.2</ele>
        <time>2022-11-06T12:28:48.000Z</time>
      </trkpt>
      <trkpt lat="43.50041" lon="6.87028">
        <ele>552.1</ele>
        <time>2022-11-06T12:28:49.000Z</time>
      </trkpt>
      <trkpt lat="43.5004" lon="6.87029">
        <ele>552</ele>
        <time>2022-11-06T12:28:55.000Z</time>
      </trkpt>
      <trkpt lat="43.5004" lon="6.87029">
        <ele>552.2</ele>
        <time>2022-11-06T12:28:57.000Z</time>
      </trkpt>
      <trkpt lat="43.5004" lon="6.8703">
        <ele>552</ele>
        <time>2022-11-06T12:28:59.000Z</time>
      </trkpt>
      <trkpt lat="43.50039" lon="6.8703">
        <ele>551.9</ele>
        <time>2022-11-06T12:29:00.000Z</time>
      </trkpt>
      <trkpt lat="43.50037" lon="6.87036">
        <ele>550.3</ele>
        <time>2022-11-06T12:29:13.000Z</time>
      </trkpt>
      <trkpt lat="43.50037" lon="6.87036">
        <ele>550.4</ele>
        <time>2022-11-06T12:29:14.000Z</time>
      </trkpt>
      <trkpt lat="43.50037" lon="6.87037">
        <ele>550.2</ele>
        <time>2022-11-06T12:29:16.000Z</time>
      </trkpt>
      <trkpt lat="43.50037" lon="6.87037">
        <ele>550.2</ele>
        <time>2022-11-06T12:29:17.000Z</time>
      </trkpt>
      <trkpt lat="43.50037" lon="6.87037">
        <ele>550.1</ele>
        <time>2022-11-06T12:29:18.000Z</time>
      </trkpt>
      <trkpt lat="43.50037" lon="6.87037">
        <ele>550</ele>
        <time>2022-11-06T12:29:19.000Z</time>
      </trkpt>
      <trkpt lat="43.50037" lon="6.87037">
        <ele>549.9</ele>
        <time>2022-11-06T12:29:25.000Z</time>
      </trkpt>
      <trkpt lat="43.50037" lon="6.87038">
        <ele>549.9</ele>
        <time>2022-11-06T12:29:27.000Z</time>
      </trkpt>
      <trkpt lat="43.50038" lon="6.87038">
        <ele>549.4</ele>
        <time>2022-11-06T12:29:33.000Z</time>
      </trkpt>
      <trkpt lat="43.50038" lon="6.87038">
        <ele>549.4</ele>
        <time>2022-11-06T12:29:35.000Z</time>
      </trkpt>
      <trkpt lat="43.50039" lon="6.87038">
        <ele>548.8</ele>
        <time>2022-11-06T12:29:42.000Z</time>
      </trkpt>
      <trkpt lat="43.50039" lon="6.87038">
        <ele>548.8</ele>
        <time>2022-11-06T12:29:43.000Z</time>
      </trkpt>
      <trkpt lat="43.50042" lon="6.87038">
        <ele>547.9</ele>
        <time>2022-11-06T12:29:52.000Z</time>
      </trkpt>
      <trkpt lat="43.50042" lon="6.87038">
        <ele>547.3</ele>
        <time>2022-11-06T12:29:59.000Z</time>
      </trkpt>
      <trkpt lat="43.50042" lon="6.87038">
        <ele>547.2</ele>
        <time>2022-11-06T12:30:00.000Z</time>
      </trkpt>
      <trkpt lat="43.50042" lon="6.87038">
        <ele>547.2</ele>
        <time>2022-11-06T12:30:01.000Z</time>
      </trkpt>
      <trkpt lat="43.50042" lon="6.87038">
        <ele>547.2</ele>
        <time>2022-11-06T12:30:02.000Z</time>
      </trkpt>
      <trkpt lat="43.50042" lon="6.87038">
        <ele>547.1</ele>
        <time>2022-11-06T12:30:03.000Z</time>
      </trkpt>
      <trkpt lat="43.50042" lon="6.87039">
        <ele>547.2</ele>
        <time>2022-11-06T12:30:04.000Z</time>
      </trkpt>
      <trkpt lat="43.50042" lon="6.87039">
        <ele>546.9</ele>
        <time>2022-11-06T12:30:08.000Z</time>
      </trkpt>
      <trkpt lat="43.50047" lon="6.87049">
        <ele>545.4</ele>
        <time>2022-11-06T12:30:23.000Z</time>
      </trkpt>
      <trkpt lat="43.50056" lon="6.87056">
        <ele>543.7</ele>
        <time>2022-11-06T12:30:37.000Z</time>
      </trkpt>
      <trkpt lat="43.5006" lon="6.87067">
        <ele>542.8</ele>
        <time>2022-11-06T12:30:48.000Z</time>
      </trkpt>
      <trkpt lat="43.50065" lon="6.87079">
        <ele>541.6</ele>
        <time>2022-11-06T12:30:59.000Z</time>
      </trkpt>
      <trkpt lat="43.50065" lon="6.87092">
        <ele>541</ele>
        <time>2022-11-06T12:31:12.000Z</time>
      </trkpt>
      <trkpt lat="43.50068" lon="6.87094">
        <ele>540.4</ele>
        <time>2022-11-06T12:31:20.000Z</time>
      </trkpt>
      <trkpt lat="43.50068" lon="6.87095">
        <ele>540.3</ele>
        <time>2022-11-06T12:31:25.000Z</time>
      </trkpt>
      <trkpt lat="43.50068" lon="6.87095">
        <ele>540.3</ele>
        <time>2022-11-06T12:31:26.000Z</time>
      </trkpt>
      <trkpt lat="43.50068" lon="6.87095">
        <ele>540.4</ele>
        <time>2022-11-06T12:31:28.000Z</time>
      </trkpt>
      <trkpt lat="43.50072" lon="6.87104">
        <ele>538.4</ele>
        <time>2022-11-06T12:31:42.000Z</time>
      </trkpt>
      <trkpt lat="43.50072" lon="6.87105">
        <ele>538.3</ele>
        <time>2022-11-06T12:31:43.000Z</time>
      </trkpt>
      <trkpt lat="43.50075" lon="6.8711">
        <ele>537.3</ele>
        <time>2022-11-06T12:31:55.000Z</time>
      </trkpt>
      <trkpt lat="43.50075" lon="6.8711">
        <ele>537</ele>
        <time>2022-11-06T12:31:57.000Z</time>
      </trkpt>
      <trkpt lat="43.50081" lon="6.8712">
        <ele>534.6</ele>
        <time>2022-11-06T12:32:20.000Z</time>
      </trkpt>
      <trkpt lat="43.5009" lon="6.87124">
        <ele>532.8</ele>
        <time>2022-11-06T12:32:37.000Z</time>
      </trkpt>
      <trkpt lat="43.50097" lon="6.87116">
        <ele>531.2</ele>
        <time>2022-11-06T12:32:56.000Z</time>
      </trkpt>
      <trkpt lat="43.50106" lon="6.87109">
        <ele>529.3</ele>
        <time>2022-11-06T12:33:15.000Z</time>
      </trkpt>
      <trkpt lat="43.50115" lon="6.87106">
        <ele>527</ele>
        <time>2022-11-06T12:33:33.000Z</time>
      </trkpt>
      <trkpt lat="43.50123" lon="6.87099">
        <ele>525.3</ele>
        <time>2022-11-06T12:33:44.000Z</time>
      </trkpt>
      <trkpt lat="43.50131" lon="6.87093">
        <ele>523.8</ele>
        <time>2022-11-06T12:33:56.000Z</time>
      </trkpt>
      <trkpt lat="43.50139" lon="6.87085">
        <ele>521.5</ele>
        <time>2022-11-06T12:34:08.000Z</time>
      </trkpt>
      <trkpt lat="43.50143" lon="6.87074">
        <ele>519.5</ele>
        <time>2022-11-06T12:34:21.000Z</time>
      </trkpt>
      <trkpt lat="43.50149" lon="6.87067">
        <ele>518.8</ele>
        <time>2022-11-06T12:34:37.000Z</time>
      </trkpt>
      <trkpt lat="43.50149" lon="6.87067">
        <ele>518.7</ele>
        <time>2022-11-06T12:34:38.000Z</time>
      </trkpt>
      <trkpt lat="43.50149" lon="6.87067">
        <ele>518.5</ele>
        <time>2022-11-06T12:34:40.000Z</time>
      </trkpt>
      <trkpt lat="43.50148" lon="6.87068">
        <ele>518.5</ele>
        <time>2022-11-06T12:34:41.000Z</time>
      </trkpt>
      <trkpt lat="43.50153" lon="6.87065">
        <ele>516.8</ele>
        <time>2022-11-06T12:34:55.000Z</time>
      </trkpt>
      <trkpt lat="43.50153" lon="6.87064">
        <ele>516.5</ele>
        <time>2022-11-06T12:34:56.000Z</time>
      </trkpt>
      <trkpt lat="43.50158" lon="6.87053">
        <ele>514.9</ele>
        <time>2022-11-06T12:35:10.000Z</time>
      </trkpt>
      <trkpt lat="43.50163" lon="6.87041">
        <ele>514.4</ele>
        <time>2022-11-06T12:35:18.000Z</time>
      </trkpt>
      <trkpt lat="43.50167" lon="6.8703">
        <ele>512.7</ele>
        <time>2022-11-06T12:35:28.000Z</time>
      </trkpt>
      <trkpt lat="43.50174" lon="6.8702">
        <ele>511.9</ele>
        <time>2022-11-06T12:35:37.000Z</time>
      </trkpt>
      <trkpt lat="43.50181" lon="6.8701">
        <ele>511.1</ele>
        <time>2022-11-06T12:35:46.000Z</time>
      </trkpt>
      <trkpt lat="43.50187" lon="6.87001">
        <ele>510.2</ele>
        <time>2022-11-06T12:35:57.000Z</time>
      </trkpt>
      <trkpt lat="43.50192" lon="6.86989">
        <ele>509.4</ele>
        <time>2022-11-06T12:36:19.000Z</time>
      </trkpt>
      <trkpt lat="43.50196" lon="6.86978">
        <ele>508.9</ele>
        <time>2022-11-06T12:36:29.000Z</time>
      </trkpt>
      <trkpt lat="43.50201" lon="6.86966">
        <ele>508.2</ele>
        <time>2022-11-06T12:36:42.000Z</time>
      </trkpt>
      <trkpt lat="43.50209" lon="6.86959">
        <ele>507.6</ele>
        <time>2022-11-06T12:36:49.000Z</time>
      </trkpt>
      <trkpt lat="43.50216" lon="6.8695">
        <ele>507.1</ele>
        <time>2022-11-06T12:36:58.000Z</time>
      </trkpt>
      <trkpt lat="43.50222" lon="6.86941">
        <ele>506.3</ele>
        <time>2022-11-06T12:37:10.000Z</time>
      </trkpt>
      <trkpt lat="43.5023" lon="6.86933">
        <ele>506</ele>
        <time>2022-11-06T12:37:18.000Z</time>
      </trkpt>
      <trkpt lat="43.50237" lon="6.86925">
        <ele>504.9</ele>
        <time>2022-11-06T12:37:28.000Z</time>
      </trkpt>
      <trkpt lat="43.50244" lon="6.86916">
        <ele>505</ele>
        <time>2022-11-06T12:37:40.000Z</time>
      </trkpt>
      <trkpt lat="43.50253" lon="6.8691">
        <ele>505.8</ele>
        <time>2022-11-06T12:37:50.000Z</time>
      </trkpt>
      <trkpt lat="43.50257" lon="6.86899">
        <ele>506.5</ele>
        <time>2022-11-06T12:38:01.000Z</time>
      </trkpt>
      <trkpt lat="43.50265" lon="6.86892">
        <ele>507.4</ele>
        <time>2022-11-06T12:38:11.000Z</time>
      </trkpt>
      <trkpt lat="43.50274" lon="6.86887">
        <ele>508.3</ele>
        <time>2022-11-06T12:38:24.000Z</time>
      </trkpt>
      <trkpt lat="43.50283" lon="6.8689">
        <ele>509.2</ele>
        <time>2022-11-06T12:38:35.000Z</time>
      </trkpt>
      <trkpt lat="43.50293" lon="6.86893">
        <ele>509.7</ele>
        <time>2022-11-06T12:38:47.000Z</time>
      </trkpt>
      <trkpt lat="43.50301" lon="6.869">
        <ele>510.7</ele>
        <time>2022-11-06T12:39:00.000Z</time>
      </trkpt>
      <trkpt lat="43.50307" lon="6.86909">
        <ele>511.3</ele>
        <time>2022-11-06T12:39:10.000Z</time>
      </trkpt>
      <trkpt lat="43.50315" lon="6.86916">
        <ele>511.2</ele>
        <time>2022-11-06T12:39:23.000Z</time>
      </trkpt>
      <trkpt lat="43.50322" lon="6.86926">
        <ele>510.8</ele>
        <time>2022-11-06T12:39:33.000Z</time>
      </trkpt>
      <trkpt lat="43.5033" lon="6.8693">
        <ele>510.7</ele>
        <time>2022-11-06T12:39:47.000Z</time>
      </trkpt>
      <trkpt lat="43.50339" lon="6.86936">
        <ele>510.8</ele>
        <time>2022-11-06T12:39:55.000Z</time>
      </trkpt>
      <trkpt lat="43.50348" lon="6.8694">
        <ele>509.7</ele>
        <time>2022-11-06T12:40:05.000Z</time>
      </trkpt>
      <trkpt lat="43.50357" lon="6.86938">
        <ele>508.6</ele>
        <time>2022-11-06T12:40:18.000Z</time>
      </trkpt>
      <trkpt lat="43.50366" lon="6.86939">
        <ele>507.3</ele>
        <time>2022-11-06T12:40:32.000Z</time>
      </trkpt>
      <trkpt lat="43.50376" lon="6.8694">
        <ele>506.6</ele>
        <time>2022-11-06T12:40:43.000Z</time>
      </trkpt>
      <trkpt lat="43.50384" lon="6.86943">
        <ele>506.7</ele>
        <time>2022-11-06T12:40:57.000Z</time>
      </trkpt>
      <trkpt lat="43.50394" lon="6.86947">
        <ele>506.2</ele>
        <time>2022-11-06T12:41:06.000Z</time>
      </trkpt>
      <trkpt lat="43.50403" lon="6.86949">
        <ele>506.4</ele>
        <time>2022-11-06T12:41:17.000Z</time>
      </trkpt>
      <trkpt lat="43.50412" lon="6.86952">
        <ele>506.1</ele>
        <time>2022-11-06T12:41:32.000Z</time>
      </trkpt>
      <trkpt lat="43.50421" lon="6.86956">
        <ele>506.5</ele>
        <time>2022-11-06T12:41:43.000Z</time>
      </trkpt>
      <trkpt lat="43.5043" lon="6.86962">
        <ele>507.2</ele>
        <time>2022-11-06T12:41:56.000Z</time>
      </trkpt>
      <trkpt lat="43.50439" lon="6.86968">
        <ele>507.3</ele>
        <time>2022-11-06T12:42:08.000Z</time>
      </trkpt>
      <trkpt lat="43.50447" lon="6.86971">
        <ele>506.2</ele>
        <time>2022-11-06T12:42:22.000Z</time>
      </trkpt>
      <trkpt lat="43.50447" lon="6.86971">
        <ele>506.1</ele>
        <time>2022-11-06T12:42:24.000Z</time>
      </trkpt>
      <trkpt lat="43.50453" lon="6.8698">
        <ele>504.2</ele>
        <time>2022-11-06T12:42:44.000Z</time>
      </trkpt>
      <trkpt lat="43.50457" lon="6.86992">
        <ele>501.8</ele>
        <time>2022-11-06T12:43:05.000Z</time>
      </trkpt>
      <trkpt lat="43.5046" lon="6.87003">
        <ele>500</ele>
        <time>2022-11-06T12:43:25.000Z</time>
      </trkpt>
      <trkpt lat="43.50459" lon="6.87004">
        <ele>499.9</ele>
        <time>2022-11-06T12:43:28.000Z</time>
      </trkpt>
      <trkpt lat="43.50463" lon="6.87014">
        <ele>497.9</ele>
        <time>2022-11-06T12:43:46.000Z</time>
      </trkpt>
      <trkpt lat="43.50463" lon="6.87014">
        <ele>497.7</ele>
        <time>2022-11-06T12:43:47.000Z</time>
      </trkpt>
      <trkpt lat="43.50463" lon="6.87014">
        <ele>497.7</ele>
        <time>2022-11-06T12:43:49.000Z</time>
      </trkpt>
      <trkpt lat="43.50463" lon="6.87015">
        <ele>497.4</ele>
        <time>2022-11-06T12:43:51.000Z</time>
      </trkpt>
      <trkpt lat="43.50463" lon="6.87017">
        <ele>497.2</ele>
        <time>2022-11-06T12:43:55.000Z</time>
      </trkpt>
      <trkpt lat="43.50463" lon="6.87017">
        <ele>497</ele>
        <time>2022-11-06T12:43:56.000Z</time>
      </trkpt>
      <trkpt lat="43.50466" lon="6.8703">
        <ele>495.6</ele>
        <time>2022-11-06T12:44:12.000Z</time>
      </trkpt>
      <trkpt lat="43.50468" lon="6.87037">
        <ele>494.8</ele>
        <time>2022-11-06T12:44:21.000Z</time>
      </trkpt>
      <trkpt lat="43.50468" lon="6.87037">
        <ele>494.4</ele>
        <time>2022-11-06T12:44:22.000Z</time>
      </trkpt>
      <trkpt lat="43.50468" lon="6.87038">
        <ele>494.2</ele>
        <time>2022-11-06T12:44:24.000Z</time>
      </trkpt>
      <trkpt lat="43.50468" lon="6.87038">
        <ele>494.2</ele>
        <time>2022-11-06T12:44:25.000Z</time>
      </trkpt>
      <trkpt lat="43.50468" lon="6.87039">
        <ele>493.9</ele>
        <time>2022-11-06T12:44:27.000Z</time>
      </trkpt>
      <trkpt lat="43.50468" lon="6.8704">
        <ele>493.8</ele>
        <time>2022-11-06T12:44:28.000Z</time>
      </trkpt>
      <trkpt lat="43.5047" lon="6.87052">
        <ele>491.4</ele>
        <time>2022-11-06T12:44:50.000Z</time>
      </trkpt>
      <trkpt lat="43.50472" lon="6.87062">
        <ele>490</ele>
        <time>2022-11-06T12:45:02.000Z</time>
      </trkpt>
      <trkpt lat="43.50472" lon="6.87062">
        <ele>489.9</ele>
        <time>2022-11-06T12:45:03.000Z</time>
      </trkpt>
      <trkpt lat="43.50472" lon="6.87076">
        <ele>488.9</ele>
        <time>2022-11-06T12:45:16.000Z</time>
      </trkpt>
      <trkpt lat="43.5047" lon="6.8708">
        <ele>488.5</ele>
        <time>2022-11-06T12:45:22.000Z</time>
      </trkpt>
      <trkpt lat="43.5047" lon="6.87081">
        <ele>488.3</ele>
        <time>2022-11-06T12:45:23.000Z</time>
      </trkpt>
      <trkpt lat="43.50472" lon="6.87093">
        <ele>486.7</ele>
        <time>2022-11-06T12:45:39.000Z</time>
      </trkpt>
      <trkpt lat="43.50474" lon="6.87106">
        <ele>485.3</ele>
        <time>2022-11-06T12:45:52.000Z</time>
      </trkpt>
      <trkpt lat="43.50479" lon="6.87116">
        <ele>484</ele>
        <time>2022-11-06T12:46:05.000Z</time>
      </trkpt>
      <trkpt lat="43.50482" lon="6.87128">
        <ele>483.1</ele>
        <time>2022-11-06T12:46:23.000Z</time>
      </trkpt>
      <trkpt lat="43.50483" lon="6.87128">
        <ele>483</ele>
        <time>2022-11-06T12:46:25.000Z</time>
      </trkpt>
      <trkpt lat="43.50483" lon="6.87129">
        <ele>482.9</ele>
        <time>2022-11-06T12:46:26.000Z</time>
      </trkpt>
      <trkpt lat="43.50492" lon="6.87132">
        <ele>483</ele>
        <time>2022-11-06T12:46:35.000Z</time>
      </trkpt>
      <trkpt lat="43.50496" lon="6.87124">
        <ele>482.9</ele>
        <time>2022-11-06T12:46:45.000Z</time>
      </trkpt>
      <trkpt lat="43.50496" lon="6.87124">
        <ele>483.2</ele>
        <time>2022-11-06T12:46:47.000Z</time>
      </trkpt>
      <trkpt lat="43.50496" lon="6.87124">
        <ele>483.2</ele>
        <time>2022-11-06T12:46:48.000Z</time>
      </trkpt>
      <trkpt lat="43.50495" lon="6.87123">
        <ele>483.1</ele>
        <time>2022-11-06T12:46:50.000Z</time>
      </trkpt>
      <trkpt lat="43.50495" lon="6.87123">
        <ele>483.2</ele>
        <time>2022-11-06T12:46:51.000Z</time>
      </trkpt>
      <trkpt lat="43.50495" lon="6.87123">
        <ele>483.1</ele>
        <time>2022-11-06T12:46:58.000Z</time>
      </trkpt>
      <trkpt lat="43.50491" lon="6.87115">
        <ele>483.1</ele>
        <time>2022-11-06T12:47:10.000Z</time>
      </trkpt>
      <trkpt lat="43.50491" lon="6.87115">
        <ele>483.1</ele>
        <time>2022-11-06T12:47:11.000Z</time>
      </trkpt>
      <trkpt lat="43.50492" lon="6.87115">
        <ele>483.3</ele>
        <time>2022-11-06T12:47:13.000Z</time>
      </trkpt>
      <trkpt lat="43.50492" lon="6.87115">
        <ele>483.2</ele>
        <time>2022-11-06T12:47:19.000Z</time>
      </trkpt>
      <trkpt lat="43.50492" lon="6.87115">
        <ele>483.2</ele>
        <time>2022-11-06T12:47:20.000Z</time>
      </trkpt>
      <trkpt lat="43.50492" lon="6.87116">
        <ele>483.1</ele>
        <time>2022-11-06T12:47:24.000Z</time>
      </trkpt>
      <trkpt lat="43.50492" lon="6.87117">
        <ele>483.2</ele>
        <time>2022-11-06T12:47:28.000Z</time>
      </trkpt>
      <trkpt lat="43.50492" lon="6.87118">
        <ele>483.2</ele>
        <time>2022-11-06T12:47:29.000Z</time>
      </trkpt>
      <trkpt lat="43.50492" lon="6.87118">
        <ele>483.1</ele>
        <time>2022-11-06T12:47:31.000Z</time>
      </trkpt>
      <trkpt lat="43.50492" lon="6.87117">
        <ele>483.2</ele>
        <time>2022-11-06T12:47:35.000Z</time>
      </trkpt>
      <trkpt lat="43.50489" lon="6.87113">
        <ele>483.4</ele>
        <time>2022-11-06T12:48:08.000Z</time>
      </trkpt>
      <trkpt lat="43.50488" lon="6.87114">
        <ele>483.4</ele>
        <time>2022-11-06T12:48:09.000Z</time>
      </trkpt>
      <trkpt lat="43.50489" lon="6.87114">
        <ele>483.3</ele>
        <time>2022-11-06T12:48:12.000Z</time>
      </trkpt>
      <trkpt lat="43.50489" lon="6.87114">
        <ele>483.3</ele>
        <time>2022-11-06T12:48:13.000Z</time>
      </trkpt>
      <trkpt lat="43.50489" lon="6.8712">
        <ele>484.2</ele>
        <time>2022-11-06T12:48:38.000Z</time>
      </trkpt>
      <trkpt lat="43.50489" lon="6.8712">
        <ele>484.2</ele>
        <time>2022-11-06T12:48:39.000Z</time>
      </trkpt>
      <trkpt lat="43.50489" lon="6.8712">
        <ele>484.2</ele>
        <time>2022-11-06T12:48:40.000Z</time>
      </trkpt>
      <trkpt lat="43.50489" lon="6.8712">
        <ele>484</ele>
        <time>2022-11-06T12:48:43.000Z</time>
      </trkpt>
      <trkpt lat="43.50489" lon="6.8712">
        <ele>484</ele>
        <time>2022-11-06T12:48:45.000Z</time>
      </trkpt>
      <trkpt lat="43.50489" lon="6.87121">
        <ele>484.4</ele>
        <time>2022-11-06T12:49:19.000Z</time>
      </trkpt>
      <trkpt lat="43.50489" lon="6.87121">
        <ele>484.4</ele>
        <time>2022-11-06T12:49:20.000Z</time>
      </trkpt>
      <trkpt lat="43.50489" lon="6.87121">
        <ele>484.3</ele>
        <time>2022-11-06T12:49:30.000Z</time>
      </trkpt>
      <trkpt lat="43.50489" lon="6.87121">
        <ele>484.3</ele>
        <time>2022-11-06T12:49:31.000Z</time>
      </trkpt>
      <trkpt lat="43.50489" lon="6.87121">
        <ele>484.3</ele>
        <time>2022-11-06T12:49:34.000Z</time>
      </trkpt>
      <trkpt lat="43.50489" lon="6.87121">
        <ele>484.2</ele>
        <time>2022-11-06T12:49:35.000Z</time>
      </trkpt>
      <trkpt lat="43.50489" lon="6.87121">
        <ele>484.2</ele>
        <time>2022-11-06T12:49:41.000Z</time>
      </trkpt>
      <trkpt lat="43.50489" lon="6.87121">
        <ele>484.4</ele>
        <time>2022-11-06T12:49:42.000Z</time>
      </trkpt>
      <trkpt lat="43.50489" lon="6.87121">
        <ele>484.2</ele>
        <time>2022-11-06T12:50:01.000Z</time>
      </trkpt>
      <trkpt lat="43.50489" lon="6.87121">
        <ele>484.1</ele>
        <time>2022-11-06T12:50:02.000Z</time>
      </trkpt>
      <trkpt lat="43.50489" lon="6.87122">
        <ele>484.1</ele>
        <time>2022-11-06T12:50:27.000Z</time>
      </trkpt>
      <trkpt lat="43.50489" lon="6.87123">
        <ele>484.1</ele>
        <time>2022-11-06T12:50:30.000Z</time>
      </trkpt>
      <trkpt lat="43.50488" lon="6.87123">
        <ele>484.1</ele>
        <time>2022-11-06T12:50:31.000Z</time>
      </trkpt>
      <trkpt lat="43.50488" lon="6.87119">
        <ele>483.6</ele>
        <time>2022-11-06T12:50:56.000Z</time>
      </trkpt>
      <trkpt lat="43.50488" lon="6.87119">
        <ele>483.5</ele>
        <time>2022-11-06T12:50:57.000Z</time>
      </trkpt>
      <trkpt lat="43.50488" lon="6.87117">
        <ele>483.7</ele>
        <time>2022-11-06T12:51:18.000Z</time>
      </trkpt>
      <trkpt lat="43.50488" lon="6.87117">
        <ele>483.7</ele>
        <time>2022-11-06T12:51:19.000Z</time>
      </trkpt>
      <trkpt lat="43.5049" lon="6.8712">
        <ele>483.7</ele>
        <time>2022-11-06T12:51:23.000Z</time>
      </trkpt>
      <trkpt lat="43.5049" lon="6.8712">
        <ele>483.6</ele>
        <time>2022-11-06T12:51:27.000Z</time>
      </trkpt>
      <trkpt lat="43.50491" lon="6.87116">
        <ele>483.8</ele>
        <time>2022-11-06T12:51:37.000Z</time>
      </trkpt>
      <trkpt lat="43.50491" lon="6.87116">
        <ele>483.8</ele>
        <time>2022-11-06T12:51:38.000Z</time>
      </trkpt>
      <trkpt lat="43.50485" lon="6.8711">
        <ele>483.9</ele>
        <time>2022-11-06T12:51:49.000Z</time>
      </trkpt>
      <trkpt lat="43.50485" lon="6.8711">
        <ele>483.9</ele>
        <time>2022-11-06T12:51:51.000Z</time>
      </trkpt>
      <trkpt lat="43.50495" lon="6.8711">
        <ele>483.5</ele>
        <time>2022-11-06T12:52:01.000Z</time>
      </trkpt>
      <trkpt lat="43.50503" lon="6.87103">
        <ele>482.4</ele>
        <time>2022-11-06T12:52:14.000Z</time>
      </trkpt>
      <trkpt lat="43.50504" lon="6.8709">
        <ele>481.1</ele>
        <time>2022-11-06T12:52:27.000Z</time>
      </trkpt>
      <trkpt lat="43.50508" lon="6.87079">
        <ele>479.6</ele>
        <time>2022-11-06T12:52:42.000Z</time>
      </trkpt>
      <trkpt lat="43.50514" lon="6.87068">
        <ele>478.4</ele>
        <time>2022-11-06T12:52:54.000Z</time>
      </trkpt>
      <trkpt lat="43.50518" lon="6.87056">
        <ele>477</ele>
        <time>2022-11-06T12:53:03.000Z</time>
      </trkpt>
      <trkpt lat="43.50519" lon="6.87044">
        <ele>475.7</ele>
        <time>2022-11-06T12:53:13.000Z</time>
      </trkpt>
      <trkpt lat="43.50525" lon="6.87034">
        <ele>474.8</ele>
        <time>2022-11-06T12:53:24.000Z</time>
      </trkpt>
      <trkpt lat="43.50527" lon="6.87021">
        <ele>473.2</ele>
        <time>2022-11-06T12:53:37.000Z</time>
      </trkpt>
      <trkpt lat="43.50529" lon="6.87008">
        <ele>471.8</ele>
        <time>2022-11-06T12:53:52.000Z</time>
      </trkpt>
      <trkpt lat="43.5053" lon="6.86998">
        <ele>470.4</ele>
        <time>2022-11-06T12:54:04.000Z</time>
      </trkpt>
      <trkpt lat="43.5053" lon="6.86998">
        <ele>470.5</ele>
        <time>2022-11-06T12:54:08.000Z</time>
      </trkpt>
      <trkpt lat="43.50526" lon="6.86994">
        <ele>470.2</ele>
        <time>2022-11-06T12:54:15.000Z</time>
      </trkpt>
      <trkpt lat="43.50526" lon="6.86994">
        <ele>470</ele>
        <time>2022-11-06T12:54:24.000Z</time>
      </trkpt>
      <trkpt lat="43.50525" lon="6.86993">
        <ele>470</ele>
        <time>2022-11-06T12:54:29.000Z</time>
      </trkpt>
      <trkpt lat="43.50525" lon="6.86993">
        <ele>470</ele>
        <time>2022-11-06T12:54:34.000Z</time>
      </trkpt>
      <trkpt lat="43.50524" lon="6.86994">
        <ele>469.9</ele>
        <time>2022-11-06T12:54:36.000Z</time>
      </trkpt>
      <trkpt lat="43.50524" lon="6.86993">
        <ele>470</ele>
        <time>2022-11-06T12:54:45.000Z</time>
      </trkpt>
      <trkpt lat="43.50524" lon="6.86993">
        <ele>469.9</ele>
        <time>2022-11-06T12:54:46.000Z</time>
      </trkpt>
      <trkpt lat="43.50524" lon="6.86993">
        <ele>469.9</ele>
        <time>2022-11-06T12:54:47.000Z</time>
      </trkpt>
      <trkpt lat="43.50524" lon="6.86993">
        <ele>470</ele>
        <time>2022-11-06T12:54:48.000Z</time>
      </trkpt>
      <trkpt lat="43.50524" lon="6.86993">
        <ele>469.9</ele>
        <time>2022-11-06T12:54:59.000Z</time>
      </trkpt>
      <trkpt lat="43.50524" lon="6.86993">
        <ele>469.8</ele>
        <time>2022-11-06T12:55:00.000Z</time>
      </trkpt>
      <trkpt lat="43.50524" lon="6.86993">
        <ele>470</ele>
        <time>2022-11-06T12:55:01.000Z</time>
      </trkpt>
      <trkpt lat="43.50525" lon="6.86992">
        <ele>469.9</ele>
        <time>2022-11-06T12:55:04.000Z</time>
      </trkpt>
      <trkpt lat="43.50525" lon="6.86992">
        <ele>469.9</ele>
        <time>2022-11-06T12:55:08.000Z</time>
      </trkpt>
      <trkpt lat="43.50524" lon="6.86991">
        <ele>469.8</ele>
        <time>2022-11-06T12:55:10.000Z</time>
      </trkpt>
      <trkpt lat="43.50525" lon="6.86991">
        <ele>469.9</ele>
        <time>2022-11-06T12:55:16.000Z</time>
      </trkpt>
      <trkpt lat="43.50526" lon="6.86978">
        <ele>468.7</ele>
        <time>2022-11-06T12:55:30.000Z</time>
      </trkpt>
      <trkpt lat="43.50521" lon="6.86974">
        <ele>466.8</ele>
        <time>2022-11-06T12:55:51.000Z</time>
      </trkpt>
      <trkpt lat="43.50522" lon="6.86975">
        <ele>466.7</ele>
        <time>2022-11-06T12:55:52.000Z</time>
      </trkpt>
      <trkpt lat="43.50529" lon="6.86986">
        <ele>464.5</ele>
        <time>2022-11-06T12:56:05.000Z</time>
      </trkpt>
      <trkpt lat="43.50525" lon="6.86985">
        <ele>464.5</ele>
        <time>2022-11-06T12:56:23.000Z</time>
      </trkpt>
      <trkpt lat="43.50526" lon="6.86985">
        <ele>464.4</ele>
        <time>2022-11-06T12:56:24.000Z</time>
      </trkpt>
      <trkpt lat="43.50526" lon="6.86985">
        <ele>464.3</ele>
        <time>2022-11-06T12:56:25.000Z</time>
      </trkpt>
      <trkpt lat="43.50525" lon="6.86985">
        <ele>464.7</ele>
        <time>2022-11-06T12:56:29.000Z</time>
      </trkpt>
      <trkpt lat="43.50529" lon="6.86989">
        <ele>464.5</ele>
        <time>2022-11-06T12:56:35.000Z</time>
      </trkpt>
      <trkpt lat="43.50529" lon="6.86989">
        <ele>464.6</ele>
        <time>2022-11-06T12:56:48.000Z</time>
      </trkpt>
      <trkpt lat="43.5053" lon="6.86988">
        <ele>464.3</ele>
        <time>2022-11-06T12:56:55.000Z</time>
      </trkpt>
      <trkpt lat="43.5053" lon="6.86988">
        <ele>464.4</ele>
        <time>2022-11-06T12:56:56.000Z</time>
      </trkpt>
      <trkpt lat="43.50532" lon="6.86991">
        <ele>464.1</ele>
        <time>2022-11-06T12:57:01.000Z</time>
      </trkpt>
      <trkpt lat="43.50532" lon="6.8699">
        <ele>464.1</ele>
        <time>2022-11-06T12:57:02.000Z</time>
      </trkpt>
      <trkpt lat="43.50532" lon="6.86991">
        <ele>464.1</ele>
        <time>2022-11-06T12:57:03.000Z</time>
      </trkpt>
      <trkpt lat="43.50532" lon="6.86991">
        <ele>464</ele>
        <time>2022-11-06T12:57:04.000Z</time>
      </trkpt>
      <trkpt lat="43.50539" lon="6.86997">
        <ele>462.8</ele>
        <time>2022-11-06T12:57:20.000Z</time>
      </trkpt>
      <trkpt lat="43.50539" lon="6.86998">
        <ele>462.8</ele>
        <time>2022-11-06T12:57:33.000Z</time>
      </trkpt>
      <trkpt lat="43.5054" lon="6.87001">
        <ele>462.8</ele>
        <time>2022-11-06T12:57:47.000Z</time>
      </trkpt>
      <trkpt lat="43.5054" lon="6.87001">
        <ele>462.8</ele>
        <time>2022-11-06T12:57:48.000Z</time>
      </trkpt>
      <trkpt lat="43.5054" lon="6.87001">
        <ele>463</ele>
        <time>2022-11-06T12:57:51.000Z</time>
      </trkpt>
      <trkpt lat="43.50541" lon="6.87002">
        <ele>462.8</ele>
        <time>2022-11-06T12:57:52.000Z</time>
      </trkpt>
      <trkpt lat="43.50541" lon="6.87002">
        <ele>462.7</ele>
        <time>2022-11-06T12:57:53.000Z</time>
      </trkpt>
      <trkpt lat="43.50541" lon="6.87002">
        <ele>462.9</ele>
        <time>2022-11-06T12:58:00.000Z</time>
      </trkpt>
      <trkpt lat="43.50541" lon="6.87002">
        <ele>462.9</ele>
        <time>2022-11-06T12:58:06.000Z</time>
      </trkpt>
      <trkpt lat="43.50542" lon="6.87003">
        <ele>462.7</ele>
        <time>2022-11-06T12:58:07.000Z</time>
      </trkpt>
      <trkpt lat="43.50543" lon="6.87015">
        <ele>462.1</ele>
        <time>2022-11-06T12:58:16.000Z</time>
      </trkpt>
      <trkpt lat="43.50543" lon="6.87016">
        <ele>462.1</ele>
        <time>2022-11-06T12:58:19.000Z</time>
      </trkpt>
      <trkpt lat="43.50552" lon="6.87022">
        <ele>460.4</ele>
        <time>2022-11-06T12:58:39.000Z</time>
      </trkpt>
      <trkpt lat="43.50552" lon="6.87023">
        <ele>460.2</ele>
        <time>2022-11-06T12:58:42.000Z</time>
      </trkpt>
      <trkpt lat="43.50552" lon="6.87023">
        <ele>460.2</ele>
        <time>2022-11-06T12:58:43.000Z</time>
      </trkpt>
      <trkpt lat="43.50559" lon="6.87031">
        <ele>458.8</ele>
        <time>2022-11-06T12:59:07.000Z</time>
      </trkpt>
      <trkpt lat="43.50569" lon="6.87032">
        <ele>457.9</ele>
        <time>2022-11-06T12:59:23.000Z</time>
      </trkpt>
      <trkpt lat="43.50571" lon="6.87032">
        <ele>457.2</ele>
        <time>2022-11-06T12:59:31.000Z</time>
      </trkpt>
      <trkpt lat="43.50571" lon="6.87032">
        <ele>457</ele>
        <time>2022-11-06T12:59:36.000Z</time>
      </trkpt>
      <trkpt lat="43.5058" lon="6.87029">
        <ele>455.6</ele>
        <time>2022-11-06T13:00:00.000Z</time>
      </trkpt>
      <trkpt lat="43.50584" lon="6.87018">
        <ele>453.5</ele>
        <time>2022-11-06T13:00:25.000Z</time>
      </trkpt>
      <trkpt lat="43.50583" lon="6.87017">
        <ele>453.4</ele>
        <time>2022-11-06T13:00:28.000Z</time>
      </trkpt>
      <trkpt lat="43.50583" lon="6.87017">
        <ele>453.3</ele>
        <time>2022-11-06T13:00:29.000Z</time>
      </trkpt>
      <trkpt lat="43.50579" lon="6.87006">
        <ele>451.8</ele>
        <time>2022-11-06T13:00:46.000Z</time>
      </trkpt>
      <trkpt lat="43.50578" lon="6.86992">
        <ele>450.2</ele>
        <time>2022-11-06T13:01:04.000Z</time>
      </trkpt>
      <trkpt lat="43.50577" lon="6.86985">
        <ele>449.2</ele>
        <time>2022-11-06T13:01:14.000Z</time>
      </trkpt>
      <trkpt lat="43.50577" lon="6.86985">
        <ele>449</ele>
        <time>2022-11-06T13:01:15.000Z</time>
      </trkpt>
      <trkpt lat="43.50579" lon="6.86973">
        <ele>447.7</ele>
        <time>2022-11-06T13:01:34.000Z</time>
      </trkpt>
      <trkpt lat="43.50576" lon="6.86983">
        <ele>444.9</ele>
        <time>2022-11-06T13:01:58.000Z</time>
      </trkpt>
      <trkpt lat="43.50576" lon="6.86984">
        <ele>444.7</ele>
        <time>2022-11-06T13:01:59.000Z</time>
      </trkpt>
      <trkpt lat="43.50585" lon="6.86991">
        <ele>443.2</ele>
        <time>2022-11-06T13:02:16.000Z</time>
      </trkpt>
      <trkpt lat="43.50594" lon="6.86994">
        <ele>442</ele>
        <time>2022-11-06T13:02:28.000Z</time>
      </trkpt>
      <trkpt lat="43.50603" lon="6.86989">
        <ele>440.9</ele>
        <time>2022-11-06T13:02:43.000Z</time>
      </trkpt>
      <trkpt lat="43.50612" lon="6.86984">
        <ele>439</ele>
        <time>2022-11-06T13:02:58.000Z</time>
      </trkpt>
      <trkpt lat="43.50611" lon="6.86971">
        <ele>437.3</ele>
        <time>2022-11-06T13:03:10.000Z</time>
      </trkpt>
      <trkpt lat="43.50604" lon="6.86962">
        <ele>435.9</ele>
        <time>2022-11-06T13:03:28.000Z</time>
      </trkpt>
      <trkpt lat="43.50601" lon="6.86949">
        <ele>433.7</ele>
        <time>2022-11-06T13:03:47.000Z</time>
      </trkpt>
      <trkpt lat="43.50598" lon="6.86937">
        <ele>432.5</ele>
        <time>2022-11-06T13:04:00.000Z</time>
      </trkpt>
      <trkpt lat="43.50597" lon="6.86924">
        <ele>430.9</ele>
        <time>2022-11-06T13:04:12.000Z</time>
      </trkpt>
      <trkpt lat="43.50594" lon="6.86911">
        <ele>429</ele>
        <time>2022-11-06T13:04:22.000Z</time>
      </trkpt>
      <trkpt lat="43.50593" lon="6.86898">
        <ele>427.7</ele>
        <time>2022-11-06T13:04:32.000Z</time>
      </trkpt>
      <trkpt lat="43.50589" lon="6.86885">
        <ele>426</ele>
        <time>2022-11-06T13:04:42.000Z</time>
      </trkpt>
      <trkpt lat="43.50586" lon="6.86874">
        <ele>425.2</ele>
        <time>2022-11-06T13:04:52.000Z</time>
      </trkpt>
      <trkpt lat="43.50581" lon="6.86863">
        <ele>424</ele>
        <time>2022-11-06T13:05:04.000Z</time>
      </trkpt>
      <trkpt lat="43.50577" lon="6.86855">
        <ele>422.5</ele>
        <time>2022-11-06T13:05:15.000Z</time>
      </trkpt>
      <trkpt lat="43.50577" lon="6.86855">
        <ele>422.3</ele>
        <time>2022-11-06T13:05:16.000Z</time>
      </trkpt>
      <trkpt lat="43.50571" lon="6.86845">
        <ele>420.7</ele>
        <time>2022-11-06T13:05:30.000Z</time>
      </trkpt>
      <trkpt lat="43.50564" lon="6.86837">
        <ele>419.4</ele>
        <time>2022-11-06T13:05:41.000Z</time>
      </trkpt>
      <trkpt lat="43.50555" lon="6.86829">
        <ele>418</ele>
        <time>2022-11-06T13:05:51.000Z</time>
      </trkpt>
      <trkpt lat="43.50547" lon="6.8682">
        <ele>416.6</ele>
        <time>2022-11-06T13:06:02.000Z</time>
      </trkpt>
      <trkpt lat="43.5054" lon="6.86814">
        <ele>416</ele>
        <time>2022-11-06T13:06:15.000Z</time>
      </trkpt>
      <trkpt lat="43.50535" lon="6.86803">
        <ele>414.9</ele>
        <time>2022-11-06T13:06:27.000Z</time>
      </trkpt>
      <trkpt lat="43.50529" lon="6.86793">
        <ele>413</ele>
        <time>2022-11-06T13:06:41.000Z</time>
      </trkpt>
      <trkpt lat="43.50527" lon="6.8678">
        <ele>411.6</ele>
        <time>2022-11-06T13:06:49.000Z</time>
      </trkpt>
      <trkpt lat="43.50522" lon="6.86768">
        <ele>409.7</ele>
        <time>2022-11-06T13:07:02.000Z</time>
      </trkpt>
      <trkpt lat="43.50517" lon="6.86756">
        <ele>408.7</ele>
        <time>2022-11-06T13:07:11.000Z</time>
      </trkpt>
      <trkpt lat="43.50514" lon="6.86743">
        <ele>408.2</ele>
        <time>2022-11-06T13:07:20.000Z</time>
      </trkpt>
      <trkpt lat="43.5051" lon="6.86732">
        <ele>408.1</ele>
        <time>2022-11-06T13:07:30.000Z</time>
      </trkpt>
      <trkpt lat="43.50509" lon="6.86719">
        <ele>408.3</ele>
        <time>2022-11-06T13:07:40.000Z</time>
      </trkpt>
      <trkpt lat="43.50511" lon="6.86707">
        <ele>408.6</ele>
        <time>2022-11-06T13:07:51.000Z</time>
      </trkpt>
      <trkpt lat="43.50514" lon="6.86695">
        <ele>406.5</ele>
        <time>2022-11-06T13:08:04.000Z</time>
      </trkpt>
      <trkpt lat="43.50513" lon="6.86682">
        <ele>405.8</ele>
        <time>2022-11-06T13:08:13.000Z</time>
      </trkpt>
      <trkpt lat="43.50509" lon="6.8667">
        <ele>404.9</ele>
        <time>2022-11-06T13:08:22.000Z</time>
      </trkpt>
      <trkpt lat="43.50504" lon="6.86659">
        <ele>404.7</ele>
        <time>2022-11-06T13:08:29.000Z</time>
      </trkpt>
      <trkpt lat="43.50503" lon="6.86646">
        <ele>404.3</ele>
        <time>2022-11-06T13:08:38.000Z</time>
      </trkpt>
      <trkpt lat="43.50501" lon="6.86634">
        <ele>403.9</ele>
        <time>2022-11-06T13:08:47.000Z</time>
      </trkpt>
      <trkpt lat="43.50496" lon="6.86622">
        <ele>403.2</ele>
        <time>2022-11-06T13:08:55.000Z</time>
      </trkpt>
      <trkpt lat="43.50491" lon="6.86611">
        <ele>402.1</ele>
        <time>2022-11-06T13:09:06.000Z</time>
      </trkpt>
      <trkpt lat="43.50485" lon="6.86601">
        <ele>401.5</ele>
        <time>2022-11-06T13:09:15.000Z</time>
      </trkpt>
      <trkpt lat="43.50485" lon="6.86588">
        <ele>399.8</ele>
        <time>2022-11-06T13:09:29.000Z</time>
      </trkpt>
      <trkpt lat="43.50483" lon="6.86575">
        <ele>398.7</ele>
        <time>2022-11-06T13:09:43.000Z</time>
      </trkpt>
      <trkpt lat="43.50481" lon="6.86562">
        <ele>397.7</ele>
        <time>2022-11-06T13:09:56.000Z</time>
      </trkpt>
      <trkpt lat="43.50481" lon="6.86549">
        <ele>396.7</ele>
        <time>2022-11-06T13:10:09.000Z</time>
      </trkpt>
      <trkpt lat="43.50478" lon="6.86537">
        <ele>394.5</ele>
        <time>2022-11-06T13:10:26.000Z</time>
      </trkpt>
      <trkpt lat="43.50474" lon="6.86526">
        <ele>393.2</ele>
        <time>2022-11-06T13:10:39.000Z</time>
      </trkpt>
      <trkpt lat="43.50469" lon="6.86515">
        <ele>392.4</ele>
        <time>2022-11-06T13:10:49.000Z</time>
      </trkpt>
      <trkpt lat="43.50463" lon="6.86505">
        <ele>391.3</ele>
        <time>2022-11-06T13:11:04.000Z</time>
      </trkpt>
      <trkpt lat="43.50455" lon="6.865">
        <ele>389.8</ele>
        <time>2022-11-06T13:11:18.000Z</time>
      </trkpt>
      <trkpt lat="43.50445" lon="6.86499">
        <ele>388.7</ele>
        <time>2022-11-06T13:11:26.000Z</time>
      </trkpt>
      <trkpt lat="43.50436" lon="6.86496">
        <ele>387.5</ele>
        <time>2022-11-06T13:11:39.000Z</time>
      </trkpt>
      <trkpt lat="43.50427" lon="6.86495">
        <ele>386.5</ele>
        <time>2022-11-06T13:11:55.000Z</time>
      </trkpt>
      <trkpt lat="43.50417" lon="6.86495">
        <ele>385.2</ele>
        <time>2022-11-06T13:12:07.000Z</time>
      </trkpt>
      <trkpt lat="43.50408" lon="6.86495">
        <ele>383.7</ele>
        <time>2022-11-06T13:12:18.000Z</time>
      </trkpt>
      <trkpt lat="43.504" lon="6.86497">
        <ele>381.7</ele>
        <time>2022-11-06T13:12:33.000Z</time>
      </trkpt>
      <trkpt lat="43.504" lon="6.86496">
        <ele>381.6</ele>
        <time>2022-11-06T13:12:34.000Z</time>
      </trkpt>
      <trkpt lat="43.50409" lon="6.86491">
        <ele>379.6</ele>
        <time>2022-11-06T13:12:51.000Z</time>
      </trkpt>
      <trkpt lat="43.50416" lon="6.86483">
        <ele>378.6</ele>
        <time>2022-11-06T13:13:06.000Z</time>
      </trkpt>
      <trkpt lat="43.50424" lon="6.86476">
        <ele>377.7</ele>
        <time>2022-11-06T13:13:18.000Z</time>
      </trkpt>
      <trkpt lat="43.5043" lon="6.86467">
        <ele>376.3</ele>
        <time>2022-11-06T13:13:32.000Z</time>
      </trkpt>
      <trkpt lat="43.50435" lon="6.86456">
        <ele>375.3</ele>
        <time>2022-11-06T13:13:44.000Z</time>
      </trkpt>
      <trkpt lat="43.50441" lon="6.86446">
        <ele>374.1</ele>
        <time>2022-11-06T13:13:59.000Z</time>
      </trkpt>
      <trkpt lat="43.50447" lon="6.86436">
        <ele>372.8</ele>
        <time>2022-11-06T13:14:11.000Z</time>
      </trkpt>
      <trkpt lat="43.50454" lon="6.86427">
        <ele>371.8</ele>
        <time>2022-11-06T13:14:24.000Z</time>
      </trkpt>
      <trkpt lat="43.50462" lon="6.86423">
        <ele>370.4</ele>
        <time>2022-11-06T13:14:38.000Z</time>
      </trkpt>
      <trkpt lat="43.50464" lon="6.86418">
        <ele>370.2</ele>
        <time>2022-11-06T13:14:51.000Z</time>
      </trkpt>
      <trkpt lat="43.50464" lon="6.86418">
        <ele>370.1</ele>
        <time>2022-11-06T13:15:03.000Z</time>
      </trkpt>
      <trkpt lat="43.50464" lon="6.86418">
        <ele>369.8</ele>
        <time>2022-11-06T13:15:05.000Z</time>
      </trkpt>
      <trkpt lat="43.50464" lon="6.86418">
        <ele>370</ele>
        <time>2022-11-06T13:15:43.000Z</time>
      </trkpt>
      <trkpt lat="43.50464" lon="6.86418">
        <ele>370</ele>
        <time>2022-11-06T13:15:44.000Z</time>
      </trkpt>
      <trkpt lat="43.50464" lon="6.86418">
        <ele>370.5</ele>
        <time>2022-11-06T13:15:57.000Z</time>
      </trkpt>
      <trkpt lat="43.50464" lon="6.86418">
        <ele>370.6</ele>
        <time>2022-11-06T13:15:58.000Z</time>
      </trkpt>
      <trkpt lat="43.50464" lon="6.86418">
        <ele>370.2</ele>
        <time>2022-11-06T13:16:00.000Z</time>
      </trkpt>
      <trkpt lat="43.50463" lon="6.86417">
        <ele>370.4</ele>
        <time>2022-11-06T13:16:03.000Z</time>
      </trkpt>
      <trkpt lat="43.50463" lon="6.86417">
        <ele>370.4</ele>
        <time>2022-11-06T13:16:24.000Z</time>
      </trkpt>
      <trkpt lat="43.50463" lon="6.86417">
        <ele>370.4</ele>
        <time>2022-11-06T13:16:25.000Z</time>
      </trkpt>
      <trkpt lat="43.50463" lon="6.86417">
        <ele>369.9</ele>
        <time>2022-11-06T13:16:36.000Z</time>
      </trkpt>
      <trkpt lat="43.50463" lon="6.86417">
        <ele>369.8</ele>
        <time>2022-11-06T13:16:37.000Z</time>
      </trkpt>
      <trkpt lat="43.50464" lon="6.86417">
        <ele>369.9</ele>
        <time>2022-11-06T13:17:05.000Z</time>
      </trkpt>
      <trkpt lat="43.50463" lon="6.86417">
        <ele>369.8</ele>
        <time>2022-11-06T13:17:08.000Z</time>
      </trkpt>
      <trkpt lat="43.50463" lon="6.86417">
        <ele>369.8</ele>
        <time>2022-11-06T13:17:19.000Z</time>
      </trkpt>
      <trkpt lat="43.50463" lon="6.86417">
        <ele>369.7</ele>
        <time>2022-11-06T13:17:20.000Z</time>
      </trkpt>
      <trkpt lat="43.50463" lon="6.86417">
        <ele>369.9</ele>
        <time>2022-11-06T13:17:32.000Z</time>
      </trkpt>
      <trkpt lat="43.50463" lon="6.86417">
        <ele>369.8</ele>
        <time>2022-11-06T13:17:33.000Z</time>
      </trkpt>
      <trkpt lat="43.50463" lon="6.86417">
        <ele>369.7</ele>
        <time>2022-11-06T13:17:38.000Z</time>
      </trkpt>
      <trkpt lat="43.50463" lon="6.86417">
        <ele>369.8</ele>
        <time>2022-11-06T13:17:39.000Z</time>
      </trkpt>
      <trkpt lat="43.50463" lon="6.86417">
        <ele>369.9</ele>
        <time>2022-11-06T13:17:52.000Z</time>
      </trkpt>
      <trkpt lat="43.50463" lon="6.86417">
        <ele>370</ele>
        <time>2022-11-06T13:17:53.000Z</time>
      </trkpt>
      <trkpt lat="43.50463" lon="6.86416">
        <ele>369.8</ele>
        <time>2022-11-06T13:18:07.000Z</time>
      </trkpt>
      <trkpt lat="43.50464" lon="6.86416">
        <ele>369.7</ele>
        <time>2022-11-06T13:18:09.000Z</time>
      </trkpt>
      <trkpt lat="43.50464" lon="6.86416">
        <ele>369.8</ele>
        <time>2022-11-06T13:18:11.000Z</time>
      </trkpt>
      <trkpt lat="43.50467" lon="6.86411">
        <ele>369.6</ele>
        <time>2022-11-06T13:18:23.000Z</time>
      </trkpt>
      <trkpt lat="43.50467" lon="6.86411">
        <ele>369.5</ele>
        <time>2022-11-06T13:18:24.000Z</time>
      </trkpt>
      <trkpt lat="43.50467" lon="6.86411">
        <ele>369.5</ele>
        <time>2022-11-06T13:18:26.000Z</time>
      </trkpt>
      <trkpt lat="43.50466" lon="6.86411">
        <ele>369.6</ele>
        <time>2022-11-06T13:19:00.000Z</time>
      </trkpt>
      <trkpt lat="43.50466" lon="6.86411">
        <ele>369.6</ele>
        <time>2022-11-06T13:19:01.000Z</time>
      </trkpt>
      <trkpt lat="43.50466" lon="6.8641">
        <ele>369.4</ele>
        <time>2022-11-06T13:19:06.000Z</time>
      </trkpt>
      <trkpt lat="43.50474" lon="6.86419">
        <ele>369.2</ele>
        <time>2022-11-06T13:19:19.000Z</time>
      </trkpt>
      <trkpt lat="43.50482" lon="6.86425">
        <ele>368.9</ele>
        <time>2022-11-06T13:19:31.000Z</time>
      </trkpt>
      <trkpt lat="43.50491" lon="6.86431">
        <ele>369.3</ele>
        <time>2022-11-06T13:19:42.000Z</time>
      </trkpt>
      <trkpt lat="43.50497" lon="6.86442">
        <ele>370.1</ele>
        <time>2022-11-06T13:19:53.000Z</time>
      </trkpt>
      <trkpt lat="43.50503" lon="6.86451">
        <ele>370.4</ele>
        <time>2022-11-06T13:20:02.000Z</time>
      </trkpt>
      <trkpt lat="43.5051" lon="6.86461">
        <ele>370.6</ele>
        <time>2022-11-06T13:20:12.000Z</time>
      </trkpt>
      <trkpt lat="43.50518" lon="6.86467">
        <ele>370.7</ele>
        <time>2022-11-06T13:20:21.000Z</time>
      </trkpt>
      <trkpt lat="43.50526" lon="6.86475">
        <ele>371.4</ele>
        <time>2022-11-06T13:20:30.000Z</time>
      </trkpt>
      <trkpt lat="43.50532" lon="6.86473">
        <ele>372.1</ele>
        <time>2022-11-06T13:20:42.000Z</time>
      </trkpt>
      <trkpt lat="43.50532" lon="6.86473">
        <ele>372.2</ele>
        <time>2022-11-06T13:20:44.000Z</time>
      </trkpt>
      <trkpt lat="43.50541" lon="6.86476">
        <ele>372.7</ele>
        <time>2022-11-06T13:20:57.000Z</time>
      </trkpt>
      <trkpt lat="43.5055" lon="6.86481">
        <ele>372.2</ele>
        <time>2022-11-06T13:21:07.000Z</time>
      </trkpt>
      <trkpt lat="43.50559" lon="6.86486">
        <ele>371.6</ele>
        <time>2022-11-06T13:21:17.000Z</time>
      </trkpt>
      <trkpt lat="43.50568" lon="6.86488">
        <ele>371.4</ele>
        <time>2022-11-06T13:21:27.000Z</time>
      </trkpt>
      <trkpt lat="43.50577" lon="6.86491">
        <ele>370.6</ele>
        <time>2022-11-06T13:21:38.000Z</time>
      </trkpt>
      <trkpt lat="43.50585" lon="6.86497">
        <ele>369.9</ele>
        <time>2022-11-06T13:21:50.000Z</time>
      </trkpt>
      <trkpt lat="43.50592" lon="6.86497">
        <ele>369.3</ele>
        <time>2022-11-06T13:22:02.000Z</time>
      </trkpt>
      <trkpt lat="43.50593" lon="6.86497">
        <ele>369.7</ele>
        <time>2022-11-06T13:22:08.000Z</time>
      </trkpt>
      <trkpt lat="43.50593" lon="6.86497">
        <ele>369.7</ele>
        <time>2022-11-06T13:22:09.000Z</time>
      </trkpt>
      <trkpt lat="43.50593" lon="6.86496">
        <ele>369.6</ele>
        <time>2022-11-06T13:22:11.000Z</time>
      </trkpt>
      <trkpt lat="43.50593" lon="6.86496">
        <ele>369.5</ele>
        <time>2022-11-06T13:22:12.000Z</time>
      </trkpt>
      <trkpt lat="43.50592" lon="6.86496">
        <ele>369.6</ele>
        <time>2022-11-06T13:22:29.000Z</time>
      </trkpt>
      <trkpt lat="43.50584" lon="6.86501">
        <ele>369.4</ele>
        <time>2022-11-06T13:22:44.000Z</time>
      </trkpt>
      <trkpt lat="43.50577" lon="6.8651">
        <ele>368.9</ele>
        <time>2022-11-06T13:22:55.000Z</time>
      </trkpt>
      <trkpt lat="43.50573" lon="6.86523">
        <ele>368.5</ele>
        <time>2022-11-06T13:23:05.000Z</time>
      </trkpt>
      <trkpt lat="43.50568" lon="6.86534">
        <ele>367.8</ele>
        <time>2022-11-06T13:23:15.000Z</time>
      </trkpt>
      <trkpt lat="43.50564" lon="6.86546">
        <ele>367.1</ele>
        <time>2022-11-06T13:23:24.000Z</time>
      </trkpt>
      <trkpt lat="43.50558" lon="6.86556">
        <ele>366.3</ele>
        <time>2022-11-06T13:23:34.000Z</time>
      </trkpt>
      <trkpt lat="43.50558" lon="6.86569">
        <ele>366.1</ele>
        <time>2022-11-06T13:23:43.000Z</time>
      </trkpt>
      <trkpt lat="43.50561" lon="6.86581">
        <ele>365.5</ele>
        <time>2022-11-06T13:23:51.000Z</time>
      </trkpt>
      <trkpt lat="43.50564" lon="6.86594">
        <ele>365.3</ele>
        <time>2022-11-06T13:24:00.000Z</time>
      </trkpt>
      <trkpt lat="43.50566" lon="6.86606">
        <ele>364.6</ele>
        <time>2022-11-06T13:24:09.000Z</time>
      </trkpt>
      <trkpt lat="43.5057" lon="6.86619">
        <ele>363.5</ele>
        <time>2022-11-06T13:24:19.000Z</time>
      </trkpt>
      <trkpt lat="43.50571" lon="6.86632">
        <ele>362.5</ele>
        <time>2022-11-06T13:24:31.000Z</time>
      </trkpt>
      <trkpt lat="43.50573" lon="6.86644">
        <ele>361.4</ele>
        <time>2022-11-06T13:24:41.000Z</time>
      </trkpt>
      <trkpt lat="43.50582" lon="6.86646">
        <ele>360.3</ele>
        <time>2022-11-06T13:24:55.000Z</time>
      </trkpt>
      <trkpt lat="43.50591" lon="6.86645">
        <ele>359.3</ele>
        <time>2022-11-06T13:25:06.000Z</time>
      </trkpt>
      <trkpt lat="43.506" lon="6.86641">
        <ele>358.4</ele>
        <time>2022-11-06T13:25:16.000Z</time>
      </trkpt>
      <trkpt lat="43.50609" lon="6.8664">
        <ele>358</ele>
        <time>2022-11-06T13:25:26.000Z</time>
      </trkpt>
      <trkpt lat="43.50618" lon="6.86642">
        <ele>357.3</ele>
        <time>2022-11-06T13:25:38.000Z</time>
      </trkpt>
      <trkpt lat="43.50628" lon="6.86644">
        <ele>357.4</ele>
        <time>2022-11-06T13:25:48.000Z</time>
      </trkpt>
      <trkpt lat="43.50637" lon="6.86645">
        <ele>357.3</ele>
        <time>2022-11-06T13:25:56.000Z</time>
      </trkpt>
      <trkpt lat="43.50645" lon="6.86652">
        <ele>357.4</ele>
        <time>2022-11-06T13:26:06.000Z</time>
      </trkpt>
      <trkpt lat="43.50651" lon="6.86663">
        <ele>357.4</ele>
        <time>2022-11-06T13:26:16.000Z</time>
      </trkpt>
      <trkpt lat="43.50658" lon="6.86672">
        <ele>357.2</ele>
        <time>2022-11-06T13:26:26.000Z</time>
      </trkpt>
      <trkpt lat="43.50664" lon="6.86682">
        <ele>357</ele>
        <time>2022-11-06T13:26:35.000Z</time>
      </trkpt>
      <trkpt lat="43.50672" lon="6.86689">
        <ele>356.9</ele>
        <time>2022-11-06T13:26:44.000Z</time>
      </trkpt>
      <trkpt lat="43.5068" lon="6.86697">
        <ele>356.8</ele>
        <time>2022-11-06T13:26:54.000Z</time>
      </trkpt>
      <trkpt lat="43.50687" lon="6.86706">
        <ele>356.2</ele>
        <time>2022-11-06T13:27:02.000Z</time>
      </trkpt>
      <trkpt lat="43.50693" lon="6.86717">
        <ele>355.6</ele>
        <time>2022-11-06T13:27:13.000Z</time>
      </trkpt>
      <trkpt lat="43.50699" lon="6.86727">
        <ele>355.4</ele>
        <time>2022-11-06T13:27:21.000Z</time>
      </trkpt>
      <trkpt lat="43.50705" lon="6.86737">
        <ele>354.8</ele>
        <time>2022-11-06T13:27:27.000Z</time>
      </trkpt>
      <trkpt lat="43.5071" lon="6.86749">
        <ele>354.4</ele>
        <time>2022-11-06T13:27:39.000Z</time>
      </trkpt>
      <trkpt lat="43.50711" lon="6.86762">
        <ele>354.3</ele>
        <time>2022-11-06T13:27:49.000Z</time>
      </trkpt>
      <trkpt lat="43.50714" lon="6.86774">
        <ele>353.9</ele>
        <time>2022-11-06T13:28:00.000Z</time>
      </trkpt>
      <trkpt lat="43.50721" lon="6.86783">
        <ele>354</ele>
        <time>2022-11-06T13:28:09.000Z</time>
      </trkpt>
      <trkpt lat="43.5073" lon="6.86789">
        <ele>354.4</ele>
        <time>2022-11-06T13:28:17.000Z</time>
      </trkpt>
      <trkpt lat="43.50738" lon="6.86796">
        <ele>355.4</ele>
        <time>2022-11-06T13:28:34.000Z</time>
      </trkpt>
      <trkpt lat="43.50746" lon="6.86803">
        <ele>356.4</ele>
        <time>2022-11-06T13:28:47.000Z</time>
      </trkpt>
      <trkpt lat="43.50755" lon="6.86807">
        <ele>357.2</ele>
        <time>2022-11-06T13:28:59.000Z</time>
      </trkpt>
      <trkpt lat="43.50763" lon="6.86812">
        <ele>357.5</ele>
        <time>2022-11-06T13:29:07.000Z</time>
      </trkpt>
      <trkpt lat="43.50772" lon="6.86814">
        <ele>358.1</ele>
        <time>2022-11-06T13:29:18.000Z</time>
      </trkpt>
      <trkpt lat="43.50777" lon="6.86813">
        <ele>358</ele>
        <time>2022-11-06T13:29:25.000Z</time>
      </trkpt>
      <trkpt lat="43.50777" lon="6.86814">
        <ele>358.1</ele>
        <time>2022-11-06T13:29:26.000Z</time>
      </trkpt>
      <trkpt lat="43.50787" lon="6.86811">
        <ele>358.7</ele>
        <time>2022-11-06T13:29:38.000Z</time>
      </trkpt>
      <trkpt lat="43.50796" lon="6.86809">
        <ele>359.2</ele>
        <time>2022-11-06T13:29:47.000Z</time>
      </trkpt>
      <trkpt lat="43.50806" lon="6.86807">
        <ele>359.4</ele>
        <time>2022-11-06T13:29:57.000Z</time>
      </trkpt>
      <trkpt lat="43.50815" lon="6.86805">
        <ele>359.7</ele>
        <time>2022-11-06T13:30:07.000Z</time>
      </trkpt>
      <trkpt lat="43.50824" lon="6.86804">
        <ele>360.4</ele>
        <time>2022-11-06T13:30:17.000Z</time>
      </trkpt>
      <trkpt lat="43.50833" lon="6.86807">
        <ele>360.2</ele>
        <time>2022-11-06T13:30:28.000Z</time>
      </trkpt>
      <trkpt lat="43.50843" lon="6.86808">
        <ele>360.6</ele>
        <time>2022-11-06T13:30:39.000Z</time>
      </trkpt>
      <trkpt lat="43.50846" lon="6.8681">
        <ele>360.9</ele>
        <time>2022-11-06T13:30:45.000Z</time>
      </trkpt>
      <trkpt lat="43.50847" lon="6.8681">
        <ele>360.8</ele>
        <time>2022-11-06T13:30:50.000Z</time>
      </trkpt>
      <trkpt lat="43.50854" lon="6.86812">
        <ele>361.3</ele>
        <time>2022-11-06T13:31:10.000Z</time>
      </trkpt>
      <trkpt lat="43.50855" lon="6.86811">
        <ele>361.3</ele>
        <time>2022-11-06T13:31:14.000Z</time>
      </trkpt>
      <trkpt lat="43.50865" lon="6.86812">
        <ele>361.2</ele>
        <time>2022-11-06T13:31:29.000Z</time>
      </trkpt>
      <trkpt lat="43.50874" lon="6.86815">
        <ele>361</ele>
        <time>2022-11-06T13:31:40.000Z</time>
      </trkpt>
      <trkpt lat="43.50883" lon="6.86815">
        <ele>360.8</ele>
        <time>2022-11-06T13:31:49.000Z</time>
      </trkpt>
      <trkpt lat="43.50892" lon="6.86812">
        <ele>360.5</ele>
        <time>2022-11-06T13:32:02.000Z</time>
      </trkpt>
      <trkpt lat="43.50902" lon="6.8681">
        <ele>360.7</ele>
        <time>2022-11-06T13:32:13.000Z</time>
      </trkpt>
      <trkpt lat="43.50911" lon="6.8681">
        <ele>360.6</ele>
        <time>2022-11-06T13:32:24.000Z</time>
      </trkpt>
      <trkpt lat="43.5092" lon="6.86808">
        <ele>360.5</ele>
        <time>2022-11-06T13:32:32.000Z</time>
      </trkpt>
      <trkpt lat="43.5093" lon="6.86808">
        <ele>360.6</ele>
        <time>2022-11-06T13:32:42.000Z</time>
      </trkpt>
      <trkpt lat="43.50936" lon="6.86811">
        <ele>360.6</ele>
        <time>2022-11-06T13:32:52.000Z</time>
      </trkpt>
      <trkpt lat="43.50936" lon="6.86811">
        <ele>360.6</ele>
        <time>2022-11-06T13:32:56.000Z</time>
      </trkpt>
      <trkpt lat="43.50937" lon="6.8681">
        <ele>360.5</ele>
        <time>2022-11-06T13:33:00.000Z</time>
      </trkpt>
      <trkpt lat="43.50938" lon="6.86809">
        <ele>360.6</ele>
        <time>2022-11-06T13:33:03.000Z</time>
      </trkpt>
      <trkpt lat="43.50946" lon="6.86812">
        <ele>360.1</ele>
        <time>2022-11-06T13:33:14.000Z</time>
      </trkpt>
      <trkpt lat="43.50955" lon="6.86814">
        <ele>360.4</ele>
        <time>2022-11-06T13:33:23.000Z</time>
      </trkpt>
      <trkpt lat="43.50961" lon="6.86815">
        <ele>360.2</ele>
        <time>2022-11-06T13:33:30.000Z</time>
      </trkpt>
      <trkpt lat="43.50962" lon="6.86815">
        <ele>360.3</ele>
        <time>2022-11-06T13:33:32.000Z</time>
      </trkpt>
      <trkpt lat="43.50972" lon="6.86816">
        <ele>359.6</ele>
        <time>2022-11-06T13:33:43.000Z</time>
      </trkpt>
      <trkpt lat="43.50981" lon="6.86815">
        <ele>359.6</ele>
        <time>2022-11-06T13:33:52.000Z</time>
      </trkpt>
      <trkpt lat="43.5099" lon="6.86818">
        <ele>358.9</ele>
        <time>2022-11-06T13:34:01.000Z</time>
      </trkpt>
      <trkpt lat="43.50999" lon="6.86819">
        <ele>357.5</ele>
        <time>2022-11-06T13:34:12.000Z</time>
      </trkpt>
      <trkpt lat="43.51009" lon="6.86821">
        <ele>356.5</ele>
        <time>2022-11-06T13:34:23.000Z</time>
      </trkpt>
      <trkpt lat="43.51018" lon="6.86824">
        <ele>355</ele>
        <time>2022-11-06T13:34:34.000Z</time>
      </trkpt>
      <trkpt lat="43.51027" lon="6.86827">
        <ele>353.4</ele>
        <time>2022-11-06T13:34:49.000Z</time>
      </trkpt>
      <trkpt lat="43.51036" lon="6.86833">
        <ele>352.1</ele>
        <time>2022-11-06T13:34:57.000Z</time>
      </trkpt>
      <trkpt lat="43.51045" lon="6.86834">
        <ele>350.8</ele>
        <time>2022-11-06T13:35:09.000Z</time>
      </trkpt>
      <trkpt lat="43.51055" lon="6.86833">
        <ele>348.8</ele>
        <time>2022-11-06T13:35:23.000Z</time>
      </trkpt>
      <trkpt lat="43.51057" lon="6.86833">
        <ele>348.6</ele>
        <time>2022-11-06T13:35:28.000Z</time>
      </trkpt>
      <trkpt lat="43.51057" lon="6.86833">
        <ele>348.5</ele>
        <time>2022-11-06T13:35:35.000Z</time>
      </trkpt>
      <trkpt lat="43.51059" lon="6.86834">
        <ele>349</ele>
        <time>2022-11-06T13:35:43.000Z</time>
      </trkpt>
      <trkpt lat="43.51059" lon="6.86834">
        <ele>349</ele>
        <time>2022-11-06T13:35:46.000Z</time>
      </trkpt>
      <trkpt lat="43.51065" lon="6.86831">
        <ele>348.2</ele>
        <time>2022-11-06T13:36:01.000Z</time>
      </trkpt>
      <trkpt lat="43.51065" lon="6.86831">
        <ele>348</ele>
        <time>2022-11-06T13:36:08.000Z</time>
      </trkpt>
      <trkpt lat="43.51065" lon="6.86831">
        <ele>348.1</ele>
        <time>2022-11-06T13:36:09.000Z</time>
      </trkpt>
      <trkpt lat="43.51066" lon="6.86831">
        <ele>348.1</ele>
        <time>2022-11-06T13:36:10.000Z</time>
      </trkpt>
      <trkpt lat="43.51075" lon="6.86831">
        <ele>347.4</ele>
        <time>2022-11-06T13:36:22.000Z</time>
      </trkpt>
      <trkpt lat="43.51075" lon="6.86831">
        <ele>347.5</ele>
        <time>2022-11-06T13:36:24.000Z</time>
      </trkpt>
      <trkpt lat="43.51075" lon="6.86831">
        <ele>347.3</ele>
        <time>2022-11-06T13:36:38.000Z</time>
      </trkpt>
      <trkpt lat="43.51075" lon="6.86831">
        <ele>347.2</ele>
        <time>2022-11-06T13:36:40.000Z</time>
      </trkpt>
      <trkpt lat="43.51075" lon="6.86831">
        <ele>347.3</ele>
        <time>2022-11-06T13:36:43.000Z</time>
      </trkpt>
      <trkpt lat="43.51084" lon="6.86833">
        <ele>346</ele>
        <time>2022-11-06T13:36:59.000Z</time>
      </trkpt>
      <trkpt lat="43.51085" lon="6.86834">
        <ele>345.9</ele>
        <time>2022-11-06T13:37:02.000Z</time>
      </trkpt>
      <trkpt lat="43.51085" lon="6.86834">
        <ele>345.9</ele>
        <time>2022-11-06T13:37:04.000Z</time>
      </trkpt>
      <trkpt lat="43.51094" lon="6.86834">
        <ele>343.6</ele>
        <time>2022-11-06T13:37:20.000Z</time>
      </trkpt>
      <trkpt lat="43.51104" lon="6.86833">
        <ele>342.3</ele>
        <time>2022-11-06T13:37:32.000Z</time>
      </trkpt>
      <trkpt lat="43.51112" lon="6.86827">
        <ele>340.8</ele>
        <time>2022-11-06T13:37:44.000Z</time>
      </trkpt>
      <trkpt lat="43.51119" lon="6.86819">
        <ele>339.4</ele>
        <time>2022-11-06T13:37:55.000Z</time>
      </trkpt>
      <trkpt lat="43.51128" lon="6.86816">
        <ele>338.8</ele>
        <time>2022-11-06T13:38:04.000Z</time>
      </trkpt>
      <trkpt lat="43.51133" lon="6.86816">
        <ele>337.3</ele>
        <time>2022-11-06T13:38:17.000Z</time>
      </trkpt>
      <trkpt lat="43.51133" lon="6.86816">
        <ele>337.1</ele>
        <time>2022-11-06T13:38:18.000Z</time>
      </trkpt>
      <trkpt lat="43.51138" lon="6.86815">
        <ele>336.5</ele>
        <time>2022-11-06T13:38:26.000Z</time>
      </trkpt>
      <trkpt lat="43.51139" lon="6.86815">
        <ele>336.5</ele>
        <time>2022-11-06T13:38:27.000Z</time>
      </trkpt>
      <trkpt lat="43.51139" lon="6.86815">
        <ele>336.6</ele>
        <time>2022-11-06T13:38:28.000Z</time>
      </trkpt>
      <trkpt lat="43.51139" lon="6.86815">
        <ele>336.6</ele>
        <time>2022-11-06T13:38:29.000Z</time>
      </trkpt>
      <trkpt lat="43.51148" lon="6.8681">
        <ele>336.1</ele>
        <time>2022-11-06T13:38:47.000Z</time>
      </trkpt>
      <trkpt lat="43.51157" lon="6.86806">
        <ele>336.5</ele>
        <time>2022-11-06T13:38:56.000Z</time>
      </trkpt>
      <trkpt lat="43.51163" lon="6.86797">
        <ele>337.7</ele>
        <time>2022-11-06T13:39:05.000Z</time>
      </trkpt>
      <trkpt lat="43.5117" lon="6.86788">
        <ele>339.5</ele>
        <time>2022-11-06T13:39:22.000Z</time>
      </trkpt>
      <trkpt lat="43.51171" lon="6.86786">
        <ele>339.8</ele>
        <time>2022-11-06T13:39:26.000Z</time>
      </trkpt>
      <trkpt lat="43.51171" lon="6.86786">
        <ele>340</ele>
        <time>2022-11-06T13:39:27.000Z</time>
      </trkpt>
      <trkpt lat="43.51173" lon="6.86785">
        <ele>340.9</ele>
        <time>2022-11-06T13:39:33.000Z</time>
      </trkpt>
      <trkpt lat="43.51173" lon="6.86785">
        <ele>341</ele>
        <time>2022-11-06T13:39:34.000Z</time>
      </trkpt>
      <trkpt lat="43.51175" lon="6.86783">
        <ele>341.4</ele>
        <time>2022-11-06T13:39:41.000Z</time>
      </trkpt>
      <trkpt lat="43.51175" lon="6.86783">
        <ele>341.4</ele>
        <time>2022-11-06T13:39:43.000Z</time>
      </trkpt>
      <trkpt lat="43.51175" lon="6.86784">
        <ele>341.7</ele>
        <time>2022-11-06T13:39:50.000Z</time>
      </trkpt>
      <trkpt lat="43.51176" lon="6.86784">
        <ele>341.8</ele>
        <time>2022-11-06T13:39:52.000Z</time>
      </trkpt>
      <trkpt lat="43.51177" lon="6.86782">
        <ele>341.9</ele>
        <time>2022-11-06T13:39:59.000Z</time>
      </trkpt>
      <trkpt lat="43.51177" lon="6.86782">
        <ele>342</ele>
        <time>2022-11-06T13:40:00.000Z</time>
      </trkpt>
      <trkpt lat="43.51177" lon="6.86782">
        <ele>342.1</ele>
        <time>2022-11-06T13:40:01.000Z</time>
      </trkpt>
      <trkpt lat="43.51177" lon="6.86781">
        <ele>342.1</ele>
        <time>2022-11-06T13:40:03.000Z</time>
      </trkpt>
      <trkpt lat="43.51177" lon="6.8678">
        <ele>342</ele>
        <time>2022-11-06T13:40:06.000Z</time>
      </trkpt>
      <trkpt lat="43.51177" lon="6.8678">
        <ele>342.1</ele>
        <time>2022-11-06T13:40:10.000Z</time>
      </trkpt>
      <trkpt lat="43.51177" lon="6.86793">
        <ele>343.4</ele>
        <time>2022-11-06T13:40:24.000Z</time>
      </trkpt>
      <trkpt lat="43.51177" lon="6.868">
        <ele>345</ele>
        <time>2022-11-06T13:40:37.000Z</time>
      </trkpt>
      <trkpt lat="43.51177" lon="6.868">
        <ele>345.1</ele>
        <time>2022-11-06T13:40:38.000Z</time>
      </trkpt>
      <trkpt lat="43.51177" lon="6.86801">
        <ele>345.6</ele>
        <time>2022-11-06T13:40:43.000Z</time>
      </trkpt>
      <trkpt lat="43.51177" lon="6.86802">
        <ele>346</ele>
        <time>2022-11-06T13:40:46.000Z</time>
      </trkpt>
      <trkpt lat="43.51185" lon="6.86808">
        <ele>348</ele>
        <time>2022-11-06T13:41:01.000Z</time>
      </trkpt>
      <trkpt lat="43.51188" lon="6.86806">
        <ele>349.3</ele>
        <time>2022-11-06T13:41:09.000Z</time>
      </trkpt>
      <trkpt lat="43.51188" lon="6.86806">
        <ele>349.1</ele>
        <time>2022-11-06T13:41:10.000Z</time>
      </trkpt>
      <trkpt lat="43.51188" lon="6.86804">
        <ele>349.2</ele>
        <time>2022-11-06T13:41:15.000Z</time>
      </trkpt>
      <trkpt lat="43.51188" lon="6.86803">
        <ele>349.1</ele>
        <time>2022-11-06T13:41:17.000Z</time>
      </trkpt>
      <trkpt lat="43.51189" lon="6.86802">
        <ele>349.1</ele>
        <time>2022-11-06T13:41:21.000Z</time>
      </trkpt>
      <trkpt lat="43.51189" lon="6.86802">
        <ele>349.5</ele>
        <time>2022-11-06T13:41:40.000Z</time>
      </trkpt>
      <trkpt lat="43.51189" lon="6.86802">
        <ele>349.7</ele>
        <time>2022-11-06T13:41:44.000Z</time>
      </trkpt>
      <trkpt lat="43.5119" lon="6.86802">
        <ele>349.7</ele>
        <time>2022-11-06T13:41:45.000Z</time>
      </trkpt>
      <trkpt lat="43.5119" lon="6.86801">
        <ele>349.7</ele>
        <time>2022-11-06T13:41:46.000Z</time>
      </trkpt>
      <trkpt lat="43.5119" lon="6.86801">
        <ele>349.5</ele>
        <time>2022-11-06T13:41:54.000Z</time>
      </trkpt>
      <trkpt lat="43.5119" lon="6.868">
        <ele>349.8</ele>
        <time>2022-11-06T13:41:57.000Z</time>
      </trkpt>
      <trkpt lat="43.5119" lon="6.86799">
        <ele>349.7</ele>
        <time>2022-11-06T13:42:01.000Z</time>
      </trkpt>
      <trkpt lat="43.5119" lon="6.86799">
        <ele>349.7</ele>
        <time>2022-11-06T13:42:02.000Z</time>
      </trkpt>
      <trkpt lat="43.5119" lon="6.86799">
        <ele>349.6</ele>
        <time>2022-11-06T13:42:03.000Z</time>
      </trkpt>
      <trkpt lat="43.5119" lon="6.86799">
        <ele>349.7</ele>
        <time>2022-11-06T13:42:05.000Z</time>
      </trkpt>
      <trkpt lat="43.5119" lon="6.86799">
        <ele>349.8</ele>
        <time>2022-11-06T13:42:10.000Z</time>
      </trkpt>
      <trkpt lat="43.5119" lon="6.86797">
        <ele>350</ele>
        <time>2022-11-06T13:42:13.000Z</time>
      </trkpt>
      <trkpt lat="43.5119" lon="6.86797">
        <ele>350</ele>
        <time>2022-11-06T13:42:15.000Z</time>
      </trkpt>
      <trkpt lat="43.51192" lon="6.86794">
        <ele>350.9</ele>
        <time>2022-11-06T13:42:23.000Z</time>
      </trkpt>
      <trkpt lat="43.51192" lon="6.86794">
        <ele>351.1</ele>
        <time>2022-11-06T13:42:24.000Z</time>
      </trkpt>
      <trkpt lat="43.51193" lon="6.86794">
        <ele>351.1</ele>
        <time>2022-11-06T13:42:27.000Z</time>
      </trkpt>
      <trkpt lat="43.51193" lon="6.86794">
        <ele>351.4</ele>
        <time>2022-11-06T13:42:38.000Z</time>
      </trkpt>
      <trkpt lat="43.51194" lon="6.86796">
        <ele>351.6</ele>
        <time>2022-11-06T13:42:45.000Z</time>
      </trkpt>
      <trkpt lat="43.51194" lon="6.86797">
        <ele>351.8</ele>
        <time>2022-11-06T13:42:51.000Z</time>
      </trkpt>
      <trkpt lat="43.51194" lon="6.86799">
        <ele>352.2</ele>
        <time>2022-11-06T13:42:56.000Z</time>
      </trkpt>
      <trkpt lat="43.51194" lon="6.86799">
        <ele>351.7</ele>
        <time>2022-11-06T13:43:11.000Z</time>
      </trkpt>
      <trkpt lat="43.51194" lon="6.86799">
        <ele>351.6</ele>
        <time>2022-11-06T13:43:12.000Z</time>
      </trkpt>
      <trkpt lat="43.51194" lon="6.86799">
        <ele>351.6</ele>
        <time>2022-11-06T13:43:14.000Z</time>
      </trkpt>
      <trkpt lat="43.51195" lon="6.86803">
        <ele>351.7</ele>
        <time>2022-11-06T13:43:24.000Z</time>
      </trkpt>
      <trkpt lat="43.51195" lon="6.86803">
        <ele>351.8</ele>
        <time>2022-11-06T13:43:25.000Z</time>
      </trkpt>
      <trkpt lat="43.51195" lon="6.86803">
        <ele>351.7</ele>
        <time>2022-11-06T13:43:26.000Z</time>
      </trkpt>
      <trkpt lat="43.51195" lon="6.86804">
        <ele>352.1</ele>
        <time>2022-11-06T13:43:30.000Z</time>
      </trkpt>
      <trkpt lat="43.51196" lon="6.86803">
        <ele>352.2</ele>
        <time>2022-11-06T13:43:35.000Z</time>
      </trkpt>
      <trkpt lat="43.51196" lon="6.86803">
        <ele>352.3</ele>
        <time>2022-11-06T13:43:36.000Z</time>
      </trkpt>
      <trkpt lat="43.51196" lon="6.86803">
        <ele>352.2</ele>
        <time>2022-11-06T13:43:37.000Z</time>
      </trkpt>
      <trkpt lat="43.51197" lon="6.86803">
        <ele>352.4</ele>
        <time>2022-11-06T13:43:56.000Z</time>
      </trkpt>
      <trkpt lat="43.51197" lon="6.86803">
        <ele>352.3</ele>
        <time>2022-11-06T13:43:57.000Z</time>
      </trkpt>
      <trkpt lat="43.51196" lon="6.86804">
        <ele>352.3</ele>
        <time>2022-11-06T13:43:58.000Z</time>
      </trkpt>
      <trkpt lat="43.51197" lon="6.86807">
        <ele>352.5</ele>
        <time>2022-11-06T13:44:05.000Z</time>
      </trkpt>
      <trkpt lat="43.51198" lon="6.86807">
        <ele>352.5</ele>
        <time>2022-11-06T13:44:06.000Z</time>
      </trkpt>
      <trkpt lat="43.51198" lon="6.86807">
        <ele>352.5</ele>
        <time>2022-11-06T13:44:07.000Z</time>
      </trkpt>
      <trkpt lat="43.51198" lon="6.86808">
        <ele>352.4</ele>
        <time>2022-11-06T13:44:16.000Z</time>
      </trkpt>
      <trkpt lat="43.51201" lon="6.86808">
        <ele>353.1</ele>
        <time>2022-11-06T13:44:27.000Z</time>
      </trkpt>
      <trkpt lat="43.51202" lon="6.86808">
        <ele>352.9</ele>
        <time>2022-11-06T13:44:46.000Z</time>
      </trkpt>
      <trkpt lat="43.51202" lon="6.86808">
        <ele>352.9</ele>
        <time>2022-11-06T13:44:49.000Z</time>
      </trkpt>
      <trkpt lat="43.51202" lon="6.86808">
        <ele>352.8</ele>
        <time>2022-11-06T13:44:55.000Z</time>
      </trkpt>
      <trkpt lat="43.51202" lon="6.86808">
        <ele>352.9</ele>
        <time>2022-11-06T13:44:56.000Z</time>
      </trkpt>
      <trkpt lat="43.51203" lon="6.86807">
        <ele>352.8</ele>
        <time>2022-11-06T13:45:03.000Z</time>
      </trkpt>
      <trkpt lat="43.51204" lon="6.86806">
        <ele>352.9</ele>
        <time>2022-11-06T13:45:11.000Z</time>
      </trkpt>
      <trkpt lat="43.51204" lon="6.86806">
        <ele>352.9</ele>
        <time>2022-11-06T13:45:12.000Z</time>
      </trkpt>
      <trkpt lat="43.51204" lon="6.86807">
        <ele>352.9</ele>
        <time>2022-11-06T13:45:16.000Z</time>
      </trkpt>
      <trkpt lat="43.51204" lon="6.86807">
        <ele>353.1</ele>
        <time>2022-11-06T13:45:17.000Z</time>
      </trkpt>
      <trkpt lat="43.51204" lon="6.86807">
        <ele>353</ele>
        <time>2022-11-06T13:45:19.000Z</time>
      </trkpt>
      <trkpt lat="43.51204" lon="6.86807">
        <ele>352.9</ele>
        <time>2022-11-06T13:45:20.000Z</time>
      </trkpt>
      <trkpt lat="43.51204" lon="6.86807">
        <ele>352.9</ele>
        <time>2022-11-06T13:45:21.000Z</time>
      </trkpt>
      <trkpt lat="43.51204" lon="6.86807">
        <ele>352.8</ele>
        <time>2022-11-06T13:45:23.000Z</time>
      </trkpt>
      <trkpt lat="43.51204" lon="6.86807">
        <ele>352.8</ele>
        <time>2022-11-06T13:45:24.000Z</time>
      </trkpt>
      <trkpt lat="43.51205" lon="6.86807">
        <ele>352.7</ele>
        <time>2022-11-06T13:45:25.000Z</time>
      </trkpt>
      <trkpt lat="43.51205" lon="6.86807">
        <ele>352.7</ele>
        <time>2022-11-06T13:45:26.000Z</time>
      </trkpt>
      <trkpt lat="43.51205" lon="6.86807">
        <ele>352.9</ele>
        <time>2022-11-06T13:45:33.000Z</time>
      </trkpt>
      <trkpt lat="43.51205" lon="6.86807">
        <ele>352.9</ele>
        <time>2022-11-06T13:45:34.000Z</time>
      </trkpt>
      <trkpt lat="43.51205" lon="6.86807">
        <ele>352.7</ele>
        <time>2022-11-06T13:45:37.000Z</time>
      </trkpt>
      <trkpt lat="43.51205" lon="6.86807">
        <ele>352.7</ele>
        <time>2022-11-06T13:45:38.000Z</time>
      </trkpt>
      <trkpt lat="43.51205" lon="6.86807">
        <ele>352.5</ele>
        <time>2022-11-06T13:45:39.000Z</time>
      </trkpt>
      <trkpt lat="43.51206" lon="6.86807">
        <ele>352.2</ele>
        <time>2022-11-06T13:45:43.000Z</time>
      </trkpt>
      <trkpt lat="43.51206" lon="6.86807">
        <ele>352.3</ele>
        <time>2022-11-06T13:45:44.000Z</time>
      </trkpt>
      <trkpt lat="43.51206" lon="6.86807">
        <ele>352.3</ele>
        <time>2022-11-06T13:45:46.000Z</time>
      </trkpt>
      <trkpt lat="43.51206" lon="6.86807">
        <ele>352.3</ele>
        <time>2022-11-06T13:45:55.000Z</time>
      </trkpt>
      <trkpt lat="43.51206" lon="6.86806">
        <ele>352.3</ele>
        <time>2022-11-06T13:45:56.000Z</time>
      </trkpt>
      <trkpt lat="43.51206" lon="6.86806">
        <ele>352.3</ele>
        <time>2022-11-06T13:46:09.000Z</time>
      </trkpt>
      <trkpt lat="43.51206" lon="6.86804">
        <ele>352.5</ele>
        <time>2022-11-06T13:46:14.000Z</time>
      </trkpt>
      <trkpt lat="43.51206" lon="6.86804">
        <ele>352.5</ele>
        <time>2022-11-06T13:46:17.000Z</time>
      </trkpt>
      <trkpt lat="43.51206" lon="6.86804">
        <ele>352.5</ele>
        <time>2022-11-06T13:46:18.000Z</time>
      </trkpt>
      <trkpt lat="43.51206" lon="6.86803">
        <ele>352.3</ele>
        <time>2022-11-06T13:46:24.000Z</time>
      </trkpt>
      <trkpt lat="43.51207" lon="6.86803">
        <ele>351.8</ele>
        <time>2022-11-06T13:46:28.000Z</time>
      </trkpt>
      <trkpt lat="43.51207" lon="6.86803">
        <ele>351.7</ele>
        <time>2022-11-06T13:46:40.000Z</time>
      </trkpt>
      <trkpt lat="43.51207" lon="6.86804">
        <ele>351.7</ele>
        <time>2022-11-06T13:46:43.000Z</time>
      </trkpt>
      <trkpt lat="43.51207" lon="6.86804">
        <ele>351.7</ele>
        <time>2022-11-06T13:46:44.000Z</time>
      </trkpt>
      <trkpt lat="43.51207" lon="6.86804">
        <ele>351.6</ele>
        <time>2022-11-06T13:46:45.000Z</time>
      </trkpt>
      <trkpt lat="43.51207" lon="6.86804">
        <ele>351</ele>
        <time>2022-11-06T13:46:48.000Z</time>
      </trkpt>
      <trkpt lat="43.51207" lon="6.86804">
        <ele>351</ele>
        <time>2022-11-06T13:46:49.000Z</time>
      </trkpt>
      <trkpt lat="43.51207" lon="6.86804">
        <ele>351.1</ele>
        <time>2022-11-06T13:46:51.000Z</time>
      </trkpt>
      <trkpt lat="43.51207" lon="6.86804">
        <ele>351</ele>
        <time>2022-11-06T13:46:53.000Z</time>
      </trkpt>
      <trkpt lat="43.51207" lon="6.86804">
        <ele>351</ele>
        <time>2022-11-06T13:46:58.000Z</time>
      </trkpt>
      <trkpt lat="43.51207" lon="6.86804">
        <ele>351</ele>
        <time>2022-11-06T13:46:59.000Z</time>
      </trkpt>
      <trkpt lat="43.51208" lon="6.86804">
        <ele>351.1</ele>
        <time>2022-11-06T13:47:06.000Z</time>
      </trkpt>
      <trkpt lat="43.51208" lon="6.86803">
        <ele>350.9</ele>
        <time>2022-11-06T13:47:10.000Z</time>
      </trkpt>
      <trkpt lat="43.51208" lon="6.86803">
        <ele>350.6</ele>
        <time>2022-11-06T13:47:12.000Z</time>
      </trkpt>
      <trkpt lat="43.51208" lon="6.86803">
        <ele>350.5</ele>
        <time>2022-11-06T13:47:13.000Z</time>
      </trkpt>
      <trkpt lat="43.51208" lon="6.86803">
        <ele>350.4</ele>
        <time>2022-11-06T13:47:18.000Z</time>
      </trkpt>
      <trkpt lat="43.5121" lon="6.86802">
        <ele>349.4</ele>
        <time>2022-11-06T13:47:25.000Z</time>
      </trkpt>
      <trkpt lat="43.5121" lon="6.86802">
        <ele>350</ele>
        <time>2022-11-06T13:47:30.000Z</time>
      </trkpt>
      <trkpt lat="43.51211" lon="6.86803">
        <ele>348.9</ele>
        <time>2022-11-06T13:47:34.000Z</time>
      </trkpt>
      <trkpt lat="43.5121" lon="6.86803">
        <ele>348.8</ele>
        <time>2022-11-06T13:47:35.000Z</time>
      </trkpt>
      <trkpt lat="43.5121" lon="6.86802">
        <ele>350.4</ele>
        <time>2022-11-06T13:47:39.000Z</time>
      </trkpt>
      <trkpt lat="43.5121" lon="6.86803">
        <ele>350</ele>
        <time>2022-11-06T13:47:40.000Z</time>
      </trkpt>
      <trkpt lat="43.51211" lon="6.86803">
        <ele>349.2</ele>
        <time>2022-11-06T13:47:44.000Z</time>
      </trkpt>
      <trkpt lat="43.51211" lon="6.86804">
        <ele>349</ele>
        <time>2022-11-06T13:47:45.000Z</time>
      </trkpt>
      <trkpt lat="43.51215" lon="6.86808">
        <ele>347.4</ele>
        <time>2022-11-06T13:48:02.000Z</time>
      </trkpt>
      <trkpt lat="43.51215" lon="6.86808">
        <ele>347.7</ele>
        <time>2022-11-06T13:48:04.000Z</time>
      </trkpt>
      <trkpt lat="43.51215" lon="6.86807">
        <ele>347.4</ele>
        <time>2022-11-06T13:48:06.000Z</time>
      </trkpt>
      <trkpt lat="43.51215" lon="6.86807">
        <ele>346.9</ele>
        <time>2022-11-06T13:48:12.000Z</time>
      </trkpt>
      <trkpt lat="43.51216" lon="6.86807">
        <ele>346.4</ele>
        <time>2022-11-06T13:48:18.000Z</time>
      </trkpt>
      <trkpt lat="43.51217" lon="6.86806">
        <ele>346.3</ele>
        <time>2022-11-06T13:48:19.000Z</time>
      </trkpt>
      <trkpt lat="43.51218" lon="6.86805">
        <ele>346</ele>
        <time>2022-11-06T13:48:25.000Z</time>
      </trkpt>
      <trkpt lat="43.51218" lon="6.86805">
        <ele>345.5</ele>
        <time>2022-11-06T13:48:33.000Z</time>
      </trkpt>
      <trkpt lat="43.51218" lon="6.86805">
        <ele>345.6</ele>
        <time>2022-11-06T13:48:35.000Z</time>
      </trkpt>
      <trkpt lat="43.51218" lon="6.86805">
        <ele>345.3</ele>
        <time>2022-11-06T13:48:37.000Z</time>
      </trkpt>
      <trkpt lat="43.51219" lon="6.86805">
        <ele>345.3</ele>
        <time>2022-11-06T13:48:41.000Z</time>
      </trkpt>
      <trkpt lat="43.51219" lon="6.86805">
        <ele>345.2</ele>
        <time>2022-11-06T13:48:44.000Z</time>
      </trkpt>
      <trkpt lat="43.51219" lon="6.86805">
        <ele>345.2</ele>
        <time>2022-11-06T13:48:45.000Z</time>
      </trkpt>
      <trkpt lat="43.51219" lon="6.86805">
        <ele>345.2</ele>
        <time>2022-11-06T13:48:46.000Z</time>
      </trkpt>
      <trkpt lat="43.5122" lon="6.86804">
        <ele>344.5</ele>
        <time>2022-11-06T13:48:53.000Z</time>
      </trkpt>
      <trkpt lat="43.51221" lon="6.86804">
        <ele>344.1</ele>
        <time>2022-11-06T13:48:55.000Z</time>
      </trkpt>
      <trkpt lat="43.5123" lon="6.86807">
        <ele>340.8</ele>
        <time>2022-11-06T13:49:17.000Z</time>
      </trkpt>
      <trkpt lat="43.51236" lon="6.86805">
        <ele>339.8</ele>
        <time>2022-11-06T13:49:29.000Z</time>
      </trkpt>
      <trkpt lat="43.51236" lon="6.86805">
        <ele>339.6</ele>
        <time>2022-11-06T13:49:32.000Z</time>
      </trkpt>
      <trkpt lat="43.51245" lon="6.86805">
        <ele>338.1</ele>
        <time>2022-11-06T13:49:47.000Z</time>
      </trkpt>
      <trkpt lat="43.51245" lon="6.86805">
        <ele>338.1</ele>
        <time>2022-11-06T13:49:49.000Z</time>
      </trkpt>
      <trkpt lat="43.51245" lon="6.86805">
        <ele>338.2</ele>
        <time>2022-11-06T13:49:50.000Z</time>
      </trkpt>
      <trkpt lat="43.51245" lon="6.86805">
        <ele>338.5</ele>
        <time>2022-11-06T13:49:57.000Z</time>
      </trkpt>
      <trkpt lat="43.51245" lon="6.86805">
        <ele>338.4</ele>
        <time>2022-11-06T13:49:59.000Z</time>
      </trkpt>
      <trkpt lat="43.51245" lon="6.86805">
        <ele>338.4</ele>
        <time>2022-11-06T13:50:00.000Z</time>
      </trkpt>
      <trkpt lat="43.51245" lon="6.86806">
        <ele>338.2</ele>
        <time>2022-11-06T13:50:02.000Z</time>
      </trkpt>
      <trkpt lat="43.51245" lon="6.86805">
        <ele>338.3</ele>
        <time>2022-11-06T13:50:10.000Z</time>
      </trkpt>
      <trkpt lat="43.51254" lon="6.86803">
        <ele>337.4</ele>
        <time>2022-11-06T13:50:23.000Z</time>
      </trkpt>
      <trkpt lat="43.51263" lon="6.868">
        <ele>335.7</ele>
        <time>2022-11-06T13:50:39.000Z</time>
      </trkpt>
      <trkpt lat="43.51273" lon="6.86798">
        <ele>333.1</ele>
        <time>2022-11-06T13:51:00.000Z</time>
      </trkpt>
      <trkpt lat="43.51273" lon="6.86799">
        <ele>332.9</ele>
        <time>2022-11-06T13:51:06.000Z</time>
      </trkpt>
      <trkpt lat="43.51274" lon="6.86799">
        <ele>333.2</ele>
        <time>2022-11-06T13:51:08.000Z</time>
      </trkpt>
      <trkpt lat="43.51276" lon="6.86798">
        <ele>332.8</ele>
        <time>2022-11-06T13:51:15.000Z</time>
      </trkpt>
      <trkpt lat="43.51277" lon="6.86798">
        <ele>332.7</ele>
        <time>2022-11-06T13:51:21.000Z</time>
      </trkpt>
      <trkpt lat="43.51277" lon="6.86798">
        <ele>332.7</ele>
        <time>2022-11-06T13:51:22.000Z</time>
      </trkpt>
      <trkpt lat="43.51277" lon="6.86798">
        <ele>333</ele>
        <time>2022-11-06T13:51:38.000Z</time>
      </trkpt>
      <trkpt lat="43.51278" lon="6.86798">
        <ele>332.6</ele>
        <time>2022-11-06T13:51:41.000Z</time>
      </trkpt>
      <trkpt lat="43.51278" lon="6.86798">
        <ele>332.4</ele>
        <time>2022-11-06T13:51:43.000Z</time>
      </trkpt>
      <trkpt lat="43.51278" lon="6.86798">
        <ele>332.3</ele>
        <time>2022-11-06T13:51:44.000Z</time>
      </trkpt>
      <trkpt lat="43.51277" lon="6.86799">
        <ele>332.3</ele>
        <time>2022-11-06T13:51:45.000Z</time>
      </trkpt>
      <trkpt lat="43.51277" lon="6.86799">
        <ele>332.2</ele>
        <time>2022-11-06T13:51:46.000Z</time>
      </trkpt>
      <trkpt lat="43.51278" lon="6.86799">
        <ele>332.4</ele>
        <time>2022-11-06T13:51:50.000Z</time>
      </trkpt>
      <trkpt lat="43.51278" lon="6.86799">
        <ele>332.3</ele>
        <time>2022-11-06T13:51:51.000Z</time>
      </trkpt>
      <trkpt lat="43.51277" lon="6.86799">
        <ele>331.9</ele>
        <time>2022-11-06T13:51:54.000Z</time>
      </trkpt>
      <trkpt lat="43.51276" lon="6.86799">
        <ele>331.9</ele>
        <time>2022-11-06T13:51:57.000Z</time>
      </trkpt>
      <trkpt lat="43.51276" lon="6.86799">
        <ele>331.6</ele>
        <time>2022-11-06T13:52:00.000Z</time>
      </trkpt>
      <trkpt lat="43.51276" lon="6.86799">
        <ele>331.6</ele>
        <time>2022-11-06T13:52:01.000Z</time>
      </trkpt>
      <trkpt lat="43.51276" lon="6.86799">
        <ele>331.6</ele>
        <time>2022-11-06T13:52:03.000Z</time>
      </trkpt>
      <trkpt lat="43.51276" lon="6.86799">
        <ele>331.7</ele>
        <time>2022-11-06T13:52:04.000Z</time>
      </trkpt>
      <trkpt lat="43.51276" lon="6.86799">
        <ele>331.5</ele>
        <time>2022-11-06T13:52:09.000Z</time>
      </trkpt>
      <trkpt lat="43.51269" lon="6.86808">
        <ele>330</ele>
        <time>2022-11-06T13:52:20.000Z</time>
      </trkpt>
      <trkpt lat="43.51262" lon="6.86814">
        <ele>329.4</ele>
        <time>2022-11-06T13:52:29.000Z</time>
      </trkpt>
      <trkpt lat="43.51262" lon="6.86814">
        <ele>329.3</ele>
        <time>2022-11-06T13:52:30.000Z</time>
      </trkpt>
      <trkpt lat="43.51254" lon="6.86819">
        <ele>328.4</ele>
        <time>2022-11-06T13:52:40.000Z</time>
      </trkpt>
      <trkpt lat="43.51245" lon="6.86825">
        <ele>327.3</ele>
        <time>2022-11-06T13:52:50.000Z</time>
      </trkpt>
      <trkpt lat="43.51238" lon="6.86834">
        <ele>325.8</ele>
        <time>2022-11-06T13:53:06.000Z</time>
      </trkpt>
      <trkpt lat="43.5123" lon="6.8684">
        <ele>326.6</ele>
        <time>2022-11-06T13:53:14.000Z</time>
      </trkpt>
      <trkpt lat="43.51221" lon="6.86846">
        <ele>327.3</ele>
        <time>2022-11-06T13:53:24.000Z</time>
      </trkpt>
      <trkpt lat="43.51218" lon="6.86848">
        <ele>327.6</ele>
        <time>2022-11-06T13:53:32.000Z</time>
      </trkpt>
      <trkpt lat="43.51217" lon="6.86848">
        <ele>327.7</ele>
        <time>2022-11-06T13:53:34.000Z</time>
      </trkpt>
      <trkpt lat="43.51217" lon="6.86847">
        <ele>328</ele>
        <time>2022-11-06T13:53:37.000Z</time>
      </trkpt>
      <trkpt lat="43.51217" lon="6.86848">
        <ele>327.8</ele>
        <time>2022-11-06T13:53:44.000Z</time>
      </trkpt>
      <trkpt lat="43.51213" lon="6.86859">
        <ele>328.8</ele>
        <time>2022-11-06T13:53:59.000Z</time>
      </trkpt>
      <trkpt lat="43.51206" lon="6.86868">
        <ele>329.5</ele>
        <time>2022-11-06T13:54:14.000Z</time>
      </trkpt>
      <trkpt lat="43.512" lon="6.86878">
        <ele>329.4</ele>
        <time>2022-11-06T13:54:27.000Z</time>
      </trkpt>
      <trkpt lat="43.51197" lon="6.86892">
        <ele>329.4</ele>
        <time>2022-11-06T13:54:35.000Z</time>
      </trkpt>
      <trkpt lat="43.51191" lon="6.86903">
        <ele>329.1</ele>
        <time>2022-11-06T13:54:46.000Z</time>
      </trkpt>
      <trkpt lat="43.51188" lon="6.86915">
        <ele>328.1</ele>
        <time>2022-11-06T13:54:57.000Z</time>
      </trkpt>
      <trkpt lat="43.51186" lon="6.86928">
        <ele>327.3</ele>
        <time>2022-11-06T13:55:08.000Z</time>
      </trkpt>
      <trkpt lat="43.5118" lon="6.86937">
        <ele>327.1</ele>
        <time>2022-11-06T13:55:17.000Z</time>
      </trkpt>
      <trkpt lat="43.51175" lon="6.86949">
        <ele>326.4</ele>
        <time>2022-11-06T13:55:26.000Z</time>
      </trkpt>
      <trkpt lat="43.51173" lon="6.86962">
        <ele>326.5</ele>
        <time>2022-11-06T13:55:35.000Z</time>
      </trkpt>
      <trkpt lat="43.51174" lon="6.86975">
        <ele>326.2</ele>
        <time>2022-11-06T13:55:43.000Z</time>
      </trkpt>
      <trkpt lat="43.51174" lon="6.86989">
        <ele>325.5</ele>
        <time>2022-11-06T13:55:52.000Z</time>
      </trkpt>
      <trkpt lat="43.51174" lon="6.87002">
        <ele>324.6</ele>
        <time>2022-11-06T13:56:01.000Z</time>
      </trkpt>
      <trkpt lat="43.51172" lon="6.87014">
        <ele>323.9</ele>
        <time>2022-11-06T13:56:09.000Z</time>
      </trkpt>
      <trkpt lat="43.51173" lon="6.87027">
        <ele>323.6</ele>
        <time>2022-11-06T13:56:17.000Z</time>
      </trkpt>
      <trkpt lat="43.51176" lon="6.87039">
        <ele>324.7</ele>
        <time>2022-11-06T13:56:27.000Z</time>
      </trkpt>
      <trkpt lat="43.51179" lon="6.87051">
        <ele>325.4</ele>
        <time>2022-11-06T13:56:35.000Z</time>
      </trkpt>
      <trkpt lat="43.51182" lon="6.87064">
        <ele>326.6</ele>
        <time>2022-11-06T13:56:47.000Z</time>
      </trkpt>
      <trkpt lat="43.51188" lon="6.87075">
        <ele>326.6</ele>
        <time>2022-11-06T13:56:57.000Z</time>
      </trkpt>
      <trkpt lat="43.51194" lon="6.87085">
        <ele>326.8</ele>
        <time>2022-11-06T13:57:05.000Z</time>
      </trkpt>
      <trkpt lat="43.51199" lon="6.87096">
        <ele>327.3</ele>
        <time>2022-11-06T13:57:13.000Z</time>
      </trkpt>
      <trkpt lat="43.51203" lon="6.87107">
        <ele>327.9</ele>
        <time>2022-11-06T13:57:23.000Z</time>
      </trkpt>
      <trkpt lat="43.51208" lon="6.87119">
        <ele>328.7</ele>
        <time>2022-11-06T13:57:32.000Z</time>
      </trkpt>
      <trkpt lat="43.51213" lon="6.8713">
        <ele>328.4</ele>
        <time>2022-11-06T13:57:43.000Z</time>
      </trkpt>
      <trkpt lat="43.5122" lon="6.8714">
        <ele>328.3</ele>
        <time>2022-11-06T13:57:54.000Z</time>
      </trkpt>
      <trkpt lat="43.51225" lon="6.87151">
        <ele>328.1</ele>
        <time>2022-11-06T13:58:01.000Z</time>
      </trkpt>
      <trkpt lat="43.5123" lon="6.87162">
        <ele>328</ele>
        <time>2022-11-06T13:58:09.000Z</time>
      </trkpt>
      <trkpt lat="43.51233" lon="6.87174">
        <ele>328.4</ele>
        <time>2022-11-06T13:58:17.000Z</time>
      </trkpt>
      <trkpt lat="43.51237" lon="6.87186">
        <ele>328.1</ele>
        <time>2022-11-06T13:58:26.000Z</time>
      </trkpt>
      <trkpt lat="43.51237" lon="6.87199">
        <ele>327.5</ele>
        <time>2022-11-06T13:58:36.000Z</time>
      </trkpt>
      <trkpt lat="43.51237" lon="6.87213">
        <ele>327</ele>
        <time>2022-11-06T13:58:47.000Z</time>
      </trkpt>
      <trkpt lat="43.51231" lon="6.87223">
        <ele>326.8</ele>
        <time>2022-11-06T13:58:56.000Z</time>
      </trkpt>
      <trkpt lat="43.51226" lon="6.87234">
        <ele>326.5</ele>
        <time>2022-11-06T13:59:06.000Z</time>
      </trkpt>
      <trkpt lat="43.5122" lon="6.87246">
        <ele>326.3</ele>
        <time>2022-11-06T13:59:15.000Z</time>
      </trkpt>
      <trkpt lat="43.51216" lon="6.87257">
        <ele>326.4</ele>
        <time>2022-11-06T13:59:25.000Z</time>
      </trkpt>
      <trkpt lat="43.51212" lon="6.8727">
        <ele>325.8</ele>
        <time>2022-11-06T13:59:36.000Z</time>
      </trkpt>
      <trkpt lat="43.51206" lon="6.8728">
        <ele>325.6</ele>
        <time>2022-11-06T13:59:44.000Z</time>
      </trkpt>
      <trkpt lat="43.51198" lon="6.87287">
        <ele>325.8</ele>
        <time>2022-11-06T13:59:54.000Z</time>
      </trkpt>
      <trkpt lat="43.51191" lon="6.87296">
        <ele>325.6</ele>
        <time>2022-11-06T14:00:03.000Z</time>
      </trkpt>
      <trkpt lat="43.51183" lon="6.87304">
        <ele>326.8</ele>
        <time>2022-11-06T14:00:11.000Z</time>
      </trkpt>
      <trkpt lat="43.51177" lon="6.87313">
        <ele>327.4</ele>
        <time>2022-11-06T14:00:21.000Z</time>
      </trkpt>
      <trkpt lat="43.51169" lon="6.87319">
        <ele>327.3</ele>
        <time>2022-11-06T14:00:30.000Z</time>
      </trkpt>
      <trkpt lat="43.51162" lon="6.87328">
        <ele>327.2</ele>
        <time>2022-11-06T14:00:41.000Z</time>
      </trkpt>
      <trkpt lat="43.51156" lon="6.87339">
        <ele>327</ele>
        <time>2022-11-06T14:00:51.000Z</time>
      </trkpt>
      <trkpt lat="43.5115" lon="6.87349">
        <ele>326.8</ele>
        <time>2022-11-06T14:01:00.000Z</time>
      </trkpt>
      <trkpt lat="43.51142" lon="6.87358">
        <ele>326.4</ele>
        <time>2022-11-06T14:01:09.000Z</time>
      </trkpt>
      <trkpt lat="43.51134" lon="6.87366">
        <ele>326.2</ele>
        <time>2022-11-06T14:01:18.000Z</time>
      </trkpt>
      <trkpt lat="43.51127" lon="6.87375">
        <ele>326.2</ele>
        <time>2022-11-06T14:01:31.000Z</time>
      </trkpt>
      <trkpt lat="43.51121" lon="6.87384">
        <ele>325.9</ele>
        <time>2022-11-06T14:01:39.000Z</time>
      </trkpt>
      <trkpt lat="43.51112" lon="6.87389">
        <ele>325.6</ele>
        <time>2022-11-06T14:01:48.000Z</time>
      </trkpt>
      <trkpt lat="43.5111" lon="6.87402">
        <ele>325.2</ele>
        <time>2022-11-06T14:01:56.000Z</time>
      </trkpt>
      <trkpt lat="43.51109" lon="6.87415">
        <ele>325.4</ele>
        <time>2022-11-06T14:02:08.000Z</time>
      </trkpt>
      <trkpt lat="43.5111" lon="6.87429">
        <ele>325.5</ele>
        <time>2022-11-06T14:02:17.000Z</time>
      </trkpt>
      <trkpt lat="43.51115" lon="6.8744">
        <ele>324.8</ele>
        <time>2022-11-06T14:02:26.000Z</time>
      </trkpt>
      <trkpt lat="43.51117" lon="6.87453">
        <ele>324.3</ele>
        <time>2022-11-06T14:02:36.000Z</time>
      </trkpt>
      <trkpt lat="43.5112" lon="6.87465">
        <ele>323.6</ele>
        <time>2022-11-06T14:02:45.000Z</time>
      </trkpt>
      <trkpt lat="43.51123" lon="6.87477">
        <ele>323.4</ele>
        <time>2022-11-06T14:02:52.000Z</time>
      </trkpt>
      <trkpt lat="43.51127" lon="6.87488">
        <ele>323</ele>
        <time>2022-11-06T14:03:00.000Z</time>
      </trkpt>
      <trkpt lat="43.51131" lon="6.875">
        <ele>322.8</ele>
        <time>2022-11-06T14:03:09.000Z</time>
      </trkpt>
      <trkpt lat="43.51133" lon="6.87512">
        <ele>323.3</ele>
        <time>2022-11-06T14:03:18.000Z</time>
      </trkpt>
      <trkpt lat="43.51137" lon="6.87525">
        <ele>323.5</ele>
        <time>2022-11-06T14:03:28.000Z</time>
      </trkpt>
      <trkpt lat="43.5114" lon="6.87537">
        <ele>323.1</ele>
        <time>2022-11-06T14:03:36.000Z</time>
      </trkpt>
      <trkpt lat="43.51136" lon="6.87549">
        <ele>322.3</ele>
        <time>2022-11-06T14:03:47.000Z</time>
      </trkpt>
      <trkpt lat="43.5113" lon="6.8756">
        <ele>322.2</ele>
        <time>2022-11-06T14:03:56.000Z</time>
      </trkpt>
      <trkpt lat="43.51124" lon="6.87571">
        <ele>322.3</ele>
        <time>2022-11-06T14:04:07.000Z</time>
      </trkpt>
      <trkpt lat="43.51122" lon="6.87583">
        <ele>322.4</ele>
        <time>2022-11-06T14:04:15.000Z</time>
      </trkpt>
      <trkpt lat="43.51124" lon="6.87597">
        <ele>322.1</ele>
        <time>2022-11-06T14:04:24.000Z</time>
      </trkpt>
      <trkpt lat="43.51124" lon="6.8761">
        <ele>321.8</ele>
        <time>2022-11-06T14:04:34.000Z</time>
      </trkpt>
      <trkpt lat="43.51128" lon="6.87622">
        <ele>321.4</ele>
        <time>2022-11-06T14:04:44.000Z</time>
      </trkpt>
      <trkpt lat="43.51131" lon="6.87635">
        <ele>320.7</ele>
        <time>2022-11-06T14:04:54.000Z</time>
      </trkpt>
      <trkpt lat="43.51134" lon="6.87648">
        <ele>320.7</ele>
        <time>2022-11-06T14:05:02.000Z</time>
      </trkpt>
      <trkpt lat="43.51138" lon="6.8766">
        <ele>320.8</ele>
        <time>2022-11-06T14:05:10.000Z</time>
      </trkpt>
      <trkpt lat="43.51142" lon="6.87673">
        <ele>320.6</ele>
        <time>2022-11-06T14:05:20.000Z</time>
      </trkpt>
      <trkpt lat="43.51145" lon="6.87685">
        <ele>320.8</ele>
        <time>2022-11-06T14:05:29.000Z</time>
      </trkpt>
      <trkpt lat="43.5115" lon="6.87697">
        <ele>320.9</ele>
        <time>2022-11-06T14:05:39.000Z</time>
      </trkpt>
      <trkpt lat="43.51151" lon="6.87697">
        <ele>321.1</ele>
        <time>2022-11-06T14:05:44.000Z</time>
      </trkpt>
      <trkpt lat="43.51151" lon="6.87697">
        <ele>321.1</ele>
        <time>2022-11-06T14:05:46.000Z</time>
      </trkpt>
      <trkpt lat="43.51151" lon="6.87694">
        <ele>320.6</ele>
        <time>2022-11-06T14:05:50.000Z</time>
      </trkpt>
      <trkpt lat="43.51152" lon="6.87694">
        <ele>320.8</ele>
        <time>2022-11-06T14:05:58.000Z</time>
      </trkpt>
      <trkpt lat="43.51152" lon="6.87694">
        <ele>320.7</ele>
        <time>2022-11-06T14:06:00.000Z</time>
      </trkpt>
      <trkpt lat="43.51152" lon="6.87694">
        <ele>320.5</ele>
        <time>2022-11-06T14:06:16.000Z</time>
      </trkpt>
      <trkpt lat="43.51155" lon="6.87705">
        <ele>320.4</ele>
        <time>2022-11-06T14:06:26.000Z</time>
      </trkpt>
      <trkpt lat="43.51154" lon="6.87718">
        <ele>320.9</ele>
        <time>2022-11-06T14:06:37.000Z</time>
      </trkpt>
      <trkpt lat="43.51145" lon="6.87722">
        <ele>321.5</ele>
        <time>2022-11-06T14:06:47.000Z</time>
      </trkpt>
      <trkpt lat="43.51135" lon="6.87724">
        <ele>322.8</ele>
        <time>2022-11-06T14:06:58.000Z</time>
      </trkpt>
      <trkpt lat="43.51126" lon="6.87723">
        <ele>324.2</ele>
        <time>2022-11-06T14:07:09.000Z</time>
      </trkpt>
      <trkpt lat="43.5112" lon="6.87729">
        <ele>324.6</ele>
        <time>2022-11-06T14:07:22.000Z</time>
      </trkpt>
      <trkpt lat="43.5112" lon="6.87729">
        <ele>324.5</ele>
        <time>2022-11-06T14:07:25.000Z</time>
      </trkpt>
      <trkpt lat="43.51116" lon="6.87731">
        <ele>324.9</ele>
        <time>2022-11-06T14:07:34.000Z</time>
      </trkpt>
      <trkpt lat="43.51116" lon="6.87731">
        <ele>325</ele>
        <time>2022-11-06T14:07:50.000Z</time>
      </trkpt>
      <trkpt lat="43.51116" lon="6.87731">
        <ele>324.9</ele>
        <time>2022-11-06T14:07:51.000Z</time>
      </trkpt>
      <trkpt lat="43.51116" lon="6.87731">
        <ele>324.9</ele>
        <time>2022-11-06T14:07:52.000Z</time>
      </trkpt>
      <trkpt lat="43.51111" lon="6.8773">
        <ele>325.4</ele>
        <time>2022-11-06T14:08:02.000Z</time>
      </trkpt>
      <trkpt lat="43.51111" lon="6.8773">
        <ele>325.4</ele>
        <time>2022-11-06T14:08:03.000Z</time>
      </trkpt>
      <trkpt lat="43.5111" lon="6.87729">
        <ele>325.6</ele>
        <time>2022-11-06T14:08:07.000Z</time>
      </trkpt>
      <trkpt lat="43.5111" lon="6.87729">
        <ele>325.7</ele>
        <time>2022-11-06T14:08:09.000Z</time>
      </trkpt>
      <trkpt lat="43.5111" lon="6.87729">
        <ele>325.8</ele>
        <time>2022-11-06T14:08:10.000Z</time>
      </trkpt>
      <trkpt lat="43.5111" lon="6.87729">
        <ele>326.1</ele>
        <time>2022-11-06T14:08:19.000Z</time>
      </trkpt>
      <trkpt lat="43.5111" lon="6.87729">
        <ele>326</ele>
        <time>2022-11-06T14:08:20.000Z</time>
      </trkpt>
      <trkpt lat="43.5111" lon="6.87729">
        <ele>325.7</ele>
        <time>2022-11-06T14:08:30.000Z</time>
      </trkpt>
      <trkpt lat="43.511" lon="6.87731">
        <ele>326.6</ele>
        <time>2022-11-06T14:08:43.000Z</time>
      </trkpt>
      <trkpt lat="43.51091" lon="6.87734">
        <ele>327.1</ele>
        <time>2022-11-06T14:08:53.000Z</time>
      </trkpt>
      <trkpt lat="43.51082" lon="6.87736">
        <ele>327.5</ele>
        <time>2022-11-06T14:09:01.000Z</time>
      </trkpt>
      <trkpt lat="43.51072" lon="6.8774">
        <ele>328</ele>
        <time>2022-11-06T14:09:11.000Z</time>
      </trkpt>
      <trkpt lat="43.51063" lon="6.87744">
        <ele>328.2</ele>
        <time>2022-11-06T14:09:21.000Z</time>
      </trkpt>
      <trkpt lat="43.5106" lon="6.87744">
        <ele>328</ele>
        <time>2022-11-06T14:09:30.000Z</time>
      </trkpt>
      <trkpt lat="43.5106" lon="6.87744">
        <ele>328</ele>
        <time>2022-11-06T14:09:33.000Z</time>
      </trkpt>
      <trkpt lat="43.51059" lon="6.87744">
        <ele>328</ele>
        <time>2022-11-06T14:09:38.000Z</time>
      </trkpt>
      <trkpt lat="43.51059" lon="6.87743">
        <ele>328</ele>
        <time>2022-11-06T14:09:39.000Z</time>
      </trkpt>
      <trkpt lat="43.51059" lon="6.87743">
        <ele>328.1</ele>
        <time>2022-11-06T14:09:40.000Z</time>
      </trkpt>
      <trkpt lat="43.51059" lon="6.87743">
        <ele>328.1</ele>
        <time>2022-11-06T14:09:42.000Z</time>
      </trkpt>
      <trkpt lat="43.51059" lon="6.87743">
        <ele>328.1</ele>
        <time>2022-11-06T14:09:44.000Z</time>
      </trkpt>
      <trkpt lat="43.51059" lon="6.87743">
        <ele>328.2</ele>
        <time>2022-11-06T14:09:48.000Z</time>
      </trkpt>
      <trkpt lat="43.51059" lon="6.87743">
        <ele>328.1</ele>
        <time>2022-11-06T14:09:51.000Z</time>
      </trkpt>
      <trkpt lat="43.51059" lon="6.87743">
        <ele>328.2</ele>
        <time>2022-11-06T14:09:53.000Z</time>
      </trkpt>
      <trkpt lat="43.51059" lon="6.87743">
        <ele>328.3</ele>
        <time>2022-11-06T14:09:54.000Z</time>
      </trkpt>
      <trkpt lat="43.51059" lon="6.87743">
        <ele>328</ele>
        <time>2022-11-06T14:10:02.000Z</time>
      </trkpt>
      <trkpt lat="43.51059" lon="6.87743">
        <ele>328.1</ele>
        <time>2022-11-06T14:10:03.000Z</time>
      </trkpt>
      <trkpt lat="43.51059" lon="6.87743">
        <ele>327.9</ele>
        <time>2022-11-06T14:10:21.000Z</time>
      </trkpt>
      <trkpt lat="43.51059" lon="6.87743">
        <ele>328</ele>
        <time>2022-11-06T14:10:22.000Z</time>
      </trkpt>
      <trkpt lat="43.51059" lon="6.87743">
        <ele>328.2</ele>
        <time>2022-11-06T14:10:30.000Z</time>
      </trkpt>
      <trkpt lat="43.51051" lon="6.87749">
        <ele>327.2</ele>
        <time>2022-11-06T14:10:47.000Z</time>
      </trkpt>
      <trkpt lat="43.51044" lon="6.87759">
        <ele>326.3</ele>
        <time>2022-11-06T14:10:57.000Z</time>
      </trkpt>
      <trkpt lat="43.51041" lon="6.87772">
        <ele>325.9</ele>
        <time>2022-11-06T14:11:12.000Z</time>
      </trkpt>
      <trkpt lat="43.51042" lon="6.87785">
        <ele>325</ele>
        <time>2022-11-06T14:11:22.000Z</time>
      </trkpt>
      <trkpt lat="43.51039" lon="6.87797">
        <ele>324</ele>
        <time>2022-11-06T14:11:32.000Z</time>
      </trkpt>
      <trkpt lat="43.51038" lon="6.8781">
        <ele>321.7</ele>
        <time>2022-11-06T14:11:47.000Z</time>
      </trkpt>
      <trkpt lat="43.51037" lon="6.87823">
        <ele>320.5</ele>
        <time>2022-11-06T14:11:55.000Z</time>
      </trkpt>
      <trkpt lat="43.51037" lon="6.87836">
        <ele>319.3</ele>
        <time>2022-11-06T14:12:03.000Z</time>
      </trkpt>
      <trkpt lat="43.51041" lon="6.87848">
        <ele>317.8</ele>
        <time>2022-11-06T14:12:11.000Z</time>
      </trkpt>
      <trkpt lat="43.51045" lon="6.87859">
        <ele>317.4</ele>
        <time>2022-11-06T14:12:19.000Z</time>
      </trkpt>
      <trkpt lat="43.51049" lon="6.87871">
        <ele>316.7</ele>
        <time>2022-11-06T14:12:27.000Z</time>
      </trkpt>
      <trkpt lat="43.51054" lon="6.87883">
        <ele>316.6</ele>
        <time>2022-11-06T14:12:34.000Z</time>
      </trkpt>
      <trkpt lat="43.51059" lon="6.87893">
        <ele>316.6</ele>
        <time>2022-11-06T14:12:42.000Z</time>
      </trkpt>
      <trkpt lat="43.51064" lon="6.87904">
        <ele>316.1</ele>
        <time>2022-11-06T14:12:51.000Z</time>
      </trkpt>
      <trkpt lat="43.51069" lon="6.87915">
        <ele>316.3</ele>
        <time>2022-11-06T14:12:59.000Z</time>
      </trkpt>
      <trkpt lat="43.51074" lon="6.87926">
        <ele>315.7</ele>
        <time>2022-11-06T14:13:07.000Z</time>
      </trkpt>
      <trkpt lat="43.51078" lon="6.87938">
        <ele>315.2</ele>
        <time>2022-11-06T14:13:15.000Z</time>
      </trkpt>
      <trkpt lat="43.51082" lon="6.87949">
        <ele>313.6</ele>
        <time>2022-11-06T14:13:24.000Z</time>
      </trkpt>
      <trkpt lat="43.51086" lon="6.87962">
        <ele>312.6</ele>
        <time>2022-11-06T14:13:33.000Z</time>
      </trkpt>
      <trkpt lat="43.51091" lon="6.87973">
        <ele>311.6</ele>
        <time>2022-11-06T14:13:43.000Z</time>
      </trkpt>
      <trkpt lat="43.51095" lon="6.87985">
        <ele>310.7</ele>
        <time>2022-11-06T14:13:52.000Z</time>
      </trkpt>
      <trkpt lat="43.511" lon="6.87996">
        <ele>309.5</ele>
        <time>2022-11-06T14:14:02.000Z</time>
      </trkpt>
      <trkpt lat="43.51104" lon="6.88008">
        <ele>308.5</ele>
        <time>2022-11-06T14:14:11.000Z</time>
      </trkpt>
      <trkpt lat="43.51109" lon="6.88018">
        <ele>307</ele>
        <time>2022-11-06T14:14:23.000Z</time>
      </trkpt>
      <trkpt lat="43.51114" lon="6.88029">
        <ele>305.9</ele>
        <time>2022-11-06T14:14:33.000Z</time>
      </trkpt>
      <trkpt lat="43.51121" lon="6.88038">
        <ele>305.2</ele>
        <time>2022-11-06T14:14:42.000Z</time>
      </trkpt>
      <trkpt lat="43.51126" lon="6.88048">
        <ele>304.6</ele>
        <time>2022-11-06T14:14:52.000Z</time>
      </trkpt>
      <trkpt lat="43.51133" lon="6.88057">
        <ele>303.3</ele>
        <time>2022-11-06T14:15:06.000Z</time>
      </trkpt>
      <trkpt lat="43.51139" lon="6.88066">
        <ele>301.6</ele>
        <time>2022-11-06T14:15:21.000Z</time>
      </trkpt>
      <trkpt lat="43.51145" lon="6.88077">
        <ele>300.3</ele>
        <time>2022-11-06T14:15:34.000Z</time>
      </trkpt>
      <trkpt lat="43.51152" lon="6.88086">
        <ele>299.3</ele>
        <time>2022-11-06T14:15:46.000Z</time>
      </trkpt>
      <trkpt lat="43.51158" lon="6.88095">
        <ele>298.6</ele>
        <time>2022-11-06T14:15:56.000Z</time>
      </trkpt>
      <trkpt lat="43.51164" lon="6.88105">
        <ele>297.9</ele>
        <time>2022-11-06T14:16:07.000Z</time>
      </trkpt>
      <trkpt lat="43.51172" lon="6.88112">
        <ele>296.4</ele>
        <time>2022-11-06T14:16:22.000Z</time>
      </trkpt>
      <trkpt lat="43.51178" lon="6.88121">
        <ele>295.5</ele>
        <time>2022-11-06T14:16:35.000Z</time>
      </trkpt>
      <trkpt lat="43.51185" lon="6.88131">
        <ele>295</ele>
        <time>2022-11-06T14:16:46.000Z</time>
      </trkpt>
      <trkpt lat="43.5119" lon="6.88142">
        <ele>294</ele>
        <time>2022-11-06T14:16:59.000Z</time>
      </trkpt>
      <trkpt lat="43.51197" lon="6.88151">
        <ele>292.6</ele>
        <time>2022-11-06T14:17:18.000Z</time>
      </trkpt>
      <trkpt lat="43.512" lon="6.88163">
        <ele>290.6</ele>
        <time>2022-11-06T14:17:33.000Z</time>
      </trkpt>
      <trkpt lat="43.51203" lon="6.88175">
        <ele>289.4</ele>
        <time>2022-11-06T14:17:45.000Z</time>
      </trkpt>
      <trkpt lat="43.51205" lon="6.88187">
        <ele>288.5</ele>
        <time>2022-11-06T14:17:57.000Z</time>
      </trkpt>
      <trkpt lat="43.51208" lon="6.882">
        <ele>288</ele>
        <time>2022-11-06T14:18:08.000Z</time>
      </trkpt>
      <trkpt lat="43.51209" lon="6.88213">
        <ele>286.3</ele>
        <time>2022-11-06T14:18:21.000Z</time>
      </trkpt>
      <trkpt lat="43.5121" lon="6.88225">
        <ele>285.1</ele>
        <time>2022-11-06T14:18:32.000Z</time>
      </trkpt>
      <trkpt lat="43.51209" lon="6.88238">
        <ele>283.6</ele>
        <time>2022-11-06T14:18:42.000Z</time>
      </trkpt>
      <trkpt lat="43.51209" lon="6.8825">
        <ele>282.7</ele>
        <time>2022-11-06T14:18:55.000Z</time>
      </trkpt>
      <trkpt lat="43.51208" lon="6.88264">
        <ele>281.8</ele>
        <time>2022-11-06T14:19:05.000Z</time>
      </trkpt>
      <trkpt lat="43.51208" lon="6.88277">
        <ele>281.5</ele>
        <time>2022-11-06T14:19:12.000Z</time>
      </trkpt>
      <trkpt lat="43.5121" lon="6.88291">
        <ele>282.1</ele>
        <time>2022-11-06T14:19:21.000Z</time>
      </trkpt>
      <trkpt lat="43.51212" lon="6.88303">
        <ele>283.6</ele>
        <time>2022-11-06T14:19:30.000Z</time>
      </trkpt>
      <trkpt lat="43.51216" lon="6.88315">
        <ele>283.8</ele>
        <time>2022-11-06T14:19:39.000Z</time>
      </trkpt>
      <trkpt lat="43.51219" lon="6.88328">
        <ele>284.2</ele>
        <time>2022-11-06T14:19:50.000Z</time>
      </trkpt>
      <trkpt lat="43.51223" lon="6.88339">
        <ele>283.7</ele>
        <time>2022-11-06T14:20:00.000Z</time>
      </trkpt>
      <trkpt lat="43.51227" lon="6.88351">
        <ele>283.2</ele>
        <time>2022-11-06T14:20:10.000Z</time>
      </trkpt>
      <trkpt lat="43.51233" lon="6.88361">
        <ele>282.4</ele>
        <time>2022-11-06T14:20:20.000Z</time>
      </trkpt>
      <trkpt lat="43.51237" lon="6.88372">
        <ele>281.5</ele>
        <time>2022-11-06T14:20:28.000Z</time>
      </trkpt>
      <trkpt lat="43.5124" lon="6.88385">
        <ele>280.5</ele>
        <time>2022-11-06T14:20:38.000Z</time>
      </trkpt>
      <trkpt lat="43.51247" lon="6.88395">
        <ele>279.3</ele>
        <time>2022-11-06T14:20:47.000Z</time>
      </trkpt>
      <trkpt lat="43.51252" lon="6.88406">
        <ele>278.1</ele>
        <time>2022-11-06T14:20:58.000Z</time>
      </trkpt>
      <trkpt lat="43.5126" lon="6.88413">
        <ele>277.1</ele>
        <time>2022-11-06T14:21:08.000Z</time>
      </trkpt>
      <trkpt lat="43.5127" lon="6.88416">
        <ele>276.4</ele>
        <time>2022-11-06T14:21:19.000Z</time>
      </trkpt>
      <trkpt lat="43.51276" lon="6.88405">
        <ele>276.1</ele>
        <time>2022-11-06T14:21:27.000Z</time>
      </trkpt>
      <trkpt lat="43.51277" lon="6.88392">
        <ele>276.2</ele>
        <time>2022-11-06T14:21:34.000Z</time>
      </trkpt>
      <trkpt lat="43.51274" lon="6.8838">
        <ele>276.1</ele>
        <time>2022-11-06T14:21:45.000Z</time>
      </trkpt>
      <trkpt lat="43.51271" lon="6.88368">
        <ele>275.7</ele>
        <time>2022-11-06T14:21:54.000Z</time>
      </trkpt>
      <trkpt lat="43.51269" lon="6.88356">
        <ele>274.7</ele>
        <time>2022-11-06T14:22:02.000Z</time>
      </trkpt>
      <trkpt lat="43.51266" lon="6.88344">
        <ele>274.2</ele>
        <time>2022-11-06T14:22:11.000Z</time>
      </trkpt>
      <trkpt lat="43.51265" lon="6.8833">
        <ele>273.7</ele>
        <time>2022-11-06T14:22:20.000Z</time>
      </trkpt>
      <trkpt lat="43.51261" lon="6.88318">
        <ele>273.1</ele>
        <time>2022-11-06T14:22:29.000Z</time>
      </trkpt>
      <trkpt lat="43.5126" lon="6.88305">
        <ele>272.3</ele>
        <time>2022-11-06T14:22:38.000Z</time>
      </trkpt>
      <trkpt lat="43.51259" lon="6.88293">
        <ele>271.9</ele>
        <time>2022-11-06T14:22:48.000Z</time>
      </trkpt>
      <trkpt lat="43.51257" lon="6.88281">
        <ele>271.4</ele>
        <time>2022-11-06T14:22:58.000Z</time>
      </trkpt>
      <trkpt lat="43.5126" lon="6.88268">
        <ele>271.1</ele>
        <time>2022-11-06T14:23:10.000Z</time>
      </trkpt>
      <trkpt lat="43.51268" lon="6.88259">
        <ele>270.2</ele>
        <time>2022-11-06T14:23:19.000Z</time>
      </trkpt>
      <trkpt lat="43.51273" lon="6.88249">
        <ele>269.9</ele>
        <time>2022-11-06T14:23:27.000Z</time>
      </trkpt>
      <trkpt lat="43.51273" lon="6.88235">
        <ele>269.3</ele>
        <time>2022-11-06T14:23:36.000Z</time>
      </trkpt>
      <trkpt lat="43.51273" lon="6.88221">
        <ele>268.9</ele>
        <time>2022-11-06T14:23:45.000Z</time>
      </trkpt>
      <trkpt lat="43.51271" lon="6.88209">
        <ele>268.2</ele>
        <time>2022-11-06T14:23:54.000Z</time>
      </trkpt>
      <trkpt lat="43.51272" lon="6.88207">
        <ele>267.9</ele>
        <time>2022-11-06T14:23:59.000Z</time>
      </trkpt>
      <trkpt lat="43.51272" lon="6.88206">
        <ele>267.8</ele>
        <time>2022-11-06T14:24:11.000Z</time>
      </trkpt>
      <trkpt lat="43.51272" lon="6.88206">
        <ele>267.7</ele>
        <time>2022-11-06T14:24:12.000Z</time>
      </trkpt>
      <trkpt lat="43.51272" lon="6.88206">
        <ele>267.7</ele>
        <time>2022-11-06T14:24:14.000Z</time>
      </trkpt>
      <trkpt lat="43.5127" lon="6.88201">
        <ele>267.8</ele>
        <time>2022-11-06T14:24:21.000Z</time>
      </trkpt>
      <trkpt lat="43.51271" lon="6.88201">
        <ele>267.9</ele>
        <time>2022-11-06T14:24:24.000Z</time>
      </trkpt>
      <trkpt lat="43.51275" lon="6.88198">
        <ele>265.8</ele>
        <time>2022-11-06T14:24:40.000Z</time>
      </trkpt>
      <trkpt lat="43.51276" lon="6.88198">
        <ele>265.6</ele>
        <time>2022-11-06T14:24:41.000Z</time>
      </trkpt>
      <trkpt lat="43.51281" lon="6.88187">
        <ele>263.6</ele>
        <time>2022-11-06T14:24:56.000Z</time>
      </trkpt>
      <trkpt lat="43.51288" lon="6.88179">
        <ele>261.9</ele>
        <time>2022-11-06T14:25:10.000Z</time>
      </trkpt>
      <trkpt lat="43.5129" lon="6.88166">
        <ele>259.9</ele>
        <time>2022-11-06T14:25:26.000Z</time>
      </trkpt>
      <trkpt lat="43.51295" lon="6.88155">
        <ele>257.5</ele>
        <time>2022-11-06T14:25:43.000Z</time>
      </trkpt>
      <trkpt lat="43.51296" lon="6.88154">
        <ele>257.2</ele>
        <time>2022-11-06T14:25:47.000Z</time>
      </trkpt>
      <trkpt lat="43.51297" lon="6.88155">
        <ele>257.4</ele>
        <time>2022-11-06T14:25:49.000Z</time>
      </trkpt>
      <trkpt lat="43.51299" lon="6.88142">
        <ele>253.5</ele>
        <time>2022-11-06T14:26:16.000Z</time>
      </trkpt>
      <trkpt lat="43.51304" lon="6.88131">
        <ele>251.9</ele>
        <time>2022-11-06T14:26:32.000Z</time>
      </trkpt>
      <trkpt lat="43.51303" lon="6.88119">
        <ele>250.1</ele>
        <time>2022-11-06T14:26:44.000Z</time>
      </trkpt>
      <trkpt lat="43.51305" lon="6.88107">
        <ele>247.7</ele>
        <time>2022-11-06T14:27:00.000Z</time>
      </trkpt>
      <trkpt lat="43.51312" lon="6.88099">
        <ele>245.6</ele>
        <time>2022-11-06T14:27:12.000Z</time>
      </trkpt>
      <trkpt lat="43.5132" lon="6.88092">
        <ele>244.7</ele>
        <time>2022-11-06T14:27:22.000Z</time>
      </trkpt>
      <trkpt lat="43.51331" lon="6.88091">
        <ele>243.4</ele>
        <time>2022-11-06T14:27:39.000Z</time>
      </trkpt>
      <trkpt lat="43.5134" lon="6.88086">
        <ele>242.8</ele>
        <time>2022-11-06T14:27:48.000Z</time>
      </trkpt>
      <trkpt lat="43.51349" lon="6.88083">
        <ele>241.9</ele>
        <time>2022-11-06T14:28:02.000Z</time>
      </trkpt>
      <trkpt lat="43.51351" lon="6.8808">
        <ele>241.5</ele>
        <time>2022-11-06T14:28:08.000Z</time>
      </trkpt>
      <trkpt lat="43.51351" lon="6.8808">
        <ele>241.4</ele>
        <time>2022-11-06T14:28:26.000Z</time>
      </trkpt>
      <trkpt lat="43.51351" lon="6.8808">
        <ele>241.3</ele>
        <time>2022-11-06T14:28:27.000Z</time>
      </trkpt>
      <trkpt lat="43.51351" lon="6.8808">
        <ele>241.5</ele>
        <time>2022-11-06T14:28:35.000Z</time>
      </trkpt>
      <trkpt lat="43.51351" lon="6.8808">
        <ele>241.4</ele>
        <time>2022-11-06T14:28:36.000Z</time>
      </trkpt>
      <trkpt lat="43.51351" lon="6.8808">
        <ele>241.7</ele>
        <time>2022-11-06T14:28:49.000Z</time>
      </trkpt>
      <trkpt lat="43.51351" lon="6.8808">
        <ele>241.8</ele>
        <time>2022-11-06T14:28:50.000Z</time>
      </trkpt>
      <trkpt lat="43.51351" lon="6.8808">
        <ele>241.9</ele>
        <time>2022-11-06T14:28:51.000Z</time>
      </trkpt>
      <trkpt lat="43.51349" lon="6.88078">
        <ele>241.9</ele>
        <time>2022-11-06T14:28:58.000Z</time>
      </trkpt>
      <trkpt lat="43.51349" lon="6.88078">
        <ele>241.6</ele>
        <time>2022-11-06T14:29:21.000Z</time>
      </trkpt>
      <trkpt lat="43.51349" lon="6.88078">
        <ele>242</ele>
        <time>2022-11-06T14:29:22.000Z</time>
      </trkpt>
      <trkpt lat="43.51349" lon="6.88078">
        <ele>242.3</ele>
        <time>2022-11-06T14:29:23.000Z</time>
      </trkpt>
      <trkpt lat="43.51349" lon="6.88078">
        <ele>242.3</ele>
        <time>2022-11-06T14:29:26.000Z</time>
      </trkpt>
      <trkpt lat="43.51349" lon="6.88078">
        <ele>242.2</ele>
        <time>2022-11-06T14:29:32.000Z</time>
      </trkpt>
      <trkpt lat="43.51349" lon="6.88078">
        <ele>242.2</ele>
        <time>2022-11-06T14:29:33.000Z</time>
      </trkpt>
      <trkpt lat="43.51349" lon="6.88078">
        <ele>242</ele>
        <time>2022-11-06T14:29:34.000Z</time>
      </trkpt>
      <trkpt lat="43.5135" lon="6.88078">
        <ele>242.1</ele>
        <time>2022-11-06T14:29:36.000Z</time>
      </trkpt>
      <trkpt lat="43.5135" lon="6.88078">
        <ele>242</ele>
        <time>2022-11-06T14:29:37.000Z</time>
      </trkpt>
      <trkpt lat="43.51349" lon="6.88079">
        <ele>241.6</ele>
        <time>2022-11-06T14:29:40.000Z</time>
      </trkpt>
      <trkpt lat="43.5135" lon="6.88079">
        <ele>241.7</ele>
        <time>2022-11-06T14:29:41.000Z</time>
      </trkpt>
      <trkpt lat="43.51359" lon="6.88076">
        <ele>241.7</ele>
        <time>2022-11-06T14:29:56.000Z</time>
      </trkpt>
      <trkpt lat="43.51368" lon="6.8808">
        <ele>241.1</ele>
        <time>2022-11-06T14:30:10.000Z</time>
      </trkpt>
      <trkpt lat="43.51377" lon="6.88076">
        <ele>241.1</ele>
        <time>2022-11-06T14:30:19.000Z</time>
      </trkpt>
      <trkpt lat="43.51387" lon="6.8808">
        <ele>241.2</ele>
        <time>2022-11-06T14:30:28.000Z</time>
      </trkpt>
      <trkpt lat="43.51396" lon="6.88081">
        <ele>241.3</ele>
        <time>2022-11-06T14:30:40.000Z</time>
      </trkpt>
      <trkpt lat="43.51396" lon="6.88081">
        <ele>241.4</ele>
        <time>2022-11-06T14:30:41.000Z</time>
      </trkpt>
      <trkpt lat="43.51397" lon="6.88081">
        <ele>241.5</ele>
        <time>2022-11-06T14:30:45.000Z</time>
      </trkpt>
      <trkpt lat="43.51397" lon="6.88081">
        <ele>241.5</ele>
        <time>2022-11-06T14:30:46.000Z</time>
      </trkpt>
      <trkpt lat="43.51397" lon="6.8808">
        <ele>241.4</ele>
        <time>2022-11-06T14:30:48.000Z</time>
      </trkpt>
      <trkpt lat="43.51406" lon="6.88082">
        <ele>241.3</ele>
        <time>2022-11-06T14:31:00.000Z</time>
      </trkpt>
      <trkpt lat="43.51417" lon="6.88082">
        <ele>241.2</ele>
        <time>2022-11-06T14:31:10.000Z</time>
      </trkpt>
      <trkpt lat="43.51426" lon="6.88087">
        <ele>241.1</ele>
        <time>2022-11-06T14:31:20.000Z</time>
      </trkpt>
      <trkpt lat="43.51434" lon="6.88092">
        <ele>239.8</ele>
        <time>2022-11-06T14:31:34.000Z</time>
      </trkpt>
      <trkpt lat="43.51442" lon="6.88099">
        <ele>238.5</ele>
        <time>2022-11-06T14:31:45.000Z</time>
      </trkpt>
      <trkpt lat="43.51451" lon="6.88105">
        <ele>237.7</ele>
        <time>2022-11-06T14:31:54.000Z</time>
      </trkpt>
      <trkpt lat="43.5146" lon="6.8811">
        <ele>236.1</ele>
        <time>2022-11-06T14:32:05.000Z</time>
      </trkpt>
      <trkpt lat="43.51469" lon="6.88113">
        <ele>234.7</ele>
        <time>2022-11-06T14:32:16.000Z</time>
      </trkpt>
      <trkpt lat="43.51478" lon="6.88118">
        <ele>233.8</ele>
        <time>2022-11-06T14:32:27.000Z</time>
      </trkpt>
      <trkpt lat="43.51486" lon="6.88124">
        <ele>232.5</ele>
        <time>2022-11-06T14:32:40.000Z</time>
      </trkpt>
      <trkpt lat="43.51495" lon="6.88129">
        <ele>231.5</ele>
        <time>2022-11-06T14:32:51.000Z</time>
      </trkpt>
      <trkpt lat="43.51501" lon="6.88139">
        <ele>230.8</ele>
        <time>2022-11-06T14:33:03.000Z</time>
      </trkpt>
      <trkpt lat="43.51508" lon="6.88147">
        <ele>229.9</ele>
        <time>2022-11-06T14:33:14.000Z</time>
      </trkpt>
      <trkpt lat="43.51515" lon="6.88157">
        <ele>229.1</ele>
        <time>2022-11-06T14:33:23.000Z</time>
      </trkpt>
      <trkpt lat="43.51517" lon="6.88158">
        <ele>228.8</ele>
        <time>2022-11-06T14:33:27.000Z</time>
      </trkpt>
      <trkpt lat="43.51517" lon="6.88158">
        <ele>228.8</ele>
        <time>2022-11-06T14:33:28.000Z</time>
      </trkpt>
      <trkpt lat="43.51526" lon="6.88164">
        <ele>227.6</ele>
        <time>2022-11-06T14:33:41.000Z</time>
      </trkpt>
      <trkpt lat="43.51532" lon="6.88174">
        <ele>227.4</ele>
        <time>2022-11-06T14:33:50.000Z</time>
      </trkpt>
      <trkpt lat="43.51539" lon="6.88182">
        <ele>227.2</ele>
        <time>2022-11-06T14:33:58.000Z</time>
      </trkpt>
      <trkpt lat="43.51548" lon="6.88186">
        <ele>226.8</ele>
        <time>2022-11-06T14:34:12.000Z</time>
      </trkpt>
      <trkpt lat="43.51557" lon="6.88187">
        <ele>225.8</ele>
        <time>2022-11-06T14:34:22.000Z</time>
      </trkpt>
      <trkpt lat="43.51565" lon="6.88178">
        <ele>224.8</ele>
        <time>2022-11-06T14:34:30.000Z</time>
      </trkpt>
      <trkpt lat="43.51567" lon="6.88164">
        <ele>224.3</ele>
        <time>2022-11-06T14:34:38.000Z</time>
      </trkpt>
      <trkpt lat="43.51566" lon="6.88151">
        <ele>223.7</ele>
        <time>2022-11-06T14:34:46.000Z</time>
      </trkpt>
      <trkpt lat="43.51564" lon="6.88138">
        <ele>223.3</ele>
        <time>2022-11-06T14:34:56.000Z</time>
      </trkpt>
      <trkpt lat="43.51564" lon="6.88125">
        <ele>222.7</ele>
        <time>2022-11-06T14:35:06.000Z</time>
      </trkpt>
      <trkpt lat="43.51562" lon="6.88113">
        <ele>221.9</ele>
        <time>2022-11-06T14:35:17.000Z</time>
      </trkpt>
      <trkpt lat="43.51558" lon="6.88102">
        <ele>221.5</ele>
        <time>2022-11-06T14:35:26.000Z</time>
      </trkpt>
      <trkpt lat="43.51552" lon="6.88091">
        <ele>220.9</ele>
        <time>2022-11-06T14:35:35.000Z</time>
      </trkpt>
      <trkpt lat="43.51548" lon="6.88079">
        <ele>219.2</ele>
        <time>2022-11-06T14:35:46.000Z</time>
      </trkpt>
      <trkpt lat="43.51543" lon="6.88068">
        <ele>218.1</ele>
        <time>2022-11-06T14:35:58.000Z</time>
      </trkpt>
      <trkpt lat="43.51536" lon="6.8806">
        <ele>217.6</ele>
        <time>2022-11-06T14:36:05.000Z</time>
      </trkpt>
      <trkpt lat="43.51529" lon="6.8805">
        <ele>216.2</ele>
        <time>2022-11-06T14:36:17.000Z</time>
      </trkpt>
      <trkpt lat="43.51527" lon="6.88039">
        <ele>215</ele>
        <time>2022-11-06T14:36:31.000Z</time>
      </trkpt>
      <trkpt lat="43.51527" lon="6.88038">
        <ele>215</ele>
        <time>2022-11-06T14:36:33.000Z</time>
      </trkpt>
      <trkpt lat="43.51523" lon="6.88025">
        <ele>213.5</ele>
        <time>2022-11-06T14:36:46.000Z</time>
      </trkpt>
      <trkpt lat="43.51523" lon="6.88023">
        <ele>213.2</ele>
        <time>2022-11-06T14:36:49.000Z</time>
      </trkpt>
      <trkpt lat="43.51523" lon="6.88022">
        <ele>213</ele>
        <time>2022-11-06T14:36:50.000Z</time>
      </trkpt>
      <trkpt lat="43.51524" lon="6.8801">
        <ele>210.8</ele>
        <time>2022-11-06T14:37:05.000Z</time>
      </trkpt>
      <trkpt lat="43.51525" lon="6.87997">
        <ele>209.4</ele>
        <time>2022-11-06T14:37:16.000Z</time>
      </trkpt>
      <trkpt lat="43.51524" lon="6.87984">
        <ele>208.2</ele>
        <time>2022-11-06T14:37:26.000Z</time>
      </trkpt>
      <trkpt lat="43.51527" lon="6.87971">
        <ele>206.5</ele>
        <time>2022-11-06T14:37:38.000Z</time>
      </trkpt>
      <trkpt lat="43.51527" lon="6.87958">
        <ele>205.4</ele>
        <time>2022-11-06T14:37:51.000Z</time>
      </trkpt>
      <trkpt lat="43.51525" lon="6.87945">
        <ele>204.6</ele>
        <time>2022-11-06T14:38:02.000Z</time>
      </trkpt>
      <trkpt lat="43.51521" lon="6.87933">
        <ele>203.8</ele>
        <time>2022-11-06T14:38:15.000Z</time>
      </trkpt>
      <trkpt lat="43.51517" lon="6.87922">
        <ele>202.8</ele>
        <time>2022-11-06T14:38:26.000Z</time>
      </trkpt>
      <trkpt lat="43.51512" lon="6.87911">
        <ele>202.6</ele>
        <time>2022-11-06T14:38:37.000Z</time>
      </trkpt>
      <trkpt lat="43.51511" lon="6.87901">
        <ele>201.7</ele>
        <time>2022-11-06T14:38:51.000Z</time>
      </trkpt>
      <trkpt lat="43.51511" lon="6.879">
        <ele>202</ele>
        <time>2022-11-06T14:38:55.000Z</time>
      </trkpt>
      <trkpt lat="43.51511" lon="6.879">
        <ele>202</ele>
        <time>2022-11-06T14:38:56.000Z</time>
      </trkpt>
      <trkpt lat="43.51511" lon="6.87901">
        <ele>202.1</ele>
        <time>2022-11-06T14:38:57.000Z</time>
      </trkpt>
      <trkpt lat="43.51511" lon="6.87902">
        <ele>202.1</ele>
        <time>2022-11-06T14:38:59.000Z</time>
      </trkpt>
      <trkpt lat="43.51512" lon="6.87902">
        <ele>202.1</ele>
        <time>2022-11-06T14:39:09.000Z</time>
      </trkpt>
      <trkpt lat="43.51511" lon="6.87903">
        <ele>201.9</ele>
        <time>2022-11-06T14:39:13.000Z</time>
      </trkpt>
      <trkpt lat="43.51511" lon="6.87903">
        <ele>202.1</ele>
        <time>2022-11-06T14:39:43.000Z</time>
      </trkpt>
      <trkpt lat="43.51511" lon="6.87903">
        <ele>202.2</ele>
        <time>2022-11-06T14:39:44.000Z</time>
      </trkpt>
      <trkpt lat="43.51511" lon="6.87903">
        <ele>202.2</ele>
        <time>2022-11-06T14:40:12.000Z</time>
      </trkpt>
      <trkpt lat="43.51502" lon="6.87899">
        <ele>202</ele>
        <time>2022-11-06T14:40:21.000Z</time>
      </trkpt>
      <trkpt lat="43.51493" lon="6.87891">
        <ele>201.2</ele>
        <time>2022-11-06T14:40:29.000Z</time>
      </trkpt>
      <trkpt lat="43.51484" lon="6.87886">
        <ele>201.6</ele>
        <time>2022-11-06T14:40:37.000Z</time>
      </trkpt>
      <trkpt lat="43.51474" lon="6.87884">
        <ele>202.4</ele>
        <time>2022-11-06T14:40:48.000Z</time>
      </trkpt>
      <trkpt lat="43.51464" lon="6.87881">
        <ele>202.8</ele>
        <time>2022-11-06T14:40:56.000Z</time>
      </trkpt>
      <trkpt lat="43.51455" lon="6.87878">
        <ele>203.4</ele>
        <time>2022-11-06T14:41:05.000Z</time>
      </trkpt>
      <trkpt lat="43.51446" lon="6.87874">
        <ele>204.1</ele>
        <time>2022-11-06T14:41:14.000Z</time>
      </trkpt>
      <trkpt lat="43.51449" lon="6.87866">
        <ele>204.3</ele>
        <time>2022-11-06T14:41:34.000Z</time>
      </trkpt>
      <trkpt lat="43.51449" lon="6.87866">
        <ele>204.2</ele>
        <time>2022-11-06T14:41:35.000Z</time>
      </trkpt>
      <trkpt lat="43.51449" lon="6.87866">
        <ele>204.3</ele>
        <time>2022-11-06T14:41:36.000Z</time>
      </trkpt>
      <trkpt lat="43.51449" lon="6.87865">
        <ele>204.5</ele>
        <time>2022-11-06T14:41:52.000Z</time>
      </trkpt>
      <trkpt lat="43.51447" lon="6.87852">
        <ele>204.3</ele>
        <time>2022-11-06T14:42:05.000Z</time>
      </trkpt>
      <trkpt lat="43.51449" lon="6.87839">
        <ele>204</ele>
        <time>2022-11-06T14:42:14.000Z</time>
      </trkpt>
      <trkpt lat="43.51448" lon="6.87827">
        <ele>203.5</ele>
        <time>2022-11-06T14:42:21.000Z</time>
      </trkpt>
      <trkpt lat="43.5145" lon="6.87814">
        <ele>202.9</ele>
        <time>2022-11-06T14:42:30.000Z</time>
      </trkpt>
      <trkpt lat="43.51453" lon="6.87801">
        <ele>201.7</ele>
        <time>2022-11-06T14:42:38.000Z</time>
      </trkpt>
      <trkpt lat="43.51454" lon="6.87788">
        <ele>200.3</ele>
        <time>2022-11-06T14:42:49.000Z</time>
      </trkpt>
      <trkpt lat="43.51454" lon="6.87774">
        <ele>200.5</ele>
        <time>2022-11-06T14:42:56.000Z</time>
      </trkpt>
      <trkpt lat="43.51449" lon="6.87764">
        <ele>200.8</ele>
        <time>2022-11-06T14:43:04.000Z</time>
      </trkpt>
      <trkpt lat="43.51446" lon="6.87752">
        <ele>200.5</ele>
        <time>2022-11-06T14:43:17.000Z</time>
      </trkpt>
      <trkpt lat="43.51449" lon="6.8774">
        <ele>199.6</ele>
        <time>2022-11-06T14:43:27.000Z</time>
      </trkpt>
      <trkpt lat="43.51454" lon="6.87728">
        <ele>198.9</ele>
        <time>2022-11-06T14:43:38.000Z</time>
      </trkpt>
      <trkpt lat="43.5146" lon="6.87718">
        <ele>197.9</ele>
        <time>2022-11-06T14:43:48.000Z</time>
      </trkpt>
      <trkpt lat="43.51466" lon="6.87707">
        <ele>196.7</ele>
        <time>2022-11-06T14:43:57.000Z</time>
      </trkpt>
      <trkpt lat="43.51471" lon="6.87697">
        <ele>195.3</ele>
        <time>2022-11-06T14:44:08.000Z</time>
      </trkpt>
      <trkpt lat="43.51467" lon="6.87685">
        <ele>194.3</ele>
        <time>2022-11-06T14:44:16.000Z</time>
      </trkpt>
      <trkpt lat="43.51461" lon="6.87676">
        <ele>192.2</ele>
        <time>2022-11-06T14:44:27.000Z</time>
      </trkpt>
      <trkpt lat="43.51464" lon="6.87665">
        <ele>191.8</ele>
        <time>2022-11-06T14:44:38.000Z</time>
      </trkpt>
      <trkpt lat="43.51468" lon="6.87653">
        <ele>188.4</ele>
        <time>2022-11-06T14:44:55.000Z</time>
      </trkpt>
      <trkpt lat="43.51472" lon="6.87642">
        <ele>187.7</ele>
        <time>2022-11-06T14:45:04.000Z</time>
      </trkpt>
      <trkpt lat="43.51469" lon="6.87629">
        <ele>186.7</ele>
        <time>2022-11-06T14:45:13.000Z</time>
      </trkpt>
      <trkpt lat="43.51468" lon="6.87615">
        <ele>185.7</ele>
        <time>2022-11-06T14:45:21.000Z</time>
      </trkpt>
      <trkpt lat="43.51474" lon="6.87604">
        <ele>185.7</ele>
        <time>2022-11-06T14:45:29.000Z</time>
      </trkpt>
      <trkpt lat="43.51476" lon="6.87591">
        <ele>184.8</ele>
        <time>2022-11-06T14:45:40.000Z</time>
      </trkpt>
      <trkpt lat="43.51481" lon="6.8758">
        <ele>184.1</ele>
        <time>2022-11-06T14:45:47.000Z</time>
      </trkpt>
      <trkpt lat="43.51488" lon="6.87572">
        <ele>182</ele>
        <time>2022-11-06T14:46:00.000Z</time>
      </trkpt>
      <trkpt lat="43.51496" lon="6.87565">
        <ele>180</ele>
        <time>2022-11-06T14:46:11.000Z</time>
      </trkpt>
      <trkpt lat="43.51503" lon="6.87556">
        <ele>176.9</ele>
        <time>2022-11-06T14:46:28.000Z</time>
      </trkpt>
      <trkpt lat="43.51511" lon="6.8755">
        <ele>175.1</ele>
        <time>2022-11-06T14:46:41.000Z</time>
      </trkpt>
      <trkpt lat="43.51517" lon="6.87541">
        <ele>172.3</ele>
        <time>2022-11-06T14:46:55.000Z</time>
      </trkpt>
      <trkpt lat="43.51519" lon="6.87538">
        <ele>171.6</ele>
        <time>2022-11-06T14:47:01.000Z</time>
      </trkpt>
      <trkpt lat="43.51519" lon="6.87538">
        <ele>171.6</ele>
        <time>2022-11-06T14:47:04.000Z</time>
      </trkpt>
      <trkpt lat="43.51519" lon="6.87538">
        <ele>171.1</ele>
        <time>2022-11-06T14:47:07.000Z</time>
      </trkpt>
      <trkpt lat="43.51519" lon="6.87538">
        <ele>171</ele>
        <time>2022-11-06T14:47:08.000Z</time>
      </trkpt>
      <trkpt lat="43.51521" lon="6.87538">
        <ele>169.4</ele>
        <time>2022-11-06T14:47:26.000Z</time>
      </trkpt>
      <trkpt lat="43.51521" lon="6.87538">
        <ele>169.4</ele>
        <time>2022-11-06T14:47:28.000Z</time>
      </trkpt>
      <trkpt lat="43.5152" lon="6.87538">
        <ele>169.7</ele>
        <time>2022-11-06T14:47:31.000Z</time>
      </trkpt>
      <trkpt lat="43.5152" lon="6.87538">
        <ele>170</ele>
        <time>2022-11-06T14:47:32.000Z</time>
      </trkpt>
      <trkpt lat="43.5152" lon="6.87538">
        <ele>169.9</ele>
        <time>2022-11-06T14:47:35.000Z</time>
      </trkpt>
      <trkpt lat="43.5152" lon="6.87538">
        <ele>169.9</ele>
        <time>2022-11-06T14:47:49.000Z</time>
      </trkpt>
      <trkpt lat="43.51521" lon="6.87536">
        <ele>170.1</ele>
        <time>2022-11-06T14:47:54.000Z</time>
      </trkpt>
      <trkpt lat="43.51521" lon="6.87536">
        <ele>170</ele>
        <time>2022-11-06T14:47:56.000Z</time>
      </trkpt>
      <trkpt lat="43.51521" lon="6.87535">
        <ele>170.1</ele>
        <time>2022-11-06T14:47:58.000Z</time>
      </trkpt>
      <trkpt lat="43.51522" lon="6.87535">
        <ele>170.3</ele>
        <time>2022-11-06T14:47:59.000Z</time>
      </trkpt>
      <trkpt lat="43.51522" lon="6.87535">
        <ele>170.1</ele>
        <time>2022-11-06T14:48:00.000Z</time>
      </trkpt>
      <trkpt lat="43.51521" lon="6.87535">
        <ele>170.4</ele>
        <time>2022-11-06T14:48:05.000Z</time>
      </trkpt>
      <trkpt lat="43.5152" lon="6.87541">
        <ele>170.2</ele>
        <time>2022-11-06T14:48:12.000Z</time>
      </trkpt>
      <trkpt lat="43.5152" lon="6.87541">
        <ele>170.1</ele>
        <time>2022-11-06T14:48:13.000Z</time>
      </trkpt>
      <trkpt lat="43.51518" lon="6.87544">
        <ele>169.6</ele>
        <time>2022-11-06T14:48:17.000Z</time>
      </trkpt>
      <trkpt lat="43.51518" lon="6.87544">
        <ele>169.5</ele>
        <time>2022-11-06T14:48:18.000Z</time>
      </trkpt>
      <trkpt lat="43.51518" lon="6.87544">
        <ele>169.5</ele>
        <time>2022-11-06T14:48:19.000Z</time>
      </trkpt>
      <trkpt lat="43.51518" lon="6.87545">
        <ele>169.3</ele>
        <time>2022-11-06T14:48:21.000Z</time>
      </trkpt>
      <trkpt lat="43.51525" lon="6.87553">
        <ele>166.9</ele>
        <time>2022-11-06T14:48:37.000Z</time>
      </trkpt>
      <trkpt lat="43.51535" lon="6.87556">
        <ele>164.8</ele>
        <time>2022-11-06T14:48:50.000Z</time>
      </trkpt>
      <trkpt lat="43.51545" lon="6.87557">
        <ele>163</ele>
        <time>2022-11-06T14:49:04.000Z</time>
      </trkpt>
      <trkpt lat="43.51554" lon="6.87558">
        <ele>161.3</ele>
        <time>2022-11-06T14:49:16.000Z</time>
      </trkpt>
      <trkpt lat="43.51563" lon="6.87561">
        <ele>159.8</ele>
        <time>2022-11-06T14:49:26.000Z</time>
      </trkpt>
      <trkpt lat="43.51572" lon="6.8756">
        <ele>158.5</ele>
        <time>2022-11-06T14:49:36.000Z</time>
      </trkpt>
      <trkpt lat="43.51581" lon="6.87563">
        <ele>156.8</ele>
        <time>2022-11-06T14:49:46.000Z</time>
      </trkpt>
      <trkpt lat="43.51589" lon="6.87571">
        <ele>155</ele>
        <time>2022-11-06T14:50:01.000Z</time>
      </trkpt>
      <trkpt lat="43.51597" lon="6.87579">
        <ele>153.2</ele>
        <time>2022-11-06T14:50:14.000Z</time>
      </trkpt>
      <trkpt lat="43.51604" lon="6.87586">
        <ele>151.5</ele>
        <time>2022-11-06T14:50:27.000Z</time>
      </trkpt>
      <trkpt lat="43.51613" lon="6.87589">
        <ele>149.8</ele>
        <time>2022-11-06T14:50:38.000Z</time>
      </trkpt>
      <trkpt lat="43.51622" lon="6.87593">
        <ele>148</ele>
        <time>2022-11-06T14:50:49.000Z</time>
      </trkpt>
      <trkpt lat="43.51631" lon="6.87598">
        <ele>146.4</ele>
        <time>2022-11-06T14:51:00.000Z</time>
      </trkpt>
      <trkpt lat="43.51638" lon="6.87591">
        <ele>145.1</ele>
        <time>2022-11-06T14:51:09.000Z</time>
      </trkpt>
      <trkpt lat="43.51642" lon="6.87578">
        <ele>143.5</ele>
        <time>2022-11-06T14:51:20.000Z</time>
      </trkpt>
      <trkpt lat="43.51643" lon="6.87565">
        <ele>142.5</ele>
        <time>2022-11-06T14:51:29.000Z</time>
      </trkpt>
      <trkpt lat="43.51648" lon="6.87555">
        <ele>141.3</ele>
        <time>2022-11-06T14:51:37.000Z</time>
      </trkpt>
      <trkpt lat="43.51657" lon="6.87551">
        <ele>140</ele>
        <time>2022-11-06T14:51:45.000Z</time>
      </trkpt>
      <trkpt lat="43.51662" lon="6.8754">
        <ele>137.4</ele>
        <time>2022-11-06T14:51:58.000Z</time>
      </trkpt>
      <trkpt lat="43.51669" lon="6.87531">
        <ele>136.1</ele>
        <time>2022-11-06T14:52:09.000Z</time>
      </trkpt>
      <trkpt lat="43.51678" lon="6.87529">
        <ele>134.6</ele>
        <time>2022-11-06T14:52:21.000Z</time>
      </trkpt>
      <trkpt lat="43.51685" lon="6.8752">
        <ele>133.4</ele>
        <time>2022-11-06T14:52:32.000Z</time>
      </trkpt>
      <trkpt lat="43.51692" lon="6.87512">
        <ele>131.8</ele>
        <time>2022-11-06T14:52:45.000Z</time>
      </trkpt>
      <trkpt lat="43.51701" lon="6.87514">
        <ele>130.2</ele>
        <time>2022-11-06T14:52:59.000Z</time>
      </trkpt>
      <trkpt lat="43.51709" lon="6.8752">
        <ele>128.6</ele>
        <time>2022-11-06T14:53:14.000Z</time>
      </trkpt>
      <trkpt lat="43.51719" lon="6.87522">
        <ele>127.6</ele>
        <time>2022-11-06T14:53:27.000Z</time>
      </trkpt>
      <trkpt lat="43.51727" lon="6.87528">
        <ele>126.4</ele>
        <time>2022-11-06T14:53:38.000Z</time>
      </trkpt>
      <trkpt lat="43.51735" lon="6.87534">
        <ele>124.5</ele>
        <time>2022-11-06T14:53:51.000Z</time>
      </trkpt>
      <trkpt lat="43.51744" lon="6.87536">
        <ele>122.9</ele>
        <time>2022-11-06T14:54:02.000Z</time>
      </trkpt>
      <trkpt lat="43.51752" lon="6.87545">
        <ele>121</ele>
        <time>2022-11-06T14:54:16.000Z</time>
      </trkpt>
      <trkpt lat="43.5176" lon="6.8755">
        <ele>118.9</ele>
        <time>2022-11-06T14:54:28.000Z</time>
      </trkpt>
      <trkpt lat="43.51767" lon="6.87559">
        <ele>117.9</ele>
        <time>2022-11-06T14:54:38.000Z</time>
      </trkpt>
      <trkpt lat="43.51776" lon="6.87564">
        <ele>116</ele>
        <time>2022-11-06T14:54:50.000Z</time>
      </trkpt>
      <trkpt lat="43.51784" lon="6.87571">
        <ele>114.4</ele>
        <time>2022-11-06T14:55:01.000Z</time>
      </trkpt>
      <trkpt lat="43.5179" lon="6.87581">
        <ele>113</ele>
        <time>2022-11-06T14:55:12.000Z</time>
      </trkpt>
      <trkpt lat="43.51796" lon="6.87591">
        <ele>110.9</ele>
        <time>2022-11-06T14:55:25.000Z</time>
      </trkpt>
      <trkpt lat="43.51798" lon="6.87603">
        <ele>109.7</ele>
        <time>2022-11-06T14:55:38.000Z</time>
      </trkpt>
      <trkpt lat="43.51793" lon="6.87614">
        <ele>108.3</ele>
        <time>2022-11-06T14:55:49.000Z</time>
      </trkpt>
      <trkpt lat="43.51789" lon="6.87626">
        <ele>107.1</ele>
        <time>2022-11-06T14:56:02.000Z</time>
      </trkpt>
      <trkpt lat="43.51785" lon="6.87638">
        <ele>105.3</ele>
        <time>2022-11-06T14:56:20.000Z</time>
      </trkpt>
      <trkpt lat="43.51783" lon="6.8765">
        <ele>104.2</ele>
        <time>2022-11-06T14:56:32.000Z</time>
      </trkpt>
      <trkpt lat="43.51779" lon="6.87662">
        <ele>103.4</ele>
        <time>2022-11-06T14:56:45.000Z</time>
      </trkpt>
      <trkpt lat="43.51781" lon="6.87674">
        <ele>103</ele>
        <time>2022-11-06T14:57:05.000Z</time>
      </trkpt>
      <trkpt lat="43.51782" lon="6.87673">
        <ele>103.3</ele>
        <time>2022-11-06T14:57:09.000Z</time>
      </trkpt>
      <trkpt lat="43.51782" lon="6.87673">
        <ele>103.4</ele>
        <time>2022-11-06T14:57:10.000Z</time>
      </trkpt>
      <trkpt lat="43.51782" lon="6.87673">
        <ele>103.6</ele>
        <time>2022-11-06T14:57:26.000Z</time>
      </trkpt>
      <trkpt lat="43.51782" lon="6.87673">
        <ele>103.3</ele>
        <time>2022-11-06T14:57:27.000Z</time>
      </trkpt>
      <trkpt lat="43.51782" lon="6.87673">
        <ele>103.4</ele>
        <time>2022-11-06T14:57:28.000Z</time>
      </trkpt>
      <trkpt lat="43.51782" lon="6.87673">
        <ele>103.6</ele>
        <time>2022-11-06T14:57:29.000Z</time>
      </trkpt>
      <trkpt lat="43.51782" lon="6.87673">
        <ele>103.4</ele>
        <time>2022-11-06T14:57:33.000Z</time>
      </trkpt>
      <trkpt lat="43.51782" lon="6.87673">
        <ele>103.3</ele>
        <time>2022-11-06T14:57:34.000Z</time>
      </trkpt>
      <trkpt lat="43.51782" lon="6.87673">
        <ele>103.5</ele>
        <time>2022-11-06T14:57:36.000Z</time>
      </trkpt>
      <trkpt lat="43.5178" lon="6.87685">
        <ele>100.6</ele>
        <time>2022-11-06T14:57:59.000Z</time>
      </trkpt>
      <trkpt lat="43.51782" lon="6.87688">
        <ele>100.1</ele>
        <time>2022-11-06T14:58:05.000Z</time>
      </trkpt>
      <trkpt lat="43.51782" lon="6.87689">
        <ele>100</ele>
        <time>2022-11-06T14:58:07.000Z</time>
      </trkpt>
      <trkpt lat="43.51783" lon="6.87692">
        <ele>99.3</ele>
        <time>2022-11-06T14:58:17.000Z</time>
      </trkpt>
      <trkpt lat="43.51783" lon="6.87692">
        <ele>99.3</ele>
        <time>2022-11-06T14:58:18.000Z</time>
      </trkpt>
      <trkpt lat="43.51783" lon="6.87692">
        <ele>99.3</ele>
        <time>2022-11-06T14:58:19.000Z</time>
      </trkpt>
      <trkpt lat="43.51783" lon="6.87693">
        <ele>99.3</ele>
        <time>2022-11-06T14:58:20.000Z</time>
      </trkpt>
      <trkpt lat="43.51786" lon="6.87697">
        <ele>100.2</ele>
        <time>2022-11-06T14:58:29.000Z</time>
      </trkpt>
      <trkpt lat="43.51786" lon="6.87697">
        <ele>100.1</ele>
        <time>2022-11-06T14:58:31.000Z</time>
      </trkpt>
      <trkpt lat="43.51786" lon="6.87698">
        <ele>100.3</ele>
        <time>2022-11-06T14:58:33.000Z</time>
      </trkpt>
      <trkpt lat="43.51786" lon="6.87699">
        <ele>100.2</ele>
        <time>2022-11-06T14:58:43.000Z</time>
      </trkpt>
      <trkpt lat="43.51786" lon="6.87699">
        <ele>100.3</ele>
        <time>2022-11-06T14:58:44.000Z</time>
      </trkpt>
      <trkpt lat="43.51786" lon="6.87699">
        <ele>100.2</ele>
        <time>2022-11-06T14:58:45.000Z</time>
      </trkpt>
      <trkpt lat="43.51786" lon="6.87699">
        <ele>100.2</ele>
        <time>2022-11-06T14:58:46.000Z</time>
      </trkpt>
      <trkpt lat="43.51786" lon="6.87699">
        <ele>100.2</ele>
        <time>2022-11-06T14:58:48.000Z</time>
      </trkpt>
      <trkpt lat="43.51786" lon="6.87699">
        <ele>100.2</ele>
        <time>2022-11-06T14:58:49.000Z</time>
      </trkpt>
      <trkpt lat="43.51787" lon="6.87698">
        <ele>100.3</ele>
        <time>2022-11-06T14:58:51.000Z</time>
      </trkpt>
      <trkpt lat="43.51787" lon="6.87697">
        <ele>100.2</ele>
        <time>2022-11-06T14:58:53.000Z</time>
      </trkpt>
      <trkpt lat="43.51787" lon="6.87696">
        <ele>100.4</ele>
        <time>2022-11-06T14:58:55.000Z</time>
      </trkpt>
      <trkpt lat="43.51787" lon="6.87696">
        <ele>100.5</ele>
        <time>2022-11-06T14:58:57.000Z</time>
      </trkpt>
      <trkpt lat="43.51787" lon="6.87695">
        <ele>100.7</ele>
        <time>2022-11-06T14:59:00.000Z</time>
      </trkpt>
      <trkpt lat="43.51787" lon="6.87695">
        <ele>100.5</ele>
        <time>2022-11-06T14:59:01.000Z</time>
      </trkpt>
      <trkpt lat="43.51787" lon="6.87694">
        <ele>100.7</ele>
        <time>2022-11-06T14:59:14.000Z</time>
      </trkpt>
      <trkpt lat="43.51787" lon="6.87694">
        <ele>100.8</ele>
        <time>2022-11-06T14:59:15.000Z</time>
      </trkpt>
      <trkpt lat="43.51787" lon="6.87694">
        <ele>100.7</ele>
        <time>2022-11-06T14:59:18.000Z</time>
      </trkpt>
      <trkpt lat="43.51787" lon="6.87694">
        <ele>100.8</ele>
        <time>2022-11-06T14:59:19.000Z</time>
      </trkpt>
      <trkpt lat="43.51788" lon="6.87694">
        <ele>100.7</ele>
        <time>2022-11-06T14:59:21.000Z</time>
      </trkpt>
      <trkpt lat="43.51779" lon="6.87697">
        <ele>102.3</ele>
        <time>2022-11-06T14:59:36.000Z</time>
      </trkpt>
      <trkpt lat="43.51775" lon="6.87709">
        <ele>103.2</ele>
        <time>2022-11-06T14:59:51.000Z</time>
      </trkpt>
      <trkpt lat="43.51778" lon="6.8772">
        <ele>102.7</ele>
        <time>2022-11-06T15:00:03.000Z</time>
      </trkpt>
      <trkpt lat="43.51778" lon="6.87721">
        <ele>102.6</ele>
        <time>2022-11-06T15:00:07.000Z</time>
      </trkpt>
      <trkpt lat="43.51785" lon="6.8773">
        <ele>100.6</ele>
        <time>2022-11-06T15:00:24.000Z</time>
      </trkpt>
      <trkpt lat="43.51791" lon="6.87737">
        <ele>99.2</ele>
        <time>2022-11-06T15:00:38.000Z</time>
      </trkpt>
      <trkpt lat="43.51791" lon="6.87737">
        <ele>99.3</ele>
        <time>2022-11-06T15:00:40.000Z</time>
      </trkpt>
      <trkpt lat="43.51791" lon="6.87737">
        <ele>99.4</ele>
        <time>2022-11-06T15:00:41.000Z</time>
      </trkpt>
      <trkpt lat="43.51791" lon="6.87738">
        <ele>99.4</ele>
        <time>2022-11-06T15:00:45.000Z</time>
      </trkpt>
      <trkpt lat="43.51791" lon="6.87738">
        <ele>99.3</ele>
        <time>2022-11-06T15:00:46.000Z</time>
      </trkpt>
      <trkpt lat="43.51791" lon="6.87738">
        <ele>99.4</ele>
        <time>2022-11-06T15:00:52.000Z</time>
      </trkpt>
      <trkpt lat="43.51795" lon="6.87741">
        <ele>98.8</ele>
        <time>2022-11-06T15:01:04.000Z</time>
      </trkpt>
      <trkpt lat="43.51795" lon="6.87741">
        <ele>98.9</ele>
        <time>2022-11-06T15:01:07.000Z</time>
      </trkpt>
      <trkpt lat="43.51797" lon="6.87744">
        <ele>98.3</ele>
        <time>2022-11-06T15:01:14.000Z</time>
      </trkpt>
      <trkpt lat="43.51797" lon="6.87744">
        <ele>98.2</ele>
        <time>2022-11-06T15:01:15.000Z</time>
      </trkpt>
      <trkpt lat="43.51797" lon="6.87744">
        <ele>98.3</ele>
        <time>2022-11-06T15:01:16.000Z</time>
      </trkpt>
      <trkpt lat="43.51797" lon="6.87743">
        <ele>98.4</ele>
        <time>2022-11-06T15:01:24.000Z</time>
      </trkpt>
      <trkpt lat="43.51798" lon="6.87743">
        <ele>97.9</ele>
        <time>2022-11-06T15:01:28.000Z</time>
      </trkpt>
      <trkpt lat="43.51798" lon="6.87743">
        <ele>98.3</ele>
        <time>2022-11-06T15:01:31.000Z</time>
      </trkpt>
      <trkpt lat="43.51798" lon="6.87746">
        <ele>98</ele>
        <time>2022-11-06T15:01:39.000Z</time>
      </trkpt>
      <trkpt lat="43.51797" lon="6.87746">
        <ele>98</ele>
        <time>2022-11-06T15:01:40.000Z</time>
      </trkpt>
      <trkpt lat="43.51797" lon="6.87746">
        <ele>98</ele>
        <time>2022-11-06T15:01:41.000Z</time>
      </trkpt>
      <trkpt lat="43.51798" lon="6.87747">
        <ele>97.9</ele>
        <time>2022-11-06T15:01:44.000Z</time>
      </trkpt>
      <trkpt lat="43.51797" lon="6.87747">
        <ele>98</ele>
        <time>2022-11-06T15:01:47.000Z</time>
      </trkpt>
      <trkpt lat="43.51797" lon="6.87748">
        <ele>97.8</ele>
        <time>2022-11-06T15:01:58.000Z</time>
      </trkpt>
      <trkpt lat="43.51797" lon="6.87748">
        <ele>97.7</ele>
        <time>2022-11-06T15:02:00.000Z</time>
      </trkpt>
      <trkpt lat="43.51797" lon="6.87748">
        <ele>97.7</ele>
        <time>2022-11-06T15:02:02.000Z</time>
      </trkpt>
      <trkpt lat="43.51797" lon="6.87748">
        <ele>97.7</ele>
        <time>2022-11-06T15:02:03.000Z</time>
      </trkpt>
      <trkpt lat="43.51798" lon="6.87748">
        <ele>97.8</ele>
        <time>2022-11-06T15:02:09.000Z</time>
      </trkpt>
      <trkpt lat="43.51798" lon="6.87749">
        <ele>97.4</ele>
        <time>2022-11-06T15:02:16.000Z</time>
      </trkpt>
      <trkpt lat="43.51798" lon="6.87749">
        <ele>97.4</ele>
        <time>2022-11-06T15:02:23.000Z</time>
      </trkpt>
      <trkpt lat="43.51799" lon="6.87749">
        <ele>97.2</ele>
        <time>2022-11-06T15:02:28.000Z</time>
      </trkpt>
      <trkpt lat="43.51799" lon="6.87749">
        <ele>97.3</ele>
        <time>2022-11-06T15:02:34.000Z</time>
      </trkpt>
      <trkpt lat="43.51797" lon="6.87754">
        <ele>97.2</ele>
        <time>2022-11-06T15:02:42.000Z</time>
      </trkpt>
      <trkpt lat="43.51797" lon="6.87754">
        <ele>97.1</ele>
        <time>2022-11-06T15:02:44.000Z</time>
      </trkpt>
      <trkpt lat="43.51798" lon="6.87753">
        <ele>97.2</ele>
        <time>2022-11-06T15:02:46.000Z</time>
      </trkpt>
      <trkpt lat="43.51798" lon="6.87753">
        <ele>97.1</ele>
        <time>2022-11-06T15:02:49.000Z</time>
      </trkpt>
      <trkpt lat="43.51801" lon="6.87748">
        <ele>97</ele>
        <time>2022-11-06T15:02:59.000Z</time>
      </trkpt>
      <trkpt lat="43.51801" lon="6.87749">
        <ele>97.1</ele>
        <time>2022-11-06T15:03:00.000Z</time>
      </trkpt>
      <trkpt lat="43.51804" lon="6.87748">
        <ele>97</ele>
        <time>2022-11-06T15:03:06.000Z</time>
      </trkpt>
      <trkpt lat="43.51804" lon="6.87749">
        <ele>96.9</ele>
        <time>2022-11-06T15:03:07.000Z</time>
      </trkpt>
      <trkpt lat="43.51804" lon="6.87749">
        <ele>96.9</ele>
        <time>2022-11-06T15:03:09.000Z</time>
      </trkpt>
      <trkpt lat="43.51804" lon="6.87749">
        <ele>97</ele>
        <time>2022-11-06T15:03:10.000Z</time>
      </trkpt>
      <trkpt lat="43.51809" lon="6.8776">
        <ele>96.5</ele>
        <time>2022-11-06T15:03:24.000Z</time>
      </trkpt>
      <trkpt lat="43.51809" lon="6.87773">
        <ele>96.4</ele>
        <time>2022-11-06T15:03:34.000Z</time>
      </trkpt>
      <trkpt lat="43.51815" lon="6.87783">
        <ele>96.3</ele>
        <time>2022-11-06T15:03:53.000Z</time>
      </trkpt>
      <trkpt lat="43.51823" lon="6.87788">
        <ele>96.3</ele>
        <time>2022-11-06T15:04:03.000Z</time>
      </trkpt>
      <trkpt lat="43.5183" lon="6.87797">
        <ele>96.1</ele>
        <time>2022-11-06T15:04:10.000Z</time>
      </trkpt>
      <trkpt lat="43.51836" lon="6.87807">
        <ele>95.6</ele>
        <time>2022-11-06T15:04:22.000Z</time>
      </trkpt>
      <trkpt lat="43.51842" lon="6.87819">
        <ele>95.4</ele>
        <time>2022-11-06T15:04:32.000Z</time>
      </trkpt>
      <trkpt lat="43.51847" lon="6.87829">
        <ele>95.1</ele>
        <time>2022-11-06T15:04:40.000Z</time>
      </trkpt>
      <trkpt lat="43.51852" lon="6.8784">
        <ele>94.8</ele>
        <time>2022-11-06T15:04:49.000Z</time>
      </trkpt>
      <trkpt lat="43.51858" lon="6.8785">
        <ele>94.8</ele>
        <time>2022-11-06T15:04:57.000Z</time>
      </trkpt>
      <trkpt lat="43.51862" lon="6.87861">
        <ele>94.7</ele>
        <time>2022-11-06T15:05:05.000Z</time>
      </trkpt>
      <trkpt lat="43.51866" lon="6.87874">
        <ele>93.9</ele>
        <time>2022-11-06T15:05:15.000Z</time>
      </trkpt>
      <trkpt lat="43.51869" lon="6.87887">
        <ele>94</ele>
        <time>2022-11-06T15:05:23.000Z</time>
      </trkpt>
      <trkpt lat="43.51873" lon="6.879">
        <ele>93.6</ele>
        <time>2022-11-06T15:05:32.000Z</time>
      </trkpt>
      <trkpt lat="43.51876" lon="6.87912">
        <ele>93.4</ele>
        <time>2022-11-06T15:05:40.000Z</time>
      </trkpt>
      <trkpt lat="43.51883" lon="6.87922">
        <ele>93.2</ele>
        <time>2022-11-06T15:05:49.000Z</time>
      </trkpt>
      <trkpt lat="43.51888" lon="6.87933">
        <ele>92.8</ele>
        <time>2022-11-06T15:05:58.000Z</time>
      </trkpt>
      <trkpt lat="43.51893" lon="6.87945">
        <ele>92.9</ele>
        <time>2022-11-06T15:06:05.000Z</time>
      </trkpt>
      <trkpt lat="43.51896" lon="6.87958">
        <ele>93.2</ele>
        <time>2022-11-06T15:06:13.000Z</time>
      </trkpt>
      <trkpt lat="43.519" lon="6.8797">
        <ele>92.5</ele>
        <time>2022-11-06T15:06:22.000Z</time>
      </trkpt>
      <trkpt lat="43.51906" lon="6.87981">
        <ele>92.3</ele>
        <time>2022-11-06T15:06:30.000Z</time>
      </trkpt>
      <trkpt lat="43.5191" lon="6.87992">
        <ele>92.2</ele>
        <time>2022-11-06T15:06:39.000Z</time>
      </trkpt>
      <trkpt lat="43.51913" lon="6.88004">
        <ele>92</ele>
        <time>2022-11-06T15:06:49.000Z</time>
      </trkpt>
      <trkpt lat="43.5192" lon="6.88013">
        <ele>91.2</ele>
        <time>2022-11-06T15:06:58.000Z</time>
      </trkpt>
      <trkpt lat="43.51929" lon="6.88019">
        <ele>90.3</ele>
        <time>2022-11-06T15:07:05.000Z</time>
      </trkpt>
      <trkpt lat="43.51937" lon="6.88023">
        <ele>90.3</ele>
        <time>2022-11-06T15:07:13.000Z</time>
      </trkpt>
      <trkpt lat="43.51947" lon="6.88028">
        <ele>89.5</ele>
        <time>2022-11-06T15:07:22.000Z</time>
      </trkpt>
      <trkpt lat="43.51953" lon="6.88038">
        <ele>89.5</ele>
        <time>2022-11-06T15:07:33.000Z</time>
      </trkpt>
      <trkpt lat="43.51954" lon="6.88039">
        <ele>89.1</ele>
        <time>2022-11-06T15:07:39.000Z</time>
      </trkpt>
      <trkpt lat="43.51954" lon="6.8804">
        <ele>88.9</ele>
        <time>2022-11-06T15:07:40.000Z</time>
      </trkpt>
      <trkpt lat="43.5196" lon="6.8805">
        <ele>88.4</ele>
        <time>2022-11-06T15:07:52.000Z</time>
      </trkpt>
      <trkpt lat="43.51969" lon="6.88047">
        <ele>88.8</ele>
        <time>2022-11-06T15:08:03.000Z</time>
      </trkpt>
      <trkpt lat="43.51978" lon="6.88052">
        <ele>89.8</ele>
        <time>2022-11-06T15:08:19.000Z</time>
      </trkpt>
      <trkpt lat="43.51983" lon="6.88062">
        <ele>90.1</ele>
        <time>2022-11-06T15:08:28.000Z</time>
      </trkpt>
      <trkpt lat="43.51988" lon="6.88074">
        <ele>89.7</ele>
        <time>2022-11-06T15:08:37.000Z</time>
      </trkpt>
      <trkpt lat="43.51994" lon="6.88084">
        <ele>89.8</ele>
        <time>2022-11-06T15:08:46.000Z</time>
      </trkpt>
      <trkpt lat="43.52" lon="6.88093">
        <ele>90.3</ele>
        <time>2022-11-06T15:08:55.000Z</time>
      </trkpt>
      <trkpt lat="43.52006" lon="6.88105">
        <ele>90.2</ele>
        <time>2022-11-06T15:09:03.000Z</time>
      </trkpt>
      <trkpt lat="43.52013" lon="6.88114">
        <ele>90.2</ele>
        <time>2022-11-06T15:09:12.000Z</time>
      </trkpt>
      <trkpt lat="43.52019" lon="6.88125">
        <ele>89.9</ele>
        <time>2022-11-06T15:09:21.000Z</time>
      </trkpt>
      <trkpt lat="43.52026" lon="6.88134">
        <ele>89.7</ele>
        <time>2022-11-06T15:09:31.000Z</time>
      </trkpt>
      <trkpt lat="43.52028" lon="6.88147">
        <ele>89.4</ele>
        <time>2022-11-06T15:09:42.000Z</time>
      </trkpt>
      <trkpt lat="43.5203" lon="6.8816">
        <ele>88.6</ele>
        <time>2022-11-06T15:09:51.000Z</time>
      </trkpt>
      <trkpt lat="43.52036" lon="6.88171">
        <ele>88.4</ele>
        <time>2022-11-06T15:10:01.000Z</time>
      </trkpt>
      <trkpt lat="43.52043" lon="6.88179">
        <ele>88.5</ele>
        <time>2022-11-06T15:10:10.000Z</time>
      </trkpt>
      <trkpt lat="43.52048" lon="6.8819">
        <ele>88.1</ele>
        <time>2022-11-06T15:10:18.000Z</time>
      </trkpt>
      <trkpt lat="43.52053" lon="6.88201">
        <ele>88.1</ele>
        <time>2022-11-06T15:10:27.000Z</time>
      </trkpt>
      <trkpt lat="43.52058" lon="6.88213">
        <ele>87.9</ele>
        <time>2022-11-06T15:10:35.000Z</time>
      </trkpt>
      <trkpt lat="43.52062" lon="6.88225">
        <ele>87.1</ele>
        <time>2022-11-06T15:10:45.000Z</time>
      </trkpt>
      <trkpt lat="43.52066" lon="6.88238">
        <ele>86.5</ele>
        <time>2022-11-06T15:10:54.000Z</time>
      </trkpt>
      <trkpt lat="43.52069" lon="6.88251">
        <ele>86.1</ele>
        <time>2022-11-06T15:11:06.000Z</time>
      </trkpt>
      <trkpt lat="43.52075" lon="6.8826">
        <ele>85.8</ele>
        <time>2022-11-06T15:11:13.000Z</time>
      </trkpt>
      <trkpt lat="43.52082" lon="6.8827">
        <ele>85.7</ele>
        <time>2022-11-06T15:11:21.000Z</time>
      </trkpt>
      <trkpt lat="43.52089" lon="6.88279">
        <ele>85.6</ele>
        <time>2022-11-06T15:11:29.000Z</time>
      </trkpt>
      <trkpt lat="43.52095" lon="6.88289">
        <ele>85.4</ele>
        <time>2022-11-06T15:11:36.000Z</time>
      </trkpt>
      <trkpt lat="43.521" lon="6.883">
        <ele>85</ele>
        <time>2022-11-06T15:11:45.000Z</time>
      </trkpt>
      <trkpt lat="43.52106" lon="6.88308">
        <ele>85</ele>
        <time>2022-11-06T15:11:57.000Z</time>
      </trkpt>
      <trkpt lat="43.52106" lon="6.88309">
        <ele>85.1</ele>
        <time>2022-11-06T15:12:00.000Z</time>
      </trkpt>
      <trkpt lat="43.52107" lon="6.8831">
        <ele>85</ele>
        <time>2022-11-06T15:12:06.000Z</time>
      </trkpt>
      <trkpt lat="43.52108" lon="6.88311">
        <ele>84.7</ele>
        <time>2022-11-06T15:12:15.000Z</time>
      </trkpt>
      <trkpt lat="43.52107" lon="6.88311">
        <ele>84.5</ele>
        <time>2022-11-06T15:12:19.000Z</time>
      </trkpt>
      <trkpt lat="43.52107" lon="6.88311">
        <ele>84.1</ele>
        <time>2022-11-06T15:12:21.000Z</time>
      </trkpt>
      <trkpt lat="43.52105" lon="6.88324">
        <ele>84</ele>
        <time>2022-11-06T15:12:36.000Z</time>
      </trkpt>
      <trkpt lat="43.52098" lon="6.88332">
        <ele>83.3</ele>
        <time>2022-11-06T15:12:45.000Z</time>
      </trkpt>
      <trkpt lat="43.5209" lon="6.8834">
        <ele>83.5</ele>
        <time>2022-11-06T15:12:54.000Z</time>
      </trkpt>
      <trkpt lat="43.5209" lon="6.88353">
        <ele>83.2</ele>
        <time>2022-11-06T15:13:05.000Z</time>
      </trkpt>
      <trkpt lat="43.52091" lon="6.88356">
        <ele>83.2</ele>
        <time>2022-11-06T15:13:11.000Z</time>
      </trkpt>
      <trkpt lat="43.52091" lon="6.88356">
        <ele>82.9</ele>
        <time>2022-11-06T15:13:19.000Z</time>
      </trkpt>
      <trkpt lat="43.52091" lon="6.88355">
        <ele>82.8</ele>
        <time>2022-11-06T15:13:20.000Z</time>
      </trkpt>
      <trkpt lat="43.52091" lon="6.88356">
        <ele>82.6</ele>
        <time>2022-11-06T15:13:28.000Z</time>
      </trkpt>
      <trkpt lat="43.5209" lon="6.88357">
        <ele>82.4</ele>
        <time>2022-11-06T15:13:34.000Z</time>
      </trkpt>
      <trkpt lat="43.5209" lon="6.88358">
        <ele>82.3</ele>
        <time>2022-11-06T15:13:36.000Z</time>
      </trkpt>
      <trkpt lat="43.5209" lon="6.88359">
        <ele>82.3</ele>
        <time>2022-11-06T15:13:40.000Z</time>
      </trkpt>
      <trkpt lat="43.52089" lon="6.8836">
        <ele>82.2</ele>
        <time>2022-11-06T15:13:41.000Z</time>
      </trkpt>
      <trkpt lat="43.52088" lon="6.88361">
        <ele>82</ele>
        <time>2022-11-06T15:13:46.000Z</time>
      </trkpt>
      <trkpt lat="43.52088" lon="6.88361">
        <ele>82</ele>
        <time>2022-11-06T15:13:49.000Z</time>
      </trkpt>
      <trkpt lat="43.52087" lon="6.88361">
        <ele>82</ele>
        <time>2022-11-06T15:13:52.000Z</time>
      </trkpt>
      <trkpt lat="43.52087" lon="6.88362">
        <ele>82.1</ele>
        <time>2022-11-06T15:13:53.000Z</time>
      </trkpt>
      <trkpt lat="43.5208" lon="6.88371">
        <ele>82.2</ele>
        <time>2022-11-06T15:14:07.000Z</time>
      </trkpt>
      <trkpt lat="43.52075" lon="6.88383">
        <ele>82.1</ele>
        <time>2022-11-06T15:14:16.000Z</time>
      </trkpt>
      <trkpt lat="43.52069" lon="6.88393">
        <ele>81.8</ele>
        <time>2022-11-06T15:14:25.000Z</time>
      </trkpt>
      <trkpt lat="43.52069" lon="6.88407">
        <ele>82</ele>
        <time>2022-11-06T15:14:34.000Z</time>
      </trkpt>
      <trkpt lat="43.52071" lon="6.88419">
        <ele>82.3</ele>
        <time>2022-11-06T15:14:43.000Z</time>
      </trkpt>
      <trkpt lat="43.52075" lon="6.88431">
        <ele>81.6</ele>
        <time>2022-11-06T15:14:56.000Z</time>
      </trkpt>
      <trkpt lat="43.52081" lon="6.88441">
        <ele>81.8</ele>
        <time>2022-11-06T15:15:07.000Z</time>
      </trkpt>
      <trkpt lat="43.52079" lon="6.88454">
        <ele>81.2</ele>
        <time>2022-11-06T15:15:22.000Z</time>
      </trkpt>
      <trkpt lat="43.52074" lon="6.88465">
        <ele>81.1</ele>
        <time>2022-11-06T15:15:42.000Z</time>
      </trkpt>
      <trkpt lat="43.52075" lon="6.88469">
        <ele>81.6</ele>
        <time>2022-11-06T15:15:53.000Z</time>
      </trkpt>
      <trkpt lat="43.52076" lon="6.88469">
        <ele>81.6</ele>
        <time>2022-11-06T15:15:54.000Z</time>
      </trkpt>
      <trkpt lat="43.52075" lon="6.88469">
        <ele>81.8</ele>
        <time>2022-11-06T15:15:56.000Z</time>
      </trkpt>
      <trkpt lat="43.52076" lon="6.88468">
        <ele>81.5</ele>
        <time>2022-11-06T15:16:02.000Z</time>
      </trkpt>
      <trkpt lat="43.52078" lon="6.8847">
        <ele>81.6</ele>
        <time>2022-11-06T15:16:10.000Z</time>
      </trkpt>
      <trkpt lat="43.52078" lon="6.8847">
        <ele>81.6</ele>
        <time>2022-11-06T15:16:15.000Z</time>
      </trkpt>
      <trkpt lat="43.5208" lon="6.88481">
        <ele>81.8</ele>
        <time>2022-11-06T15:16:32.000Z</time>
      </trkpt>
      <trkpt lat="43.5208" lon="6.88482">
        <ele>81.8</ele>
        <time>2022-11-06T15:16:38.000Z</time>
      </trkpt>
      <trkpt lat="43.5208" lon="6.88486">
        <ele>81.7</ele>
        <time>2022-11-06T15:16:45.000Z</time>
      </trkpt>
      <trkpt lat="43.5208" lon="6.88486">
        <ele>81.8</ele>
        <time>2022-11-06T15:16:47.000Z</time>
      </trkpt>
      <trkpt lat="43.5208" lon="6.88498">
        <ele>81.2</ele>
        <time>2022-11-06T15:17:02.000Z</time>
      </trkpt>
      <trkpt lat="43.52077" lon="6.8851">
        <ele>81</ele>
        <time>2022-11-06T15:17:12.000Z</time>
      </trkpt>
      <trkpt lat="43.52068" lon="6.88515">
        <ele>80.6</ele>
        <time>2022-11-06T15:17:25.000Z</time>
      </trkpt>
      <trkpt lat="43.52062" lon="6.88525">
        <ele>80.1</ele>
        <time>2022-11-06T15:17:34.000Z</time>
      </trkpt>
      <trkpt lat="43.5206" lon="6.88538">
        <ele>80.3</ele>
        <time>2022-11-06T15:17:42.000Z</time>
      </trkpt>
      <trkpt lat="43.52063" lon="6.8855">
        <ele>80.1</ele>
        <time>2022-11-06T15:17:51.000Z</time>
      </trkpt>
      <trkpt lat="43.52064" lon="6.88561">
        <ele>80.1</ele>
        <time>2022-11-06T15:18:01.000Z</time>
      </trkpt>
      <trkpt lat="43.52064" lon="6.88561">
        <ele>80</ele>
        <time>2022-11-06T15:18:03.000Z</time>
      </trkpt>
      <trkpt lat="43.52063" lon="6.88562">
        <ele>80.1</ele>
        <time>2022-11-06T15:18:05.000Z</time>
      </trkpt>
      <trkpt lat="43.52063" lon="6.88563">
        <ele>80</ele>
        <time>2022-11-06T15:18:08.000Z</time>
      </trkpt>
      <trkpt lat="43.52062" lon="6.88575">
        <ele>79.3</ele>
        <time>2022-11-06T15:18:17.000Z</time>
      </trkpt>
      <trkpt lat="43.52063" lon="6.88589">
        <ele>79.4</ele>
        <time>2022-11-06T15:18:27.000Z</time>
      </trkpt>
      <trkpt lat="43.52064" lon="6.88602">
        <ele>79.2</ele>
        <time>2022-11-06T15:18:40.000Z</time>
      </trkpt>
      <trkpt lat="43.52058" lon="6.88612">
        <ele>79.1</ele>
        <time>2022-11-06T15:18:51.000Z</time>
      </trkpt>
      <trkpt lat="43.52052" lon="6.88621">
        <ele>79</ele>
        <time>2022-11-06T15:19:00.000Z</time>
      </trkpt>
      <trkpt lat="43.52045" lon="6.88629">
        <ele>79.4</ele>
        <time>2022-11-06T15:19:10.000Z</time>
      </trkpt>
      <trkpt lat="43.52037" lon="6.88637">
        <ele>79.7</ele>
        <time>2022-11-06T15:19:19.000Z</time>
      </trkpt>
      <trkpt lat="43.52029" lon="6.88645">
        <ele>80.3</ele>
        <time>2022-11-06T15:19:29.000Z</time>
      </trkpt>
      <trkpt lat="43.52021" lon="6.88652">
        <ele>80.8</ele>
        <time>2022-11-06T15:19:38.000Z</time>
      </trkpt>
      <trkpt lat="43.52016" lon="6.88664">
        <ele>80.7</ele>
        <time>2022-11-06T15:19:47.000Z</time>
      </trkpt>
      <trkpt lat="43.52015" lon="6.88677">
        <ele>80.5</ele>
        <time>2022-11-06T15:19:55.000Z</time>
      </trkpt>
      <trkpt lat="43.52019" lon="6.88689">
        <ele>80.4</ele>
        <time>2022-11-06T15:20:02.000Z</time>
      </trkpt>
      <trkpt lat="43.52024" lon="6.887">
        <ele>80.1</ele>
        <time>2022-11-06T15:20:10.000Z</time>
      </trkpt>
      <trkpt lat="43.52032" lon="6.88708">
        <ele>79.7</ele>
        <time>2022-11-06T15:20:19.000Z</time>
      </trkpt>
      <trkpt lat="43.52039" lon="6.88717">
        <ele>79.1</ele>
        <time>2022-11-06T15:20:27.000Z</time>
      </trkpt>
      <trkpt lat="43.52044" lon="6.88727">
        <ele>79.4</ele>
        <time>2022-11-06T15:20:36.000Z</time>
      </trkpt>
      <trkpt lat="43.52048" lon="6.88739">
        <ele>79.2</ele>
        <time>2022-11-06T15:20:47.000Z</time>
      </trkpt>
      <trkpt lat="43.52049" lon="6.88752">
        <ele>79.6</ele>
        <time>2022-11-06T15:20:58.000Z</time>
      </trkpt>
      <trkpt lat="43.52051" lon="6.88765">
        <ele>79.6</ele>
        <time>2022-11-06T15:21:08.000Z</time>
      </trkpt>
      <trkpt lat="43.52053" lon="6.88777">
        <ele>79.1</ele>
        <time>2022-11-06T15:21:17.000Z</time>
      </trkpt>
      <trkpt lat="43.52058" lon="6.88788">
        <ele>78.7</ele>
        <time>2022-11-06T15:21:25.000Z</time>
      </trkpt>
      <trkpt lat="43.52064" lon="6.88799">
        <ele>78.1</ele>
        <time>2022-11-06T15:21:34.000Z</time>
      </trkpt>
      <trkpt lat="43.52069" lon="6.88809">
        <ele>78</ele>
        <time>2022-11-06T15:21:42.000Z</time>
      </trkpt>
      <trkpt lat="43.52071" lon="6.88821">
        <ele>77.7</ele>
        <time>2022-11-06T15:21:51.000Z</time>
      </trkpt>
      <trkpt lat="43.52073" lon="6.88833">
        <ele>77.6</ele>
        <time>2022-11-06T15:21:59.000Z</time>
      </trkpt>
      <trkpt lat="43.52076" lon="6.88847">
        <ele>77.5</ele>
        <time>2022-11-06T15:22:09.000Z</time>
      </trkpt>
      <trkpt lat="43.52077" lon="6.8886">
        <ele>77</ele>
        <time>2022-11-06T15:22:18.000Z</time>
      </trkpt>
      <trkpt lat="43.52081" lon="6.88871">
        <ele>76.3</ele>
        <time>2022-11-06T15:22:26.000Z</time>
      </trkpt>
      <trkpt lat="43.52085" lon="6.88883">
        <ele>74.8</ele>
        <time>2022-11-06T15:22:37.000Z</time>
      </trkpt>
      <trkpt lat="43.5209" lon="6.88894">
        <ele>73.5</ele>
        <time>2022-11-06T15:22:48.000Z</time>
      </trkpt>
      <trkpt lat="43.52095" lon="6.88905">
        <ele>72.5</ele>
        <time>2022-11-06T15:23:00.000Z</time>
      </trkpt>
      <trkpt lat="43.52097" lon="6.88918">
        <ele>72.1</ele>
        <time>2022-11-06T15:23:08.000Z</time>
      </trkpt>
      <trkpt lat="43.521" lon="6.8893">
        <ele>71</ele>
        <time>2022-11-06T15:23:18.000Z</time>
      </trkpt>
      <trkpt lat="43.52104" lon="6.88942">
        <ele>70.2</ele>
        <time>2022-11-06T15:23:27.000Z</time>
      </trkpt>
      <trkpt lat="43.52106" lon="6.88955">
        <ele>69.8</ele>
        <time>2022-11-06T15:23:37.000Z</time>
      </trkpt>
      <trkpt lat="43.52107" lon="6.8896">
        <ele>69.6</ele>
        <time>2022-11-06T15:23:46.000Z</time>
      </trkpt>
      <trkpt lat="43.52107" lon="6.88961">
        <ele>69.8</ele>
        <time>2022-11-06T15:23:55.000Z</time>
      </trkpt>
      <trkpt lat="43.52108" lon="6.88962">
        <ele>69.5</ele>
        <time>2022-11-06T15:24:00.000Z</time>
      </trkpt>
      <trkpt lat="43.52108" lon="6.88962">
        <ele>69.5</ele>
        <time>2022-11-06T15:24:01.000Z</time>
      </trkpt>
      <trkpt lat="43.52108" lon="6.88962">
        <ele>69.5</ele>
        <time>2022-11-06T15:24:02.000Z</time>
      </trkpt>
      <trkpt lat="43.52108" lon="6.88962">
        <ele>69.5</ele>
        <time>2022-11-06T15:24:03.000Z</time>
      </trkpt>
      <trkpt lat="43.52108" lon="6.88975">
        <ele>68.7</ele>
        <time>2022-11-06T15:24:15.000Z</time>
      </trkpt>
      <trkpt lat="43.52109" lon="6.88977">
        <ele>68.6</ele>
        <time>2022-11-06T15:24:19.000Z</time>
      </trkpt>
      <trkpt lat="43.52109" lon="6.88978">
        <ele>68.3</ele>
        <time>2022-11-06T15:24:25.000Z</time>
      </trkpt>
      <trkpt lat="43.52113" lon="6.8899">
        <ele>67.4</ele>
        <time>2022-11-06T15:24:34.000Z</time>
      </trkpt>
      <trkpt lat="43.52116" lon="6.89002">
        <ele>66.6</ele>
        <time>2022-11-06T15:24:43.000Z</time>
      </trkpt>
      <trkpt lat="43.52118" lon="6.89015">
        <ele>66.2</ele>
        <time>2022-11-06T15:24:55.000Z</time>
      </trkpt>
      <trkpt lat="43.5212" lon="6.89028">
        <ele>65.6</ele>
        <time>2022-11-06T15:25:06.000Z</time>
      </trkpt>
      <trkpt lat="43.52124" lon="6.8904">
        <ele>65.4</ele>
        <time>2022-11-06T15:25:16.000Z</time>
      </trkpt>
      <trkpt lat="43.52126" lon="6.89054">
        <ele>65.5</ele>
        <time>2022-11-06T15:25:26.000Z</time>
      </trkpt>
      <trkpt lat="43.52128" lon="6.89066">
        <ele>65.1</ele>
        <time>2022-11-06T15:25:35.000Z</time>
      </trkpt>
      <trkpt lat="43.52132" lon="6.89078">
        <ele>65.3</ele>
        <time>2022-11-06T15:25:45.000Z</time>
      </trkpt>
      <trkpt lat="43.52133" lon="6.8909">
        <ele>65.4</ele>
        <time>2022-11-06T15:25:55.000Z</time>
      </trkpt>
      <trkpt lat="43.52136" lon="6.89103">
        <ele>65.2</ele>
        <time>2022-11-06T15:26:05.000Z</time>
      </trkpt>
      <trkpt lat="43.52135" lon="6.89115">
        <ele>64.1</ele>
        <time>2022-11-06T15:26:16.000Z</time>
      </trkpt>
      <trkpt lat="43.52133" lon="6.89127">
        <ele>63.7</ele>
        <time>2022-11-06T15:26:26.000Z</time>
      </trkpt>
      <trkpt lat="43.52132" lon="6.89141">
        <ele>63.3</ele>
        <time>2022-11-06T15:26:34.000Z</time>
      </trkpt>
      <trkpt lat="43.5213" lon="6.89153">
        <ele>63</ele>
        <time>2022-11-06T15:26:44.000Z</time>
      </trkpt>
      <trkpt lat="43.5213" lon="6.89166">
        <ele>62.4</ele>
        <time>2022-11-06T15:26:54.000Z</time>
      </trkpt>
      <trkpt lat="43.52129" lon="6.89178">
        <ele>62.5</ele>
        <time>2022-11-06T15:27:02.000Z</time>
      </trkpt>
      <trkpt lat="43.52128" lon="6.89191">
        <ele>62.2</ele>
        <time>2022-11-06T15:27:10.000Z</time>
      </trkpt>
      <trkpt lat="43.52126" lon="6.89204">
        <ele>61.9</ele>
        <time>2022-11-06T15:27:20.000Z</time>
      </trkpt>
      <trkpt lat="43.52127" lon="6.89218">
        <ele>61.8</ele>
        <time>2022-11-06T15:27:33.000Z</time>
      </trkpt>
      <trkpt lat="43.52131" lon="6.89229">
        <ele>61.3</ele>
        <time>2022-11-06T15:27:42.000Z</time>
      </trkpt>
      <trkpt lat="43.52132" lon="6.89242">
        <ele>61.3</ele>
        <time>2022-11-06T15:27:51.000Z</time>
      </trkpt>
      <trkpt lat="43.52134" lon="6.89256">
        <ele>61.1</ele>
        <time>2022-11-06T15:28:00.000Z</time>
      </trkpt>
      <trkpt lat="43.52135" lon="6.89268">
        <ele>60.9</ele>
        <time>2022-11-06T15:28:09.000Z</time>
      </trkpt>
      <trkpt lat="43.52138" lon="6.89281">
        <ele>60.6</ele>
        <time>2022-11-06T15:28:18.000Z</time>
      </trkpt>
      <trkpt lat="43.52144" lon="6.89291">
        <ele>60.3</ele>
        <time>2022-11-06T15:28:27.000Z</time>
      </trkpt>
      <trkpt lat="43.5215" lon="6.89301">
        <ele>59.9</ele>
        <time>2022-11-06T15:28:36.000Z</time>
      </trkpt>
      <trkpt lat="43.52154" lon="6.89314">
        <ele>59.8</ele>
        <time>2022-11-06T15:28:48.000Z</time>
      </trkpt>
      <trkpt lat="43.52159" lon="6.89325">
        <ele>59.6</ele>
        <time>2022-11-06T15:28:58.000Z</time>
      </trkpt>
      <trkpt lat="43.52166" lon="6.89333">
        <ele>59.3</ele>
        <time>2022-11-06T15:29:07.000Z</time>
      </trkpt>
      <trkpt lat="43.52174" lon="6.8934">
        <ele>59.6</ele>
        <time>2022-11-06T15:29:17.000Z</time>
      </trkpt>
      <trkpt lat="43.5218" lon="6.8935">
        <ele>59.5</ele>
        <time>2022-11-06T15:29:27.000Z</time>
      </trkpt>
      <trkpt lat="43.52185" lon="6.8936">
        <ele>59.4</ele>
        <time>2022-11-06T15:29:36.000Z</time>
      </trkpt>
      <trkpt lat="43.52191" lon="6.8937">
        <ele>58.6</ele>
        <time>2022-11-06T15:29:47.000Z</time>
      </trkpt>
      <trkpt lat="43.52195" lon="6.89383">
        <ele>57.8</ele>
        <time>2022-11-06T15:29:55.000Z</time>
      </trkpt>
      <trkpt lat="43.52198" lon="6.89395">
        <ele>57.7</ele>
        <time>2022-11-06T15:30:03.000Z</time>
      </trkpt>
      <trkpt lat="43.52202" lon="6.89407">
        <ele>57.5</ele>
        <time>2022-11-06T15:30:12.000Z</time>
      </trkpt>
      <trkpt lat="43.52207" lon="6.89417">
        <ele>57.1</ele>
        <time>2022-11-06T15:30:21.000Z</time>
      </trkpt>
      <trkpt lat="43.52209" lon="6.8943">
        <ele>56.6</ele>
        <time>2022-11-06T15:30:32.000Z</time>
      </trkpt>
      <trkpt lat="43.52214" lon="6.8944">
        <ele>56.6</ele>
        <time>2022-11-06T15:30:41.000Z</time>
      </trkpt>
      <trkpt lat="43.52219" lon="6.89452">
        <ele>56.6</ele>
        <time>2022-11-06T15:30:51.000Z</time>
      </trkpt>
      <trkpt lat="43.52226" lon="6.89461">
        <ele>56.9</ele>
        <time>2022-11-06T15:31:04.000Z</time>
      </trkpt>
      <trkpt lat="43.52234" lon="6.89469">
        <ele>56.9</ele>
        <time>2022-11-06T15:31:16.000Z</time>
      </trkpt>
      <trkpt lat="43.52235" lon="6.8947">
        <ele>57</ele>
        <time>2022-11-06T15:31:19.000Z</time>
      </trkpt>
      <trkpt lat="43.52235" lon="6.8947">
        <ele>57.1</ele>
        <time>2022-11-06T15:31:20.000Z</time>
      </trkpt>
      <trkpt lat="43.52244" lon="6.89476">
        <ele>57.6</ele>
        <time>2022-11-06T15:31:30.000Z</time>
      </trkpt>
      <trkpt lat="43.5225" lon="6.89486">
        <ele>57.3</ele>
        <time>2022-11-06T15:31:40.000Z</time>
      </trkpt>
      <trkpt lat="43.52249" lon="6.89499">
        <ele>57.4</ele>
        <time>2022-11-06T15:31:49.000Z</time>
      </trkpt>
      <trkpt lat="43.52253" lon="6.89511">
        <ele>57.1</ele>
        <time>2022-11-06T15:32:00.000Z</time>
      </trkpt>
      <trkpt lat="43.52259" lon="6.89522">
        <ele>57.1</ele>
        <time>2022-11-06T15:32:08.000Z</time>
      </trkpt>
      <trkpt lat="43.52266" lon="6.8953">
        <ele>57.3</ele>
        <time>2022-11-06T15:32:17.000Z</time>
      </trkpt>
      <trkpt lat="43.52274" lon="6.89537">
        <ele>57.1</ele>
        <time>2022-11-06T15:32:26.000Z</time>
      </trkpt>
      <trkpt lat="43.52283" lon="6.89538">
        <ele>56.9</ele>
        <time>2022-11-06T15:32:35.000Z</time>
      </trkpt>
      <trkpt lat="43.52292" lon="6.89535">
        <ele>57</ele>
        <time>2022-11-06T15:32:41.000Z</time>
      </trkpt>
      <trkpt lat="43.52302" lon="6.89533">
        <ele>56.6</ele>
        <time>2022-11-06T15:32:54.000Z</time>
      </trkpt>
      <trkpt lat="43.52309" lon="6.89524">
        <ele>56.2</ele>
        <time>2022-11-06T15:33:02.000Z</time>
      </trkpt>
      <trkpt lat="43.52312" lon="6.89512">
        <ele>56.1</ele>
        <time>2022-11-06T15:33:14.000Z</time>
      </trkpt>
      <trkpt lat="43.52314" lon="6.89499">
        <ele>56.8</ele>
        <time>2022-11-06T15:33:27.000Z</time>
      </trkpt>
      <trkpt lat="43.52309" lon="6.89492">
        <ele>57</ele>
        <time>2022-11-06T15:33:41.000Z</time>
      </trkpt>
      <trkpt lat="43.52309" lon="6.89492">
        <ele>57.2</ele>
        <time>2022-11-06T15:33:46.000Z</time>
      </trkpt>
      <trkpt lat="43.52309" lon="6.89491">
        <ele>57.1</ele>
        <time>2022-11-06T15:33:48.000Z</time>
      </trkpt>
      <trkpt lat="43.52309" lon="6.89491">
        <ele>57.2</ele>
        <time>2022-11-06T15:33:52.000Z</time>
      </trkpt>
      <trkpt lat="43.52309" lon="6.89491">
        <ele>57.2</ele>
        <time>2022-11-06T15:33:53.000Z</time>
      </trkpt>
      <trkpt lat="43.52309" lon="6.89491">
        <ele>57.1</ele>
        <time>2022-11-06T15:33:59.000Z</time>
      </trkpt>
      <trkpt lat="43.52309" lon="6.89491">
        <ele>57.2</ele>
        <time>2022-11-06T15:34:00.000Z</time>
      </trkpt>
      <trkpt lat="43.52309" lon="6.89491">
        <ele>57.4</ele>
        <time>2022-11-06T15:34:01.000Z</time>
      </trkpt>
      <trkpt lat="43.52309" lon="6.89491">
        <ele>57.4</ele>
        <time>2022-11-06T15:34:02.000Z</time>
      </trkpt>
      <trkpt lat="43.52309" lon="6.89491">
        <ele>57.1</ele>
        <time>2022-11-06T15:34:06.000Z</time>
      </trkpt>
      <trkpt lat="43.52309" lon="6.89491">
        <ele>57.3</ele>
        <time>2022-11-06T15:34:07.000Z</time>
      </trkpt>
      <trkpt lat="43.52309" lon="6.89491">
        <ele>57.3</ele>
        <time>2022-11-06T15:34:13.000Z</time>
      </trkpt>
      <trkpt lat="43.52309" lon="6.89491">
        <ele>57</ele>
        <time>2022-11-06T15:34:21.000Z</time>
      </trkpt>
      <trkpt lat="43.52308" lon="6.89491">
        <ele>56.9</ele>
        <time>2022-11-06T15:34:22.000Z</time>
      </trkpt>
      <trkpt lat="43.52308" lon="6.89491">
        <ele>57</ele>
        <time>2022-11-06T15:34:24.000Z</time>
      </trkpt>
      <trkpt lat="43.52308" lon="6.89491">
        <ele>57</ele>
        <time>2022-11-06T15:34:25.000Z</time>
      </trkpt>
      <trkpt lat="43.52308" lon="6.89491">
        <ele>57.1</ele>
        <time>2022-11-06T15:34:26.000Z</time>
      </trkpt>
      <trkpt lat="43.52308" lon="6.89491">
        <ele>57.2</ele>
        <time>2022-11-06T15:34:32.000Z</time>
      </trkpt>
      <trkpt lat="43.52308" lon="6.89491">
        <ele>57.2</ele>
        <time>2022-11-06T15:34:33.000Z</time>
      </trkpt>
      <trkpt lat="43.52308" lon="6.89492">
        <ele>57.1</ele>
        <time>2022-11-06T15:34:43.000Z</time>
      </trkpt>
      <trkpt lat="43.52308" lon="6.89492">
        <ele>57.2</ele>
        <time>2022-11-06T15:34:45.000Z</time>
      </trkpt>
      <trkpt lat="43.52307" lon="6.89492">
        <ele>57.1</ele>
        <time>2022-11-06T15:34:49.000Z</time>
      </trkpt>
      <trkpt lat="43.52307" lon="6.89492">
        <ele>57.2</ele>
        <time>2022-11-06T15:34:50.000Z</time>
      </trkpt>
      <trkpt lat="43.52307" lon="6.89492">
        <ele>57.2</ele>
        <time>2022-11-06T15:34:51.000Z</time>
      </trkpt>
      <trkpt lat="43.52307" lon="6.89492">
        <ele>57.2</ele>
        <time>2022-11-06T15:34:52.000Z</time>
      </trkpt>
      <trkpt lat="43.52307" lon="6.89492">
        <ele>57</ele>
        <time>2022-11-06T15:35:04.000Z</time>
      </trkpt>
      <trkpt lat="43.52307" lon="6.89492">
        <ele>57</ele>
        <time>2022-11-06T15:35:07.000Z</time>
      </trkpt>
      <trkpt lat="43.52307" lon="6.89491">
        <ele>57.1</ele>
        <time>2022-11-06T15:35:13.000Z</time>
      </trkpt>
      <trkpt lat="43.52307" lon="6.89492">
        <ele>57.1</ele>
        <time>2022-11-06T15:35:17.000Z</time>
      </trkpt>
      <trkpt lat="43.52307" lon="6.89493">
        <ele>57.1</ele>
        <time>2022-11-06T15:35:20.000Z</time>
      </trkpt>
      <trkpt lat="43.52307" lon="6.89493">
        <ele>57.1</ele>
        <time>2022-11-06T15:35:22.000Z</time>
      </trkpt>
      <trkpt lat="43.52307" lon="6.89493">
        <ele>57</ele>
        <time>2022-11-06T15:35:24.000Z</time>
      </trkpt>
      <trkpt lat="43.52307" lon="6.89494">
        <ele>56.9</ele>
        <time>2022-11-06T15:35:28.000Z</time>
      </trkpt>
      <trkpt lat="43.52308" lon="6.89494">
        <ele>56.9</ele>
        <time>2022-11-06T15:35:29.000Z</time>
      </trkpt>
      <trkpt lat="43.52308" lon="6.89494">
        <ele>56.8</ele>
        <time>2022-11-06T15:35:30.000Z</time>
      </trkpt>
      <trkpt lat="43.52307" lon="6.89494">
        <ele>56.7</ele>
        <time>2022-11-06T15:35:36.000Z</time>
      </trkpt>
      <trkpt lat="43.52304" lon="6.89492">
        <ele>57.3</ele>
        <time>2022-11-06T15:35:46.000Z</time>
      </trkpt>
      <trkpt lat="43.52304" lon="6.89492">
        <ele>57.3</ele>
        <time>2022-11-06T15:35:49.000Z</time>
      </trkpt>
      <trkpt lat="43.52304" lon="6.89492">
        <ele>57.1</ele>
        <time>2022-11-06T15:35:50.000Z</time>
      </trkpt>
      <trkpt lat="43.52304" lon="6.89493">
        <ele>57.1</ele>
        <time>2022-11-06T15:36:03.000Z</time>
      </trkpt>
      <trkpt lat="43.52304" lon="6.89493">
        <ele>57</ele>
        <time>2022-11-06T15:36:04.000Z</time>
      </trkpt>
      <trkpt lat="43.52304" lon="6.89493">
        <ele>57</ele>
        <time>2022-11-06T15:36:06.000Z</time>
      </trkpt>
      <trkpt lat="43.52305" lon="6.89493">
        <ele>57.2</ele>
        <time>2022-11-06T15:36:10.000Z</time>
      </trkpt>
      <trkpt lat="43.52305" lon="6.89494">
        <ele>56.8</ele>
        <time>2022-11-06T15:36:14.000Z</time>
      </trkpt>
      <trkpt lat="43.52306" lon="6.89494">
        <ele>57.2</ele>
        <time>2022-11-06T15:36:19.000Z</time>
      </trkpt>
      <trkpt lat="43.52306" lon="6.89494">
        <ele>57.2</ele>
        <time>2022-11-06T15:36:31.000Z</time>
      </trkpt>
      <trkpt lat="43.52306" lon="6.89494">
        <ele>57</ele>
        <time>2022-11-06T15:36:32.000Z</time>
      </trkpt>
      <trkpt lat="43.52306" lon="6.89495">
        <ele>57</ele>
        <time>2022-11-06T15:37:12.000Z</time>
      </trkpt>
      <trkpt lat="43.52306" lon="6.89495">
        <ele>57.1</ele>
        <time>2022-11-06T15:37:14.000Z</time>
      </trkpt>
      <trkpt lat="43.52306" lon="6.89495">
        <ele>57</ele>
        <time>2022-11-06T15:37:17.000Z</time>
      </trkpt>
      <trkpt lat="43.52305" lon="6.89495">
        <ele>57.2</ele>
        <time>2022-11-06T15:37:19.000Z</time>
      </trkpt>
      <trkpt lat="43.52306" lon="6.89495">
        <ele>57.1</ele>
        <time>2022-11-06T15:37:24.000Z</time>
      </trkpt>
      <trkpt lat="43.52307" lon="6.89495">
        <ele>57.4</ele>
        <time>2022-11-06T15:37:27.000Z</time>
      </trkpt>
      <trkpt lat="43.52307" lon="6.89495">
        <ele>57.2</ele>
        <time>2022-11-06T15:37:29.000Z</time>
      </trkpt>
      <trkpt lat="43.52307" lon="6.89495">
        <ele>57.2</ele>
        <time>2022-11-06T15:37:30.000Z</time>
      </trkpt>
      <trkpt lat="43.52307" lon="6.89496">
        <ele>57</ele>
        <time>2022-11-06T15:37:40.000Z</time>
      </trkpt>
      <trkpt lat="43.52308" lon="6.89495">
        <ele>57.1</ele>
        <time>2022-11-06T15:37:44.000Z</time>
      </trkpt>
      <trkpt lat="43.52307" lon="6.89495">
        <ele>57</ele>
        <time>2022-11-06T15:37:49.000Z</time>
      </trkpt>
      <trkpt lat="43.52307" lon="6.89495">
        <ele>57</ele>
        <time>2022-11-06T15:37:50.000Z</time>
      </trkpt>
      <trkpt lat="43.52307" lon="6.89495">
        <ele>57</ele>
        <time>2022-11-06T15:37:53.000Z</time>
      </trkpt>
      <trkpt lat="43.52307" lon="6.89495">
        <ele>57</ele>
        <time>2022-11-06T15:37:54.000Z</time>
      </trkpt>
      <trkpt lat="43.52307" lon="6.89495">
        <ele>57</ele>
        <time>2022-11-06T15:37:56.000Z</time>
      </trkpt>
      <trkpt lat="43.52307" lon="6.89494">
        <ele>57</ele>
        <time>2022-11-06T15:38:00.000Z</time>
      </trkpt>
      <trkpt lat="43.52307" lon="6.89494">
        <ele>56.9</ele>
        <time>2022-11-06T15:38:02.000Z</time>
      </trkpt>
      <trkpt lat="43.52308" lon="6.89494">
        <ele>57.1</ele>
        <time>2022-11-06T15:38:04.000Z</time>
      </trkpt>
      <trkpt lat="43.52307" lon="6.89494">
        <ele>57.1</ele>
        <time>2022-11-06T15:38:05.000Z</time>
      </trkpt>
      <trkpt lat="43.52307" lon="6.89494">
        <ele>57.1</ele>
        <time>2022-11-06T15:38:06.000Z</time>
      </trkpt>
      <trkpt lat="43.52307" lon="6.89493">
        <ele>57</ele>
        <time>2022-11-06T15:38:07.000Z</time>
      </trkpt>
      <trkpt lat="43.52307" lon="6.89493">
        <ele>57</ele>
        <time>2022-11-06T15:38:09.000Z</time>
      </trkpt>
      <trkpt lat="43.52307" lon="6.89493">
        <ele>57.1</ele>
        <time>2022-11-06T15:38:10.000Z</time>
      </trkpt>
      <trkpt lat="43.52307" lon="6.89493">
        <ele>57.3</ele>
        <time>2022-11-06T15:38:11.000Z</time>
      </trkpt>
      <trkpt lat="43.52307" lon="6.89493">
        <ele>57.2</ele>
        <time>2022-11-06T15:38:13.000Z</time>
      </trkpt>
      <trkpt lat="43.52305" lon="6.89493">
        <ele>57.1</ele>
        <time>2022-11-06T15:38:18.000Z</time>
      </trkpt>
      <trkpt lat="43.52305" lon="6.89493">
        <ele>57.5</ele>
        <time>2022-11-06T15:38:25.000Z</time>
      </trkpt>
      <trkpt lat="43.52306" lon="6.89492">
        <ele>57.5</ele>
        <time>2022-11-06T15:38:27.000Z</time>
      </trkpt>
      <trkpt lat="43.52306" lon="6.89492">
        <ele>57.4</ele>
        <time>2022-11-06T15:38:35.000Z</time>
      </trkpt>
      <trkpt lat="43.52306" lon="6.89492">
        <ele>57.1</ele>
        <time>2022-11-06T15:38:37.000Z</time>
      </trkpt>
      <trkpt lat="43.52306" lon="6.89493">
        <ele>57</ele>
        <time>2022-11-06T15:38:39.000Z</time>
      </trkpt>
      <trkpt lat="43.52306" lon="6.89493">
        <ele>57.2</ele>
        <time>2022-11-06T15:38:40.000Z</time>
      </trkpt>
      <trkpt lat="43.52307" lon="6.89493">
        <ele>57.3</ele>
        <time>2022-11-06T15:38:44.000Z</time>
      </trkpt>
      <trkpt lat="43.52309" lon="6.895">
        <ele>56.8</ele>
        <time>2022-11-06T15:38:57.000Z</time>
      </trkpt>
      <trkpt lat="43.52309" lon="6.895">
        <ele>57.1</ele>
        <time>2022-11-06T15:39:04.000Z</time>
      </trkpt>
      <trkpt lat="43.52309" lon="6.895">
        <ele>57.1</ele>
        <time>2022-11-06T15:39:05.000Z</time>
      </trkpt>
      <trkpt lat="43.52309" lon="6.89499">
        <ele>57.1</ele>
        <time>2022-11-06T15:39:13.000Z</time>
      </trkpt>
      <trkpt lat="43.52309" lon="6.89499">
        <ele>57.1</ele>
        <time>2022-11-06T15:39:14.000Z</time>
      </trkpt>
      <trkpt lat="43.52309" lon="6.89499">
        <ele>56.6</ele>
        <time>2022-11-06T15:39:32.000Z</time>
      </trkpt>
      <trkpt lat="43.52305" lon="6.89495">
        <ele>57.9</ele>
        <time>2022-11-06T15:39:42.000Z</time>
      </trkpt>
      <trkpt lat="43.52305" lon="6.89495">
        <ele>58.2</ele>
        <time>2022-11-06T15:39:48.000Z</time>
      </trkpt>
      <trkpt lat="43.52305" lon="6.89495">
        <ele>58.2</ele>
        <time>2022-11-06T15:39:48.000Z</time>
      </trkpt>
    </trkseg>
  </trk>
</gpx>